<?xml version="1.0" encoding="UTF-8" standalone="no" ?>
<gpx xmlns="http://www.topografix.com/GPX/1/1" xmlns:xsi="http://www.w3.org/2001/XMLSchema-instance" xsi:schemaLocation="http://www.topografix.com/GPX/1/1 http://www.topografix.com/GPX/1/1/gpx.xsd" version="1.1" creator="VisuGPX - https://www.visugpx.com">
  <metadata>
    <name>Sortie Férices ...</name>
    <desc><![CDATA[Sortie Trail cirque des Férices, col de la perrière, col de la perche, grand chat, champet ...]]></desc>
  </metadata>
  <trk>
    <name><![CDATA[Sortie Férices ..._1]]></name>
    <trkseg>
      <trkpt lat="45.42833" lon="6.12383">
        <ele>871.53918457031</ele>
        <time>2010-08-04T11:53:47Z</time>
      </trkpt>
      <trkpt lat="45.42828" lon="6.12389">
        <ele>871.84130859375</ele>
        <time>2010-08-04T11:53:53Z</time>
      </trkpt>
      <trkpt lat="45.42826" lon="6.1239">
        <ele>871.92614746094</ele>
        <time>2010-08-04T11:53:54Z</time>
      </trkpt>
      <trkpt lat="45.42813" lon="6.12394">
        <ele>873.11096191406</ele>
        <time>2010-08-04T11:54:03Z</time>
      </trkpt>
      <trkpt lat="45.42801" lon="6.12392">
        <ele>874.81604003906</ele>
        <time>2010-08-04T11:54:10Z</time>
      </trkpt>
      <trkpt lat="45.428" lon="6.12392">
        <ele>875.14392089844</ele>
        <time>2010-08-04T11:54:11Z</time>
      </trkpt>
      <trkpt lat="45.42794" lon="6.12391">
        <ele>875.99194335938</ele>
        <time>2010-08-04T11:54:15Z</time>
      </trkpt>
      <trkpt lat="45.42788" lon="6.12382">
        <ele>877.63006591797</ele>
        <time>2010-08-04T11:54:23Z</time>
      </trkpt>
      <trkpt lat="45.42786" lon="6.1238">
        <ele>877.89819335938</ele>
        <time>2010-08-04T11:54:24Z</time>
      </trkpt>
      <trkpt lat="45.4278" lon="6.12368">
        <ele>880.046875</ele>
        <time>2010-08-04T11:54:33Z</time>
      </trkpt>
      <trkpt lat="45.42774" lon="6.12357">
        <ele>881.75964355469</ele>
        <time>2010-08-04T11:54:39Z</time>
      </trkpt>
      <trkpt lat="45.42769" lon="6.12341">
        <ele>883.60241699219</ele>
        <time>2010-08-04T11:54:47Z</time>
      </trkpt>
      <trkpt lat="45.42762" lon="6.12322">
        <ele>885.10266113281</ele>
        <time>2010-08-04T11:54:55Z</time>
      </trkpt>
      <trkpt lat="45.42756" lon="6.12308">
        <ele>885.95611572266</ele>
        <time>2010-08-04T11:55:03Z</time>
      </trkpt>
      <trkpt lat="45.42746" lon="6.12294">
        <ele>888.02099609375</ele>
        <time>2010-08-04T11:55:12Z</time>
      </trkpt>
      <trkpt lat="45.42736" lon="6.12283">
        <ele>890.32171630859</ele>
        <time>2010-08-04T11:55:19Z</time>
      </trkpt>
      <trkpt lat="45.42727" lon="6.12274">
        <ele>892.77575683594</ele>
        <time>2010-08-04T11:55:27Z</time>
      </trkpt>
      <trkpt lat="45.42715" lon="6.12263">
        <ele>895.00244140625</ele>
        <time>2010-08-04T11:55:36Z</time>
      </trkpt>
      <trkpt lat="45.42708" lon="6.12253">
        <ele>896.14227294922</ele>
        <time>2010-08-04T11:55:43Z</time>
      </trkpt>
      <trkpt lat="45.42706" lon="6.1225">
        <ele>896.44097900391</ele>
        <time>2010-08-04T11:55:49Z</time>
      </trkpt>
      <trkpt lat="45.42703" lon="6.12242">
        <ele>896.79803466797</ele>
        <time>2010-08-04T11:55:54Z</time>
      </trkpt>
      <trkpt lat="45.427" lon="6.12235">
        <ele>897.20831298828</ele>
        <time>2010-08-04T11:55:58Z</time>
      </trkpt>
      <trkpt lat="45.42699" lon="6.12232">
        <ele>897.42626953125</ele>
        <time>2010-08-04T11:56:02Z</time>
      </trkpt>
      <trkpt lat="45.42694" lon="6.12216">
        <ele>898.07415771484</ele>
        <time>2010-08-04T11:56:12Z</time>
      </trkpt>
      <trkpt lat="45.42693" lon="6.12215">
        <ele>898.19201660156</ele>
        <time>2010-08-04T11:56:20Z</time>
      </trkpt>
      <trkpt lat="45.42694" lon="6.12214">
        <ele>897.70092773438</ele>
        <time>2010-08-04T11:56:35Z</time>
      </trkpt>
      <trkpt lat="45.42695" lon="6.12214">
        <ele>897.51898193359</ele>
        <time>2010-08-04T11:56:43Z</time>
      </trkpt>
      <trkpt lat="45.42698" lon="6.12216">
        <ele>897.01776123047</ele>
        <time>2010-08-04T11:56:58Z</time>
      </trkpt>
      <trkpt lat="45.42699" lon="6.1222">
        <ele>896.93188476562</ele>
        <time>2010-08-04T11:57:04Z</time>
      </trkpt>
      <trkpt lat="45.42698" lon="6.12223">
        <ele>897.28210449219</ele>
        <time>2010-08-04T11:57:13Z</time>
      </trkpt>
      <trkpt lat="45.42704" lon="6.12239">
        <ele>896.61950683594</ele>
        <time>2010-08-04T11:57:19Z</time>
      </trkpt>
      <trkpt lat="45.42712" lon="6.12259">
        <ele>895.43505859375</ele>
        <time>2010-08-04T11:57:26Z</time>
      </trkpt>
      <trkpt lat="45.42723" lon="6.1227">
        <ele>893.61248779297</ele>
        <time>2010-08-04T11:57:32Z</time>
      </trkpt>
      <trkpt lat="45.42733" lon="6.12283">
        <ele>891.26336669922</ele>
        <time>2010-08-04T11:57:38Z</time>
      </trkpt>
      <trkpt lat="45.42741" lon="6.12295">
        <ele>889.1494140625</ele>
        <time>2010-08-04T11:57:43Z</time>
      </trkpt>
      <trkpt lat="45.42752" lon="6.12312">
        <ele>886.64373779297</ele>
        <time>2010-08-04T11:57:50Z</time>
      </trkpt>
      <trkpt lat="45.42763" lon="6.12334">
        <ele>885.10089111328</ele>
        <time>2010-08-04T11:57:58Z</time>
      </trkpt>
      <trkpt lat="45.42771" lon="6.12351">
        <ele>882.52020263672</ele>
        <time>2010-08-04T11:58:05Z</time>
      </trkpt>
      <trkpt lat="45.42774" lon="6.12368">
        <ele>880.63598632812</ele>
        <time>2010-08-04T11:58:12Z</time>
      </trkpt>
      <trkpt lat="45.42775" lon="6.12378">
        <ele>879.40002441406</ele>
        <time>2010-08-04T11:58:17Z</time>
      </trkpt>
      <trkpt lat="45.42769" lon="6.12377">
        <ele>880.16735839844</ele>
        <time>2010-08-04T11:58:23Z</time>
      </trkpt>
      <trkpt lat="45.4277" lon="6.12375">
        <ele>880.33215332031</ele>
        <time>2010-08-04T11:58:26Z</time>
      </trkpt>
      <trkpt lat="45.42776" lon="6.12378">
        <ele>879.38452148438</ele>
        <time>2010-08-04T11:58:30Z</time>
      </trkpt>
      <trkpt lat="45.42784" lon="6.12389">
        <ele>877.24505615234</ele>
        <time>2010-08-04T11:58:36Z</time>
      </trkpt>
      <trkpt lat="45.42785" lon="6.12391">
        <ele>876.93780517578</ele>
        <time>2010-08-04T11:58:37Z</time>
      </trkpt>
      <trkpt lat="45.42781" lon="6.12383">
        <ele>878.31634521484</ele>
        <time>2010-08-04T11:58:42Z</time>
      </trkpt>
      <trkpt lat="45.42771" lon="6.12378">
        <ele>879.87890625</ele>
        <time>2010-08-04T11:58:49Z</time>
      </trkpt>
      <trkpt lat="45.4277" lon="6.12378">
        <ele>880.06433105469</ele>
        <time>2010-08-04T11:58:50Z</time>
      </trkpt>
      <trkpt lat="45.42761" lon="6.12372">
        <ele>881.58355712891</ele>
        <time>2010-08-04T11:58:58Z</time>
      </trkpt>
      <trkpt lat="45.42756" lon="6.12368">
        <ele>882.61865234375</ele>
        <time>2010-08-04T11:59:03Z</time>
      </trkpt>
      <trkpt lat="45.42743" lon="6.12362">
        <ele>884.89019775391</ele>
        <time>2010-08-04T11:59:11Z</time>
      </trkpt>
      <trkpt lat="45.42734" lon="6.12357">
        <ele>886.79772949219</ele>
        <time>2010-08-04T11:59:18Z</time>
      </trkpt>
      <trkpt lat="45.42728" lon="6.12352">
        <ele>888.04571533203</ele>
        <time>2010-08-04T11:59:23Z</time>
      </trkpt>
      <trkpt lat="45.42723" lon="6.12352">
        <ele>888.88171386719</ele>
        <time>2010-08-04T11:59:27Z</time>
      </trkpt>
      <trkpt lat="45.42718" lon="6.12352">
        <ele>889.72381591797</ele>
        <time>2010-08-04T11:59:31Z</time>
      </trkpt>
      <trkpt lat="45.42707" lon="6.12349">
        <ele>891.78332519531</ele>
        <time>2010-08-04T11:59:39Z</time>
      </trkpt>
      <trkpt lat="45.42701" lon="6.12352">
        <ele>892.49322509766</ele>
        <time>2010-08-04T11:59:44Z</time>
      </trkpt>
      <trkpt lat="45.42692" lon="6.12352">
        <ele>894.24340820312</ele>
        <time>2010-08-04T11:59:53Z</time>
      </trkpt>
      <trkpt lat="45.4269" lon="6.12351">
        <ele>894.87170410156</ele>
        <time>2010-08-04T12:00:00Z</time>
      </trkpt>
      <trkpt lat="45.42691" lon="6.12342">
        <ele>895.14636230469</ele>
        <time>2010-08-04T12:00:18Z</time>
      </trkpt>
      <trkpt lat="45.42689" lon="6.12343">
        <ele>895.66821289062</ele>
        <time>2010-08-04T12:00:19Z</time>
      </trkpt>
      <trkpt lat="45.42681" lon="6.12347">
        <ele>897.4775390625</ele>
        <time>2010-08-04T12:00:26Z</time>
      </trkpt>
      <trkpt lat="45.42679" lon="6.12346">
        <ele>898.037109375</ele>
        <time>2010-08-04T12:00:29Z</time>
      </trkpt>
      <trkpt lat="45.42674" lon="6.12342">
        <ele>899.52716064453</ele>
        <time>2010-08-04T12:00:36Z</time>
      </trkpt>
      <trkpt lat="45.42673" lon="6.12342">
        <ele>899.67822265625</ele>
        <time>2010-08-04T12:00:44Z</time>
      </trkpt>
      <trkpt lat="45.42673" lon="6.12339">
        <ele>899.94256591797</ele>
        <time>2010-08-04T12:00:51Z</time>
      </trkpt>
      <trkpt lat="45.42666" lon="6.12339">
        <ele>901.68139648438</ele>
        <time>2010-08-04T12:00:59Z</time>
      </trkpt>
      <trkpt lat="45.42657" lon="6.12339">
        <ele>904.31451416016</ele>
        <time>2010-08-04T12:01:06Z</time>
      </trkpt>
      <trkpt lat="45.42651" lon="6.12336">
        <ele>906.35931396484</ele>
        <time>2010-08-04T12:01:12Z</time>
      </trkpt>
      <trkpt lat="45.42648" lon="6.12335">
        <ele>907.16979980469</ele>
        <time>2010-08-04T12:01:14Z</time>
      </trkpt>
      <trkpt lat="45.42644" lon="6.12335">
        <ele>908.34283447266</ele>
        <time>2010-08-04T12:01:18Z</time>
      </trkpt>
      <trkpt lat="45.42633" lon="6.12336">
        <ele>911.2548828125</ele>
        <time>2010-08-04T12:01:26Z</time>
      </trkpt>
      <trkpt lat="45.42626" lon="6.12336">
        <ele>912.93707275391</ele>
        <time>2010-08-04T12:01:33Z</time>
      </trkpt>
      <trkpt lat="45.42616" lon="6.12336">
        <ele>915.45837402344</ele>
        <time>2010-08-04T12:01:43Z</time>
      </trkpt>
      <trkpt lat="45.42613" lon="6.12337">
        <ele>916.15759277344</ele>
        <time>2010-08-04T12:01:46Z</time>
      </trkpt>
      <trkpt lat="45.42607" lon="6.1234">
        <ele>917.63452148438</ele>
        <time>2010-08-04T12:01:53Z</time>
      </trkpt>
      <trkpt lat="45.426" lon="6.12344">
        <ele>919.49194335938</ele>
        <time>2010-08-04T12:02:00Z</time>
      </trkpt>
      <trkpt lat="45.42593" lon="6.12346">
        <ele>921.17419433594</ele>
        <time>2010-08-04T12:02:07Z</time>
      </trkpt>
      <trkpt lat="45.42586" lon="6.12346">
        <ele>923.3955078125</ele>
        <time>2010-08-04T12:02:16Z</time>
      </trkpt>
      <trkpt lat="45.42583" lon="6.12343">
        <ele>924.38671875</ele>
        <time>2010-08-04T12:02:22Z</time>
      </trkpt>
      <trkpt lat="45.42583" lon="6.12341">
        <ele>924.62359619141</ele>
        <time>2010-08-04T12:02:23Z</time>
      </trkpt>
      <trkpt lat="45.42581" lon="6.12334">
        <ele>925.67645263672</ele>
        <time>2010-08-04T12:02:28Z</time>
      </trkpt>
      <trkpt lat="45.42579" lon="6.12328">
        <ele>926.87316894531</ele>
        <time>2010-08-04T12:02:31Z</time>
      </trkpt>
      <trkpt lat="45.42577" lon="6.1232">
        <ele>928.24334716797</ele>
        <time>2010-08-04T12:02:39Z</time>
      </trkpt>
      <trkpt lat="45.42576" lon="6.12323">
        <ele>928.31262207031</ele>
        <time>2010-08-04T12:02:45Z</time>
      </trkpt>
      <trkpt lat="45.42574" lon="6.12321">
        <ele>928.97204589844</ele>
        <time>2010-08-04T12:02:52Z</time>
      </trkpt>
      <trkpt lat="45.42574" lon="6.12321">
        <ele>928.99200439453</ele>
        <time>2010-08-04T12:02:54Z</time>
      </trkpt>
      <trkpt lat="45.42568" lon="6.12323">
        <ele>930.89141845703</ele>
        <time>2010-08-04T12:03:03Z</time>
      </trkpt>
      <trkpt lat="45.42565" lon="6.12323">
        <ele>932.00610351562</ele>
        <time>2010-08-04T12:03:11Z</time>
      </trkpt>
      <trkpt lat="45.42561" lon="6.12326">
        <ele>932.87689208984</ele>
        <time>2010-08-04T12:03:17Z</time>
      </trkpt>
      <trkpt lat="45.42558" lon="6.12331">
        <ele>933.4970703125</ele>
        <time>2010-08-04T12:03:26Z</time>
      </trkpt>
      <trkpt lat="45.42554" lon="6.12333">
        <ele>934.66534423828</ele>
        <time>2010-08-04T12:03:31Z</time>
      </trkpt>
      <trkpt lat="45.42555" lon="6.12335">
        <ele>933.88134765625</ele>
        <time>2010-08-04T12:03:36Z</time>
      </trkpt>
      <trkpt lat="45.42558" lon="6.12339">
        <ele>932.76708984375</ele>
        <time>2010-08-04T12:03:42Z</time>
      </trkpt>
      <trkpt lat="45.42554" lon="6.12342">
        <ele>933.38848876953</ele>
        <time>2010-08-04T12:03:45Z</time>
      </trkpt>
      <trkpt lat="45.42545" lon="6.12345">
        <ele>936.38323974609</ele>
        <time>2010-08-04T12:03:53Z</time>
      </trkpt>
      <trkpt lat="45.42535" lon="6.12349">
        <ele>939.41107177734</ele>
        <time>2010-08-04T12:04:00Z</time>
      </trkpt>
      <trkpt lat="45.42529" lon="6.12349">
        <ele>941.47082519531</ele>
        <time>2010-08-04T12:04:08Z</time>
      </trkpt>
      <trkpt lat="45.42525" lon="6.12352">
        <ele>942.17980957031</ele>
        <time>2010-08-04T12:04:14Z</time>
      </trkpt>
      <trkpt lat="45.42518" lon="6.12348">
        <ele>943.72821044922</ele>
        <time>2010-08-04T12:04:20Z</time>
      </trkpt>
      <trkpt lat="45.42514" lon="6.12342">
        <ele>944.80621337891</ele>
        <time>2010-08-04T12:04:24Z</time>
      </trkpt>
      <trkpt lat="45.42514" lon="6.12337">
        <ele>945.30749511719</ele>
        <time>2010-08-04T12:04:27Z</time>
      </trkpt>
      <trkpt lat="45.42508" lon="6.1233">
        <ele>946.72424316406</ele>
        <time>2010-08-04T12:04:32Z</time>
      </trkpt>
      <trkpt lat="45.42505" lon="6.12325">
        <ele>947.58618164062</ele>
        <time>2010-08-04T12:04:35Z</time>
      </trkpt>
      <trkpt lat="45.42503" lon="6.12322">
        <ele>948.19171142578</ele>
        <time>2010-08-04T12:04:38Z</time>
      </trkpt>
      <trkpt lat="45.42503" lon="6.12315">
        <ele>948.76617431641</ele>
        <time>2010-08-04T12:04:42Z</time>
      </trkpt>
      <trkpt lat="45.42495" lon="6.12306">
        <ele>951.95733642578</ele>
        <time>2010-08-04T12:04:50Z</time>
      </trkpt>
      <trkpt lat="45.42493" lon="6.12304">
        <ele>952.86108398438</ele>
        <time>2010-08-04T12:04:52Z</time>
      </trkpt>
      <trkpt lat="45.42485" lon="6.12295">
        <ele>956.4541015625</ele>
        <time>2010-08-04T12:05:01Z</time>
      </trkpt>
      <trkpt lat="45.42485" lon="6.12295">
        <ele>956.62994384766</ele>
        <time>2010-08-04T12:05:02Z</time>
      </trkpt>
      <trkpt lat="45.42479" lon="6.12294">
        <ele>958.69671630859</ele>
        <time>2010-08-04T12:05:10Z</time>
      </trkpt>
      <trkpt lat="45.42477" lon="6.12292">
        <ele>959.53625488281</ele>
        <time>2010-08-04T12:05:22Z</time>
      </trkpt>
      <trkpt lat="45.42475" lon="6.12298">
        <ele>960.31341552734</ele>
        <time>2010-08-04T12:05:28Z</time>
      </trkpt>
      <trkpt lat="45.42471" lon="6.12301">
        <ele>961.52130126953</ele>
        <time>2010-08-04T12:05:32Z</time>
      </trkpt>
      <trkpt lat="45.42469" lon="6.12304">
        <ele>961.98992919922</ele>
        <time>2010-08-04T12:05:34Z</time>
      </trkpt>
      <trkpt lat="45.4246" lon="6.12316">
        <ele>963.60229492188</ele>
        <time>2010-08-04T12:05:42Z</time>
      </trkpt>
      <trkpt lat="45.42451" lon="6.12326">
        <ele>965.44378662109</ele>
        <time>2010-08-04T12:05:50Z</time>
      </trkpt>
      <trkpt lat="45.42442" lon="6.12337">
        <ele>967.29956054688</ele>
        <time>2010-08-04T12:05:57Z</time>
      </trkpt>
      <trkpt lat="45.42441" lon="6.12338">
        <ele>967.43225097656</ele>
        <time>2010-08-04T12:05:58Z</time>
      </trkpt>
      <trkpt lat="45.42439" lon="6.12349">
        <ele>967.04644775391</ele>
        <time>2010-08-04T12:06:07Z</time>
      </trkpt>
      <trkpt lat="45.42437" lon="6.12352">
        <ele>967.18896484375</ele>
        <time>2010-08-04T12:06:09Z</time>
      </trkpt>
      <trkpt lat="45.42432" lon="6.12366">
        <ele>966.84906005859</ele>
        <time>2010-08-04T12:06:16Z</time>
      </trkpt>
      <trkpt lat="45.42429" lon="6.12377">
        <ele>966.72888183594</ele>
        <time>2010-08-04T12:06:22Z</time>
      </trkpt>
      <trkpt lat="45.42423" lon="6.12385">
        <ele>967.06878662109</ele>
        <time>2010-08-04T12:06:27Z</time>
      </trkpt>
      <trkpt lat="45.42417" lon="6.12392">
        <ele>967.55975341797</ele>
        <time>2010-08-04T12:06:32Z</time>
      </trkpt>
      <trkpt lat="45.42406" lon="6.12399">
        <ele>968.65637207031</ele>
        <time>2010-08-04T12:06:39Z</time>
      </trkpt>
      <trkpt lat="45.42391" lon="6.12405">
        <ele>970.35656738281</ele>
        <time>2010-08-04T12:06:47Z</time>
      </trkpt>
      <trkpt lat="45.42384" lon="6.12404">
        <ele>971.96984863281</ele>
        <time>2010-08-04T12:06:52Z</time>
      </trkpt>
      <trkpt lat="45.42378" lon="6.12404">
        <ele>973.05480957031</ele>
        <time>2010-08-04T12:06:56Z</time>
      </trkpt>
      <trkpt lat="45.42372" lon="6.12405">
        <ele>974.359375</ele>
        <time>2010-08-04T12:07:00Z</time>
      </trkpt>
      <trkpt lat="45.42364" lon="6.1241">
        <ele>975.33447265625</ele>
        <time>2010-08-04T12:07:03Z</time>
      </trkpt>
      <trkpt lat="45.42347" lon="6.12423">
        <ele>977.25708007812</ele>
        <time>2010-08-04T12:07:10Z</time>
      </trkpt>
      <trkpt lat="45.42344" lon="6.12425">
        <ele>977.59350585938</ele>
        <time>2010-08-04T12:07:11Z</time>
      </trkpt>
      <trkpt lat="45.42336" lon="6.12432">
        <ele>978.3076171875</ele>
        <time>2010-08-04T12:07:15Z</time>
      </trkpt>
      <trkpt lat="45.42326" lon="6.12444">
        <ele>978.67883300781</ele>
        <time>2010-08-04T12:07:21Z</time>
      </trkpt>
      <trkpt lat="45.42319" lon="6.12449">
        <ele>979.44055175781</ele>
        <time>2010-08-04T12:07:25Z</time>
      </trkpt>
      <trkpt lat="45.42306" lon="6.12452">
        <ele>981.80950927734</ele>
        <time>2010-08-04T12:07:29Z</time>
      </trkpt>
      <trkpt lat="45.4229" lon="6.12456">
        <ele>986.31701660156</ele>
        <time>2010-08-04T12:07:35Z</time>
      </trkpt>
      <trkpt lat="45.42285" lon="6.12458">
        <ele>987.64868164062</ele>
        <time>2010-08-04T12:07:38Z</time>
      </trkpt>
      <trkpt lat="45.42279" lon="6.12465">
        <ele>988.21960449219</ele>
        <time>2010-08-04T12:07:42Z</time>
      </trkpt>
      <trkpt lat="45.42271" lon="6.12473">
        <ele>989.66320800781</ele>
        <time>2010-08-04T12:07:46Z</time>
      </trkpt>
      <trkpt lat="45.42263" lon="6.12484">
        <ele>991.47937011719</ele>
        <time>2010-08-04T12:07:52Z</time>
      </trkpt>
      <trkpt lat="45.42258" lon="6.12493">
        <ele>991.81756591797</ele>
        <time>2010-08-04T12:07:57Z</time>
      </trkpt>
      <trkpt lat="45.42257" lon="6.12495">
        <ele>991.7265625</ele>
        <time>2010-08-04T12:07:58Z</time>
      </trkpt>
      <trkpt lat="45.42244" lon="6.12508">
        <ele>994.73974609375</ele>
        <time>2010-08-04T12:08:06Z</time>
      </trkpt>
      <trkpt lat="45.42235" lon="6.12517">
        <ele>996.91125488281</ele>
        <time>2010-08-04T12:08:12Z</time>
      </trkpt>
      <trkpt lat="45.42226" lon="6.12526">
        <ele>999.00891113281</ele>
        <time>2010-08-04T12:08:17Z</time>
      </trkpt>
      <trkpt lat="45.42212" lon="6.12539">
        <ele>1005.1766357422</ele>
        <time>2010-08-04T12:08:24Z</time>
      </trkpt>
      <trkpt lat="45.42205" lon="6.12547">
        <ele>1007.872253418</ele>
        <time>2010-08-04T12:08:28Z</time>
      </trkpt>
      <trkpt lat="45.42189" lon="6.12565">
        <ele>1011.7169799805</ele>
        <time>2010-08-04T12:08:36Z</time>
      </trkpt>
      <trkpt lat="45.42178" lon="6.1258">
        <ele>1012.6232910156</ele>
        <time>2010-08-04T12:08:42Z</time>
      </trkpt>
      <trkpt lat="45.42173" lon="6.12595">
        <ele>1015.021484375</ele>
        <time>2010-08-04T12:08:48Z</time>
      </trkpt>
      <trkpt lat="45.42175" lon="6.12599">
        <ele>1014.1955566406</ele>
        <time>2010-08-04T12:08:51Z</time>
      </trkpt>
      <trkpt lat="45.42183" lon="6.12607">
        <ele>1011.9977416992</ele>
        <time>2010-08-04T12:08:57Z</time>
      </trkpt>
      <trkpt lat="45.42187" lon="6.12611">
        <ele>1010.6705322266</ele>
        <time>2010-08-04T12:08:59Z</time>
      </trkpt>
      <trkpt lat="45.42197" lon="6.12623">
        <ele>1008.6676635742</ele>
        <time>2010-08-04T12:09:04Z</time>
      </trkpt>
      <trkpt lat="45.42203" lon="6.1263">
        <ele>1006.7282104492</ele>
        <time>2010-08-04T12:09:07Z</time>
      </trkpt>
      <trkpt lat="45.42209" lon="6.12646">
        <ele>1006.9309692383</ele>
        <time>2010-08-04T12:09:15Z</time>
      </trkpt>
      <trkpt lat="45.42209" lon="6.12653">
        <ele>1008.2012329102</ele>
        <time>2010-08-04T12:09:19Z</time>
      </trkpt>
      <trkpt lat="45.42208" lon="6.12662">
        <ele>1010.067199707</ele>
        <time>2010-08-04T12:09:25Z</time>
      </trkpt>
      <trkpt lat="45.42212" lon="6.12666">
        <ele>1009.4183349609</ele>
        <time>2010-08-04T12:09:29Z</time>
      </trkpt>
      <trkpt lat="45.42213" lon="6.1267">
        <ele>1009.4973144531</ele>
        <time>2010-08-04T12:09:31Z</time>
      </trkpt>
      <trkpt lat="45.42215" lon="6.12682">
        <ele>1010.7229614258</ele>
        <time>2010-08-04T12:09:37Z</time>
      </trkpt>
      <trkpt lat="45.42218" lon="6.12691">
        <ele>1011.2774047852</ele>
        <time>2010-08-04T12:09:41Z</time>
      </trkpt>
      <trkpt lat="45.42224" lon="6.12704">
        <ele>1011.141784668</ele>
        <time>2010-08-04T12:09:48Z</time>
      </trkpt>
      <trkpt lat="45.42225" lon="6.1272">
        <ele>1014.1818237305</ele>
        <time>2010-08-04T12:09:55Z</time>
      </trkpt>
      <trkpt lat="45.42226" lon="6.12733">
        <ele>1015.684387207</ele>
        <time>2010-08-04T12:10:01Z</time>
      </trkpt>
      <trkpt lat="45.42227" lon="6.12746">
        <ele>1017.4885864258</ele>
        <time>2010-08-04T12:10:07Z</time>
      </trkpt>
      <trkpt lat="45.42229" lon="6.12753">
        <ele>1017.5682983398</ele>
        <time>2010-08-04T12:10:10Z</time>
      </trkpt>
      <trkpt lat="45.42229" lon="6.12764">
        <ele>1019.377746582</ele>
        <time>2010-08-04T12:10:16Z</time>
      </trkpt>
      <trkpt lat="45.42229" lon="6.12779">
        <ele>1021.7856445312</ele>
        <time>2010-08-04T12:10:23Z</time>
      </trkpt>
      <trkpt lat="45.42229" lon="6.12783">
        <ele>1022.4566040039</ele>
        <time>2010-08-04T12:10:25Z</time>
      </trkpt>
      <trkpt lat="45.42236" lon="6.12797">
        <ele>1020.9259643555</ele>
        <time>2010-08-04T12:10:31Z</time>
      </trkpt>
      <trkpt lat="45.42244" lon="6.12811">
        <ele>1018.4495239258</ele>
        <time>2010-08-04T12:10:37Z</time>
      </trkpt>
      <trkpt lat="45.42255" lon="6.12825">
        <ele>1014.1027832031</ele>
        <time>2010-08-04T12:10:43Z</time>
      </trkpt>
      <trkpt lat="45.42256" lon="6.12827">
        <ele>1013.6375732422</ele>
        <time>2010-08-04T12:10:44Z</time>
      </trkpt>
      <trkpt lat="45.42259" lon="6.12831">
        <ele>1012.5749511719</ele>
        <time>2010-08-04T12:10:47Z</time>
      </trkpt>
      <trkpt lat="45.42255" lon="6.12846">
        <ele>1017.6976318359</ele>
        <time>2010-08-04T12:10:54Z</time>
      </trkpt>
      <trkpt lat="45.42253" lon="6.12855">
        <ele>1019.8430175781</ele>
        <time>2010-08-04T12:10:58Z</time>
      </trkpt>
      <trkpt lat="45.42253" lon="6.12871">
        <ele>1022.3255004883</ele>
        <time>2010-08-04T12:11:05Z</time>
      </trkpt>
      <trkpt lat="45.4226" lon="6.12887">
        <ele>1019.6470947266</ele>
        <time>2010-08-04T12:11:10Z</time>
      </trkpt>
      <trkpt lat="45.42263" lon="6.12909">
        <ele>1021.0344238281</ele>
        <time>2010-08-04T12:11:18Z</time>
      </trkpt>
      <trkpt lat="45.42262" lon="6.12925">
        <ele>1024.5129394531</ele>
        <time>2010-08-04T12:11:24Z</time>
      </trkpt>
      <trkpt lat="45.42264" lon="6.12934">
        <ele>1024.9405517578</ele>
        <time>2010-08-04T12:11:28Z</time>
      </trkpt>
      <trkpt lat="45.42262" lon="6.12943">
        <ele>1027.3708496094</ele>
        <time>2010-08-04T12:11:32Z</time>
      </trkpt>
      <trkpt lat="45.4226" lon="6.12955">
        <ele>1029.5913085938</ele>
        <time>2010-08-04T12:11:36Z</time>
      </trkpt>
      <trkpt lat="45.4226" lon="6.12973">
        <ele>1031.8728027344</ele>
        <time>2010-08-04T12:11:42Z</time>
      </trkpt>
      <trkpt lat="45.42255" lon="6.12998">
        <ele>1037.8354492188</ele>
        <time>2010-08-04T12:11:51Z</time>
      </trkpt>
      <trkpt lat="45.42252" lon="6.13012">
        <ele>1040.0288085938</ele>
        <time>2010-08-04T12:11:56Z</time>
      </trkpt>
      <trkpt lat="45.42249" lon="6.13019">
        <ele>1041.4642333984</ele>
        <time>2010-08-04T12:11:59Z</time>
      </trkpt>
      <trkpt lat="45.42248" lon="6.13024">
        <ele>1041.9107666016</ele>
        <time>2010-08-04T12:12:02Z</time>
      </trkpt>
      <trkpt lat="45.42245" lon="6.13032">
        <ele>1042.5850830078</ele>
        <time>2010-08-04T12:12:07Z</time>
      </trkpt>
      <trkpt lat="45.42241" lon="6.13039">
        <ele>1043.9197998047</ele>
        <time>2010-08-04T12:12:13Z</time>
      </trkpt>
      <trkpt lat="45.42237" lon="6.13048">
        <ele>1044.4582519531</ele>
        <time>2010-08-04T12:12:17Z</time>
      </trkpt>
      <trkpt lat="45.42233" lon="6.13057">
        <ele>1044.7916259766</ele>
        <time>2010-08-04T12:12:22Z</time>
      </trkpt>
      <trkpt lat="45.42229" lon="6.13066">
        <ele>1044.7658691406</ele>
        <time>2010-08-04T12:12:27Z</time>
      </trkpt>
      <trkpt lat="45.42223" lon="6.13081">
        <ele>1045.0061035156</ele>
        <time>2010-08-04T12:12:35Z</time>
      </trkpt>
      <trkpt lat="45.42219" lon="6.1309">
        <ele>1044.8375244141</ele>
        <time>2010-08-04T12:12:40Z</time>
      </trkpt>
      <trkpt lat="45.4222" lon="6.131">
        <ele>1042.9598388672</ele>
        <time>2010-08-04T12:12:46Z</time>
      </trkpt>
      <trkpt lat="45.42205" lon="6.13126">
        <ele>1039.9866943359</ele>
        <time>2010-08-04T12:12:55Z</time>
      </trkpt>
      <trkpt lat="45.42202" lon="6.13132">
        <ele>1039.1259765625</ele>
        <time>2010-08-04T12:12:57Z</time>
      </trkpt>
      <trkpt lat="45.42198" lon="6.13135">
        <ele>1038.5882568359</ele>
        <time>2010-08-04T12:13:01Z</time>
      </trkpt>
      <trkpt lat="45.42186" lon="6.1314">
        <ele>1038.2469482422</ele>
        <time>2010-08-04T12:13:07Z</time>
      </trkpt>
      <trkpt lat="45.42167" lon="6.13144">
        <ele>1038.5838623047</ele>
        <time>2010-08-04T12:13:12Z</time>
      </trkpt>
      <trkpt lat="45.42152" lon="6.13148">
        <ele>1037.9321289062</ele>
        <time>2010-08-04T12:13:17Z</time>
      </trkpt>
      <trkpt lat="45.42132" lon="6.13152">
        <ele>1035.9063720703</ele>
        <time>2010-08-04T12:13:24Z</time>
      </trkpt>
      <trkpt lat="45.42117" lon="6.13164">
        <ele>1029.1612548828</ele>
        <time>2010-08-04T12:13:31Z</time>
      </trkpt>
      <trkpt lat="45.42108" lon="6.13169">
        <ele>1025.5456542969</ele>
        <time>2010-08-04T12:13:35Z</time>
      </trkpt>
      <trkpt lat="45.42091" lon="6.1317">
        <ele>1022.4017333984</ele>
        <time>2010-08-04T12:13:41Z</time>
      </trkpt>
      <trkpt lat="45.42081" lon="6.13169">
        <ele>1021.0022583008</ele>
        <time>2010-08-04T12:13:46Z</time>
      </trkpt>
      <trkpt lat="45.42072" lon="6.13165">
        <ele>1020.762878418</ele>
        <time>2010-08-04T12:13:50Z</time>
      </trkpt>
      <trkpt lat="45.42056" lon="6.13148">
        <ele>1024.0137939453</ele>
        <time>2010-08-04T12:13:57Z</time>
      </trkpt>
      <trkpt lat="45.42051" lon="6.13141">
        <ele>1025.7872314453</ele>
        <time>2010-08-04T12:14:00Z</time>
      </trkpt>
      <trkpt lat="45.42035" lon="6.13132">
        <ele>1027.8254394531</ele>
        <time>2010-08-04T12:14:05Z</time>
      </trkpt>
      <trkpt lat="45.42019" lon="6.13122">
        <ele>1029.783203125</ele>
        <time>2010-08-04T12:14:10Z</time>
      </trkpt>
      <trkpt lat="45.42007" lon="6.13116">
        <ele>1030.4880371094</ele>
        <time>2010-08-04T12:14:16Z</time>
      </trkpt>
      <trkpt lat="45.42" lon="6.13116">
        <ele>1029.9007568359</ele>
        <time>2010-08-04T12:14:21Z</time>
      </trkpt>
      <trkpt lat="45.41998" lon="6.13113">
        <ele>1030.275390625</ele>
        <time>2010-08-04T12:14:26Z</time>
      </trkpt>
      <trkpt lat="45.41997" lon="6.13116">
        <ele>1029.4892578125</ele>
        <time>2010-08-04T12:14:30Z</time>
      </trkpt>
      <trkpt lat="45.4199" lon="6.13126">
        <ele>1026.0170898438</ele>
        <time>2010-08-04T12:14:39Z</time>
      </trkpt>
      <trkpt lat="45.41992" lon="6.13123">
        <ele>1026.9431152344</ele>
        <time>2010-08-04T12:14:49Z</time>
      </trkpt>
      <trkpt lat="45.42018" lon="6.13116">
        <ele>1031.4739990234</ele>
        <time>2010-08-04T12:15:23Z</time>
      </trkpt>
      <trkpt lat="45.42024" lon="6.1312">
        <ele>1030.9588623047</ele>
        <time>2010-08-04T12:15:26Z</time>
      </trkpt>
      <trkpt lat="45.42039" lon="6.13123">
        <ele>1031.2907714844</ele>
        <time>2010-08-04T12:15:32Z</time>
      </trkpt>
      <trkpt lat="45.4204" lon="6.13133">
        <ele>1027.9119873047</ele>
        <time>2010-08-04T12:15:38Z</time>
      </trkpt>
      <trkpt lat="45.4205" lon="6.13139">
        <ele>1026.4221191406</ele>
        <time>2010-08-04T12:15:44Z</time>
      </trkpt>
      <trkpt lat="45.42058" lon="6.13148">
        <ele>1024.3522949219</ele>
        <time>2010-08-04T12:15:49Z</time>
      </trkpt>
      <trkpt lat="45.42064" lon="6.13157">
        <ele>1022.1454467773</ele>
        <time>2010-08-04T12:15:54Z</time>
      </trkpt>
      <trkpt lat="45.4207" lon="6.1316">
        <ele>1022.0217895508</ele>
        <time>2010-08-04T12:15:58Z</time>
      </trkpt>
      <trkpt lat="45.42076" lon="6.13161">
        <ele>1022.7305908203</ele>
        <time>2010-08-04T12:16:04Z</time>
      </trkpt>
      <trkpt lat="45.42082" lon="6.13164">
        <ele>1022.8524169922</ele>
        <time>2010-08-04T12:16:08Z</time>
      </trkpt>
      <trkpt lat="45.42088" lon="6.13163">
        <ele>1024.2794189453</ele>
        <time>2010-08-04T12:16:12Z</time>
      </trkpt>
      <trkpt lat="45.42094" lon="6.13162">
        <ele>1025.9068603516</ele>
        <time>2010-08-04T12:16:18Z</time>
      </trkpt>
      <trkpt lat="45.42102" lon="6.13163">
        <ele>1026.9114990234</ele>
        <time>2010-08-04T12:16:25Z</time>
      </trkpt>
      <trkpt lat="45.42116" lon="6.13163">
        <ele>1029.4195556641</ele>
        <time>2010-08-04T12:16:32Z</time>
      </trkpt>
      <trkpt lat="45.42118" lon="6.13162">
        <ele>1030.0040283203</ele>
        <time>2010-08-04T12:16:33Z</time>
      </trkpt>
      <trkpt lat="45.42123" lon="6.13162">
        <ele>1031.0666503906</ele>
        <time>2010-08-04T12:16:35Z</time>
      </trkpt>
      <trkpt lat="45.42126" lon="6.1316">
        <ele>1032.3167724609</ele>
        <time>2010-08-04T12:16:37Z</time>
      </trkpt>
      <trkpt lat="45.42141" lon="6.13158">
        <ele>1035.5850830078</ele>
        <time>2010-08-04T12:16:43Z</time>
      </trkpt>
      <trkpt lat="45.42148" lon="6.13161">
        <ele>1034.5263671875</ele>
        <time>2010-08-04T12:16:46Z</time>
      </trkpt>
      <trkpt lat="45.42152" lon="6.13164">
        <ele>1033.8142089844</ele>
        <time>2010-08-04T12:16:48Z</time>
      </trkpt>
      <trkpt lat="45.42164" lon="6.13164">
        <ele>1033.6950683594</ele>
        <time>2010-08-04T12:16:54Z</time>
      </trkpt>
      <trkpt lat="45.42179" lon="6.13165">
        <ele>1032.9538574219</ele>
        <time>2010-08-04T12:17:00Z</time>
      </trkpt>
      <trkpt lat="45.42183" lon="6.13158">
        <ele>1034.3309326172</ele>
        <time>2010-08-04T12:17:05Z</time>
      </trkpt>
      <trkpt lat="45.42183" lon="6.13158">
        <ele>1034.525390625</ele>
        <time>2010-08-04T12:17:06Z</time>
      </trkpt>
      <trkpt lat="45.42176" lon="6.13156">
        <ele>1035.1551513672</ele>
        <time>2010-08-04T12:17:12Z</time>
      </trkpt>
      <trkpt lat="45.42171" lon="6.13157">
        <ele>1035.1958007812</ele>
        <time>2010-08-04T12:17:17Z</time>
      </trkpt>
      <trkpt lat="45.42162" lon="6.13153">
        <ele>1036.5504150391</ele>
        <time>2010-08-04T12:17:23Z</time>
      </trkpt>
      <trkpt lat="45.42151" lon="6.1315">
        <ele>1037.5650634766</ele>
        <time>2010-08-04T12:17:30Z</time>
      </trkpt>
      <trkpt lat="45.42142" lon="6.13153">
        <ele>1036.8776855469</ele>
        <time>2010-08-04T12:17:38Z</time>
      </trkpt>
      <trkpt lat="45.42139" lon="6.13155">
        <ele>1036.2606201172</ele>
        <time>2010-08-04T12:17:40Z</time>
      </trkpt>
      <trkpt lat="45.42135" lon="6.13153">
        <ele>1036.1549072266</ele>
        <time>2010-08-04T12:17:46Z</time>
      </trkpt>
      <trkpt lat="45.42132" lon="6.13152">
        <ele>1036.0810546875</ele>
        <time>2010-08-04T12:17:50Z</time>
      </trkpt>
      <trkpt lat="45.42127" lon="6.13147">
        <ele>1036.7938232422</ele>
        <time>2010-08-04T12:17:54Z</time>
      </trkpt>
      <trkpt lat="45.42113" lon="6.13134">
        <ele>1038.8531494141</ele>
        <time>2010-08-04T12:18:00Z</time>
      </trkpt>
      <trkpt lat="45.42105" lon="6.13129">
        <ele>1039.7758789062</ele>
        <time>2010-08-04T12:18:03Z</time>
      </trkpt>
      <trkpt lat="45.42092" lon="6.13123">
        <ele>1040.1702880859</ele>
        <time>2010-08-04T12:18:08Z</time>
      </trkpt>
      <trkpt lat="45.42076" lon="6.1312">
        <ele>1038.9641113281</ele>
        <time>2010-08-04T12:18:14Z</time>
      </trkpt>
      <trkpt lat="45.42071" lon="6.13115">
        <ele>1039.89453125</ele>
        <time>2010-08-04T12:18:19Z</time>
      </trkpt>
      <trkpt lat="45.42062" lon="6.13105">
        <ele>1042.3266601562</ele>
        <time>2010-08-04T12:18:25Z</time>
      </trkpt>
      <trkpt lat="45.42054" lon="6.13096">
        <ele>1044.7813720703</ele>
        <time>2010-08-04T12:18:31Z</time>
      </trkpt>
      <trkpt lat="45.42048" lon="6.13087">
        <ele>1047.5131835938</ele>
        <time>2010-08-04T12:18:37Z</time>
      </trkpt>
      <trkpt lat="45.42038" lon="6.1308">
        <ele>1048.5512695312</ele>
        <time>2010-08-04T12:18:42Z</time>
      </trkpt>
      <trkpt lat="45.42022" lon="6.13069">
        <ele>1049.9141845703</ele>
        <time>2010-08-04T12:18:48Z</time>
      </trkpt>
      <trkpt lat="45.42014" lon="6.13066">
        <ele>1049.4929199219</ele>
        <time>2010-08-04T12:18:51Z</time>
      </trkpt>
      <trkpt lat="45.42003" lon="6.13058">
        <ele>1049.7266845703</ele>
        <time>2010-08-04T12:18:58Z</time>
      </trkpt>
      <trkpt lat="45.41988" lon="6.13049">
        <ele>1050.0533447266</ele>
        <time>2010-08-04T12:19:04Z</time>
      </trkpt>
      <trkpt lat="45.41982" lon="6.13047">
        <ele>1049.6463623047</ele>
        <time>2010-08-04T12:19:09Z</time>
      </trkpt>
      <trkpt lat="45.41959" lon="6.13046">
        <ele>1044.8284912109</ele>
        <time>2010-08-04T12:19:22Z</time>
      </trkpt>
      <trkpt lat="45.41951" lon="6.13043">
        <ele>1043.8260498047</ele>
        <time>2010-08-04T12:19:27Z</time>
      </trkpt>
      <trkpt lat="45.41936" lon="6.13041">
        <ele>1042.5440673828</ele>
        <time>2010-08-04T12:19:37Z</time>
      </trkpt>
      <trkpt lat="45.4193" lon="6.13039">
        <ele>1042.5207519531</ele>
        <time>2010-08-04T12:19:41Z</time>
      </trkpt>
      <trkpt lat="45.41915" lon="6.13034">
        <ele>1043.3070068359</ele>
        <time>2010-08-04T12:19:51Z</time>
      </trkpt>
      <trkpt lat="45.41904" lon="6.13028">
        <ele>1047.2734375</ele>
        <time>2010-08-04T12:19:56Z</time>
      </trkpt>
      <trkpt lat="45.41893" lon="6.13023">
        <ele>1051.4822998047</ele>
        <time>2010-08-04T12:20:01Z</time>
      </trkpt>
      <trkpt lat="45.41882" lon="6.1302">
        <ele>1054.9987792969</ele>
        <time>2010-08-04T12:20:05Z</time>
      </trkpt>
      <trkpt lat="45.41877" lon="6.13019">
        <ele>1057.2668457031</ele>
        <time>2010-08-04T12:20:07Z</time>
      </trkpt>
      <trkpt lat="45.4186" lon="6.13018">
        <ele>1062.4578857422</ele>
        <time>2010-08-04T12:20:13Z</time>
      </trkpt>
      <trkpt lat="45.41848" lon="6.13025">
        <ele>1062.0836181641</ele>
        <time>2010-08-04T12:20:18Z</time>
      </trkpt>
      <trkpt lat="45.41835" lon="6.13033">
        <ele>1061.7062988281</ele>
        <time>2010-08-04T12:20:23Z</time>
      </trkpt>
      <trkpt lat="45.41824" lon="6.13041">
        <ele>1063.9799804688</ele>
        <time>2010-08-04T12:20:28Z</time>
      </trkpt>
      <trkpt lat="45.41814" lon="6.13046">
        <ele>1067.1934814453</ele>
        <time>2010-08-04T12:20:33Z</time>
      </trkpt>
      <trkpt lat="45.41804" lon="6.13053">
        <ele>1069.3790283203</ele>
        <time>2010-08-04T12:20:38Z</time>
      </trkpt>
      <trkpt lat="45.41802" lon="6.13055">
        <ele>1069.6556396484</ele>
        <time>2010-08-04T12:20:39Z</time>
      </trkpt>
      <trkpt lat="45.41799" lon="6.1307">
        <ele>1066.2855224609</ele>
        <time>2010-08-04T12:20:44Z</time>
      </trkpt>
      <trkpt lat="45.41785" lon="6.13074">
        <ele>1070.6938476562</ele>
        <time>2010-08-04T12:20:49Z</time>
      </trkpt>
      <trkpt lat="45.41774" lon="6.1308">
        <ele>1073.5510253906</ele>
        <time>2010-08-04T12:20:54Z</time>
      </trkpt>
      <trkpt lat="45.41764" lon="6.13083">
        <ele>1075.7745361328</ele>
        <time>2010-08-04T12:20:59Z</time>
      </trkpt>
      <trkpt lat="45.41747" lon="6.13091">
        <ele>1079.0563964844</ele>
        <time>2010-08-04T12:21:07Z</time>
      </trkpt>
      <trkpt lat="45.41742" lon="6.1309">
        <ele>1080.0114746094</ele>
        <time>2010-08-04T12:21:10Z</time>
      </trkpt>
      <trkpt lat="45.41735" lon="6.13093">
        <ele>1080.1328125</ele>
        <time>2010-08-04T12:21:15Z</time>
      </trkpt>
      <trkpt lat="45.41727" lon="6.13095">
        <ele>1080.6828613281</ele>
        <time>2010-08-04T12:21:21Z</time>
      </trkpt>
      <trkpt lat="45.41722" lon="6.13098">
        <ele>1080.8774414062</ele>
        <time>2010-08-04T12:21:26Z</time>
      </trkpt>
      <trkpt lat="45.41715" lon="6.13105">
        <ele>1080.75390625</ele>
        <time>2010-08-04T12:21:32Z</time>
      </trkpt>
      <trkpt lat="45.41711" lon="6.13108">
        <ele>1081.0147705078</ele>
        <time>2010-08-04T12:21:35Z</time>
      </trkpt>
      <trkpt lat="45.41703" lon="6.13109">
        <ele>1082.8824462891</ele>
        <time>2010-08-04T12:21:40Z</time>
      </trkpt>
      <trkpt lat="45.41692" lon="6.13111">
        <ele>1085.8212890625</ele>
        <time>2010-08-04T12:21:47Z</time>
      </trkpt>
      <trkpt lat="45.41681" lon="6.13115">
        <ele>1087.8791503906</ele>
        <time>2010-08-04T12:21:54Z</time>
      </trkpt>
      <trkpt lat="45.41671" lon="6.13114">
        <ele>1090.8627929688</ele>
        <time>2010-08-04T12:22:00Z</time>
      </trkpt>
      <trkpt lat="45.41661" lon="6.13113">
        <ele>1096.0040283203</ele>
        <time>2010-08-04T12:22:06Z</time>
      </trkpt>
      <trkpt lat="45.41651" lon="6.13113">
        <ele>1101.6345214844</ele>
        <time>2010-08-04T12:22:12Z</time>
      </trkpt>
      <trkpt lat="45.41644" lon="6.13115">
        <ele>1105.9088134766</ele>
        <time>2010-08-04T12:22:17Z</time>
      </trkpt>
      <trkpt lat="45.41637" lon="6.13117">
        <ele>1109.12890625</ele>
        <time>2010-08-04T12:22:21Z</time>
      </trkpt>
      <trkpt lat="45.4163" lon="6.13121">
        <ele>1112.3004150391</ele>
        <time>2010-08-04T12:22:27Z</time>
      </trkpt>
      <trkpt lat="45.41622" lon="6.1313">
        <ele>1114.8576660156</ele>
        <time>2010-08-04T12:22:34Z</time>
      </trkpt>
      <trkpt lat="45.41616" lon="6.13136">
        <ele>1117.4519042969</ele>
        <time>2010-08-04T12:22:40Z</time>
      </trkpt>
      <trkpt lat="45.41611" lon="6.13145">
        <ele>1118.1176757812</ele>
        <time>2010-08-04T12:22:47Z</time>
      </trkpt>
      <trkpt lat="45.41602" lon="6.13152">
        <ele>1121.0017089844</ele>
        <time>2010-08-04T12:22:53Z</time>
      </trkpt>
      <trkpt lat="45.41597" lon="6.13156">
        <ele>1122.8006591797</ele>
        <time>2010-08-04T12:22:57Z</time>
      </trkpt>
      <trkpt lat="45.41588" lon="6.13167">
        <ele>1124.4074707031</ele>
        <time>2010-08-04T12:23:05Z</time>
      </trkpt>
      <trkpt lat="45.41581" lon="6.13175">
        <ele>1126.3111572266</ele>
        <time>2010-08-04T12:23:12Z</time>
      </trkpt>
      <trkpt lat="45.41572" lon="6.13186">
        <ele>1128.4654541016</ele>
        <time>2010-08-04T12:23:19Z</time>
      </trkpt>
      <trkpt lat="45.4156" lon="6.13208">
        <ele>1130.6214599609</ele>
        <time>2010-08-04T12:23:31Z</time>
      </trkpt>
      <trkpt lat="45.41555" lon="6.13225">
        <ele>1131.2541503906</ele>
        <time>2010-08-04T12:23:40Z</time>
      </trkpt>
      <trkpt lat="45.4155" lon="6.1324">
        <ele>1132.3536376953</ele>
        <time>2010-08-04T12:23:46Z</time>
      </trkpt>
      <trkpt lat="45.41545" lon="6.13255">
        <ele>1133.6700439453</ele>
        <time>2010-08-04T12:23:53Z</time>
      </trkpt>
      <trkpt lat="45.41538" lon="6.13268">
        <ele>1136.5108642578</ele>
        <time>2010-08-04T12:24:01Z</time>
      </trkpt>
      <trkpt lat="45.41532" lon="6.13281">
        <ele>1139.3380126953</ele>
        <time>2010-08-04T12:24:08Z</time>
      </trkpt>
      <trkpt lat="45.41523" lon="6.13293">
        <ele>1142.6997070312</ele>
        <time>2010-08-04T12:24:16Z</time>
      </trkpt>
      <trkpt lat="45.41515" lon="6.13304">
        <ele>1144.9759521484</ele>
        <time>2010-08-04T12:24:23Z</time>
      </trkpt>
      <trkpt lat="45.41505" lon="6.1332">
        <ele>1146.76953125</ele>
        <time>2010-08-04T12:24:32Z</time>
      </trkpt>
      <trkpt lat="45.41499" lon="6.13328">
        <ele>1149.0548095703</ele>
        <time>2010-08-04T12:24:38Z</time>
      </trkpt>
      <trkpt lat="45.41492" lon="6.13338">
        <ele>1150.6488037109</ele>
        <time>2010-08-04T12:24:46Z</time>
      </trkpt>
      <trkpt lat="45.41486" lon="6.13359">
        <ele>1148.9324951172</ele>
        <time>2010-08-04T12:24:57Z</time>
      </trkpt>
      <trkpt lat="45.41492" lon="6.13382">
        <ele>1140.8536376953</ele>
        <time>2010-08-04T12:25:05Z</time>
      </trkpt>
      <trkpt lat="45.41492" lon="6.13399">
        <ele>1137.283203125</ele>
        <time>2010-08-04T12:25:12Z</time>
      </trkpt>
      <trkpt lat="45.41485" lon="6.1341">
        <ele>1137.7672119141</ele>
        <time>2010-08-04T12:25:19Z</time>
      </trkpt>
      <trkpt lat="45.4148" lon="6.13422">
        <ele>1137.1712646484</ele>
        <time>2010-08-04T12:25:25Z</time>
      </trkpt>
      <trkpt lat="45.41475" lon="6.13429">
        <ele>1137.8538818359</ele>
        <time>2010-08-04T12:25:30Z</time>
      </trkpt>
      <trkpt lat="45.4147" lon="6.13434">
        <ele>1138.1414794922</ele>
        <time>2010-08-04T12:25:34Z</time>
      </trkpt>
      <trkpt lat="45.41464" lon="6.13444">
        <ele>1137.15234375</ele>
        <time>2010-08-04T12:25:40Z</time>
      </trkpt>
      <trkpt lat="45.41458" lon="6.13451">
        <ele>1136.7680664062</ele>
        <time>2010-08-04T12:25:44Z</time>
      </trkpt>
      <trkpt lat="45.41449" lon="6.13463">
        <ele>1135.6776123047</ele>
        <time>2010-08-04T12:25:51Z</time>
      </trkpt>
      <trkpt lat="45.4144" lon="6.13477">
        <ele>1137.6085205078</ele>
        <time>2010-08-04T12:26:00Z</time>
      </trkpt>
      <trkpt lat="45.41435" lon="6.13487">
        <ele>1138.3166503906</ele>
        <time>2010-08-04T12:26:06Z</time>
      </trkpt>
      <trkpt lat="45.41426" lon="6.13501">
        <ele>1139.4652099609</ele>
        <time>2010-08-04T12:26:14Z</time>
      </trkpt>
      <trkpt lat="45.4142" lon="6.13509">
        <ele>1139.7489013672</ele>
        <time>2010-08-04T12:26:19Z</time>
      </trkpt>
      <trkpt lat="45.4141" lon="6.13518">
        <ele>1136.1655273438</ele>
        <time>2010-08-04T12:26:26Z</time>
      </trkpt>
      <trkpt lat="45.41402" lon="6.13519">
        <ele>1134.6903076172</ele>
        <time>2010-08-04T12:26:32Z</time>
      </trkpt>
      <trkpt lat="45.41393" lon="6.1352">
        <ele>1133.5571289062</ele>
        <time>2010-08-04T12:26:37Z</time>
      </trkpt>
      <trkpt lat="45.41393" lon="6.13529">
        <ele>1128.6655273438</ele>
        <time>2010-08-04T12:26:44Z</time>
      </trkpt>
      <trkpt lat="45.41395" lon="6.13532">
        <ele>1126.5438232422</ele>
        <time>2010-08-04T12:26:49Z</time>
      </trkpt>
      <trkpt lat="45.41377" lon="6.13522">
        <ele>1131.3233642578</ele>
        <time>2010-08-04T12:27:02Z</time>
      </trkpt>
      <trkpt lat="45.41362" lon="6.13514">
        <ele>1134.9035644531</ele>
        <time>2010-08-04T12:27:08Z</time>
      </trkpt>
      <trkpt lat="45.41353" lon="6.13509">
        <ele>1137.5134277344</ele>
        <time>2010-08-04T12:27:12Z</time>
      </trkpt>
      <trkpt lat="45.41341" lon="6.13506">
        <ele>1138.5832519531</ele>
        <time>2010-08-04T12:27:19Z</time>
      </trkpt>
      <trkpt lat="45.41336" lon="6.13504">
        <ele>1139.1721191406</ele>
        <time>2010-08-04T12:27:24Z</time>
      </trkpt>
      <trkpt lat="45.41324" lon="6.13502">
        <ele>1139.2735595703</ele>
        <time>2010-08-04T12:27:31Z</time>
      </trkpt>
      <trkpt lat="45.41319" lon="6.135">
        <ele>1139.9208984375</ele>
        <time>2010-08-04T12:27:34Z</time>
      </trkpt>
      <trkpt lat="45.41306" lon="6.13494">
        <ele>1142.6723632812</ele>
        <time>2010-08-04T12:27:39Z</time>
      </trkpt>
      <trkpt lat="45.41303" lon="6.13494">
        <ele>1142.3560791016</ele>
        <time>2010-08-04T12:27:43Z</time>
      </trkpt>
      <trkpt lat="45.41307" lon="6.13497">
        <ele>1140.8884277344</ele>
        <time>2010-08-04T12:27:45Z</time>
      </trkpt>
      <trkpt lat="45.41305" lon="6.13496">
        <ele>1141.3947753906</ele>
        <time>2010-08-04T12:27:51Z</time>
      </trkpt>
      <trkpt lat="45.41302" lon="6.13493">
        <ele>1142.8107910156</ele>
        <time>2010-08-04T12:27:58Z</time>
      </trkpt>
      <trkpt lat="45.41295" lon="6.13486">
        <ele>1146.2364501953</ele>
        <time>2010-08-04T12:28:03Z</time>
      </trkpt>
      <trkpt lat="45.41288" lon="6.1348">
        <ele>1148.9290771484</ele>
        <time>2010-08-04T12:28:09Z</time>
      </trkpt>
      <trkpt lat="45.41282" lon="6.13474">
        <ele>1151.4620361328</ele>
        <time>2010-08-04T12:28:13Z</time>
      </trkpt>
      <trkpt lat="45.41275" lon="6.1347">
        <ele>1153.0179443359</ele>
        <time>2010-08-04T12:28:16Z</time>
      </trkpt>
      <trkpt lat="45.41267" lon="6.13466">
        <ele>1154.9493408203</ele>
        <time>2010-08-04T12:28:22Z</time>
      </trkpt>
      <trkpt lat="45.41236" lon="6.1347">
        <ele>1156.4359130859</ele>
        <time>2010-08-04T12:28:51Z</time>
      </trkpt>
      <trkpt lat="45.41233" lon="6.13467">
        <ele>1158.419921875</ele>
        <time>2010-08-04T12:28:57Z</time>
      </trkpt>
      <trkpt lat="45.41224" lon="6.13464">
        <ele>1161.0983886719</ele>
        <time>2010-08-04T12:29:04Z</time>
      </trkpt>
      <trkpt lat="45.41219" lon="6.13467">
        <ele>1161.5362548828</ele>
        <time>2010-08-04T12:29:09Z</time>
      </trkpt>
      <trkpt lat="45.41203" lon="6.13471">
        <ele>1166.8900146484</ele>
        <time>2010-08-04T12:29:18Z</time>
      </trkpt>
      <trkpt lat="45.41189" lon="6.13474">
        <ele>1170.7707519531</ele>
        <time>2010-08-04T12:29:26Z</time>
      </trkpt>
      <trkpt lat="45.41181" lon="6.13479">
        <ele>1171.4978027344</ele>
        <time>2010-08-04T12:29:33Z</time>
      </trkpt>
      <trkpt lat="45.41169" lon="6.13481">
        <ele>1174.4708251953</ele>
        <time>2010-08-04T12:29:40Z</time>
      </trkpt>
      <trkpt lat="45.41163" lon="6.13489">
        <ele>1173.4331054688</ele>
        <time>2010-08-04T12:29:47Z</time>
      </trkpt>
      <trkpt lat="45.41159" lon="6.1349">
        <ele>1174.0247802734</ele>
        <time>2010-08-04T12:29:49Z</time>
      </trkpt>
      <trkpt lat="45.41141" lon="6.13486">
        <ele>1179.4855957031</ele>
        <time>2010-08-04T12:29:57Z</time>
      </trkpt>
      <trkpt lat="45.41126" lon="6.13483">
        <ele>1183.9748535156</ele>
        <time>2010-08-04T12:30:04Z</time>
      </trkpt>
      <trkpt lat="45.41116" lon="6.1348">
        <ele>1187.0439453125</ele>
        <time>2010-08-04T12:30:10Z</time>
      </trkpt>
      <trkpt lat="45.41106" lon="6.1348">
        <ele>1189.5587158203</ele>
        <time>2010-08-04T12:30:17Z</time>
      </trkpt>
      <trkpt lat="45.41103" lon="6.1348">
        <ele>1190.1707763672</ele>
        <time>2010-08-04T12:30:22Z</time>
      </trkpt>
      <trkpt lat="45.411" lon="6.13481">
        <ele>1190.7333984375</ele>
        <time>2010-08-04T12:30:26Z</time>
      </trkpt>
      <trkpt lat="45.411" lon="6.13484">
        <ele>1190.0531005859</ele>
        <time>2010-08-04T12:30:29Z</time>
      </trkpt>
      <trkpt lat="45.411" lon="6.1349">
        <ele>1188.8212890625</ele>
        <time>2010-08-04T12:30:32Z</time>
      </trkpt>
      <trkpt lat="45.41097" lon="6.13496">
        <ele>1188.439453125</ele>
        <time>2010-08-04T12:30:36Z</time>
      </trkpt>
      <trkpt lat="45.41088" lon="6.13502">
        <ele>1189.3963623047</ele>
        <time>2010-08-04T12:30:44Z</time>
      </trkpt>
      <trkpt lat="45.41085" lon="6.13504">
        <ele>1190.0405273438</ele>
        <time>2010-08-04T12:30:47Z</time>
      </trkpt>
      <trkpt lat="45.41072" lon="6.13516">
        <ele>1200.7556152344</ele>
        <time>2010-08-04T12:30:57Z</time>
      </trkpt>
      <trkpt lat="45.41063" lon="6.13522">
        <ele>1209.7220458984</ele>
        <time>2010-08-04T12:31:03Z</time>
      </trkpt>
      <trkpt lat="45.41053" lon="6.13532">
        <ele>1216.2042236328</ele>
        <time>2010-08-04T12:31:10Z</time>
      </trkpt>
      <trkpt lat="45.41043" lon="6.1354">
        <ele>1219.7198486328</ele>
        <time>2010-08-04T12:31:16Z</time>
      </trkpt>
      <trkpt lat="45.41034" lon="6.1355">
        <ele>1222.1368408203</ele>
        <time>2010-08-04T12:31:23Z</time>
      </trkpt>
      <trkpt lat="45.41023" lon="6.13564">
        <ele>1224.1722412109</ele>
        <time>2010-08-04T12:31:31Z</time>
      </trkpt>
      <trkpt lat="45.41016" lon="6.13577">
        <ele>1224.3214111328</ele>
        <time>2010-08-04T12:31:38Z</time>
      </trkpt>
      <trkpt lat="45.4101" lon="6.13584">
        <ele>1226.2496337891</ele>
        <time>2010-08-04T12:31:43Z</time>
      </trkpt>
      <trkpt lat="45.41003" lon="6.13596">
        <ele>1226.8006591797</ele>
        <time>2010-08-04T12:31:50Z</time>
      </trkpt>
      <trkpt lat="45.40995" lon="6.13612">
        <ele>1227.0295410156</ele>
        <time>2010-08-04T12:31:59Z</time>
      </trkpt>
      <trkpt lat="45.4099" lon="6.13626">
        <ele>1226.6905517578</ele>
        <time>2010-08-04T12:32:07Z</time>
      </trkpt>
      <trkpt lat="45.40985" lon="6.13648">
        <ele>1224.0358886719</ele>
        <time>2010-08-04T12:32:17Z</time>
      </trkpt>
      <trkpt lat="45.40979" lon="6.13659">
        <ele>1225.0659179688</ele>
        <time>2010-08-04T12:32:24Z</time>
      </trkpt>
      <trkpt lat="45.40973" lon="6.13671">
        <ele>1225.6937255859</ele>
        <time>2010-08-04T12:32:32Z</time>
      </trkpt>
      <trkpt lat="45.40963" lon="6.13684">
        <ele>1230.9870605469</ele>
        <time>2010-08-04T12:32:39Z</time>
      </trkpt>
      <trkpt lat="45.40955" lon="6.13694">
        <ele>1235.7935791016</ele>
        <time>2010-08-04T12:32:46Z</time>
      </trkpt>
      <trkpt lat="45.40947" lon="6.13707">
        <ele>1241.2347412109</ele>
        <time>2010-08-04T12:32:54Z</time>
      </trkpt>
      <trkpt lat="45.40937" lon="6.13715">
        <ele>1248.2003173828</ele>
        <time>2010-08-04T12:33:01Z</time>
      </trkpt>
      <trkpt lat="45.40923" lon="6.13723">
        <ele>1260.2272949219</ele>
        <time>2010-08-04T12:33:08Z</time>
      </trkpt>
      <trkpt lat="45.40917" lon="6.13732">
        <ele>1262.5754394531</ele>
        <time>2010-08-04T12:33:14Z</time>
      </trkpt>
      <trkpt lat="45.40913" lon="6.13738">
        <ele>1268.4887695312</ele>
        <time>2010-08-04T12:33:17Z</time>
      </trkpt>
      <trkpt lat="45.40906" lon="6.13755">
        <ele>1276.0769042969</ele>
        <time>2010-08-04T12:33:23Z</time>
      </trkpt>
      <trkpt lat="45.40902" lon="6.13769">
        <ele>1279.7998046875</ele>
        <time>2010-08-04T12:33:28Z</time>
      </trkpt>
      <trkpt lat="45.409" lon="6.13788">
        <ele>1277.9417724609</ele>
        <time>2010-08-04T12:33:34Z</time>
      </trkpt>
      <trkpt lat="45.40896" lon="6.13809">
        <ele>1276.7487792969</ele>
        <time>2010-08-04T12:33:41Z</time>
      </trkpt>
      <trkpt lat="45.40893" lon="6.13831">
        <ele>1269.8294677734</ele>
        <time>2010-08-04T12:33:48Z</time>
      </trkpt>
      <trkpt lat="45.40886" lon="6.13844">
        <ele>1270.2630615234</ele>
        <time>2010-08-04T12:33:53Z</time>
      </trkpt>
      <trkpt lat="45.40877" lon="6.13858">
        <ele>1266.9968261719</ele>
        <time>2010-08-04T12:33:59Z</time>
      </trkpt>
      <trkpt lat="45.4087" lon="6.13866">
        <ele>1266.9079589844</ele>
        <time>2010-08-04T12:34:04Z</time>
      </trkpt>
      <trkpt lat="45.40866" lon="6.13886">
        <ele>1256.5354003906</ele>
        <time>2010-08-04T12:34:10Z</time>
      </trkpt>
      <trkpt lat="45.40879" lon="6.13912">
        <ele>1247.3919677734</ele>
        <time>2010-08-04T12:34:15Z</time>
      </trkpt>
      <trkpt lat="45.40886" lon="6.13925">
        <ele>1244.9807128906</ele>
        <time>2010-08-04T12:34:18Z</time>
      </trkpt>
      <trkpt lat="45.40895" lon="6.13941">
        <ele>1241.4495849609</ele>
        <time>2010-08-04T12:34:24Z</time>
      </trkpt>
      <trkpt lat="45.40904" lon="6.13956">
        <ele>1237.6481933594</ele>
        <time>2010-08-04T12:34:30Z</time>
      </trkpt>
      <trkpt lat="45.40913" lon="6.13977">
        <ele>1234.7827148438</ele>
        <time>2010-08-04T12:34:38Z</time>
      </trkpt>
      <trkpt lat="45.40922" lon="6.13994">
        <ele>1230.7469482422</ele>
        <time>2010-08-04T12:34:44Z</time>
      </trkpt>
      <trkpt lat="45.40924" lon="6.14014">
        <ele>1232.4587402344</ele>
        <time>2010-08-04T12:34:49Z</time>
      </trkpt>
      <trkpt lat="45.40925" lon="6.14032">
        <ele>1235.5804443359</ele>
        <time>2010-08-04T12:34:54Z</time>
      </trkpt>
      <trkpt lat="45.40922" lon="6.14051">
        <ele>1241.2438964844</ele>
        <time>2010-08-04T12:35:00Z</time>
      </trkpt>
      <trkpt lat="45.40916" lon="6.14065">
        <ele>1247.4440917969</ele>
        <time>2010-08-04T12:35:05Z</time>
      </trkpt>
      <trkpt lat="45.4091" lon="6.1408">
        <ele>1253.3166503906</ele>
        <time>2010-08-04T12:35:11Z</time>
      </trkpt>
      <trkpt lat="45.4091" lon="6.14098">
        <ele>1255.0866699219</ele>
        <time>2010-08-04T12:35:17Z</time>
      </trkpt>
      <trkpt lat="45.40906" lon="6.14123">
        <ele>1259.421875</ele>
        <time>2010-08-04T12:35:26Z</time>
      </trkpt>
      <trkpt lat="45.40908" lon="6.1414">
        <ele>1257.5274658203</ele>
        <time>2010-08-04T12:35:31Z</time>
      </trkpt>
      <trkpt lat="45.40919" lon="6.1417">
        <ele>1240.7677001953</ele>
        <time>2010-08-04T12:35:37Z</time>
      </trkpt>
      <trkpt lat="45.40922" lon="6.14188">
        <ele>1234.2634277344</ele>
        <time>2010-08-04T12:35:42Z</time>
      </trkpt>
      <trkpt lat="45.4092" lon="6.14208">
        <ele>1230.7884521484</ele>
        <time>2010-08-04T12:35:48Z</time>
      </trkpt>
      <trkpt lat="45.40915" lon="6.14224">
        <ele>1229.6013183594</ele>
        <time>2010-08-04T12:35:54Z</time>
      </trkpt>
      <trkpt lat="45.40913" lon="6.14252">
        <ele>1223.31640625</ele>
        <time>2010-08-04T12:36:02Z</time>
      </trkpt>
      <trkpt lat="45.40904" lon="6.14258">
        <ele>1226.3233642578</ele>
        <time>2010-08-04T12:36:07Z</time>
      </trkpt>
      <trkpt lat="45.40891" lon="6.14262">
        <ele>1231.7457275391</ele>
        <time>2010-08-04T12:36:13Z</time>
      </trkpt>
      <trkpt lat="45.40879" lon="6.14263">
        <ele>1239.5313720703</ele>
        <time>2010-08-04T12:36:18Z</time>
      </trkpt>
      <trkpt lat="45.40864" lon="6.14269">
        <ele>1247.8054199219</ele>
        <time>2010-08-04T12:36:24Z</time>
      </trkpt>
      <trkpt lat="45.40852" lon="6.14275">
        <ele>1259.5404052734</ele>
        <time>2010-08-04T12:36:29Z</time>
      </trkpt>
      <trkpt lat="45.40836" lon="6.14283">
        <ele>1276.6455078125</ele>
        <time>2010-08-04T12:36:36Z</time>
      </trkpt>
      <trkpt lat="45.40821" lon="6.14285">
        <ele>1287.4688720703</ele>
        <time>2010-08-04T12:36:41Z</time>
      </trkpt>
      <trkpt lat="45.40806" lon="6.14286">
        <ele>1296.5993652344</ele>
        <time>2010-08-04T12:36:47Z</time>
      </trkpt>
      <trkpt lat="45.40795" lon="6.14287">
        <ele>1302.1085205078</ele>
        <time>2010-08-04T12:36:52Z</time>
      </trkpt>
      <trkpt lat="45.40781" lon="6.14292">
        <ele>1306.9912109375</ele>
        <time>2010-08-04T12:36:58Z</time>
      </trkpt>
      <trkpt lat="45.40771" lon="6.14303">
        <ele>1307.9758300781</ele>
        <time>2010-08-04T12:37:05Z</time>
      </trkpt>
      <trkpt lat="45.4077" lon="6.14304">
        <ele>1308.2243652344</ele>
        <time>2010-08-04T12:37:06Z</time>
      </trkpt>
      <trkpt lat="45.40762" lon="6.14327">
        <ele>1304.6396484375</ele>
        <time>2010-08-04T12:37:13Z</time>
      </trkpt>
      <trkpt lat="45.40757" lon="6.14336">
        <ele>1304.5013427734</ele>
        <time>2010-08-04T12:37:18Z</time>
      </trkpt>
      <trkpt lat="45.40748" lon="6.14344">
        <ele>1306.8134765625</ele>
        <time>2010-08-04T12:37:23Z</time>
      </trkpt>
      <trkpt lat="45.40738" lon="6.14352">
        <ele>1309.6046142578</ele>
        <time>2010-08-04T12:37:28Z</time>
      </trkpt>
      <trkpt lat="45.40729" lon="6.14365">
        <ele>1310.0030517578</ele>
        <time>2010-08-04T12:37:34Z</time>
      </trkpt>
      <trkpt lat="45.4073" lon="6.14386">
        <ele>1302.5954589844</ele>
        <time>2010-08-04T12:37:40Z</time>
      </trkpt>
      <trkpt lat="45.40729" lon="6.14408">
        <ele>1296.1237792969</ele>
        <time>2010-08-04T12:37:47Z</time>
      </trkpt>
      <trkpt lat="45.40731" lon="6.14426">
        <ele>1286.7841796875</ele>
        <time>2010-08-04T12:37:53Z</time>
      </trkpt>
      <trkpt lat="45.40733" lon="6.14449">
        <ele>1274.7071533203</ele>
        <time>2010-08-04T12:38:01Z</time>
      </trkpt>
      <trkpt lat="45.40731" lon="6.14465">
        <ele>1268.5986328125</ele>
        <time>2010-08-04T12:38:08Z</time>
      </trkpt>
      <trkpt lat="45.40726" lon="6.14472">
        <ele>1268.0317382812</ele>
        <time>2010-08-04T12:38:13Z</time>
      </trkpt>
      <trkpt lat="45.40725" lon="6.14475">
        <ele>1267.3409423828</ele>
        <time>2010-08-04T12:38:15Z</time>
      </trkpt>
      <trkpt lat="45.40718" lon="6.14488">
        <ele>1264.3375244141</ele>
        <time>2010-08-04T12:38:22Z</time>
      </trkpt>
      <trkpt lat="45.40717" lon="6.14498">
        <ele>1260.0047607422</ele>
        <time>2010-08-04T12:38:28Z</time>
      </trkpt>
      <trkpt lat="45.40714" lon="6.14504">
        <ele>1258.2554931641</ele>
        <time>2010-08-04T12:38:34Z</time>
      </trkpt>
      <trkpt lat="45.40709" lon="6.14507">
        <ele>1258.9919433594</ele>
        <time>2010-08-04T12:38:39Z</time>
      </trkpt>
      <trkpt lat="45.40704" lon="6.14507">
        <ele>1260.9454345703</ele>
        <time>2010-08-04T12:38:44Z</time>
      </trkpt>
      <trkpt lat="45.40697" lon="6.1451">
        <ele>1262.0853271484</ele>
        <time>2010-08-04T12:38:50Z</time>
      </trkpt>
      <trkpt lat="45.40695" lon="6.14516">
        <ele>1260.2742919922</ele>
        <time>2010-08-04T12:38:56Z</time>
      </trkpt>
      <trkpt lat="45.40691" lon="6.14518">
        <ele>1261.3422851562</ele>
        <time>2010-08-04T12:39:00Z</time>
      </trkpt>
      <trkpt lat="45.40685" lon="6.1452">
        <ele>1262.5845947266</ele>
        <time>2010-08-04T12:39:06Z</time>
      </trkpt>
      <trkpt lat="45.40676" lon="6.14517">
        <ele>1267.1859130859</ele>
        <time>2010-08-04T12:39:11Z</time>
      </trkpt>
      <trkpt lat="45.40671" lon="6.14514">
        <ele>1271.0142822266</ele>
        <time>2010-08-04T12:39:15Z</time>
      </trkpt>
      <trkpt lat="45.40665" lon="6.14513">
        <ele>1273.0989990234</ele>
        <time>2010-08-04T12:39:21Z</time>
      </trkpt>
      <trkpt lat="45.40662" lon="6.14512">
        <ele>1274.6535644531</ele>
        <time>2010-08-04T12:39:23Z</time>
      </trkpt>
      <trkpt lat="45.40655" lon="6.14513">
        <ele>1275.6813964844</ele>
        <time>2010-08-04T12:39:30Z</time>
      </trkpt>
      <trkpt lat="45.40648" lon="6.14511">
        <ele>1278.3739013672</ele>
        <time>2010-08-04T12:39:35Z</time>
      </trkpt>
      <trkpt lat="45.40633" lon="6.14502">
        <ele>1284.7965087891</ele>
        <time>2010-08-04T12:39:43Z</time>
      </trkpt>
      <trkpt lat="45.40628" lon="6.14503">
        <ele>1285.8508300781</ele>
        <time>2010-08-04T12:39:48Z</time>
      </trkpt>
      <trkpt lat="45.40623" lon="6.14513">
        <ele>1284.0892333984</ele>
        <time>2010-08-04T12:39:56Z</time>
      </trkpt>
      <trkpt lat="45.4062" lon="6.14517">
        <ele>1283.7551269531</ele>
        <time>2010-08-04T12:39:59Z</time>
      </trkpt>
      <trkpt lat="45.40612" lon="6.14529">
        <ele>1282.2449951172</ele>
        <time>2010-08-04T12:40:07Z</time>
      </trkpt>
      <trkpt lat="45.40604" lon="6.14536">
        <ele>1283.0535888672</ele>
        <time>2010-08-04T12:40:14Z</time>
      </trkpt>
      <trkpt lat="45.40591" lon="6.14536">
        <ele>1287.1683349609</ele>
        <time>2010-08-04T12:40:20Z</time>
      </trkpt>
      <trkpt lat="45.40587" lon="6.14536">
        <ele>1288.7869873047</ele>
        <time>2010-08-04T12:40:23Z</time>
      </trkpt>
      <trkpt lat="45.40577" lon="6.14536">
        <ele>1293.5009765625</ele>
        <time>2010-08-04T12:40:29Z</time>
      </trkpt>
      <trkpt lat="45.40566" lon="6.14533">
        <ele>1299.7612304688</ele>
        <time>2010-08-04T12:40:34Z</time>
      </trkpt>
      <trkpt lat="45.40558" lon="6.14534">
        <ele>1303.6813964844</ele>
        <time>2010-08-04T12:40:38Z</time>
      </trkpt>
      <trkpt lat="45.40542" lon="6.14539">
        <ele>1312.0933837891</ele>
        <time>2010-08-04T12:40:46Z</time>
      </trkpt>
      <trkpt lat="45.40541" lon="6.14543">
        <ele>1311.603515625</ele>
        <time>2010-08-04T12:40:48Z</time>
      </trkpt>
      <trkpt lat="45.40539" lon="6.14562">
        <ele>1310.9562988281</ele>
        <time>2010-08-04T12:40:57Z</time>
      </trkpt>
      <trkpt lat="45.40534" lon="6.14576">
        <ele>1315.8812255859</ele>
        <time>2010-08-04T12:41:05Z</time>
      </trkpt>
      <trkpt lat="45.4053" lon="6.14584">
        <ele>1318.9830322266</ele>
        <time>2010-08-04T12:41:09Z</time>
      </trkpt>
      <trkpt lat="45.40528" lon="6.1459">
        <ele>1321.7567138672</ele>
        <time>2010-08-04T12:41:12Z</time>
      </trkpt>
      <trkpt lat="45.40527" lon="6.14602">
        <ele>1326.2142333984</ele>
        <time>2010-08-04T12:41:18Z</time>
      </trkpt>
      <trkpt lat="45.40523" lon="6.14614">
        <ele>1332.0726318359</ele>
        <time>2010-08-04T12:41:24Z</time>
      </trkpt>
      <trkpt lat="45.40522" lon="6.14616">
        <ele>1332.9855957031</ele>
        <time>2010-08-04T12:41:25Z</time>
      </trkpt>
      <trkpt lat="45.40521" lon="6.14624">
        <ele>1337.1179199219</ele>
        <time>2010-08-04T12:41:29Z</time>
      </trkpt>
      <trkpt lat="45.40522" lon="6.14627">
        <ele>1338.0335693359</ele>
        <time>2010-08-04T12:41:31Z</time>
      </trkpt>
      <trkpt lat="45.40526" lon="6.14638">
        <ele>1339.9571533203</ele>
        <time>2010-08-04T12:41:38Z</time>
      </trkpt>
      <trkpt lat="45.40529" lon="6.14641">
        <ele>1339.0224609375</ele>
        <time>2010-08-04T12:41:43Z</time>
      </trkpt>
      <trkpt lat="45.40533" lon="6.14646">
        <ele>1337.9564208984</ele>
        <time>2010-08-04T12:41:47Z</time>
      </trkpt>
      <trkpt lat="45.40546" lon="6.14662">
        <ele>1334.7893066406</ele>
        <time>2010-08-04T12:41:54Z</time>
      </trkpt>
      <trkpt lat="45.40551" lon="6.14673">
        <ele>1334.9350585938</ele>
        <time>2010-08-04T12:42:00Z</time>
      </trkpt>
      <trkpt lat="45.40555" lon="6.14687">
        <ele>1337.6859130859</ele>
        <time>2010-08-04T12:42:06Z</time>
      </trkpt>
      <trkpt lat="45.40554" lon="6.14696">
        <ele>1341.2517089844</ele>
        <time>2010-08-04T12:42:11Z</time>
      </trkpt>
      <trkpt lat="45.40552" lon="6.1471">
        <ele>1345.4417724609</ele>
        <time>2010-08-04T12:42:18Z</time>
      </trkpt>
      <trkpt lat="45.4055" lon="6.14723">
        <ele>1349.3946533203</ele>
        <time>2010-08-04T12:42:24Z</time>
      </trkpt>
      <trkpt lat="45.40549" lon="6.14737">
        <ele>1350.9934082031</ele>
        <time>2010-08-04T12:42:31Z</time>
      </trkpt>
      <trkpt lat="45.4055" lon="6.14741">
        <ele>1351.1936035156</ele>
        <time>2010-08-04T12:42:33Z</time>
      </trkpt>
      <trkpt lat="45.4055" lon="6.14751">
        <ele>1351.8654785156</ele>
        <time>2010-08-04T12:42:37Z</time>
      </trkpt>
      <trkpt lat="45.4055" lon="6.14761">
        <ele>1351.7280273438</ele>
        <time>2010-08-04T12:42:41Z</time>
      </trkpt>
      <trkpt lat="45.40553" lon="6.14776">
        <ele>1350.0737304688</ele>
        <time>2010-08-04T12:42:48Z</time>
      </trkpt>
      <trkpt lat="45.40549" lon="6.1479">
        <ele>1349.8764648438</ele>
        <time>2010-08-04T12:42:56Z</time>
      </trkpt>
      <trkpt lat="45.40547" lon="6.14808">
        <ele>1347.8032226562</ele>
        <time>2010-08-04T12:43:04Z</time>
      </trkpt>
      <trkpt lat="45.40541" lon="6.14818">
        <ele>1346.6470947266</ele>
        <time>2010-08-04T12:43:10Z</time>
      </trkpt>
      <trkpt lat="45.40535" lon="6.14831">
        <ele>1341.8238525391</ele>
        <time>2010-08-04T12:43:18Z</time>
      </trkpt>
      <trkpt lat="45.40527" lon="6.14842">
        <ele>1337.568359375</ele>
        <time>2010-08-04T12:43:25Z</time>
      </trkpt>
      <trkpt lat="45.40524" lon="6.14848">
        <ele>1334.1041259766</ele>
        <time>2010-08-04T12:43:29Z</time>
      </trkpt>
      <trkpt lat="45.40519" lon="6.14851">
        <ele>1331.8863525391</ele>
        <time>2010-08-04T12:43:33Z</time>
      </trkpt>
      <trkpt lat="45.40513" lon="6.14857">
        <ele>1328.5698242188</ele>
        <time>2010-08-04T12:43:39Z</time>
      </trkpt>
      <trkpt lat="45.40511" lon="6.14858">
        <ele>1327.9621582031</ele>
        <time>2010-08-04T12:43:43Z</time>
      </trkpt>
      <trkpt lat="45.40501" lon="6.14854">
        <ele>1328.693359375</ele>
        <time>2010-08-04T12:43:54Z</time>
      </trkpt>
      <trkpt lat="45.40492" lon="6.14854">
        <ele>1328.7009277344</ele>
        <time>2010-08-04T12:44:04Z</time>
      </trkpt>
      <trkpt lat="45.40486" lon="6.14859">
        <ele>1327.0726318359</ele>
        <time>2010-08-04T12:44:10Z</time>
      </trkpt>
      <trkpt lat="45.40477" lon="6.14855">
        <ele>1328.9916992188</ele>
        <time>2010-08-04T12:44:14Z</time>
      </trkpt>
      <trkpt lat="45.40472" lon="6.14854">
        <ele>1329.6743164062</ele>
        <time>2010-08-04T12:44:17Z</time>
      </trkpt>
      <trkpt lat="45.40461" lon="6.14851">
        <ele>1332.2425537109</ele>
        <time>2010-08-04T12:44:24Z</time>
      </trkpt>
      <trkpt lat="45.40459" lon="6.14851">
        <ele>1332.3850097656</ele>
        <time>2010-08-04T12:44:25Z</time>
      </trkpt>
      <trkpt lat="45.40449" lon="6.14845">
        <ele>1335.8577880859</ele>
        <time>2010-08-04T12:44:31Z</time>
      </trkpt>
      <trkpt lat="45.40436" lon="6.14838">
        <ele>1340.9963378906</ele>
        <time>2010-08-04T12:44:38Z</time>
      </trkpt>
      <trkpt lat="45.4043" lon="6.1484">
        <ele>1341.5736083984</ele>
        <time>2010-08-04T12:44:44Z</time>
      </trkpt>
      <trkpt lat="45.40419" lon="6.1484">
        <ele>1343.9074707031</ele>
        <time>2010-08-04T12:44:50Z</time>
      </trkpt>
      <trkpt lat="45.40402" lon="6.14838">
        <ele>1346.2691650391</ele>
        <time>2010-08-04T12:44:58Z</time>
      </trkpt>
      <trkpt lat="45.40392" lon="6.14838">
        <ele>1346.9158935547</ele>
        <time>2010-08-04T12:45:04Z</time>
      </trkpt>
      <trkpt lat="45.40384" lon="6.1484">
        <ele>1347.0548095703</ele>
        <time>2010-08-04T12:45:11Z</time>
      </trkpt>
      <trkpt lat="45.40375" lon="6.14835">
        <ele>1350.306640625</ele>
        <time>2010-08-04T12:45:15Z</time>
      </trkpt>
      <trkpt lat="45.40366" lon="6.14832">
        <ele>1352.7574462891</ele>
        <time>2010-08-04T12:45:21Z</time>
      </trkpt>
      <trkpt lat="45.40356" lon="6.14828">
        <ele>1356.1661376953</ele>
        <time>2010-08-04T12:45:27Z</time>
      </trkpt>
      <trkpt lat="45.40352" lon="6.14827">
        <ele>1357.4493408203</ele>
        <time>2010-08-04T12:45:30Z</time>
      </trkpt>
      <trkpt lat="45.40346" lon="6.1483">
        <ele>1357.7465820312</ele>
        <time>2010-08-04T12:45:35Z</time>
      </trkpt>
      <trkpt lat="45.40335" lon="6.14835">
        <ele>1359.4675292969</ele>
        <time>2010-08-04T12:45:42Z</time>
      </trkpt>
      <trkpt lat="45.40331" lon="6.14836">
        <ele>1360.1325683594</ele>
        <time>2010-08-04T12:45:44Z</time>
      </trkpt>
      <trkpt lat="45.40321" lon="6.14835">
        <ele>1362.7995605469</ele>
        <time>2010-08-04T12:45:50Z</time>
      </trkpt>
      <trkpt lat="45.4031" lon="6.14831">
        <ele>1366.5020751953</ele>
        <time>2010-08-04T12:45:56Z</time>
      </trkpt>
      <trkpt lat="45.40297" lon="6.1483">
        <ele>1370.1485595703</ele>
        <time>2010-08-04T12:46:03Z</time>
      </trkpt>
      <trkpt lat="45.40283" lon="6.14837">
        <ele>1372.9770507812</ele>
        <time>2010-08-04T12:46:12Z</time>
      </trkpt>
      <trkpt lat="45.40275" lon="6.14841">
        <ele>1374.5910644531</ele>
        <time>2010-08-04T12:46:19Z</time>
      </trkpt>
      <trkpt lat="45.40269" lon="6.1485">
        <ele>1374.7145996094</ele>
        <time>2010-08-04T12:46:25Z</time>
      </trkpt>
      <trkpt lat="45.40265" lon="6.14853">
        <ele>1375.4836425781</ele>
        <time>2010-08-04T12:46:28Z</time>
      </trkpt>
      <trkpt lat="45.40258" lon="6.14868">
        <ele>1375.1950683594</ele>
        <time>2010-08-04T12:46:35Z</time>
      </trkpt>
      <trkpt lat="45.40255" lon="6.14873">
        <ele>1375.3994140625</ele>
        <time>2010-08-04T12:46:37Z</time>
      </trkpt>
      <trkpt lat="45.40247" lon="6.14882">
        <ele>1377.3966064453</ele>
        <time>2010-08-04T12:46:45Z</time>
      </trkpt>
      <trkpt lat="45.40243" lon="6.14888">
        <ele>1379.0394287109</ele>
        <time>2010-08-04T12:46:49Z</time>
      </trkpt>
      <trkpt lat="45.40233" lon="6.14896">
        <ele>1383.7598876953</ele>
        <time>2010-08-04T12:46:56Z</time>
      </trkpt>
      <trkpt lat="45.40223" lon="6.14906">
        <ele>1388.1331787109</ele>
        <time>2010-08-04T12:47:04Z</time>
      </trkpt>
      <trkpt lat="45.40218" lon="6.14918">
        <ele>1389.8690185547</ele>
        <time>2010-08-04T12:47:11Z</time>
      </trkpt>
      <trkpt lat="45.40216" lon="6.14923">
        <ele>1390.3985595703</ele>
        <time>2010-08-04T12:47:14Z</time>
      </trkpt>
      <trkpt lat="45.4021" lon="6.14935">
        <ele>1392.8636474609</ele>
        <time>2010-08-04T12:47:21Z</time>
      </trkpt>
      <trkpt lat="45.40203" lon="6.1495">
        <ele>1394.5139160156</ele>
        <time>2010-08-04T12:47:29Z</time>
      </trkpt>
      <trkpt lat="45.40196" lon="6.14963">
        <ele>1394.4615478516</ele>
        <time>2010-08-04T12:47:36Z</time>
      </trkpt>
      <trkpt lat="45.40191" lon="6.14973">
        <ele>1393.0483398438</ele>
        <time>2010-08-04T12:47:43Z</time>
      </trkpt>
      <trkpt lat="45.40191" lon="6.14975">
        <ele>1392.5710449219</ele>
        <time>2010-08-04T12:47:44Z</time>
      </trkpt>
      <trkpt lat="45.40184" lon="6.14986">
        <ele>1390.7738037109</ele>
        <time>2010-08-04T12:47:51Z</time>
      </trkpt>
      <trkpt lat="45.40177" lon="6.14994">
        <ele>1390.6690673828</ele>
        <time>2010-08-04T12:47:57Z</time>
      </trkpt>
      <trkpt lat="45.40173" lon="6.15004">
        <ele>1387.9185791016</ele>
        <time>2010-08-04T12:48:01Z</time>
      </trkpt>
      <trkpt lat="45.40161" lon="6.15019">
        <ele>1387.8111572266</ele>
        <time>2010-08-04T12:48:08Z</time>
      </trkpt>
      <trkpt lat="45.40151" lon="6.15032">
        <ele>1389.6510009766</ele>
        <time>2010-08-04T12:48:15Z</time>
      </trkpt>
      <trkpt lat="45.40147" lon="6.15043">
        <ele>1390.1218261719</ele>
        <time>2010-08-04T12:48:20Z</time>
      </trkpt>
      <trkpt lat="45.40138" lon="6.15053">
        <ele>1393.3103027344</ele>
        <time>2010-08-04T12:48:26Z</time>
      </trkpt>
      <trkpt lat="45.4013" lon="6.15065">
        <ele>1397.8532714844</ele>
        <time>2010-08-04T12:48:33Z</time>
      </trkpt>
      <trkpt lat="45.40128" lon="6.15079">
        <ele>1399.8453369141</ele>
        <time>2010-08-04T12:48:39Z</time>
      </trkpt>
      <trkpt lat="45.40128" lon="6.15097">
        <ele>1399.76171875</ele>
        <time>2010-08-04T12:48:46Z</time>
      </trkpt>
      <trkpt lat="45.40125" lon="6.15112">
        <ele>1402.33203125</ele>
        <time>2010-08-04T12:48:52Z</time>
      </trkpt>
      <trkpt lat="45.4012" lon="6.1513">
        <ele>1406.3308105469</ele>
        <time>2010-08-04T12:48:59Z</time>
      </trkpt>
      <trkpt lat="45.40122" lon="6.15145">
        <ele>1406.2963867188</ele>
        <time>2010-08-04T12:49:06Z</time>
      </trkpt>
      <trkpt lat="45.40119" lon="6.15152">
        <ele>1409.3759765625</ele>
        <time>2010-08-04T12:49:10Z</time>
      </trkpt>
      <trkpt lat="45.40112" lon="6.15163">
        <ele>1416.4104003906</ele>
        <time>2010-08-04T12:49:17Z</time>
      </trkpt>
      <trkpt lat="45.40112" lon="6.15165">
        <ele>1417.0697021484</ele>
        <time>2010-08-04T12:49:18Z</time>
      </trkpt>
      <trkpt lat="45.40115" lon="6.15187">
        <ele>1420.0047607422</ele>
        <time>2010-08-04T12:49:27Z</time>
      </trkpt>
      <trkpt lat="45.4012" lon="6.15203">
        <ele>1417.2534179688</ele>
        <time>2010-08-04T12:49:33Z</time>
      </trkpt>
      <trkpt lat="45.40123" lon="6.15217">
        <ele>1414.5186767578</ele>
        <time>2010-08-04T12:49:38Z</time>
      </trkpt>
      <trkpt lat="45.40129" lon="6.1524">
        <ele>1411.8494873047</ele>
        <time>2010-08-04T12:49:45Z</time>
      </trkpt>
      <trkpt lat="45.40129" lon="6.15262">
        <ele>1410.9974365234</ele>
        <time>2010-08-04T12:49:52Z</time>
      </trkpt>
      <trkpt lat="45.40131" lon="6.15282">
        <ele>1407.4261474609</ele>
        <time>2010-08-04T12:49:58Z</time>
      </trkpt>
      <trkpt lat="45.4013" lon="6.153">
        <ele>1405.056640625</ele>
        <time>2010-08-04T12:50:04Z</time>
      </trkpt>
      <trkpt lat="45.40129" lon="6.15302">
        <ele>1404.9759521484</ele>
        <time>2010-08-04T12:50:05Z</time>
      </trkpt>
      <trkpt lat="45.40126" lon="6.15314">
        <ele>1404.1040039062</ele>
        <time>2010-08-04T12:50:10Z</time>
      </trkpt>
      <trkpt lat="45.40118" lon="6.15328">
        <ele>1404.6549072266</ele>
        <time>2010-08-04T12:50:16Z</time>
      </trkpt>
      <trkpt lat="45.40106" lon="6.15351">
        <ele>1404.9353027344</ele>
        <time>2010-08-04T12:50:24Z</time>
      </trkpt>
      <trkpt lat="45.40096" lon="6.15366">
        <ele>1405.4735107422</ele>
        <time>2010-08-04T12:50:30Z</time>
      </trkpt>
      <trkpt lat="45.40089" lon="6.15377">
        <ele>1406.0711669922</ele>
        <time>2010-08-04T12:50:35Z</time>
      </trkpt>
      <trkpt lat="45.40079" lon="6.15388">
        <ele>1406.6673583984</ele>
        <time>2010-08-04T12:50:40Z</time>
      </trkpt>
      <trkpt lat="45.40073" lon="6.15395">
        <ele>1406.0137939453</ele>
        <time>2010-08-04T12:50:43Z</time>
      </trkpt>
      <trkpt lat="45.40068" lon="6.15424">
        <ele>1399.845703125</ele>
        <time>2010-08-04T12:50:52Z</time>
      </trkpt>
      <trkpt lat="45.40063" lon="6.1544">
        <ele>1396.2199707031</ele>
        <time>2010-08-04T12:50:57Z</time>
      </trkpt>
      <trkpt lat="45.40055" lon="6.15449">
        <ele>1393.7106933594</ele>
        <time>2010-08-04T12:51:02Z</time>
      </trkpt>
      <trkpt lat="45.40048" lon="6.1545">
        <ele>1391.8695068359</ele>
        <time>2010-08-04T12:51:07Z</time>
      </trkpt>
      <trkpt lat="45.40039" lon="6.15448">
        <ele>1391.0645751953</ele>
        <time>2010-08-04T12:51:13Z</time>
      </trkpt>
      <trkpt lat="45.40027" lon="6.15445">
        <ele>1389.857421875</ele>
        <time>2010-08-04T12:51:20Z</time>
      </trkpt>
      <trkpt lat="45.40015" lon="6.1544">
        <ele>1392.5307617188</ele>
        <time>2010-08-04T12:51:26Z</time>
      </trkpt>
      <trkpt lat="45.40004" lon="6.15439">
        <ele>1393.3854980469</ele>
        <time>2010-08-04T12:51:31Z</time>
      </trkpt>
      <trkpt lat="45.39993" lon="6.15444">
        <ele>1391.3041992188</ele>
        <time>2010-08-04T12:51:36Z</time>
      </trkpt>
      <trkpt lat="45.3998" lon="6.1545">
        <ele>1386.8099365234</ele>
        <time>2010-08-04T12:51:41Z</time>
      </trkpt>
      <trkpt lat="45.39956" lon="6.15435">
        <ele>1386.6665039062</ele>
        <time>2010-08-04T12:51:48Z</time>
      </trkpt>
      <trkpt lat="45.39945" lon="6.15428">
        <ele>1384.7817382812</ele>
        <time>2010-08-04T12:51:53Z</time>
      </trkpt>
      <trkpt lat="45.39934" lon="6.15421">
        <ele>1390.5245361328</ele>
        <time>2010-08-04T12:51:59Z</time>
      </trkpt>
      <trkpt lat="45.39926" lon="6.15414">
        <ele>1394.9222412109</ele>
        <time>2010-08-04T12:52:03Z</time>
      </trkpt>
      <trkpt lat="45.39923" lon="6.15412">
        <ele>1396.0319824219</ele>
        <time>2010-08-04T12:52:04Z</time>
      </trkpt>
      <trkpt lat="45.39909" lon="6.15415">
        <ele>1401.5860595703</ele>
        <time>2010-08-04T12:52:10Z</time>
      </trkpt>
      <trkpt lat="45.39901" lon="6.15427">
        <ele>1405.3377685547</ele>
        <time>2010-08-04T12:52:15Z</time>
      </trkpt>
      <trkpt lat="45.39902" lon="6.15442">
        <ele>1403.1669921875</ele>
        <time>2010-08-04T12:52:20Z</time>
      </trkpt>
      <trkpt lat="45.39908" lon="6.15467">
        <ele>1396.9373779297</ele>
        <time>2010-08-04T12:52:28Z</time>
      </trkpt>
      <trkpt lat="45.39904" lon="6.15483">
        <ele>1398.1942138672</ele>
        <time>2010-08-04T12:52:33Z</time>
      </trkpt>
      <trkpt lat="45.39895" lon="6.15497">
        <ele>1403.6459960938</ele>
        <time>2010-08-04T12:52:39Z</time>
      </trkpt>
      <trkpt lat="45.39882" lon="6.15501">
        <ele>1414.0545654297</ele>
        <time>2010-08-04T12:52:44Z</time>
      </trkpt>
      <trkpt lat="45.39872" lon="6.15506">
        <ele>1422.8165283203</ele>
        <time>2010-08-04T12:52:48Z</time>
      </trkpt>
      <trkpt lat="45.39866" lon="6.15523">
        <ele>1431.1723632812</ele>
        <time>2010-08-04T12:52:53Z</time>
      </trkpt>
      <trkpt lat="45.39863" lon="6.15551">
        <ele>1437.0285644531</ele>
        <time>2010-08-04T12:53:01Z</time>
      </trkpt>
      <trkpt lat="45.39865" lon="6.15571">
        <ele>1434.8814697266</ele>
        <time>2010-08-04T12:53:07Z</time>
      </trkpt>
      <trkpt lat="45.39865" lon="6.15589">
        <ele>1435.5295410156</ele>
        <time>2010-08-04T12:53:13Z</time>
      </trkpt>
      <trkpt lat="45.39867" lon="6.15607">
        <ele>1431.6502685547</ele>
        <time>2010-08-04T12:53:19Z</time>
      </trkpt>
      <trkpt lat="45.39868" lon="6.15619">
        <ele>1428.8881835938</ele>
        <time>2010-08-04T12:53:23Z</time>
      </trkpt>
      <trkpt lat="45.3987" lon="6.15626">
        <ele>1425.7486572266</ele>
        <time>2010-08-04T12:53:25Z</time>
      </trkpt>
      <trkpt lat="45.39869" lon="6.15646">
        <ele>1421.7790527344</ele>
        <time>2010-08-04T12:53:32Z</time>
      </trkpt>
      <trkpt lat="45.39869" lon="6.15664">
        <ele>1416.7834472656</ele>
        <time>2010-08-04T12:53:38Z</time>
      </trkpt>
      <trkpt lat="45.39871" lon="6.15676">
        <ele>1411.2987060547</ele>
        <time>2010-08-04T12:53:43Z</time>
      </trkpt>
      <trkpt lat="45.39867" lon="6.15691">
        <ele>1408.7329101562</ele>
        <time>2010-08-04T12:53:49Z</time>
      </trkpt>
      <trkpt lat="45.39862" lon="6.15705">
        <ele>1407.1849365234</ele>
        <time>2010-08-04T12:53:55Z</time>
      </trkpt>
      <trkpt lat="45.39849" lon="6.15717">
        <ele>1406.294921875</ele>
        <time>2010-08-04T12:54:02Z</time>
      </trkpt>
      <trkpt lat="45.39841" lon="6.15722">
        <ele>1406.4909667969</ele>
        <time>2010-08-04T12:54:07Z</time>
      </trkpt>
      <trkpt lat="45.3983" lon="6.15722">
        <ele>1409.0334472656</ele>
        <time>2010-08-04T12:54:13Z</time>
      </trkpt>
      <trkpt lat="45.39812" lon="6.15722">
        <ele>1414.2438964844</ele>
        <time>2010-08-04T12:54:22Z</time>
      </trkpt>
      <trkpt lat="45.39801" lon="6.15721">
        <ele>1418.7767333984</ele>
        <time>2010-08-04T12:54:27Z</time>
      </trkpt>
      <trkpt lat="45.39796" lon="6.15723">
        <ele>1420.8946533203</ele>
        <time>2010-08-04T12:54:31Z</time>
      </trkpt>
      <trkpt lat="45.39803" lon="6.15732">
        <ele>1415.1938476562</ele>
        <time>2010-08-04T12:54:40Z</time>
      </trkpt>
      <trkpt lat="45.39805" lon="6.15741">
        <ele>1411.4206542969</ele>
        <time>2010-08-04T12:54:47Z</time>
      </trkpt>
      <trkpt lat="45.39806" lon="6.15743">
        <ele>1410.7073974609</ele>
        <time>2010-08-04T12:54:48Z</time>
      </trkpt>
      <trkpt lat="45.39805" lon="6.1575">
        <ele>1409.2097167969</ele>
        <time>2010-08-04T12:54:51Z</time>
      </trkpt>
      <trkpt lat="45.39804" lon="6.15752">
        <ele>1409.0194091797</ele>
        <time>2010-08-04T12:54:53Z</time>
      </trkpt>
      <trkpt lat="45.39785" lon="6.15761">
        <ele>1418.2794189453</ele>
        <time>2010-08-04T12:55:01Z</time>
      </trkpt>
      <trkpt lat="45.39774" lon="6.15773">
        <ele>1422.1784667969</ele>
        <time>2010-08-04T12:55:06Z</time>
      </trkpt>
      <trkpt lat="45.39765" lon="6.15784">
        <ele>1423.9401855469</ele>
        <time>2010-08-04T12:55:13Z</time>
      </trkpt>
      <trkpt lat="45.39761" lon="6.15793">
        <ele>1424.4147949219</ele>
        <time>2010-08-04T12:55:18Z</time>
      </trkpt>
      <trkpt lat="45.3975" lon="6.15804">
        <ele>1427.2548828125</ele>
        <time>2010-08-04T12:55:25Z</time>
      </trkpt>
      <trkpt lat="45.39743" lon="6.15816">
        <ele>1430.75</ele>
        <time>2010-08-04T12:55:32Z</time>
      </trkpt>
      <trkpt lat="45.39742" lon="6.15834">
        <ele>1428.7154541016</ele>
        <time>2010-08-04T12:55:39Z</time>
      </trkpt>
      <trkpt lat="45.39739" lon="6.15853">
        <ele>1428.6723632812</ele>
        <time>2010-08-04T12:55:46Z</time>
      </trkpt>
      <trkpt lat="45.39727" lon="6.15874">
        <ele>1432.58984375</ele>
        <time>2010-08-04T12:55:54Z</time>
      </trkpt>
      <trkpt lat="45.3972" lon="6.15883">
        <ele>1435.9913330078</ele>
        <time>2010-08-04T12:55:58Z</time>
      </trkpt>
      <trkpt lat="45.39713" lon="6.15897">
        <ele>1438.8015136719</ele>
        <time>2010-08-04T12:56:04Z</time>
      </trkpt>
      <trkpt lat="45.39703" lon="6.15916">
        <ele>1442.0886230469</ele>
        <time>2010-08-04T12:56:12Z</time>
      </trkpt>
      <trkpt lat="45.397" lon="6.15932">
        <ele>1441.205078125</ele>
        <time>2010-08-04T12:56:18Z</time>
      </trkpt>
      <trkpt lat="45.39696" lon="6.15945">
        <ele>1440.634765625</ele>
        <time>2010-08-04T12:56:23Z</time>
      </trkpt>
      <trkpt lat="45.39689" lon="6.1596">
        <ele>1442.9832763672</ele>
        <time>2010-08-04T12:56:30Z</time>
      </trkpt>
      <trkpt lat="45.39688" lon="6.15961">
        <ele>1443.96875</ele>
        <time>2010-08-04T12:56:31Z</time>
      </trkpt>
      <trkpt lat="45.39681" lon="6.15972">
        <ele>1447.8623046875</ele>
        <time>2010-08-04T12:56:37Z</time>
      </trkpt>
      <trkpt lat="45.39677" lon="6.15983">
        <ele>1448.396484375</ele>
        <time>2010-08-04T12:56:42Z</time>
      </trkpt>
      <trkpt lat="45.39671" lon="6.15997">
        <ele>1449.7354736328</ele>
        <time>2010-08-04T12:56:49Z</time>
      </trkpt>
      <trkpt lat="45.39669" lon="6.16014">
        <ele>1449.0947265625</ele>
        <time>2010-08-04T12:56:56Z</time>
      </trkpt>
      <trkpt lat="45.39666" lon="6.16028">
        <ele>1450.3386230469</ele>
        <time>2010-08-04T12:57:01Z</time>
      </trkpt>
      <trkpt lat="45.39661" lon="6.16038">
        <ele>1455.7976074219</ele>
        <time>2010-08-04T12:57:06Z</time>
      </trkpt>
      <trkpt lat="45.39659" lon="6.16049">
        <ele>1458.0301513672</ele>
        <time>2010-08-04T12:57:11Z</time>
      </trkpt>
      <trkpt lat="45.3966" lon="6.16056">
        <ele>1456.5026855469</ele>
        <time>2010-08-04T12:57:14Z</time>
      </trkpt>
      <trkpt lat="45.39661" lon="6.16061">
        <ele>1455.0275878906</ele>
        <time>2010-08-04T12:57:16Z</time>
      </trkpt>
      <trkpt lat="45.39661" lon="6.16065">
        <ele>1454.6091308594</ele>
        <time>2010-08-04T12:57:18Z</time>
      </trkpt>
      <trkpt lat="45.39663" lon="6.16086">
        <ele>1449.5998535156</ele>
        <time>2010-08-04T12:57:26Z</time>
      </trkpt>
      <trkpt lat="45.39663" lon="6.16104">
        <ele>1447.0731201172</ele>
        <time>2010-08-04T12:57:32Z</time>
      </trkpt>
      <trkpt lat="45.39662" lon="6.16125">
        <ele>1446.2155761719</ele>
        <time>2010-08-04T12:57:39Z</time>
      </trkpt>
      <trkpt lat="45.39659" lon="6.16128">
        <ele>1449.0987548828</ele>
        <time>2010-08-04T12:57:41Z</time>
      </trkpt>
      <trkpt lat="45.3965" lon="6.16145">
        <ele>1454.8154296875</ele>
        <time>2010-08-04T12:57:48Z</time>
      </trkpt>
      <trkpt lat="45.39642" lon="6.16162">
        <ele>1459.6502685547</ele>
        <time>2010-08-04T12:57:55Z</time>
      </trkpt>
      <trkpt lat="45.3964" lon="6.1617">
        <ele>1459.7154541016</ele>
        <time>2010-08-04T12:57:58Z</time>
      </trkpt>
      <trkpt lat="45.39634" lon="6.16191">
        <ele>1459.8383789062</ele>
        <time>2010-08-04T12:58:06Z</time>
      </trkpt>
      <trkpt lat="45.39636" lon="6.16215">
        <ele>1452.3468017578</ele>
        <time>2010-08-04T12:58:13Z</time>
      </trkpt>
      <trkpt lat="45.39631" lon="6.16232">
        <ele>1451.9787597656</ele>
        <time>2010-08-04T12:58:20Z</time>
      </trkpt>
      <trkpt lat="45.3963" lon="6.16234">
        <ele>1452.0018310547</ele>
        <time>2010-08-04T12:58:21Z</time>
      </trkpt>
      <trkpt lat="45.39623" lon="6.16246">
        <ele>1454.1418457031</ele>
        <time>2010-08-04T12:58:27Z</time>
      </trkpt>
      <trkpt lat="45.39615" lon="6.16255">
        <ele>1457.7021484375</ele>
        <time>2010-08-04T12:58:32Z</time>
      </trkpt>
      <trkpt lat="45.396" lon="6.16265">
        <ele>1463.212890625</ele>
        <time>2010-08-04T12:58:39Z</time>
      </trkpt>
      <trkpt lat="45.39589" lon="6.16276">
        <ele>1465.6435546875</ele>
        <time>2010-08-04T12:58:45Z</time>
      </trkpt>
      <trkpt lat="45.39583" lon="6.16286">
        <ele>1466.0017089844</ele>
        <time>2010-08-04T12:58:50Z</time>
      </trkpt>
      <trkpt lat="45.39577" lon="6.16293">
        <ele>1464.5806884766</ele>
        <time>2010-08-04T12:58:54Z</time>
      </trkpt>
      <trkpt lat="45.39569" lon="6.16313">
        <ele>1459.4083251953</ele>
        <time>2010-08-04T12:59:01Z</time>
      </trkpt>
      <trkpt lat="45.3956" lon="6.16325">
        <ele>1455.8298339844</ele>
        <time>2010-08-04T12:59:06Z</time>
      </trkpt>
      <trkpt lat="45.39553" lon="6.16327">
        <ele>1454.5659179688</ele>
        <time>2010-08-04T12:59:09Z</time>
      </trkpt>
      <trkpt lat="45.39539" lon="6.16318">
        <ele>1452.8940429688</ele>
        <time>2010-08-04T12:59:16Z</time>
      </trkpt>
      <trkpt lat="45.39535" lon="6.16315">
        <ele>1453.0701904297</ele>
        <time>2010-08-04T12:59:18Z</time>
      </trkpt>
      <trkpt lat="45.3952" lon="6.16298">
        <ele>1454.8210449219</ele>
        <time>2010-08-04T12:59:24Z</time>
      </trkpt>
      <trkpt lat="45.39507" lon="6.1628">
        <ele>1457.3168945312</ele>
        <time>2010-08-04T12:59:30Z</time>
      </trkpt>
      <trkpt lat="45.39495" lon="6.1627">
        <ele>1458.4822998047</ele>
        <time>2010-08-04T12:59:35Z</time>
      </trkpt>
      <trkpt lat="45.39487" lon="6.16256">
        <ele>1462.4925537109</ele>
        <time>2010-08-04T12:59:41Z</time>
      </trkpt>
      <trkpt lat="45.39479" lon="6.16245">
        <ele>1464.8443603516</ele>
        <time>2010-08-04T12:59:46Z</time>
      </trkpt>
      <trkpt lat="45.39473" lon="6.16235">
        <ele>1466.7052001953</ele>
        <time>2010-08-04T12:59:51Z</time>
      </trkpt>
      <trkpt lat="45.39464" lon="6.16228">
        <ele>1469.8627929688</ele>
        <time>2010-08-04T12:59:56Z</time>
      </trkpt>
      <trkpt lat="45.39459" lon="6.16225">
        <ele>1471.3851318359</ele>
        <time>2010-08-04T12:59:59Z</time>
      </trkpt>
      <trkpt lat="45.39452" lon="6.16226">
        <ele>1472.0686035156</ele>
        <time>2010-08-04T13:00:03Z</time>
      </trkpt>
      <trkpt lat="45.39436" lon="6.16223">
        <ele>1476.9929199219</ele>
        <time>2010-08-04T13:00:10Z</time>
      </trkpt>
      <trkpt lat="45.39425" lon="6.16225">
        <ele>1480.4020996094</ele>
        <time>2010-08-04T13:00:16Z</time>
      </trkpt>
      <trkpt lat="45.39417" lon="6.16226">
        <ele>1483.0697021484</ele>
        <time>2010-08-04T13:00:21Z</time>
      </trkpt>
      <trkpt lat="45.39399" lon="6.16227">
        <ele>1487.9344482422</ele>
        <time>2010-08-04T13:00:28Z</time>
      </trkpt>
      <trkpt lat="45.39386" lon="6.16232">
        <ele>1489.6732177734</ele>
        <time>2010-08-04T13:00:33Z</time>
      </trkpt>
      <trkpt lat="45.39373" lon="6.16242">
        <ele>1487.3930664062</ele>
        <time>2010-08-04T13:00:39Z</time>
      </trkpt>
      <trkpt lat="45.39359" lon="6.16248">
        <ele>1485.462890625</ele>
        <time>2010-08-04T13:00:45Z</time>
      </trkpt>
      <trkpt lat="45.39345" lon="6.16249">
        <ele>1484.1677246094</ele>
        <time>2010-08-04T13:00:50Z</time>
      </trkpt>
      <trkpt lat="45.39335" lon="6.16258">
        <ele>1482.0965576172</ele>
        <time>2010-08-04T13:00:54Z</time>
      </trkpt>
      <trkpt lat="45.39327" lon="6.16276">
        <ele>1484.8425292969</ele>
        <time>2010-08-04T13:01:00Z</time>
      </trkpt>
      <trkpt lat="45.39324" lon="6.16279">
        <ele>1486.8717041016</ele>
        <time>2010-08-04T13:01:02Z</time>
      </trkpt>
      <trkpt lat="45.39315" lon="6.16284">
        <ele>1493.3258056641</ele>
        <time>2010-08-04T13:01:06Z</time>
      </trkpt>
      <trkpt lat="45.39308" lon="6.16294">
        <ele>1498.6384277344</ele>
        <time>2010-08-04T13:01:11Z</time>
      </trkpt>
      <trkpt lat="45.39301" lon="6.16309">
        <ele>1504.0717773438</ele>
        <time>2010-08-04T13:01:19Z</time>
      </trkpt>
      <trkpt lat="45.39296" lon="6.16326">
        <ele>1506.7257080078</ele>
        <time>2010-08-04T13:01:25Z</time>
      </trkpt>
      <trkpt lat="45.39287" lon="6.16344">
        <ele>1510.2197265625</ele>
        <time>2010-08-04T13:01:33Z</time>
      </trkpt>
      <trkpt lat="45.39276" lon="6.16363">
        <ele>1513.3884277344</ele>
        <time>2010-08-04T13:01:40Z</time>
      </trkpt>
      <trkpt lat="45.39269" lon="6.16376">
        <ele>1514.9714355469</ele>
        <time>2010-08-04T13:01:46Z</time>
      </trkpt>
      <trkpt lat="45.39264" lon="6.16395">
        <ele>1514.8579101562</ele>
        <time>2010-08-04T13:01:53Z</time>
      </trkpt>
      <trkpt lat="45.39259" lon="6.16416">
        <ele>1515.2551269531</ele>
        <time>2010-08-04T13:02:01Z</time>
      </trkpt>
      <trkpt lat="45.39253" lon="6.16434">
        <ele>1514.1424560547</ele>
        <time>2010-08-04T13:02:08Z</time>
      </trkpt>
      <trkpt lat="45.39249" lon="6.16443">
        <ele>1513.7476806641</ele>
        <time>2010-08-04T13:02:12Z</time>
      </trkpt>
      <trkpt lat="45.39249" lon="6.16444">
        <ele>1513.6091308594</ele>
        <time>2010-08-04T13:02:14Z</time>
      </trkpt>
      <trkpt lat="45.39251" lon="6.1644">
        <ele>1513.5103759766</ele>
        <time>2010-08-04T13:02:17Z</time>
      </trkpt>
      <trkpt lat="45.39249" lon="6.16443">
        <ele>1513.7752685547</ele>
        <time>2010-08-04T13:02:22Z</time>
      </trkpt>
      <trkpt lat="45.39246" lon="6.1645">
        <ele>1512.5734863281</ele>
        <time>2010-08-04T13:02:49Z</time>
      </trkpt>
      <trkpt lat="45.39246" lon="6.1645">
        <ele>1512.3503417969</ele>
        <time>2010-08-04T13:02:56Z</time>
      </trkpt>
      <trkpt lat="45.39244" lon="6.16452">
        <ele>1512.3846435547</ele>
        <time>2010-08-04T13:03:10Z</time>
      </trkpt>
      <trkpt lat="45.39249" lon="6.16448">
        <ele>1511.8697509766</ele>
        <time>2010-08-04T13:04:01Z</time>
      </trkpt>
      <trkpt lat="45.39253" lon="6.16442">
        <ele>1511.94921875</ele>
        <time>2010-08-04T13:04:08Z</time>
      </trkpt>
      <trkpt lat="45.39248" lon="6.16444">
        <ele>1513.9958496094</ele>
        <time>2010-08-04T13:04:15Z</time>
      </trkpt>
      <trkpt lat="45.39244" lon="6.16449">
        <ele>1513.5347900391</ele>
        <time>2010-08-04T13:04:20Z</time>
      </trkpt>
      <trkpt lat="45.39235" lon="6.16456">
        <ele>1514.2386474609</ele>
        <time>2010-08-04T13:04:29Z</time>
      </trkpt>
      <trkpt lat="45.39228" lon="6.16475">
        <ele>1509.9328613281</ele>
        <time>2010-08-04T13:04:36Z</time>
      </trkpt>
      <trkpt lat="45.39221" lon="6.1649">
        <ele>1507.0799560547</ele>
        <time>2010-08-04T13:04:45Z</time>
      </trkpt>
      <trkpt lat="45.39213" lon="6.165">
        <ele>1502.2126464844</ele>
        <time>2010-08-04T13:04:53Z</time>
      </trkpt>
      <trkpt lat="45.39211" lon="6.16497">
        <ele>1502.7858886719</ele>
        <time>2010-08-04T13:04:56Z</time>
      </trkpt>
      <trkpt lat="45.3921" lon="6.16493">
        <ele>1504.3824462891</ele>
        <time>2010-08-04T13:05:02Z</time>
      </trkpt>
      <trkpt lat="45.39206" lon="6.16494">
        <ele>1502.8110351562</ele>
        <time>2010-08-04T13:05:07Z</time>
      </trkpt>
      <trkpt lat="45.39203" lon="6.16497">
        <ele>1501.4405517578</ele>
        <time>2010-08-04T13:05:09Z</time>
      </trkpt>
      <trkpt lat="45.39199" lon="6.165">
        <ele>1499.1499023438</ele>
        <time>2010-08-04T13:05:12Z</time>
      </trkpt>
      <trkpt lat="45.39189" lon="6.16503">
        <ele>1493.5858154297</ele>
        <time>2010-08-04T13:05:19Z</time>
      </trkpt>
      <trkpt lat="45.39185" lon="6.16507">
        <ele>1489.4992675781</ele>
        <time>2010-08-04T13:05:25Z</time>
      </trkpt>
      <trkpt lat="45.39179" lon="6.16515">
        <ele>1481.4323730469</ele>
        <time>2010-08-04T13:05:31Z</time>
      </trkpt>
      <trkpt lat="45.39179" lon="6.1652">
        <ele>1478.6423339844</ele>
        <time>2010-08-04T13:05:34Z</time>
      </trkpt>
      <trkpt lat="45.39179" lon="6.16525">
        <ele>1475.4163818359</ele>
        <time>2010-08-04T13:05:37Z</time>
      </trkpt>
      <trkpt lat="45.39172" lon="6.16529">
        <ele>1468.3166503906</ele>
        <time>2010-08-04T13:05:44Z</time>
      </trkpt>
      <trkpt lat="45.3917" lon="6.1653">
        <ele>1466.1239013672</ele>
        <time>2010-08-04T13:05:51Z</time>
      </trkpt>
      <trkpt lat="45.39168" lon="6.16533">
        <ele>1462.9061279297</ele>
        <time>2010-08-04T13:06:12Z</time>
      </trkpt>
      <trkpt lat="45.3917" lon="6.16541">
        <ele>1459.3270263672</ele>
        <time>2010-08-04T13:06:22Z</time>
      </trkpt>
      <trkpt lat="45.39169" lon="6.16545">
        <ele>1457.0595703125</ele>
        <time>2010-08-04T13:06:38Z</time>
      </trkpt>
      <trkpt lat="45.39182" lon="6.16531">
        <ele>1473.3187255859</ele>
        <time>2010-08-04T13:08:12Z</time>
      </trkpt>
      <trkpt lat="45.39183" lon="6.16536">
        <ele>1470.9241943359</ele>
        <time>2010-08-04T13:08:15Z</time>
      </trkpt>
      <trkpt lat="45.39186" lon="6.16544">
        <ele>1465.8135986328</ele>
        <time>2010-08-04T13:08:22Z</time>
      </trkpt>
      <trkpt lat="45.39179" lon="6.16522">
        <ele>1477.3288574219</ele>
        <time>2010-08-04T13:08:47Z</time>
      </trkpt>
      <trkpt lat="45.39178" lon="6.16539">
        <ele>1465.6016845703</ele>
        <time>2010-08-04T13:09:40Z</time>
      </trkpt>
      <trkpt lat="45.39172" lon="6.16537">
        <ele>1463.0989990234</ele>
        <time>2010-08-04T13:09:45Z</time>
      </trkpt>
      <trkpt lat="45.39164" lon="6.16535">
        <ele>1461.3776855469</ele>
        <time>2010-08-04T13:09:51Z</time>
      </trkpt>
      <trkpt lat="45.39155" lon="6.16532">
        <ele>1463.8485107422</ele>
        <time>2010-08-04T13:09:59Z</time>
      </trkpt>
      <trkpt lat="45.39149" lon="6.16528">
        <ele>1465.5479736328</ele>
        <time>2010-08-04T13:10:05Z</time>
      </trkpt>
      <trkpt lat="45.39144" lon="6.16525">
        <ele>1466.6853027344</ele>
        <time>2010-08-04T13:10:09Z</time>
      </trkpt>
      <trkpt lat="45.39133" lon="6.16515">
        <ele>1471.7667236328</ele>
        <time>2010-08-04T13:10:16Z</time>
      </trkpt>
      <trkpt lat="45.39124" lon="6.16507">
        <ele>1475.8735351562</ele>
        <time>2010-08-04T13:10:21Z</time>
      </trkpt>
      <trkpt lat="45.39116" lon="6.165">
        <ele>1478.1300048828</ele>
        <time>2010-08-04T13:10:26Z</time>
      </trkpt>
      <trkpt lat="45.39108" lon="6.16494">
        <ele>1479.2729492188</ele>
        <time>2010-08-04T13:10:31Z</time>
      </trkpt>
      <trkpt lat="45.39102" lon="6.16492">
        <ele>1479.4735107422</ele>
        <time>2010-08-04T13:10:36Z</time>
      </trkpt>
      <trkpt lat="45.39096" lon="6.16486">
        <ele>1480.0059814453</ele>
        <time>2010-08-04T13:10:39Z</time>
      </trkpt>
      <trkpt lat="45.39094" lon="6.16483">
        <ele>1480.3343505859</ele>
        <time>2010-08-04T13:10:41Z</time>
      </trkpt>
      <trkpt lat="45.39083" lon="6.16473">
        <ele>1482.1177978516</ele>
        <time>2010-08-04T13:10:47Z</time>
      </trkpt>
      <trkpt lat="45.39081" lon="6.16472">
        <ele>1483.1273193359</ele>
        <time>2010-08-04T13:10:48Z</time>
      </trkpt>
      <trkpt lat="45.39075" lon="6.16469">
        <ele>1486.1284179688</ele>
        <time>2010-08-04T13:10:54Z</time>
      </trkpt>
      <trkpt lat="45.39072" lon="6.16469">
        <ele>1487.0133056641</ele>
        <time>2010-08-04T13:10:57Z</time>
      </trkpt>
      <trkpt lat="45.39067" lon="6.16472">
        <ele>1488.2303466797</ele>
        <time>2010-08-04T13:11:01Z</time>
      </trkpt>
      <trkpt lat="45.39056" lon="6.16469">
        <ele>1493.1429443359</ele>
        <time>2010-08-04T13:11:08Z</time>
      </trkpt>
      <trkpt lat="45.39052" lon="6.16472">
        <ele>1493.0675048828</ele>
        <time>2010-08-04T13:11:12Z</time>
      </trkpt>
      <trkpt lat="45.39043" lon="6.16471">
        <ele>1496.2379150391</ele>
        <time>2010-08-04T13:11:18Z</time>
      </trkpt>
      <trkpt lat="45.39035" lon="6.16475">
        <ele>1497.8591308594</ele>
        <time>2010-08-04T13:11:24Z</time>
      </trkpt>
      <trkpt lat="45.39025" lon="6.16474">
        <ele>1500.2645263672</ele>
        <time>2010-08-04T13:11:30Z</time>
      </trkpt>
      <trkpt lat="45.39015" lon="6.16477">
        <ele>1501.2801513672</ele>
        <time>2010-08-04T13:11:37Z</time>
      </trkpt>
      <trkpt lat="45.39006" lon="6.16476">
        <ele>1502.5667724609</ele>
        <time>2010-08-04T13:11:43Z</time>
      </trkpt>
      <trkpt lat="45.39001" lon="6.16478">
        <ele>1502.8259277344</ele>
        <time>2010-08-04T13:11:47Z</time>
      </trkpt>
      <trkpt lat="45.38992" lon="6.16482">
        <ele>1505.8699951172</ele>
        <time>2010-08-04T13:11:54Z</time>
      </trkpt>
      <trkpt lat="45.38987" lon="6.16483">
        <ele>1508.3590087891</ele>
        <time>2010-08-04T13:12:02Z</time>
      </trkpt>
      <trkpt lat="45.38986" lon="6.16492">
        <ele>1506.9411621094</ele>
        <time>2010-08-04T13:12:07Z</time>
      </trkpt>
      <trkpt lat="45.38981" lon="6.165">
        <ele>1507.7944335938</ele>
        <time>2010-08-04T13:12:12Z</time>
      </trkpt>
      <trkpt lat="45.38977" lon="6.16504">
        <ele>1509.9475097656</ele>
        <time>2010-08-04T13:12:19Z</time>
      </trkpt>
      <trkpt lat="45.38978" lon="6.16508">
        <ele>1510.0266113281</ele>
        <time>2010-08-04T13:12:24Z</time>
      </trkpt>
      <trkpt lat="45.38984" lon="6.16515">
        <ele>1507.7569580078</ele>
        <time>2010-08-04T13:12:30Z</time>
      </trkpt>
      <trkpt lat="45.38984" lon="6.16517">
        <ele>1508.0803222656</ele>
        <time>2010-08-04T13:12:36Z</time>
      </trkpt>
      <trkpt lat="45.38986" lon="6.16523">
        <ele>1507.4909667969</ele>
        <time>2010-08-04T13:12:41Z</time>
      </trkpt>
      <trkpt lat="45.3899" lon="6.16528">
        <ele>1505.9970703125</ele>
        <time>2010-08-04T13:12:45Z</time>
      </trkpt>
      <trkpt lat="45.3898" lon="6.16536">
        <ele>1509.0645751953</ele>
        <time>2010-08-04T13:12:51Z</time>
      </trkpt>
      <trkpt lat="45.38971" lon="6.16541">
        <ele>1511.6480712891</ele>
        <time>2010-08-04T13:12:57Z</time>
      </trkpt>
      <trkpt lat="45.38964" lon="6.16545">
        <ele>1512.9045410156</ele>
        <time>2010-08-04T13:13:03Z</time>
      </trkpt>
      <trkpt lat="45.38959" lon="6.16546">
        <ele>1514.6530761719</ele>
        <time>2010-08-04T13:13:06Z</time>
      </trkpt>
      <trkpt lat="45.38956" lon="6.16553">
        <ele>1514.6700439453</ele>
        <time>2010-08-04T13:13:11Z</time>
      </trkpt>
      <trkpt lat="45.38945" lon="6.1656">
        <ele>1518.208984375</ele>
        <time>2010-08-04T13:13:17Z</time>
      </trkpt>
      <trkpt lat="45.38935" lon="6.16565">
        <ele>1524.9942626953</ele>
        <time>2010-08-04T13:13:23Z</time>
      </trkpt>
      <trkpt lat="45.38929" lon="6.16566">
        <ele>1528.7081298828</ele>
        <time>2010-08-04T13:13:27Z</time>
      </trkpt>
      <trkpt lat="45.38927" lon="6.16567">
        <ele>1530.3701171875</ele>
        <time>2010-08-04T13:13:31Z</time>
      </trkpt>
      <trkpt lat="45.38926" lon="6.16563">
        <ele>1530.6372070312</ele>
        <time>2010-08-04T13:13:33Z</time>
      </trkpt>
      <trkpt lat="45.38921" lon="6.16564">
        <ele>1534.3162841797</ele>
        <time>2010-08-04T13:13:38Z</time>
      </trkpt>
      <trkpt lat="45.38916" lon="6.16562">
        <ele>1537.3227539062</ele>
        <time>2010-08-04T13:13:43Z</time>
      </trkpt>
      <trkpt lat="45.38913" lon="6.16563">
        <ele>1539.2136230469</ele>
        <time>2010-08-04T13:13:46Z</time>
      </trkpt>
      <trkpt lat="45.3891" lon="6.1656">
        <ele>1540.4699707031</ele>
        <time>2010-08-04T13:13:52Z</time>
      </trkpt>
      <trkpt lat="45.38912" lon="6.1656">
        <ele>1539.4476318359</ele>
        <time>2010-08-04T13:13:53Z</time>
      </trkpt>
      <trkpt lat="45.38921" lon="6.16563">
        <ele>1534.1634521484</ele>
        <time>2010-08-04T13:13:59Z</time>
      </trkpt>
      <trkpt lat="45.38923" lon="6.16568">
        <ele>1533.0803222656</ele>
        <time>2010-08-04T13:14:02Z</time>
      </trkpt>
      <trkpt lat="45.38932" lon="6.16574">
        <ele>1527.3262939453</ele>
        <time>2010-08-04T13:14:09Z</time>
      </trkpt>
      <trkpt lat="45.38931" lon="6.16576">
        <ele>1527.6949462891</ele>
        <time>2010-08-04T13:14:11Z</time>
      </trkpt>
      <trkpt lat="45.38931" lon="6.16588">
        <ele>1528.8914794922</ele>
        <time>2010-08-04T13:14:17Z</time>
      </trkpt>
      <trkpt lat="45.38929" lon="6.16589">
        <ele>1530.3558349609</ele>
        <time>2010-08-04T13:14:18Z</time>
      </trkpt>
      <trkpt lat="45.38923" lon="6.16595">
        <ele>1537.1293945312</ele>
        <time>2010-08-04T13:14:25Z</time>
      </trkpt>
      <trkpt lat="45.38929" lon="6.16596">
        <ele>1531.7294921875</ele>
        <time>2010-08-04T13:14:30Z</time>
      </trkpt>
      <trkpt lat="45.38932" lon="6.166">
        <ele>1529.6342773438</ele>
        <time>2010-08-04T13:14:33Z</time>
      </trkpt>
      <trkpt lat="45.38929" lon="6.16611">
        <ele>1533.4978027344</ele>
        <time>2010-08-04T13:14:38Z</time>
      </trkpt>
      <trkpt lat="45.38929" lon="6.16613">
        <ele>1534.529296875</ele>
        <time>2010-08-04T13:14:39Z</time>
      </trkpt>
      <trkpt lat="45.3893" lon="6.16633">
        <ele>1536.4381103516</ele>
        <time>2010-08-04T13:14:47Z</time>
      </trkpt>
      <trkpt lat="45.38929" lon="6.16646">
        <ele>1539.1077880859</ele>
        <time>2010-08-04T13:14:52Z</time>
      </trkpt>
      <trkpt lat="45.38926" lon="6.16658">
        <ele>1544.4465332031</ele>
        <time>2010-08-04T13:14:56Z</time>
      </trkpt>
      <trkpt lat="45.38925" lon="6.16663">
        <ele>1546.04296875</ele>
        <time>2010-08-04T13:14:58Z</time>
      </trkpt>
      <trkpt lat="45.38924" lon="6.16667">
        <ele>1547.4547119141</ele>
        <time>2010-08-04T13:15:00Z</time>
      </trkpt>
      <trkpt lat="45.38924" lon="6.16675">
        <ele>1548.4970703125</ele>
        <time>2010-08-04T13:15:04Z</time>
      </trkpt>
      <trkpt lat="45.38926" lon="6.16687">
        <ele>1549.0131835938</ele>
        <time>2010-08-04T13:15:10Z</time>
      </trkpt>
      <trkpt lat="45.38927" lon="6.16688">
        <ele>1547.8775634766</ele>
        <time>2010-08-04T13:15:11Z</time>
      </trkpt>
      <trkpt lat="45.38922" lon="6.16697">
        <ele>1554.2373046875</ele>
        <time>2010-08-04T13:15:17Z</time>
      </trkpt>
      <trkpt lat="45.38919" lon="6.167">
        <ele>1557.7225341797</ele>
        <time>2010-08-04T13:15:19Z</time>
      </trkpt>
      <trkpt lat="45.38919" lon="6.16717">
        <ele>1558.9030761719</ele>
        <time>2010-08-04T13:15:25Z</time>
      </trkpt>
      <trkpt lat="45.38924" lon="6.16738">
        <ele>1557.4733886719</ele>
        <time>2010-08-04T13:15:32Z</time>
      </trkpt>
      <trkpt lat="45.38924" lon="6.16741">
        <ele>1557.4545898438</ele>
        <time>2010-08-04T13:15:34Z</time>
      </trkpt>
      <trkpt lat="45.38927" lon="6.16755">
        <ele>1555.517578125</ele>
        <time>2010-08-04T13:15:41Z</time>
      </trkpt>
      <trkpt lat="45.3892" lon="6.16771">
        <ele>1562.6534423828</ele>
        <time>2010-08-04T13:15:48Z</time>
      </trkpt>
      <trkpt lat="45.38918" lon="6.16779">
        <ele>1565.2426757812</ele>
        <time>2010-08-04T13:15:53Z</time>
      </trkpt>
      <trkpt lat="45.38917" lon="6.16782">
        <ele>1565.5712890625</ele>
        <time>2010-08-04T13:15:54Z</time>
      </trkpt>
      <trkpt lat="45.38911" lon="6.16798">
        <ele>1569.9947509766</ele>
        <time>2010-08-04T13:16:02Z</time>
      </trkpt>
      <trkpt lat="45.38911" lon="6.168">
        <ele>1570.3266601562</ele>
        <time>2010-08-04T13:16:03Z</time>
      </trkpt>
      <trkpt lat="45.38912" lon="6.1681">
        <ele>1569.3433837891</ele>
        <time>2010-08-04T13:16:07Z</time>
      </trkpt>
      <trkpt lat="45.38911" lon="6.16825">
        <ele>1567.9412841797</ele>
        <time>2010-08-04T13:16:14Z</time>
      </trkpt>
      <trkpt lat="45.38913" lon="6.16842">
        <ele>1564.8680419922</ele>
        <time>2010-08-04T13:16:22Z</time>
      </trkpt>
      <trkpt lat="45.38914" lon="6.16856">
        <ele>1562.0043945312</ele>
        <time>2010-08-04T13:16:29Z</time>
      </trkpt>
      <trkpt lat="45.38911" lon="6.16868">
        <ele>1561.8948974609</ele>
        <time>2010-08-04T13:16:34Z</time>
      </trkpt>
      <trkpt lat="45.38914" lon="6.16884">
        <ele>1557.3807373047</ele>
        <time>2010-08-04T13:16:39Z</time>
      </trkpt>
      <trkpt lat="45.38916" lon="6.1689">
        <ele>1553.9781494141</ele>
        <time>2010-08-04T13:16:41Z</time>
      </trkpt>
      <trkpt lat="45.38921" lon="6.16908">
        <ele>1548.5612792969</ele>
        <time>2010-08-04T13:16:47Z</time>
      </trkpt>
      <trkpt lat="45.38923" lon="6.16924">
        <ele>1545.4020996094</ele>
        <time>2010-08-04T13:16:52Z</time>
      </trkpt>
      <trkpt lat="45.38919" lon="6.16937">
        <ele>1544.3159179688</ele>
        <time>2010-08-04T13:16:58Z</time>
      </trkpt>
      <trkpt lat="45.3892" lon="6.16944">
        <ele>1542.9797363281</ele>
        <time>2010-08-04T13:17:10Z</time>
      </trkpt>
      <trkpt lat="45.3892" lon="6.16951">
        <ele>1541.3670654297</ele>
        <time>2010-08-04T13:17:22Z</time>
      </trkpt>
      <trkpt lat="45.3892" lon="6.16953">
        <ele>1541.2547607422</ele>
        <time>2010-08-04T13:17:23Z</time>
      </trkpt>
      <trkpt lat="45.38916" lon="6.16972">
        <ele>1538.5064697266</ele>
        <time>2010-08-04T13:17:30Z</time>
      </trkpt>
      <trkpt lat="45.38917" lon="6.16978">
        <ele>1536.1218261719</ele>
        <time>2010-08-04T13:17:35Z</time>
      </trkpt>
      <trkpt lat="45.38922" lon="6.16976">
        <ele>1535.4959716797</ele>
        <time>2010-08-04T13:17:41Z</time>
      </trkpt>
      <trkpt lat="45.38923" lon="6.16978">
        <ele>1534.4383544922</ele>
        <time>2010-08-04T13:17:42Z</time>
      </trkpt>
      <trkpt lat="45.38929" lon="6.16994">
        <ele>1528.6920166016</ele>
        <time>2010-08-04T13:17:49Z</time>
      </trkpt>
      <trkpt lat="45.3893" lon="6.17006">
        <ele>1524.7991943359</ele>
        <time>2010-08-04T13:17:53Z</time>
      </trkpt>
      <trkpt lat="45.38932" lon="6.17013">
        <ele>1522.3948974609</ele>
        <time>2010-08-04T13:17:55Z</time>
      </trkpt>
      <trkpt lat="45.3894" lon="6.17032">
        <ele>1513.6566162109</ele>
        <time>2010-08-04T13:18:01Z</time>
      </trkpt>
      <trkpt lat="45.38946" lon="6.17045">
        <ele>1507.0903320312</ele>
        <time>2010-08-04T13:18:05Z</time>
      </trkpt>
      <trkpt lat="45.38948" lon="6.17047">
        <ele>1505.8367919922</ele>
        <time>2010-08-04T13:18:06Z</time>
      </trkpt>
      <trkpt lat="45.38948" lon="6.17054">
        <ele>1503.0191650391</ele>
        <time>2010-08-04T13:18:08Z</time>
      </trkpt>
      <trkpt lat="45.3894" lon="6.17076">
        <ele>1496.8046875</ele>
        <time>2010-08-04T13:18:14Z</time>
      </trkpt>
      <trkpt lat="45.38931" lon="6.17106">
        <ele>1488.6826171875</ele>
        <time>2010-08-04T13:18:21Z</time>
      </trkpt>
      <trkpt lat="45.38928" lon="6.17129">
        <ele>1480.5014648438</ele>
        <time>2010-08-04T13:18:26Z</time>
      </trkpt>
      <trkpt lat="45.38922" lon="6.17142">
        <ele>1477.4669189453</ele>
        <time>2010-08-04T13:18:31Z</time>
      </trkpt>
      <trkpt lat="45.3892" lon="6.17168">
        <ele>1469.2625732422</ele>
        <time>2010-08-04T13:18:38Z</time>
      </trkpt>
      <trkpt lat="45.3892" lon="6.1719">
        <ele>1462.9144287109</ele>
        <time>2010-08-04T13:18:44Z</time>
      </trkpt>
      <trkpt lat="45.38916" lon="6.17213">
        <ele>1454.5570068359</ele>
        <time>2010-08-04T13:18:50Z</time>
      </trkpt>
      <trkpt lat="45.3891" lon="6.17226">
        <ele>1450.4157714844</ele>
        <time>2010-08-04T13:18:55Z</time>
      </trkpt>
      <trkpt lat="45.389" lon="6.17243">
        <ele>1446.4400634766</ele>
        <time>2010-08-04T13:19:00Z</time>
      </trkpt>
      <trkpt lat="45.38891" lon="6.17267">
        <ele>1439.0460205078</ele>
        <time>2010-08-04T13:19:06Z</time>
      </trkpt>
      <trkpt lat="45.38886" lon="6.17293">
        <ele>1427.1059570312</ele>
        <time>2010-08-04T13:19:11Z</time>
      </trkpt>
      <trkpt lat="45.38887" lon="6.1731">
        <ele>1418.6148681641</ele>
        <time>2010-08-04T13:19:16Z</time>
      </trkpt>
      <trkpt lat="45.38888" lon="6.17309">
        <ele>1418.8148193359</ele>
        <time>2010-08-04T13:19:21Z</time>
      </trkpt>
      <trkpt lat="45.38889" lon="6.17314">
        <ele>1416.9702148438</ele>
        <time>2010-08-04T13:19:25Z</time>
      </trkpt>
      <trkpt lat="45.38894" lon="6.17327">
        <ele>1412.3233642578</ele>
        <time>2010-08-04T13:19:29Z</time>
      </trkpt>
      <trkpt lat="45.3891" lon="6.17336">
        <ele>1409.2329101562</ele>
        <time>2010-08-04T13:19:34Z</time>
      </trkpt>
      <trkpt lat="45.38921" lon="6.17338">
        <ele>1408.2407226562</ele>
        <time>2010-08-04T13:19:37Z</time>
      </trkpt>
      <trkpt lat="45.38942" lon="6.17341">
        <ele>1406.775390625</ele>
        <time>2010-08-04T13:19:42Z</time>
      </trkpt>
      <trkpt lat="45.38964" lon="6.17348">
        <ele>1404.0385742188</ele>
        <time>2010-08-04T13:19:46Z</time>
      </trkpt>
      <trkpt lat="45.38978" lon="6.17351">
        <ele>1403.0743408203</ele>
        <time>2010-08-04T13:19:49Z</time>
      </trkpt>
      <trkpt lat="45.38994" lon="6.17355">
        <ele>1402.1911621094</ele>
        <time>2010-08-04T13:19:53Z</time>
      </trkpt>
      <trkpt lat="45.39001" lon="6.17358">
        <ele>1401.3928222656</ele>
        <time>2010-08-04T13:19:55Z</time>
      </trkpt>
      <trkpt lat="45.39014" lon="6.17363">
        <ele>1398.2231445312</ele>
        <time>2010-08-04T13:19:59Z</time>
      </trkpt>
      <trkpt lat="45.39027" lon="6.17374">
        <ele>1392.5078125</ele>
        <time>2010-08-04T13:20:05Z</time>
      </trkpt>
      <trkpt lat="45.39037" lon="6.17376">
        <ele>1389.5148925781</ele>
        <time>2010-08-04T13:20:10Z</time>
      </trkpt>
      <trkpt lat="45.39047" lon="6.1738">
        <ele>1385.5289306641</ele>
        <time>2010-08-04T13:20:15Z</time>
      </trkpt>
      <trkpt lat="45.39057" lon="6.17385">
        <ele>1380.7677001953</ele>
        <time>2010-08-04T13:20:20Z</time>
      </trkpt>
      <trkpt lat="45.39063" lon="6.17387">
        <ele>1378.251953125</ele>
        <time>2010-08-04T13:20:24Z</time>
      </trkpt>
      <trkpt lat="45.39074" lon="6.17392">
        <ele>1372.8785400391</ele>
        <time>2010-08-04T13:20:28Z</time>
      </trkpt>
      <trkpt lat="45.39075" lon="6.17393">
        <ele>1371.9656982422</ele>
        <time>2010-08-04T13:20:29Z</time>
      </trkpt>
      <trkpt lat="45.39082" lon="6.17397">
        <ele>1368.9248046875</ele>
        <time>2010-08-04T13:20:32Z</time>
      </trkpt>
      <trkpt lat="45.39108" lon="6.17409">
        <ele>1362.1304931641</ele>
        <time>2010-08-04T13:20:38Z</time>
      </trkpt>
      <trkpt lat="45.39116" lon="6.17424">
        <ele>1354.6799316406</ele>
        <time>2010-08-04T13:20:42Z</time>
      </trkpt>
      <trkpt lat="45.39127" lon="6.17447">
        <ele>1341.9385986328</ele>
        <time>2010-08-04T13:20:45Z</time>
      </trkpt>
      <trkpt lat="45.3913" lon="6.17457">
        <ele>1336.216796875</ele>
        <time>2010-08-04T13:20:46Z</time>
      </trkpt>
      <trkpt lat="45.39133" lon="6.17473">
        <ele>1329.0319824219</ele>
        <time>2010-08-04T13:20:48Z</time>
      </trkpt>
      <trkpt lat="45.39122" lon="6.17484">
        <ele>1327.3818359375</ele>
        <time>2010-08-04T13:20:52Z</time>
      </trkpt>
      <trkpt lat="45.3911" lon="6.1749">
        <ele>1329.2828369141</ele>
        <time>2010-08-04T13:20:56Z</time>
      </trkpt>
      <trkpt lat="45.39103" lon="6.17511">
        <ele>1325.1629638672</ele>
        <time>2010-08-04T13:21:00Z</time>
      </trkpt>
      <trkpt lat="45.39097" lon="6.17533">
        <ele>1320.8210449219</ele>
        <time>2010-08-04T13:21:05Z</time>
      </trkpt>
      <trkpt lat="45.39092" lon="6.17538">
        <ele>1320.7427978516</ele>
        <time>2010-08-04T13:21:07Z</time>
      </trkpt>
      <trkpt lat="45.39073" lon="6.17556">
        <ele>1321.0177001953</ele>
        <time>2010-08-04T13:21:14Z</time>
      </trkpt>
      <trkpt lat="45.39066" lon="6.17576">
        <ele>1315.6280517578</ele>
        <time>2010-08-04T13:21:19Z</time>
      </trkpt>
      <trkpt lat="45.39063" lon="6.17584">
        <ele>1313.6336669922</ele>
        <time>2010-08-04T13:21:21Z</time>
      </trkpt>
      <trkpt lat="45.39062" lon="6.1762">
        <ele>1303.4464111328</ele>
        <time>2010-08-04T13:21:26Z</time>
      </trkpt>
      <trkpt lat="45.39062" lon="6.17632">
        <ele>1299.6059570312</ele>
        <time>2010-08-04T13:21:28Z</time>
      </trkpt>
      <trkpt lat="45.3906" lon="6.17639">
        <ele>1297.7650146484</ele>
        <time>2010-08-04T13:21:31Z</time>
      </trkpt>
      <trkpt lat="45.39059" lon="6.17641">
        <ele>1297.5513916016</ele>
        <time>2010-08-04T13:21:41Z</time>
      </trkpt>
      <trkpt lat="45.39044" lon="6.17635">
        <ele>1301.7996826172</ele>
        <time>2010-08-04T13:21:45Z</time>
      </trkpt>
      <trkpt lat="45.39029" lon="6.17634">
        <ele>1303.0196533203</ele>
        <time>2010-08-04T13:21:49Z</time>
      </trkpt>
      <trkpt lat="45.39016" lon="6.17632">
        <ele>1300.5601806641</ele>
        <time>2010-08-04T13:21:52Z</time>
      </trkpt>
      <trkpt lat="45.39005" lon="6.17626">
        <ele>1299.4005126953</ele>
        <time>2010-08-04T13:21:54Z</time>
      </trkpt>
      <trkpt lat="45.38982" lon="6.17619">
        <ele>1296.2017822266</ele>
        <time>2010-08-04T13:21:59Z</time>
      </trkpt>
      <trkpt lat="45.38963" lon="6.17611">
        <ele>1298.5874023438</ele>
        <time>2010-08-04T13:22:03Z</time>
      </trkpt>
      <trkpt lat="45.38952" lon="6.17609">
        <ele>1302.5300292969</ele>
        <time>2010-08-04T13:22:05Z</time>
      </trkpt>
      <trkpt lat="45.38937" lon="6.17614">
        <ele>1305.4605712891</ele>
        <time>2010-08-04T13:22:09Z</time>
      </trkpt>
      <trkpt lat="45.38923" lon="6.1763">
        <ele>1305.900390625</ele>
        <time>2010-08-04T13:22:15Z</time>
      </trkpt>
      <trkpt lat="45.38908" lon="6.17637">
        <ele>1307.6313476562</ele>
        <time>2010-08-04T13:22:20Z</time>
      </trkpt>
      <trkpt lat="45.38902" lon="6.17653">
        <ele>1304.5334472656</ele>
        <time>2010-08-04T13:22:24Z</time>
      </trkpt>
      <trkpt lat="45.38897" lon="6.17678">
        <ele>1298.5980224609</ele>
        <time>2010-08-04T13:22:29Z</time>
      </trkpt>
      <trkpt lat="45.38887" lon="6.17696">
        <ele>1294.6442871094</ele>
        <time>2010-08-04T13:22:34Z</time>
      </trkpt>
      <trkpt lat="45.38873" lon="6.17707">
        <ele>1291.7122802734</ele>
        <time>2010-08-04T13:22:40Z</time>
      </trkpt>
      <trkpt lat="45.38858" lon="6.17718">
        <ele>1289.2243652344</ele>
        <time>2010-08-04T13:22:45Z</time>
      </trkpt>
      <trkpt lat="45.3884" lon="6.1772">
        <ele>1289.9248046875</ele>
        <time>2010-08-04T13:22:50Z</time>
      </trkpt>
      <trkpt lat="45.3883" lon="6.17728">
        <ele>1288.2817382812</ele>
        <time>2010-08-04T13:22:54Z</time>
      </trkpt>
      <trkpt lat="45.3882" lon="6.17735">
        <ele>1285.2039794922</ele>
        <time>2010-08-04T13:22:58Z</time>
      </trkpt>
      <trkpt lat="45.38806" lon="6.17735">
        <ele>1282.7993164062</ele>
        <time>2010-08-04T13:23:02Z</time>
      </trkpt>
      <trkpt lat="45.3878" lon="6.17729">
        <ele>1279.4567871094</ele>
        <time>2010-08-04T13:23:07Z</time>
      </trkpt>
      <trkpt lat="45.38768" lon="6.17729">
        <ele>1278.0687255859</ele>
        <time>2010-08-04T13:23:10Z</time>
      </trkpt>
      <trkpt lat="45.38758" lon="6.17731">
        <ele>1276.4791259766</ele>
        <time>2010-08-04T13:23:14Z</time>
      </trkpt>
      <trkpt lat="45.38731" lon="6.17724">
        <ele>1283.2416992188</ele>
        <time>2010-08-04T13:23:20Z</time>
      </trkpt>
      <trkpt lat="45.38721" lon="6.17724">
        <ele>1285.9621582031</ele>
        <time>2010-08-04T13:23:22Z</time>
      </trkpt>
      <trkpt lat="45.38736" lon="6.17759">
        <ele>1270.2939453125</ele>
        <time>2010-08-04T13:23:25Z</time>
      </trkpt>
      <trkpt lat="45.38747" lon="6.17783">
        <ele>1259.9204101562</ele>
        <time>2010-08-04T13:23:27Z</time>
      </trkpt>
      <trkpt lat="45.3877" lon="6.17826">
        <ele>1247.9239501953</ele>
        <time>2010-08-04T13:23:29Z</time>
      </trkpt>
      <trkpt lat="45.38787" lon="6.17865">
        <ele>1238.7834472656</ele>
        <time>2010-08-04T13:23:35Z</time>
      </trkpt>
      <trkpt lat="45.3879" lon="6.17871">
        <ele>1238.3436279297</ele>
        <time>2010-08-04T13:23:36Z</time>
      </trkpt>
      <trkpt lat="45.38813" lon="6.17929">
        <ele>1231.9711914062</ele>
        <time>2010-08-04T13:23:43Z</time>
      </trkpt>
      <trkpt lat="45.38803" lon="6.1794">
        <ele>1231.5057373047</ele>
        <time>2010-08-04T13:23:47Z</time>
      </trkpt>
      <trkpt lat="45.38792" lon="6.17951">
        <ele>1231.8570556641</ele>
        <time>2010-08-04T13:23:54Z</time>
      </trkpt>
      <trkpt lat="45.38773" lon="6.17957">
        <ele>1233.7705078125</ele>
        <time>2010-08-04T13:24:31Z</time>
      </trkpt>
      <trkpt lat="45.38773" lon="6.17962">
        <ele>1233.4581298828</ele>
        <time>2010-08-04T13:24:36Z</time>
      </trkpt>
      <trkpt lat="45.38767" lon="6.17966">
        <ele>1234.0314941406</ele>
        <time>2010-08-04T13:24:41Z</time>
      </trkpt>
      <trkpt lat="45.38763" lon="6.1797">
        <ele>1234.2751464844</ele>
        <time>2010-08-04T13:24:45Z</time>
      </trkpt>
      <trkpt lat="45.38759" lon="6.17978">
        <ele>1234.3498535156</ele>
        <time>2010-08-04T13:24:52Z</time>
      </trkpt>
      <trkpt lat="45.38752" lon="6.17982">
        <ele>1234.9685058594</ele>
        <time>2010-08-04T13:24:57Z</time>
      </trkpt>
      <trkpt lat="45.38748" lon="6.17985">
        <ele>1235.3875732422</ele>
        <time>2010-08-04T13:25:01Z</time>
      </trkpt>
      <trkpt lat="45.38744" lon="6.17987">
        <ele>1235.8819580078</ele>
        <time>2010-08-04T13:25:04Z</time>
      </trkpt>
      <trkpt lat="45.38739" lon="6.17987">
        <ele>1236.6029052734</ele>
        <time>2010-08-04T13:25:08Z</time>
      </trkpt>
      <trkpt lat="45.38726" lon="6.17985">
        <ele>1238.5048828125</ele>
        <time>2010-08-04T13:25:12Z</time>
      </trkpt>
      <trkpt lat="45.38723" lon="6.17988">
        <ele>1238.7177734375</ele>
        <time>2010-08-04T13:25:15Z</time>
      </trkpt>
      <trkpt lat="45.38717" lon="6.17998">
        <ele>1238.9859619141</ele>
        <time>2010-08-04T13:25:21Z</time>
      </trkpt>
      <trkpt lat="45.38708" lon="6.18003">
        <ele>1239.8400878906</ele>
        <time>2010-08-04T13:25:26Z</time>
      </trkpt>
      <trkpt lat="45.38696" lon="6.18005">
        <ele>1241.2836914062</ele>
        <time>2010-08-04T13:25:31Z</time>
      </trkpt>
      <trkpt lat="45.38696" lon="6.18011">
        <ele>1240.6687011719</ele>
        <time>2010-08-04T13:25:35Z</time>
      </trkpt>
      <trkpt lat="45.38691" lon="6.18013">
        <ele>1241.248046875</ele>
        <time>2010-08-04T13:25:38Z</time>
      </trkpt>
      <trkpt lat="45.3868" lon="6.18016">
        <ele>1243.5397949219</ele>
        <time>2010-08-04T13:25:43Z</time>
      </trkpt>
      <trkpt lat="45.38674" lon="6.18019">
        <ele>1244.3997802734</ele>
        <time>2010-08-04T13:25:48Z</time>
      </trkpt>
      <trkpt lat="45.38667" lon="6.18023">
        <ele>1245.3782958984</ele>
        <time>2010-08-04T13:25:54Z</time>
      </trkpt>
      <trkpt lat="45.38663" lon="6.18026">
        <ele>1246.1276855469</ele>
        <time>2010-08-04T13:25:57Z</time>
      </trkpt>
      <trkpt lat="45.38649" lon="6.18028">
        <ele>1250.1751708984</ele>
        <time>2010-08-04T13:26:03Z</time>
      </trkpt>
      <trkpt lat="45.38638" lon="6.18028">
        <ele>1253.1357421875</ele>
        <time>2010-08-04T13:26:08Z</time>
      </trkpt>
      <trkpt lat="45.3864" lon="6.18033">
        <ele>1252.5285644531</ele>
        <time>2010-08-04T13:26:10Z</time>
      </trkpt>
      <trkpt lat="45.38631" lon="6.18036">
        <ele>1254.3991699219</ele>
        <time>2010-08-04T13:26:15Z</time>
      </trkpt>
      <trkpt lat="45.38626" lon="6.1804">
        <ele>1255.4437255859</ele>
        <time>2010-08-04T13:26:19Z</time>
      </trkpt>
      <trkpt lat="45.38627" lon="6.18042">
        <ele>1255.2282714844</ele>
        <time>2010-08-04T13:26:20Z</time>
      </trkpt>
      <trkpt lat="45.38632" lon="6.18053">
        <ele>1253.8533935547</ele>
        <time>2010-08-04T13:26:25Z</time>
      </trkpt>
      <trkpt lat="45.38629" lon="6.18051">
        <ele>1254.5616455078</ele>
        <time>2010-08-04T13:26:30Z</time>
      </trkpt>
      <trkpt lat="45.38635" lon="6.18048">
        <ele>1253.2447509766</ele>
        <time>2010-08-04T13:26:34Z</time>
      </trkpt>
      <trkpt lat="45.38641" lon="6.18045">
        <ele>1251.8012695312</ele>
        <time>2010-08-04T13:26:37Z</time>
      </trkpt>
      <trkpt lat="45.38642" lon="6.18041">
        <ele>1251.4639892578</ele>
        <time>2010-08-04T13:26:41Z</time>
      </trkpt>
      <trkpt lat="45.38643" lon="6.1804">
        <ele>1251.4162597656</ele>
        <time>2010-08-04T13:26:43Z</time>
      </trkpt>
      <trkpt lat="45.38653" lon="6.1804">
        <ele>1247.9842529297</ele>
        <time>2010-08-04T13:26:48Z</time>
      </trkpt>
      <trkpt lat="45.38662" lon="6.18048">
        <ele>1244.2432861328</ele>
        <time>2010-08-04T13:26:53Z</time>
      </trkpt>
      <trkpt lat="45.38665" lon="6.18055">
        <ele>1242.6287841797</ele>
        <time>2010-08-04T13:26:56Z</time>
      </trkpt>
      <trkpt lat="45.38676" lon="6.18072">
        <ele>1244.6928710938</ele>
        <time>2010-08-04T13:27:02Z</time>
      </trkpt>
      <trkpt lat="45.38683" lon="6.18084">
        <ele>1245.7744140625</ele>
        <time>2010-08-04T13:27:07Z</time>
      </trkpt>
      <trkpt lat="45.38685" lon="6.18087">
        <ele>1246.2624511719</ele>
        <time>2010-08-04T13:27:10Z</time>
      </trkpt>
      <trkpt lat="45.3868" lon="6.18089">
        <ele>1247.8719482422</ele>
        <time>2010-08-04T13:27:15Z</time>
      </trkpt>
      <trkpt lat="45.3867" lon="6.18084">
        <ele>1248.2564697266</ele>
        <time>2010-08-04T13:27:22Z</time>
      </trkpt>
      <trkpt lat="45.38677" lon="6.18084">
        <ele>1247.0946044922</ele>
        <time>2010-08-04T13:27:56Z</time>
      </trkpt>
      <trkpt lat="45.38688" lon="6.18082">
        <ele>1244.1477050781</ele>
        <time>2010-08-04T13:28:02Z</time>
      </trkpt>
      <trkpt lat="45.38699" lon="6.18081">
        <ele>1242.5675048828</ele>
        <time>2010-08-04T13:28:09Z</time>
      </trkpt>
      <trkpt lat="45.38708" lon="6.18082">
        <ele>1242.3765869141</ele>
        <time>2010-08-04T13:28:17Z</time>
      </trkpt>
      <trkpt lat="45.387" lon="6.18078">
        <ele>1242.1234130859</ele>
        <time>2010-08-04T13:28:24Z</time>
      </trkpt>
      <trkpt lat="45.38696" lon="6.18084">
        <ele>1243.2106933594</ele>
        <time>2010-08-04T13:28:30Z</time>
      </trkpt>
      <trkpt lat="45.38694" lon="6.18085">
        <ele>1243.5798339844</ele>
        <time>2010-08-04T13:28:31Z</time>
      </trkpt>
      <trkpt lat="45.38688" lon="6.18089">
        <ele>1246.5366210938</ele>
        <time>2010-08-04T13:28:38Z</time>
      </trkpt>
      <trkpt lat="45.38681" lon="6.1809">
        <ele>1248.0391845703</ele>
        <time>2010-08-04T13:28:43Z</time>
      </trkpt>
      <trkpt lat="45.38679" lon="6.18092">
        <ele>1249.1324462891</ele>
        <time>2010-08-04T13:28:45Z</time>
      </trkpt>
      <trkpt lat="45.38672" lon="6.18101">
        <ele>1252.8508300781</ele>
        <time>2010-08-04T13:28:51Z</time>
      </trkpt>
      <trkpt lat="45.38668" lon="6.18105">
        <ele>1254.3728027344</ele>
        <time>2010-08-04T13:28:55Z</time>
      </trkpt>
      <trkpt lat="45.38657" lon="6.18109">
        <ele>1256.3135986328</ele>
        <time>2010-08-04T13:29:02Z</time>
      </trkpt>
      <trkpt lat="45.38651" lon="6.18112">
        <ele>1257.3743896484</ele>
        <time>2010-08-04T13:29:07Z</time>
      </trkpt>
      <trkpt lat="45.38646" lon="6.18114">
        <ele>1258.0277099609</ele>
        <time>2010-08-04T13:29:11Z</time>
      </trkpt>
      <trkpt lat="45.38642" lon="6.18116">
        <ele>1258.728515625</ele>
        <time>2010-08-04T13:29:17Z</time>
      </trkpt>
      <trkpt lat="45.38636" lon="6.18115">
        <ele>1258.7595214844</ele>
        <time>2010-08-04T13:29:21Z</time>
      </trkpt>
      <trkpt lat="45.38634" lon="6.18114">
        <ele>1258.7440185547</ele>
        <time>2010-08-04T13:29:23Z</time>
      </trkpt>
      <trkpt lat="45.38624" lon="6.18116">
        <ele>1259.357421875</ele>
        <time>2010-08-04T13:29:29Z</time>
      </trkpt>
      <trkpt lat="45.38619" lon="6.18128">
        <ele>1261.3269042969</ele>
        <time>2010-08-04T13:29:34Z</time>
      </trkpt>
      <trkpt lat="45.38612" lon="6.18134">
        <ele>1262.3581542969</ele>
        <time>2010-08-04T13:29:40Z</time>
      </trkpt>
      <trkpt lat="45.38602" lon="6.18134">
        <ele>1262.0494384766</ele>
        <time>2010-08-04T13:29:45Z</time>
      </trkpt>
      <trkpt lat="45.38589" lon="6.18125">
        <ele>1260.6418457031</ele>
        <time>2010-08-04T13:29:53Z</time>
      </trkpt>
      <trkpt lat="45.38579" lon="6.1812">
        <ele>1259.8830566406</ele>
        <time>2010-08-04T13:29:59Z</time>
      </trkpt>
      <trkpt lat="45.38568" lon="6.1812">
        <ele>1259.6116943359</ele>
        <time>2010-08-04T13:30:05Z</time>
      </trkpt>
      <trkpt lat="45.38557" lon="6.18123">
        <ele>1259.4997558594</ele>
        <time>2010-08-04T13:30:12Z</time>
      </trkpt>
      <trkpt lat="45.38552" lon="6.1813">
        <ele>1259.8189697266</ele>
        <time>2010-08-04T13:30:17Z</time>
      </trkpt>
      <trkpt lat="45.38544" lon="6.18137">
        <ele>1260.6687011719</ele>
        <time>2010-08-04T13:30:23Z</time>
      </trkpt>
      <trkpt lat="45.3854" lon="6.18139">
        <ele>1261.1727294922</ele>
        <time>2010-08-04T13:30:28Z</time>
      </trkpt>
      <trkpt lat="45.38531" lon="6.18137">
        <ele>1261.5914306641</ele>
        <time>2010-08-04T13:30:35Z</time>
      </trkpt>
      <trkpt lat="45.38523" lon="6.18144">
        <ele>1263.6346435547</ele>
        <time>2010-08-04T13:30:41Z</time>
      </trkpt>
      <trkpt lat="45.38519" lon="6.18155">
        <ele>1266.7952880859</ele>
        <time>2010-08-04T13:30:47Z</time>
      </trkpt>
      <trkpt lat="45.38512" lon="6.18162">
        <ele>1268.8139648438</ele>
        <time>2010-08-04T13:30:52Z</time>
      </trkpt>
      <trkpt lat="45.38509" lon="6.18171">
        <ele>1271.2083740234</ele>
        <time>2010-08-04T13:30:56Z</time>
      </trkpt>
      <trkpt lat="45.38504" lon="6.18179">
        <ele>1272.8211669922</ele>
        <time>2010-08-04T13:31:02Z</time>
      </trkpt>
      <trkpt lat="45.38499" lon="6.18185">
        <ele>1274.0267333984</ele>
        <time>2010-08-04T13:31:08Z</time>
      </trkpt>
      <trkpt lat="45.38492" lon="6.18189">
        <ele>1275.2390136719</ele>
        <time>2010-08-04T13:31:13Z</time>
      </trkpt>
      <trkpt lat="45.38484" lon="6.18192">
        <ele>1276.1584472656</ele>
        <time>2010-08-04T13:31:18Z</time>
      </trkpt>
      <trkpt lat="45.38482" lon="6.18193">
        <ele>1276.4837646484</ele>
        <time>2010-08-04T13:31:20Z</time>
      </trkpt>
      <trkpt lat="45.38476" lon="6.18195">
        <ele>1276.9451904297</ele>
        <time>2010-08-04T13:31:24Z</time>
      </trkpt>
      <trkpt lat="45.38471" lon="6.182">
        <ele>1277.4265136719</ele>
        <time>2010-08-04T13:31:30Z</time>
      </trkpt>
      <trkpt lat="45.38468" lon="6.18205">
        <ele>1277.8352050781</ele>
        <time>2010-08-04T13:31:35Z</time>
      </trkpt>
      <trkpt lat="45.38465" lon="6.18216">
        <ele>1278.6325683594</ele>
        <time>2010-08-04T13:31:39Z</time>
      </trkpt>
      <trkpt lat="45.38463" lon="6.18228">
        <ele>1280.3332519531</ele>
        <time>2010-08-04T13:31:43Z</time>
      </trkpt>
      <trkpt lat="45.38462" lon="6.18233">
        <ele>1281.3583984375</ele>
        <time>2010-08-04T13:31:49Z</time>
      </trkpt>
      <trkpt lat="45.3846" lon="6.18237">
        <ele>1281.9567871094</ele>
        <time>2010-08-04T13:31:55Z</time>
      </trkpt>
      <trkpt lat="45.38458" lon="6.18238">
        <ele>1281.7194824219</ele>
        <time>2010-08-04T13:31:57Z</time>
      </trkpt>
      <trkpt lat="45.38449" lon="6.18235">
        <ele>1280.3359375</ele>
        <time>2010-08-04T13:32:03Z</time>
      </trkpt>
      <trkpt lat="45.38444" lon="6.18245">
        <ele>1280.6296386719</ele>
        <time>2010-08-04T13:32:08Z</time>
      </trkpt>
      <trkpt lat="45.38439" lon="6.18245">
        <ele>1280.4802246094</ele>
        <time>2010-08-04T13:32:13Z</time>
      </trkpt>
      <trkpt lat="45.38433" lon="6.18248">
        <ele>1280.4890136719</ele>
        <time>2010-08-04T13:32:21Z</time>
      </trkpt>
      <trkpt lat="45.38431" lon="6.1828">
        <ele>1288.1486816406</ele>
        <time>2010-08-04T13:32:37Z</time>
      </trkpt>
      <trkpt lat="45.38427" lon="6.18314">
        <ele>1297.1179199219</ele>
        <time>2010-08-04T13:33:21Z</time>
      </trkpt>
      <trkpt lat="45.38418" lon="6.18314">
        <ele>1295.8229980469</ele>
        <time>2010-08-04T13:33:29Z</time>
      </trkpt>
      <trkpt lat="45.38414" lon="6.18322">
        <ele>1297.4704589844</ele>
        <time>2010-08-04T13:33:41Z</time>
      </trkpt>
      <trkpt lat="45.3841" lon="6.18323">
        <ele>1297.7077636719</ele>
        <time>2010-08-04T13:33:44Z</time>
      </trkpt>
      <trkpt lat="45.38399" lon="6.18323">
        <ele>1296.8275146484</ele>
        <time>2010-08-04T13:33:50Z</time>
      </trkpt>
      <trkpt lat="45.38392" lon="6.18327">
        <ele>1297.0721435547</ele>
        <time>2010-08-04T13:33:55Z</time>
      </trkpt>
      <trkpt lat="45.38391" lon="6.1833">
        <ele>1297.6298828125</ele>
        <time>2010-08-04T13:33:57Z</time>
      </trkpt>
      <trkpt lat="45.38389" lon="6.18343">
        <ele>1302.2492675781</ele>
        <time>2010-08-04T13:34:03Z</time>
      </trkpt>
      <trkpt lat="45.38386" lon="6.18351">
        <ele>1305.5244140625</ele>
        <time>2010-08-04T13:34:07Z</time>
      </trkpt>
      <trkpt lat="45.38381" lon="6.18355">
        <ele>1307.3850097656</ele>
        <time>2010-08-04T13:34:13Z</time>
      </trkpt>
      <trkpt lat="45.38374" lon="6.18356">
        <ele>1308.1779785156</ele>
        <time>2010-08-04T13:34:19Z</time>
      </trkpt>
      <trkpt lat="45.38372" lon="6.18358">
        <ele>1308.8814697266</ele>
        <time>2010-08-04T13:34:24Z</time>
      </trkpt>
      <trkpt lat="45.38368" lon="6.18359">
        <ele>1309.2547607422</ele>
        <time>2010-08-04T13:34:28Z</time>
      </trkpt>
      <trkpt lat="45.38364" lon="6.18367">
        <ele>1312.4114990234</ele>
        <time>2010-08-04T13:34:34Z</time>
      </trkpt>
      <trkpt lat="45.3836" lon="6.18371">
        <ele>1313.8666992188</ele>
        <time>2010-08-04T13:34:40Z</time>
      </trkpt>
      <trkpt lat="45.38356" lon="6.1837">
        <ele>1314.5296630859</ele>
        <time>2010-08-04T13:34:45Z</time>
      </trkpt>
      <trkpt lat="45.38345" lon="6.18369">
        <ele>1316.6185302734</ele>
        <time>2010-08-04T13:34:52Z</time>
      </trkpt>
      <trkpt lat="45.38339" lon="6.18367">
        <ele>1317.1217041016</ele>
        <time>2010-08-04T13:34:56Z</time>
      </trkpt>
      <trkpt lat="45.38335" lon="6.18369">
        <ele>1318.9553222656</ele>
        <time>2010-08-04T13:35:01Z</time>
      </trkpt>
      <trkpt lat="45.38333" lon="6.18368">
        <ele>1319.2449951172</ele>
        <time>2010-08-04T13:35:03Z</time>
      </trkpt>
      <trkpt lat="45.38327" lon="6.18372">
        <ele>1322.6877441406</ele>
        <time>2010-08-04T13:35:09Z</time>
      </trkpt>
      <trkpt lat="45.38324" lon="6.1838">
        <ele>1327.0729980469</ele>
        <time>2010-08-04T13:35:16Z</time>
      </trkpt>
      <trkpt lat="45.38305" lon="6.18377">
        <ele>1331.7530517578</ele>
        <time>2010-08-04T13:35:29Z</time>
      </trkpt>
      <trkpt lat="45.38301" lon="6.18376">
        <ele>1333.3139648438</ele>
        <time>2010-08-04T13:35:33Z</time>
      </trkpt>
      <trkpt lat="45.38298" lon="6.18375">
        <ele>1334.2012939453</ele>
        <time>2010-08-04T13:35:36Z</time>
      </trkpt>
      <trkpt lat="45.38293" lon="6.18374">
        <ele>1336.3983154297</ele>
        <time>2010-08-04T13:35:42Z</time>
      </trkpt>
      <trkpt lat="45.38292" lon="6.18376">
        <ele>1337.8259277344</ele>
        <time>2010-08-04T13:35:49Z</time>
      </trkpt>
      <trkpt lat="45.38288" lon="6.18382">
        <ele>1341.5767822266</ele>
        <time>2010-08-04T13:35:54Z</time>
      </trkpt>
      <trkpt lat="45.38286" lon="6.18391">
        <ele>1346.1771240234</ele>
        <time>2010-08-04T13:36:00Z</time>
      </trkpt>
      <trkpt lat="45.38285" lon="6.18393">
        <ele>1347.2838134766</ele>
        <time>2010-08-04T13:36:03Z</time>
      </trkpt>
      <trkpt lat="45.3828" lon="6.18399">
        <ele>1351.36328125</ele>
        <time>2010-08-04T13:36:09Z</time>
      </trkpt>
      <trkpt lat="45.3828" lon="6.18401">
        <ele>1351.8282470703</ele>
        <time>2010-08-04T13:36:10Z</time>
      </trkpt>
      <trkpt lat="45.38279" lon="6.18405">
        <ele>1353.8913574219</ele>
        <time>2010-08-04T13:36:14Z</time>
      </trkpt>
      <trkpt lat="45.38278" lon="6.18411">
        <ele>1356.0300292969</ele>
        <time>2010-08-04T13:36:18Z</time>
      </trkpt>
      <trkpt lat="45.38275" lon="6.18418">
        <ele>1358.8321533203</ele>
        <time>2010-08-04T13:36:25Z</time>
      </trkpt>
      <trkpt lat="45.38271" lon="6.18415">
        <ele>1358.6688232422</ele>
        <time>2010-08-04T13:36:29Z</time>
      </trkpt>
      <trkpt lat="45.38269" lon="6.18415">
        <ele>1359.1644287109</ele>
        <time>2010-08-04T13:36:31Z</time>
      </trkpt>
      <trkpt lat="45.38264" lon="6.18415">
        <ele>1360.0970458984</ele>
        <time>2010-08-04T13:36:35Z</time>
      </trkpt>
      <trkpt lat="45.38258" lon="6.18412">
        <ele>1360.4581298828</ele>
        <time>2010-08-04T13:36:39Z</time>
      </trkpt>
      <trkpt lat="45.38247" lon="6.18409">
        <ele>1361.9019775391</ele>
        <time>2010-08-04T13:36:47Z</time>
      </trkpt>
      <trkpt lat="45.38242" lon="6.18407">
        <ele>1362.3840332031</ele>
        <time>2010-08-04T13:36:50Z</time>
      </trkpt>
      <trkpt lat="45.38232" lon="6.18398">
        <ele>1362.5889892578</ele>
        <time>2010-08-04T13:36:57Z</time>
      </trkpt>
      <trkpt lat="45.38231" lon="6.18401">
        <ele>1363.6014404297</ele>
        <time>2010-08-04T13:37:02Z</time>
      </trkpt>
      <trkpt lat="45.38226" lon="6.18402">
        <ele>1364.5633544922</ele>
        <time>2010-08-04T13:37:08Z</time>
      </trkpt>
      <trkpt lat="45.38223" lon="6.18403">
        <ele>1365.4768066406</ele>
        <time>2010-08-04T13:37:12Z</time>
      </trkpt>
      <trkpt lat="45.3822" lon="6.18402">
        <ele>1365.7650146484</ele>
        <time>2010-08-04T13:37:14Z</time>
      </trkpt>
      <trkpt lat="45.38218" lon="6.18402">
        <ele>1366.1770019531</ele>
        <time>2010-08-04T13:37:16Z</time>
      </trkpt>
      <trkpt lat="45.38215" lon="6.18405">
        <ele>1367.1468505859</ele>
        <time>2010-08-04T13:37:19Z</time>
      </trkpt>
      <trkpt lat="45.38214" lon="6.18405">
        <ele>1367.3614501953</ele>
        <time>2010-08-04T13:37:21Z</time>
      </trkpt>
      <trkpt lat="45.38212" lon="6.18403">
        <ele>1367.4644775391</ele>
        <time>2010-08-04T13:37:23Z</time>
      </trkpt>
      <trkpt lat="45.38206" lon="6.18409">
        <ele>1369.6617431641</ele>
        <time>2010-08-04T13:37:31Z</time>
      </trkpt>
      <trkpt lat="45.382" lon="6.18416">
        <ele>1371.8247070312</ele>
        <time>2010-08-04T13:37:36Z</time>
      </trkpt>
      <trkpt lat="45.38196" lon="6.18425">
        <ele>1373.9692382812</ele>
        <time>2010-08-04T13:37:42Z</time>
      </trkpt>
      <trkpt lat="45.38187" lon="6.18433">
        <ele>1376.2930908203</ele>
        <time>2010-08-04T13:37:51Z</time>
      </trkpt>
      <trkpt lat="45.38181" lon="6.18438">
        <ele>1377.7938232422</ele>
        <time>2010-08-04T13:37:56Z</time>
      </trkpt>
      <trkpt lat="45.38172" lon="6.18442">
        <ele>1379.8186035156</ele>
        <time>2010-08-04T13:38:03Z</time>
      </trkpt>
      <trkpt lat="45.38171" lon="6.18442">
        <ele>1379.9713134766</ele>
        <time>2010-08-04T13:38:04Z</time>
      </trkpt>
      <trkpt lat="45.38161" lon="6.18449">
        <ele>1382.431640625</ele>
        <time>2010-08-04T13:38:14Z</time>
      </trkpt>
      <trkpt lat="45.38153" lon="6.18452">
        <ele>1383.6490478516</ele>
        <time>2010-08-04T13:38:22Z</time>
      </trkpt>
      <trkpt lat="45.38149" lon="6.18452">
        <ele>1384.0926513672</ele>
        <time>2010-08-04T13:38:27Z</time>
      </trkpt>
      <trkpt lat="45.38145" lon="6.18451">
        <ele>1384.2458496094</ele>
        <time>2010-08-04T13:38:30Z</time>
      </trkpt>
      <trkpt lat="45.3814" lon="6.1845">
        <ele>1384.2971191406</ele>
        <time>2010-08-04T13:38:35Z</time>
      </trkpt>
      <trkpt lat="45.38135" lon="6.1845">
        <ele>1384.4415283203</ele>
        <time>2010-08-04T13:38:40Z</time>
      </trkpt>
      <trkpt lat="45.38129" lon="6.18448">
        <ele>1383.9969482422</ele>
        <time>2010-08-04T13:38:44Z</time>
      </trkpt>
      <trkpt lat="45.38125" lon="6.18451">
        <ele>1384.7659912109</ele>
        <time>2010-08-04T13:38:48Z</time>
      </trkpt>
      <trkpt lat="45.38118" lon="6.18452">
        <ele>1384.7900390625</ele>
        <time>2010-08-04T13:38:53Z</time>
      </trkpt>
      <trkpt lat="45.3811" lon="6.18454">
        <ele>1385.4610595703</ele>
        <time>2010-08-04T13:39:00Z</time>
      </trkpt>
      <trkpt lat="45.38106" lon="6.18457">
        <ele>1386.6268310547</ele>
        <time>2010-08-04T13:39:05Z</time>
      </trkpt>
      <trkpt lat="45.38103" lon="6.1846">
        <ele>1387.6187744141</ele>
        <time>2010-08-04T13:39:09Z</time>
      </trkpt>
      <trkpt lat="45.38094" lon="6.18461">
        <ele>1388.5655517578</ele>
        <time>2010-08-04T13:39:15Z</time>
      </trkpt>
      <trkpt lat="45.38087" lon="6.18464">
        <ele>1390.0987548828</ele>
        <time>2010-08-04T13:39:22Z</time>
      </trkpt>
      <trkpt lat="45.38079" lon="6.18467">
        <ele>1391.9781494141</ele>
        <time>2010-08-04T13:39:29Z</time>
      </trkpt>
      <trkpt lat="45.38073" lon="6.18472">
        <ele>1394.4725341797</ele>
        <time>2010-08-04T13:39:36Z</time>
      </trkpt>
      <trkpt lat="45.38067" lon="6.18476">
        <ele>1396.3051757812</ele>
        <time>2010-08-04T13:39:42Z</time>
      </trkpt>
      <trkpt lat="45.38061" lon="6.18478">
        <ele>1397.6099853516</ele>
        <time>2010-08-04T13:39:48Z</time>
      </trkpt>
      <trkpt lat="45.38052" lon="6.18481">
        <ele>1399.4914550781</ele>
        <time>2010-08-04T13:39:56Z</time>
      </trkpt>
      <trkpt lat="45.38046" lon="6.18481">
        <ele>1400.2438964844</ele>
        <time>2010-08-04T13:40:01Z</time>
      </trkpt>
      <trkpt lat="45.38033" lon="6.18479">
        <ele>1400.9665527344</ele>
        <time>2010-08-04T13:40:10Z</time>
      </trkpt>
      <trkpt lat="45.38023" lon="6.18482">
        <ele>1403.5736083984</ele>
        <time>2010-08-04T13:40:18Z</time>
      </trkpt>
      <trkpt lat="45.38018" lon="6.18486">
        <ele>1406.1066894531</ele>
        <time>2010-08-04T13:40:24Z</time>
      </trkpt>
      <trkpt lat="45.38015" lon="6.18484">
        <ele>1405.9709472656</ele>
        <time>2010-08-04T13:40:26Z</time>
      </trkpt>
      <trkpt lat="45.38007" lon="6.18491">
        <ele>1410.0241699219</ele>
        <time>2010-08-04T13:40:33Z</time>
      </trkpt>
      <trkpt lat="45.38003" lon="6.18497">
        <ele>1412.3988037109</ele>
        <time>2010-08-04T13:40:37Z</time>
      </trkpt>
      <trkpt lat="45.37998" lon="6.18504">
        <ele>1415.4140625</ele>
        <time>2010-08-04T13:40:44Z</time>
      </trkpt>
      <trkpt lat="45.37996" lon="6.18505">
        <ele>1415.9622802734</ele>
        <time>2010-08-04T13:40:46Z</time>
      </trkpt>
      <trkpt lat="45.37989" lon="6.18509">
        <ele>1418.0419921875</ele>
        <time>2010-08-04T13:40:54Z</time>
      </trkpt>
      <trkpt lat="45.37981" lon="6.1851">
        <ele>1419.4678955078</ele>
        <time>2010-08-04T13:41:01Z</time>
      </trkpt>
      <trkpt lat="45.37973" lon="6.18514">
        <ele>1421.5391845703</ele>
        <time>2010-08-04T13:41:09Z</time>
      </trkpt>
      <trkpt lat="45.37969" lon="6.18515">
        <ele>1422.1003417969</ele>
        <time>2010-08-04T13:41:13Z</time>
      </trkpt>
      <trkpt lat="45.37963" lon="6.18514">
        <ele>1422.1844482422</ele>
        <time>2010-08-04T13:41:20Z</time>
      </trkpt>
      <trkpt lat="45.37961" lon="6.18515">
        <ele>1422.6735839844</ele>
        <time>2010-08-04T13:41:26Z</time>
      </trkpt>
      <trkpt lat="45.37962" lon="6.18525">
        <ele>1425.1420898438</ele>
        <time>2010-08-04T13:41:40Z</time>
      </trkpt>
      <trkpt lat="45.37961" lon="6.18531">
        <ele>1426.6362304688</ele>
        <time>2010-08-04T13:41:44Z</time>
      </trkpt>
      <trkpt lat="45.37957" lon="6.18538">
        <ele>1428.9982910156</ele>
        <time>2010-08-04T13:41:50Z</time>
      </trkpt>
      <trkpt lat="45.37957" lon="6.18539">
        <ele>1429.396484375</ele>
        <time>2010-08-04T13:41:51Z</time>
      </trkpt>
      <trkpt lat="45.37954" lon="6.18542">
        <ele>1430.4951171875</ele>
        <time>2010-08-04T13:41:57Z</time>
      </trkpt>
      <trkpt lat="45.3795" lon="6.18547">
        <ele>1432.2116699219</ele>
        <time>2010-08-04T13:42:04Z</time>
      </trkpt>
      <trkpt lat="45.37946" lon="6.18547">
        <ele>1432.5139160156</ele>
        <time>2010-08-04T13:42:10Z</time>
      </trkpt>
      <trkpt lat="45.37948" lon="6.18546">
        <ele>1431.9645996094</ele>
        <time>2010-08-04T13:42:21Z</time>
      </trkpt>
      <trkpt lat="45.37943" lon="6.18544">
        <ele>1431.95703125</ele>
        <time>2010-08-04T13:42:32Z</time>
      </trkpt>
      <trkpt lat="45.37938" lon="6.18547">
        <ele>1433.3046875</ele>
        <time>2010-08-04T13:42:38Z</time>
      </trkpt>
      <trkpt lat="45.37935" lon="6.18546">
        <ele>1433.51171875</ele>
        <time>2010-08-04T13:42:41Z</time>
      </trkpt>
      <trkpt lat="45.37929" lon="6.18547">
        <ele>1434.6982421875</ele>
        <time>2010-08-04T13:42:48Z</time>
      </trkpt>
      <trkpt lat="45.37926" lon="6.18551">
        <ele>1436.0325927734</ele>
        <time>2010-08-04T13:42:52Z</time>
      </trkpt>
      <trkpt lat="45.37921" lon="6.18559">
        <ele>1438.4064941406</ele>
        <time>2010-08-04T13:42:57Z</time>
      </trkpt>
      <trkpt lat="45.37914" lon="6.18564">
        <ele>1440.5688476562</ele>
        <time>2010-08-04T13:43:07Z</time>
      </trkpt>
      <trkpt lat="45.37902" lon="6.18559">
        <ele>1439.4152832031</ele>
        <time>2010-08-04T13:43:12Z</time>
      </trkpt>
      <trkpt lat="45.37897" lon="6.18562">
        <ele>1440.6650390625</ele>
        <time>2010-08-04T13:43:17Z</time>
      </trkpt>
      <trkpt lat="45.37895" lon="6.18567">
        <ele>1442.1618652344</ele>
        <time>2010-08-04T13:43:20Z</time>
      </trkpt>
      <trkpt lat="45.37888" lon="6.18578">
        <ele>1445.39453125</ele>
        <time>2010-08-04T13:43:29Z</time>
      </trkpt>
      <trkpt lat="45.37888" lon="6.18578">
        <ele>1445.5227050781</ele>
        <time>2010-08-04T13:43:30Z</time>
      </trkpt>
      <trkpt lat="45.3788" lon="6.18577">
        <ele>1445.0577392578</ele>
        <time>2010-08-04T13:43:37Z</time>
      </trkpt>
      <trkpt lat="45.37872" lon="6.1858">
        <ele>1445.5931396484</ele>
        <time>2010-08-04T13:43:43Z</time>
      </trkpt>
      <trkpt lat="45.3787" lon="6.18588">
        <ele>1447.52734375</ele>
        <time>2010-08-04T13:43:48Z</time>
      </trkpt>
      <trkpt lat="45.37867" lon="6.18592">
        <ele>1448.3890380859</ele>
        <time>2010-08-04T13:43:52Z</time>
      </trkpt>
      <trkpt lat="45.37861" lon="6.18596">
        <ele>1449.1258544922</ele>
        <time>2010-08-04T13:43:58Z</time>
      </trkpt>
      <trkpt lat="45.3786" lon="6.18605">
        <ele>1451.2886962891</ele>
        <time>2010-08-04T13:44:03Z</time>
      </trkpt>
      <trkpt lat="45.37857" lon="6.18616">
        <ele>1454.2095947266</ele>
        <time>2010-08-04T13:44:09Z</time>
      </trkpt>
      <trkpt lat="45.37856" lon="6.1862">
        <ele>1455.4180908203</ele>
        <time>2010-08-04T13:44:12Z</time>
      </trkpt>
      <trkpt lat="45.37852" lon="6.18623">
        <ele>1456.1459960938</ele>
        <time>2010-08-04T13:44:19Z</time>
      </trkpt>
      <trkpt lat="45.37851" lon="6.18629">
        <ele>1457.8625488281</ele>
        <time>2010-08-04T13:44:24Z</time>
      </trkpt>
      <trkpt lat="45.37848" lon="6.18633">
        <ele>1458.90625</ele>
        <time>2010-08-04T13:44:29Z</time>
      </trkpt>
      <trkpt lat="45.37844" lon="6.1864">
        <ele>1460.6824951172</ele>
        <time>2010-08-04T13:44:35Z</time>
      </trkpt>
      <trkpt lat="45.3784" lon="6.18643">
        <ele>1461.2161865234</ele>
        <time>2010-08-04T13:44:40Z</time>
      </trkpt>
      <trkpt lat="45.37833" lon="6.18645">
        <ele>1461.5954589844</ele>
        <time>2010-08-04T13:44:48Z</time>
      </trkpt>
      <trkpt lat="45.37827" lon="6.18649">
        <ele>1462.8209228516</ele>
        <time>2010-08-04T13:44:54Z</time>
      </trkpt>
      <trkpt lat="45.37823" lon="6.18655">
        <ele>1464.2237548828</ele>
        <time>2010-08-04T13:44:59Z</time>
      </trkpt>
      <trkpt lat="45.37823" lon="6.18659">
        <ele>1465.189453125</ele>
        <time>2010-08-04T13:45:02Z</time>
      </trkpt>
      <trkpt lat="45.37815" lon="6.1866">
        <ele>1465.5694580078</ele>
        <time>2010-08-04T13:45:10Z</time>
      </trkpt>
      <trkpt lat="45.37812" lon="6.18663">
        <ele>1466.1845703125</ele>
        <time>2010-08-04T13:45:14Z</time>
      </trkpt>
      <trkpt lat="45.3781" lon="6.18665">
        <ele>1466.6785888672</ele>
        <time>2010-08-04T13:45:16Z</time>
      </trkpt>
      <trkpt lat="45.3781" lon="6.18673">
        <ele>1468.5170898438</ele>
        <time>2010-08-04T13:45:21Z</time>
      </trkpt>
      <trkpt lat="45.37808" lon="6.1868">
        <ele>1470.0361328125</ele>
        <time>2010-08-04T13:45:26Z</time>
      </trkpt>
      <trkpt lat="45.37807" lon="6.18682">
        <ele>1470.4152832031</ele>
        <time>2010-08-04T13:45:28Z</time>
      </trkpt>
      <trkpt lat="45.37803" lon="6.18692">
        <ele>1473.1868896484</ele>
        <time>2010-08-04T13:45:38Z</time>
      </trkpt>
      <trkpt lat="45.37799" lon="6.18696">
        <ele>1474.9018554688</ele>
        <time>2010-08-04T13:45:44Z</time>
      </trkpt>
      <trkpt lat="45.378" lon="6.18703">
        <ele>1476.0610351562</ele>
        <time>2010-08-04T13:45:49Z</time>
      </trkpt>
      <trkpt lat="45.37802" lon="6.18711">
        <ele>1477.3559570312</ele>
        <time>2010-08-04T13:45:55Z</time>
      </trkpt>
      <trkpt lat="45.37801" lon="6.18719">
        <ele>1479.2186279297</ele>
        <time>2010-08-04T13:46:03Z</time>
      </trkpt>
      <trkpt lat="45.37797" lon="6.18725">
        <ele>1481.6535644531</ele>
        <time>2010-08-04T13:46:09Z</time>
      </trkpt>
      <trkpt lat="45.37793" lon="6.18729">
        <ele>1483.6346435547</ele>
        <time>2010-08-04T13:46:15Z</time>
      </trkpt>
      <trkpt lat="45.37793" lon="6.18731">
        <ele>1484.2346191406</ele>
        <time>2010-08-04T13:46:16Z</time>
      </trkpt>
      <trkpt lat="45.37787" lon="6.18735">
        <ele>1486.3153076172</ele>
        <time>2010-08-04T13:46:22Z</time>
      </trkpt>
      <trkpt lat="45.37781" lon="6.18736">
        <ele>1487.3594970703</ele>
        <time>2010-08-04T13:46:28Z</time>
      </trkpt>
      <trkpt lat="45.37779" lon="6.18741">
        <ele>1488.8448486328</ele>
        <time>2010-08-04T13:46:32Z</time>
      </trkpt>
      <trkpt lat="45.37779" lon="6.18748">
        <ele>1490.3668212891</ele>
        <time>2010-08-04T13:46:36Z</time>
      </trkpt>
      <trkpt lat="45.3778" lon="6.18755">
        <ele>1491.9426269531</ele>
        <time>2010-08-04T13:46:41Z</time>
      </trkpt>
      <trkpt lat="45.3778" lon="6.18758">
        <ele>1492.5245361328</ele>
        <time>2010-08-04T13:46:43Z</time>
      </trkpt>
      <trkpt lat="45.37773" lon="6.18764">
        <ele>1494.9327392578</ele>
        <time>2010-08-04T13:46:52Z</time>
      </trkpt>
      <trkpt lat="45.3777" lon="6.18769">
        <ele>1496.7239990234</ele>
        <time>2010-08-04T13:46:58Z</time>
      </trkpt>
      <trkpt lat="45.37765" lon="6.18772">
        <ele>1498.2023925781</ele>
        <time>2010-08-04T13:47:04Z</time>
      </trkpt>
      <trkpt lat="45.37761" lon="6.18779">
        <ele>1500.3299560547</ele>
        <time>2010-08-04T13:47:10Z</time>
      </trkpt>
      <trkpt lat="45.37755" lon="6.18782">
        <ele>1502.0035400391</ele>
        <time>2010-08-04T13:47:17Z</time>
      </trkpt>
      <trkpt lat="45.37753" lon="6.18783">
        <ele>1502.7053222656</ele>
        <time>2010-08-04T13:47:19Z</time>
      </trkpt>
      <trkpt lat="45.37749" lon="6.18785">
        <ele>1503.6861572266</ele>
        <time>2010-08-04T13:47:22Z</time>
      </trkpt>
      <trkpt lat="45.37747" lon="6.18787">
        <ele>1505.4289550781</ele>
        <time>2010-08-04T13:47:26Z</time>
      </trkpt>
      <trkpt lat="45.37741" lon="6.18796">
        <ele>1509.5296630859</ele>
        <time>2010-08-04T13:47:35Z</time>
      </trkpt>
      <trkpt lat="45.37737" lon="6.18802">
        <ele>1512.2391357422</ele>
        <time>2010-08-04T13:47:41Z</time>
      </trkpt>
      <trkpt lat="45.37733" lon="6.18807">
        <ele>1514.2718505859</ele>
        <time>2010-08-04T13:47:47Z</time>
      </trkpt>
      <trkpt lat="45.37728" lon="6.18815">
        <ele>1517.3197021484</ele>
        <time>2010-08-04T13:47:56Z</time>
      </trkpt>
      <trkpt lat="45.37725" lon="6.18822">
        <ele>1519.2717285156</ele>
        <time>2010-08-04T13:48:02Z</time>
      </trkpt>
      <trkpt lat="45.37722" lon="6.18826">
        <ele>1520.9423828125</ele>
        <time>2010-08-04T13:48:07Z</time>
      </trkpt>
      <trkpt lat="45.37718" lon="6.18824">
        <ele>1521.828125</ele>
        <time>2010-08-04T13:48:11Z</time>
      </trkpt>
      <trkpt lat="45.37714" lon="6.18821">
        <ele>1522.4117431641</ele>
        <time>2010-08-04T13:48:15Z</time>
      </trkpt>
      <trkpt lat="45.37708" lon="6.18817">
        <ele>1523.4211425781</ele>
        <time>2010-08-04T13:48:21Z</time>
      </trkpt>
      <trkpt lat="45.37702" lon="6.18821">
        <ele>1525.3505859375</ele>
        <time>2010-08-04T13:48:28Z</time>
      </trkpt>
      <trkpt lat="45.37697" lon="6.18827">
        <ele>1527.3898925781</ele>
        <time>2010-08-04T13:48:35Z</time>
      </trkpt>
      <trkpt lat="45.37693" lon="6.18831">
        <ele>1529.0638427734</ele>
        <time>2010-08-04T13:48:41Z</time>
      </trkpt>
      <trkpt lat="45.37694" lon="6.18836">
        <ele>1529.6926269531</ele>
        <time>2010-08-04T13:48:44Z</time>
      </trkpt>
      <trkpt lat="45.37691" lon="6.18844">
        <ele>1531.7800292969</ele>
        <time>2010-08-04T13:48:50Z</time>
      </trkpt>
      <trkpt lat="45.37687" lon="6.18846">
        <ele>1533.4416503906</ele>
        <time>2010-08-04T13:48:54Z</time>
      </trkpt>
      <trkpt lat="45.37685" lon="6.18846">
        <ele>1534.2313232422</ele>
        <time>2010-08-04T13:48:57Z</time>
      </trkpt>
      <trkpt lat="45.37683" lon="6.18848">
        <ele>1535.0827636719</ele>
        <time>2010-08-04T13:48:59Z</time>
      </trkpt>
      <trkpt lat="45.37683" lon="6.18856">
        <ele>1536.5246582031</ele>
        <time>2010-08-04T13:49:04Z</time>
      </trkpt>
      <trkpt lat="45.37683" lon="6.18861">
        <ele>1537.2332763672</ele>
        <time>2010-08-04T13:49:07Z</time>
      </trkpt>
      <trkpt lat="45.3768" lon="6.18869">
        <ele>1539.263671875</ele>
        <time>2010-08-04T13:49:14Z</time>
      </trkpt>
      <trkpt lat="45.37679" lon="6.18876">
        <ele>1541.1307373047</ele>
        <time>2010-08-04T13:49:20Z</time>
      </trkpt>
      <trkpt lat="45.37674" lon="6.18883">
        <ele>1543.9128417969</ele>
        <time>2010-08-04T13:49:26Z</time>
      </trkpt>
      <trkpt lat="45.37674" lon="6.1889">
        <ele>1545.3350830078</ele>
        <time>2010-08-04T13:49:30Z</time>
      </trkpt>
      <trkpt lat="45.37672" lon="6.18896">
        <ele>1547.3762207031</ele>
        <time>2010-08-04T13:49:37Z</time>
      </trkpt>
      <trkpt lat="45.3767" lon="6.18895">
        <ele>1547.6669921875</ele>
        <time>2010-08-04T13:49:39Z</time>
      </trkpt>
      <trkpt lat="45.37664" lon="6.18894">
        <ele>1549.4672851562</ele>
        <time>2010-08-04T13:49:46Z</time>
      </trkpt>
      <trkpt lat="45.37661" lon="6.18895">
        <ele>1550.4123535156</ele>
        <time>2010-08-04T13:49:50Z</time>
      </trkpt>
      <trkpt lat="45.37658" lon="6.18895">
        <ele>1551.1195068359</ele>
        <time>2010-08-04T13:49:54Z</time>
      </trkpt>
      <trkpt lat="45.37654" lon="6.18893">
        <ele>1551.7419433594</ele>
        <time>2010-08-04T13:49:59Z</time>
      </trkpt>
      <trkpt lat="45.37651" lon="6.18899">
        <ele>1553.28515625</ele>
        <time>2010-08-04T13:50:04Z</time>
      </trkpt>
      <trkpt lat="45.37647" lon="6.18902">
        <ele>1554.5401611328</ele>
        <time>2010-08-04T13:50:09Z</time>
      </trkpt>
      <trkpt lat="45.37644" lon="6.18901">
        <ele>1555.2001953125</ele>
        <time>2010-08-04T13:50:14Z</time>
      </trkpt>
      <trkpt lat="45.37637" lon="6.189">
        <ele>1557.0152587891</ele>
        <time>2010-08-04T13:50:21Z</time>
      </trkpt>
      <trkpt lat="45.37634" lon="6.18902">
        <ele>1558.7924804688</ele>
        <time>2010-08-04T13:50:26Z</time>
      </trkpt>
      <trkpt lat="45.37629" lon="6.18901">
        <ele>1560.7940673828</ele>
        <time>2010-08-04T13:50:31Z</time>
      </trkpt>
      <trkpt lat="45.37623" lon="6.18905">
        <ele>1563.9831542969</ele>
        <time>2010-08-04T13:50:39Z</time>
      </trkpt>
      <trkpt lat="45.37619" lon="6.18907">
        <ele>1565.8101806641</ele>
        <time>2010-08-04T13:50:44Z</time>
      </trkpt>
      <trkpt lat="45.37616" lon="6.18913">
        <ele>1568.2530517578</ele>
        <time>2010-08-04T13:50:50Z</time>
      </trkpt>
      <trkpt lat="45.37613" lon="6.1892">
        <ele>1570.4626464844</ele>
        <time>2010-08-04T13:50:56Z</time>
      </trkpt>
      <trkpt lat="45.37611" lon="6.18922">
        <ele>1571.8498535156</ele>
        <time>2010-08-04T13:51:00Z</time>
      </trkpt>
      <trkpt lat="45.37608" lon="6.18927">
        <ele>1573.4815673828</ele>
        <time>2010-08-04T13:51:06Z</time>
      </trkpt>
      <trkpt lat="45.37605" lon="6.18931">
        <ele>1574.7912597656</ele>
        <time>2010-08-04T13:51:11Z</time>
      </trkpt>
      <trkpt lat="45.376" lon="6.18931">
        <ele>1576.3104248047</ele>
        <time>2010-08-04T13:51:17Z</time>
      </trkpt>
      <trkpt lat="45.37597" lon="6.18932">
        <ele>1577.4006347656</ele>
        <time>2010-08-04T13:51:21Z</time>
      </trkpt>
      <trkpt lat="45.37592" lon="6.18937">
        <ele>1579.7407226562</ele>
        <time>2010-08-04T13:51:28Z</time>
      </trkpt>
      <trkpt lat="45.37591" lon="6.18941">
        <ele>1580.8839111328</ele>
        <time>2010-08-04T13:51:34Z</time>
      </trkpt>
      <trkpt lat="45.3759" lon="6.1895">
        <ele>1582.6989746094</ele>
        <time>2010-08-04T13:51:39Z</time>
      </trkpt>
      <trkpt lat="45.3759" lon="6.18954">
        <ele>1583.2896728516</ele>
        <time>2010-08-04T13:51:41Z</time>
      </trkpt>
      <trkpt lat="45.37589" lon="6.18959">
        <ele>1584.7651367188</ele>
        <time>2010-08-04T13:51:45Z</time>
      </trkpt>
      <trkpt lat="45.37584" lon="6.1896">
        <ele>1586.7880859375</ele>
        <time>2010-08-04T13:51:52Z</time>
      </trkpt>
      <trkpt lat="45.37581" lon="6.18963">
        <ele>1587.9145507812</ele>
        <time>2010-08-04T13:51:57Z</time>
      </trkpt>
      <trkpt lat="45.37577" lon="6.18964">
        <ele>1589.1085205078</ele>
        <time>2010-08-04T13:52:02Z</time>
      </trkpt>
      <trkpt lat="45.37571" lon="6.18966">
        <ele>1590.7873535156</ele>
        <time>2010-08-04T13:52:08Z</time>
      </trkpt>
      <trkpt lat="45.3757" lon="6.18965">
        <ele>1590.9097900391</ele>
        <time>2010-08-04T13:52:09Z</time>
      </trkpt>
      <trkpt lat="45.37563" lon="6.18966">
        <ele>1592.6967773438</ele>
        <time>2010-08-04T13:52:17Z</time>
      </trkpt>
      <trkpt lat="45.37557" lon="6.18967">
        <ele>1594.0227050781</ele>
        <time>2010-08-04T13:52:23Z</time>
      </trkpt>
      <trkpt lat="45.37554" lon="6.18967">
        <ele>1594.9610595703</ele>
        <time>2010-08-04T13:52:26Z</time>
      </trkpt>
      <trkpt lat="45.37547" lon="6.18964">
        <ele>1596.7269287109</ele>
        <time>2010-08-04T13:52:31Z</time>
      </trkpt>
      <trkpt lat="45.37542" lon="6.18963">
        <ele>1598.1333007812</ele>
        <time>2010-08-04T13:52:36Z</time>
      </trkpt>
      <trkpt lat="45.37534" lon="6.18955">
        <ele>1599.53515625</ele>
        <time>2010-08-04T13:52:44Z</time>
      </trkpt>
      <trkpt lat="45.37529" lon="6.18948">
        <ele>1600.0089111328</ele>
        <time>2010-08-04T13:52:50Z</time>
      </trkpt>
      <trkpt lat="45.37521" lon="6.1894">
        <ele>1600.9501953125</ele>
        <time>2010-08-04T13:52:58Z</time>
      </trkpt>
      <trkpt lat="45.37516" lon="6.18944">
        <ele>1603.4461669922</ele>
        <time>2010-08-04T13:53:05Z</time>
      </trkpt>
      <trkpt lat="45.37513" lon="6.18945">
        <ele>1604.3985595703</ele>
        <time>2010-08-04T13:53:09Z</time>
      </trkpt>
      <trkpt lat="45.37506" lon="6.18951">
        <ele>1607.4400634766</ele>
        <time>2010-08-04T13:53:16Z</time>
      </trkpt>
      <trkpt lat="45.37504" lon="6.18951">
        <ele>1607.9965820312</ele>
        <time>2010-08-04T13:53:18Z</time>
      </trkpt>
      <trkpt lat="45.375" lon="6.18942">
        <ele>1607.408203125</ele>
        <time>2010-08-04T13:53:24Z</time>
      </trkpt>
      <trkpt lat="45.37497" lon="6.18939">
        <ele>1607.5743408203</ele>
        <time>2010-08-04T13:53:28Z</time>
      </trkpt>
      <trkpt lat="45.37495" lon="6.18937">
        <ele>1607.7535400391</ele>
        <time>2010-08-04T13:53:30Z</time>
      </trkpt>
      <trkpt lat="45.37489" lon="6.18938">
        <ele>1609.2033691406</ele>
        <time>2010-08-04T13:53:37Z</time>
      </trkpt>
      <trkpt lat="45.37485" lon="6.18936">
        <ele>1609.8687744141</ele>
        <time>2010-08-04T13:53:42Z</time>
      </trkpt>
      <trkpt lat="45.37482" lon="6.18931">
        <ele>1609.1115722656</ele>
        <time>2010-08-04T13:53:46Z</time>
      </trkpt>
      <trkpt lat="45.37479" lon="6.1892">
        <ele>1607.4943847656</ele>
        <time>2010-08-04T13:53:52Z</time>
      </trkpt>
      <trkpt lat="45.37472" lon="6.18917">
        <ele>1608.1301269531</ele>
        <time>2010-08-04T13:53:59Z</time>
      </trkpt>
      <trkpt lat="45.37471" lon="6.18921">
        <ele>1609.6319580078</ele>
        <time>2010-08-04T13:54:02Z</time>
      </trkpt>
      <trkpt lat="45.3747" lon="6.18932">
        <ele>1612.6920166016</ele>
        <time>2010-08-04T13:54:07Z</time>
      </trkpt>
      <trkpt lat="45.37467" lon="6.1894">
        <ele>1615.6220703125</ele>
        <time>2010-08-04T13:54:13Z</time>
      </trkpt>
      <trkpt lat="45.37463" lon="6.18941">
        <ele>1617.1220703125</ele>
        <time>2010-08-04T13:54:18Z</time>
      </trkpt>
      <trkpt lat="45.3746" lon="6.18945">
        <ele>1619.0147705078</ele>
        <time>2010-08-04T13:54:23Z</time>
      </trkpt>
      <trkpt lat="45.37457" lon="6.18949">
        <ele>1620.9609375</ele>
        <time>2010-08-04T13:54:28Z</time>
      </trkpt>
      <trkpt lat="45.37453" lon="6.18956">
        <ele>1623.1080322266</ele>
        <time>2010-08-04T13:54:34Z</time>
      </trkpt>
      <trkpt lat="45.37451" lon="6.18961">
        <ele>1624.6232910156</ele>
        <time>2010-08-04T13:54:39Z</time>
      </trkpt>
      <trkpt lat="45.37447" lon="6.18964">
        <ele>1626.0278320312</ele>
        <time>2010-08-04T13:54:44Z</time>
      </trkpt>
      <trkpt lat="45.37443" lon="6.18965">
        <ele>1627.9154052734</ele>
        <time>2010-08-04T13:54:50Z</time>
      </trkpt>
      <trkpt lat="45.37438" lon="6.18963">
        <ele>1630.3458251953</ele>
        <time>2010-08-04T13:54:55Z</time>
      </trkpt>
      <trkpt lat="45.37434" lon="6.18967">
        <ele>1633.7377929688</ele>
        <time>2010-08-04T13:55:02Z</time>
      </trkpt>
      <trkpt lat="45.37432" lon="6.18975">
        <ele>1635.8294677734</ele>
        <time>2010-08-04T13:55:06Z</time>
      </trkpt>
      <trkpt lat="45.3743" lon="6.1898">
        <ele>1638.0452880859</ele>
        <time>2010-08-04T13:55:10Z</time>
      </trkpt>
      <trkpt lat="45.37427" lon="6.18987">
        <ele>1641.1062011719</ele>
        <time>2010-08-04T13:55:16Z</time>
      </trkpt>
      <trkpt lat="45.37425" lon="6.1899">
        <ele>1642.7683105469</ele>
        <time>2010-08-04T13:55:20Z</time>
      </trkpt>
      <trkpt lat="45.37422" lon="6.18994">
        <ele>1645.1971435547</ele>
        <time>2010-08-04T13:55:25Z</time>
      </trkpt>
      <trkpt lat="45.37418" lon="6.18997">
        <ele>1647.5412597656</ele>
        <time>2010-08-04T13:55:30Z</time>
      </trkpt>
      <trkpt lat="45.37416" lon="6.19003">
        <ele>1649.9864501953</ele>
        <time>2010-08-04T13:55:36Z</time>
      </trkpt>
      <trkpt lat="45.37412" lon="6.19003">
        <ele>1651.6506347656</ele>
        <time>2010-08-04T13:55:41Z</time>
      </trkpt>
      <trkpt lat="45.37413" lon="6.18995">
        <ele>1650.3732910156</ele>
        <time>2010-08-04T13:55:48Z</time>
      </trkpt>
      <trkpt lat="45.37412" lon="6.1898">
        <ele>1648.4775390625</ele>
        <time>2010-08-04T13:55:55Z</time>
      </trkpt>
      <trkpt lat="45.3741" lon="6.18977">
        <ele>1649.5191650391</ele>
        <time>2010-08-04T13:55:58Z</time>
      </trkpt>
      <trkpt lat="45.37407" lon="6.18982">
        <ele>1651.55078125</ele>
        <time>2010-08-04T13:56:01Z</time>
      </trkpt>
      <trkpt lat="45.37405" lon="6.18987">
        <ele>1653.0463867188</ele>
        <time>2010-08-04T13:56:04Z</time>
      </trkpt>
      <trkpt lat="45.374" lon="6.18988">
        <ele>1655.8487548828</ele>
        <time>2010-08-04T13:56:10Z</time>
      </trkpt>
      <trkpt lat="45.37397" lon="6.18984">
        <ele>1656.8518066406</ele>
        <time>2010-08-04T13:56:13Z</time>
      </trkpt>
      <trkpt lat="45.37393" lon="6.18987">
        <ele>1659.3065185547</ele>
        <time>2010-08-04T13:56:19Z</time>
      </trkpt>
      <trkpt lat="45.37392" lon="6.18993">
        <ele>1660.4719238281</ele>
        <time>2010-08-04T13:56:23Z</time>
      </trkpt>
      <trkpt lat="45.37387" lon="6.18993">
        <ele>1664.1219482422</ele>
        <time>2010-08-04T13:56:30Z</time>
      </trkpt>
      <trkpt lat="45.3738" lon="6.18991">
        <ele>1669.6158447266</ele>
        <time>2010-08-04T13:56:37Z</time>
      </trkpt>
      <trkpt lat="45.37373" lon="6.1899">
        <ele>1675.4569091797</ele>
        <time>2010-08-04T13:56:45Z</time>
      </trkpt>
      <trkpt lat="45.37366" lon="6.18985">
        <ele>1680.6378173828</ele>
        <time>2010-08-04T13:56:52Z</time>
      </trkpt>
      <trkpt lat="45.37365" lon="6.18984">
        <ele>1682.1324462891</ele>
        <time>2010-08-04T13:56:54Z</time>
      </trkpt>
      <trkpt lat="45.37359" lon="6.18981">
        <ele>1686.0931396484</ele>
        <time>2010-08-04T13:57:03Z</time>
      </trkpt>
      <trkpt lat="45.37356" lon="6.18978">
        <ele>1687.3015136719</ele>
        <time>2010-08-04T13:57:09Z</time>
      </trkpt>
      <trkpt lat="45.37354" lon="6.18973">
        <ele>1688.1431884766</ele>
        <time>2010-08-04T13:57:14Z</time>
      </trkpt>
      <trkpt lat="45.37351" lon="6.18971">
        <ele>1689.6551513672</ele>
        <time>2010-08-04T13:57:20Z</time>
      </trkpt>
      <trkpt lat="45.37349" lon="6.18964">
        <ele>1688.9719238281</ele>
        <time>2010-08-04T13:57:27Z</time>
      </trkpt>
      <trkpt lat="45.37346" lon="6.1896">
        <ele>1689.9422607422</ele>
        <time>2010-08-04T13:57:32Z</time>
      </trkpt>
      <trkpt lat="45.37346" lon="6.18957">
        <ele>1688.9731445312</ele>
        <time>2010-08-04T13:57:37Z</time>
      </trkpt>
      <trkpt lat="45.37343" lon="6.18952">
        <ele>1688.8258056641</ele>
        <time>2010-08-04T13:57:42Z</time>
      </trkpt>
      <trkpt lat="45.37342" lon="6.18947">
        <ele>1687.9705810547</ele>
        <time>2010-08-04T13:57:45Z</time>
      </trkpt>
      <trkpt lat="45.37343" lon="6.18943">
        <ele>1685.578125</ele>
        <time>2010-08-04T13:57:48Z</time>
      </trkpt>
      <trkpt lat="45.37344" lon="6.18932">
        <ele>1679.2052001953</ele>
        <time>2010-08-04T13:57:55Z</time>
      </trkpt>
      <trkpt lat="45.37343" lon="6.18928">
        <ele>1677.4686279297</ele>
        <time>2010-08-04T13:57:59Z</time>
      </trkpt>
      <trkpt lat="45.37339" lon="6.18922">
        <ele>1676.4831542969</ele>
        <time>2010-08-04T13:58:04Z</time>
      </trkpt>
      <trkpt lat="45.37336" lon="6.18916">
        <ele>1674.2864990234</ele>
        <time>2010-08-04T13:58:08Z</time>
      </trkpt>
      <trkpt lat="45.37329" lon="6.18908">
        <ele>1675.7634277344</ele>
        <time>2010-08-04T13:58:14Z</time>
      </trkpt>
      <trkpt lat="45.37324" lon="6.18907">
        <ele>1678.0671386719</ele>
        <time>2010-08-04T13:58:20Z</time>
      </trkpt>
      <trkpt lat="45.37318" lon="6.18903">
        <ele>1680.3673095703</ele>
        <time>2010-08-04T13:58:28Z</time>
      </trkpt>
      <trkpt lat="45.37313" lon="6.18899">
        <ele>1682.0908203125</ele>
        <time>2010-08-04T13:58:33Z</time>
      </trkpt>
      <trkpt lat="45.37306" lon="6.18903">
        <ele>1687.5805664062</ele>
        <time>2010-08-04T13:58:40Z</time>
      </trkpt>
      <trkpt lat="45.37301" lon="6.18904">
        <ele>1690.0291748047</ele>
        <time>2010-08-04T13:58:45Z</time>
      </trkpt>
      <trkpt lat="45.37295" lon="6.18908">
        <ele>1693.7756347656</ele>
        <time>2010-08-04T13:58:52Z</time>
      </trkpt>
      <trkpt lat="45.37293" lon="6.18919">
        <ele>1698.2344970703</ele>
        <time>2010-08-04T13:59:00Z</time>
      </trkpt>
      <trkpt lat="45.37292" lon="6.1892">
        <ele>1698.9965820312</ele>
        <time>2010-08-04T13:59:06Z</time>
      </trkpt>
      <trkpt lat="45.37287" lon="6.18923">
        <ele>1702.3465576172</ele>
        <time>2010-08-04T13:59:15Z</time>
      </trkpt>
      <trkpt lat="45.37284" lon="6.18927">
        <ele>1704.7919921875</ele>
        <time>2010-08-04T13:59:20Z</time>
      </trkpt>
      <trkpt lat="45.37281" lon="6.18926">
        <ele>1705.3155517578</ele>
        <time>2010-08-04T13:59:25Z</time>
      </trkpt>
      <trkpt lat="45.37276" lon="6.18923">
        <ele>1706.0347900391</ele>
        <time>2010-08-04T13:59:33Z</time>
      </trkpt>
      <trkpt lat="45.37271" lon="6.1892">
        <ele>1706.2120361328</ele>
        <time>2010-08-04T13:59:39Z</time>
      </trkpt>
      <trkpt lat="45.37265" lon="6.18918">
        <ele>1707.0866699219</ele>
        <time>2010-08-04T13:59:45Z</time>
      </trkpt>
      <trkpt lat="45.37266" lon="6.18926">
        <ele>1709.8793945312</ele>
        <time>2010-08-04T13:59:52Z</time>
      </trkpt>
      <trkpt lat="45.37266" lon="6.18929">
        <ele>1710.8604736328</ele>
        <time>2010-08-04T13:59:54Z</time>
      </trkpt>
      <trkpt lat="45.37267" lon="6.1894">
        <ele>1714.6469726562</ele>
        <time>2010-08-04T14:00:00Z</time>
      </trkpt>
      <trkpt lat="45.37267" lon="6.18941">
        <ele>1715.1579589844</ele>
        <time>2010-08-04T14:00:01Z</time>
      </trkpt>
      <trkpt lat="45.37268" lon="6.18948">
        <ele>1716.9228515625</ele>
        <time>2010-08-04T14:00:08Z</time>
      </trkpt>
      <trkpt lat="45.37266" lon="6.18946">
        <ele>1716.8056640625</ele>
        <time>2010-08-04T14:00:11Z</time>
      </trkpt>
      <trkpt lat="45.37262" lon="6.18944">
        <ele>1716.9975585938</ele>
        <time>2010-08-04T14:00:15Z</time>
      </trkpt>
      <trkpt lat="45.37261" lon="6.18946">
        <ele>1718.0446777344</ele>
        <time>2010-08-04T14:00:18Z</time>
      </trkpt>
      <trkpt lat="45.37261" lon="6.18951">
        <ele>1719.1680908203</ele>
        <time>2010-08-04T14:00:21Z</time>
      </trkpt>
      <trkpt lat="45.37262" lon="6.18959">
        <ele>1720.7873535156</ele>
        <time>2010-08-04T14:00:27Z</time>
      </trkpt>
      <trkpt lat="45.37262" lon="6.18962">
        <ele>1721.517578125</ele>
        <time>2010-08-04T14:00:29Z</time>
      </trkpt>
      <trkpt lat="45.37264" lon="6.18969">
        <ele>1722.6929931641</ele>
        <time>2010-08-04T14:00:36Z</time>
      </trkpt>
      <trkpt lat="45.37265" lon="6.18973">
        <ele>1723.5065917969</ele>
        <time>2010-08-04T14:00:42Z</time>
      </trkpt>
      <trkpt lat="45.37265" lon="6.1898">
        <ele>1724.8607177734</ele>
        <time>2010-08-04T14:00:48Z</time>
      </trkpt>
      <trkpt lat="45.37263" lon="6.18984">
        <ele>1725.9287109375</ele>
        <time>2010-08-04T14:00:55Z</time>
      </trkpt>
      <trkpt lat="45.37263" lon="6.18988">
        <ele>1726.7185058594</ele>
        <time>2010-08-04T14:01:00Z</time>
      </trkpt>
      <trkpt lat="45.37262" lon="6.18991">
        <ele>1727.830078125</ele>
        <time>2010-08-04T14:01:05Z</time>
      </trkpt>
      <trkpt lat="45.3726" lon="6.18997">
        <ele>1729.4758300781</ele>
        <time>2010-08-04T14:01:12Z</time>
      </trkpt>
      <trkpt lat="45.37257" lon="6.18997">
        <ele>1730.3197021484</ele>
        <time>2010-08-04T14:01:17Z</time>
      </trkpt>
      <trkpt lat="45.37254" lon="6.18999">
        <ele>1731.4281005859</ele>
        <time>2010-08-04T14:01:22Z</time>
      </trkpt>
      <trkpt lat="45.37249" lon="6.19005">
        <ele>1734.4448242188</ele>
        <time>2010-08-04T14:01:32Z</time>
      </trkpt>
      <trkpt lat="45.37247" lon="6.1901">
        <ele>1736.1751708984</ele>
        <time>2010-08-04T14:01:37Z</time>
      </trkpt>
      <trkpt lat="45.37244" lon="6.19014">
        <ele>1738.0737304688</ele>
        <time>2010-08-04T14:01:42Z</time>
      </trkpt>
      <trkpt lat="45.37241" lon="6.19013">
        <ele>1738.4582519531</ele>
        <time>2010-08-04T14:01:47Z</time>
      </trkpt>
      <trkpt lat="45.37236" lon="6.19013">
        <ele>1739.5998535156</ele>
        <time>2010-08-04T14:01:53Z</time>
      </trkpt>
      <trkpt lat="45.37231" lon="6.19018">
        <ele>1742.3155517578</ele>
        <time>2010-08-04T14:01:59Z</time>
      </trkpt>
      <trkpt lat="45.37229" lon="6.19018">
        <ele>1742.9523925781</ele>
        <time>2010-08-04T14:02:01Z</time>
      </trkpt>
      <trkpt lat="45.37226" lon="6.19023">
        <ele>1744.8269042969</ele>
        <time>2010-08-04T14:02:05Z</time>
      </trkpt>
      <trkpt lat="45.3722" lon="6.19023">
        <ele>1746.0290527344</ele>
        <time>2010-08-04T14:02:12Z</time>
      </trkpt>
      <trkpt lat="45.37214" lon="6.19029">
        <ele>1748.4869384766</ele>
        <time>2010-08-04T14:02:20Z</time>
      </trkpt>
      <trkpt lat="45.37207" lon="6.19032">
        <ele>1750.3531494141</ele>
        <time>2010-08-04T14:02:27Z</time>
      </trkpt>
      <trkpt lat="45.37204" lon="6.19035">
        <ele>1751.677734375</ele>
        <time>2010-08-04T14:02:31Z</time>
      </trkpt>
      <trkpt lat="45.37202" lon="6.19042">
        <ele>1753.8699951172</ele>
        <time>2010-08-04T14:02:36Z</time>
      </trkpt>
      <trkpt lat="45.37196" lon="6.19054">
        <ele>1758.1669921875</ele>
        <time>2010-08-04T14:02:44Z</time>
      </trkpt>
      <trkpt lat="45.37196" lon="6.19065">
        <ele>1761.71875</ele>
        <time>2010-08-04T14:02:51Z</time>
      </trkpt>
      <trkpt lat="45.37196" lon="6.19068">
        <ele>1762.7703857422</ele>
        <time>2010-08-04T14:02:53Z</time>
      </trkpt>
      <trkpt lat="45.37197" lon="6.19074">
        <ele>1764.3110351562</ele>
        <time>2010-08-04T14:02:56Z</time>
      </trkpt>
      <trkpt lat="45.37202" lon="6.19081">
        <ele>1765.4466552734</ele>
        <time>2010-08-04T14:03:01Z</time>
      </trkpt>
      <trkpt lat="45.37202" lon="6.19087">
        <ele>1767.0444335938</ele>
        <time>2010-08-04T14:03:07Z</time>
      </trkpt>
      <trkpt lat="45.37202" lon="6.1909">
        <ele>1768.1143798828</ele>
        <time>2010-08-04T14:03:11Z</time>
      </trkpt>
      <trkpt lat="45.37199" lon="6.19092">
        <ele>1769.5028076172</ele>
        <time>2010-08-04T14:03:18Z</time>
      </trkpt>
      <trkpt lat="45.37197" lon="6.19093">
        <ele>1770.2532958984</ele>
        <time>2010-08-04T14:03:22Z</time>
      </trkpt>
      <trkpt lat="45.37194" lon="6.19093">
        <ele>1771.3598632812</ele>
        <time>2010-08-04T14:03:27Z</time>
      </trkpt>
      <trkpt lat="45.37192" lon="6.19099">
        <ele>1773.970703125</ele>
        <time>2010-08-04T14:03:34Z</time>
      </trkpt>
      <trkpt lat="45.37191" lon="6.19106">
        <ele>1776.9113769531</ele>
        <time>2010-08-04T14:03:41Z</time>
      </trkpt>
      <trkpt lat="45.37191" lon="6.19108">
        <ele>1777.4117431641</ele>
        <time>2010-08-04T14:03:42Z</time>
      </trkpt>
      <trkpt lat="45.37191" lon="6.19114">
        <ele>1779.8107910156</ele>
        <time>2010-08-04T14:03:48Z</time>
      </trkpt>
      <trkpt lat="45.37189" lon="6.19117">
        <ele>1781.669921875</ele>
        <time>2010-08-04T14:03:54Z</time>
      </trkpt>
      <trkpt lat="45.37187" lon="6.19118">
        <ele>1783.2401123047</ele>
        <time>2010-08-04T14:03:59Z</time>
      </trkpt>
      <trkpt lat="45.37188" lon="6.19126">
        <ele>1785.4449462891</ele>
        <time>2010-08-04T14:04:04Z</time>
      </trkpt>
      <trkpt lat="45.37188" lon="6.19127">
        <ele>1786.0926513672</ele>
        <time>2010-08-04T14:04:05Z</time>
      </trkpt>
      <trkpt lat="45.37186" lon="6.19125">
        <ele>1786.4981689453</ele>
        <time>2010-08-04T14:04:08Z</time>
      </trkpt>
      <trkpt lat="45.37181" lon="6.19124">
        <ele>1787.9517822266</ele>
        <time>2010-08-04T14:04:14Z</time>
      </trkpt>
      <trkpt lat="45.37175" lon="6.19121">
        <ele>1789.5379638672</ele>
        <time>2010-08-04T14:04:21Z</time>
      </trkpt>
      <trkpt lat="45.37172" lon="6.1912">
        <ele>1790.7525634766</ele>
        <time>2010-08-04T14:04:26Z</time>
      </trkpt>
      <trkpt lat="45.37168" lon="6.19118">
        <ele>1792.16796875</ele>
        <time>2010-08-04T14:04:33Z</time>
      </trkpt>
      <trkpt lat="45.37165" lon="6.19119">
        <ele>1793.7145996094</ele>
        <time>2010-08-04T14:04:37Z</time>
      </trkpt>
      <trkpt lat="45.37162" lon="6.1912">
        <ele>1796.1967773438</ele>
        <time>2010-08-04T14:04:42Z</time>
      </trkpt>
      <trkpt lat="45.37158" lon="6.19118">
        <ele>1798.6240234375</ele>
        <time>2010-08-04T14:04:48Z</time>
      </trkpt>
      <trkpt lat="45.37154" lon="6.19121">
        <ele>1802.3319091797</ele>
        <time>2010-08-04T14:04:54Z</time>
      </trkpt>
      <trkpt lat="45.37151" lon="6.19119">
        <ele>1803.8391113281</ele>
        <time>2010-08-04T14:05:00Z</time>
      </trkpt>
      <trkpt lat="45.37146" lon="6.19117">
        <ele>1806.2664794922</ele>
        <time>2010-08-04T14:05:06Z</time>
      </trkpt>
      <trkpt lat="45.3714" lon="6.19112">
        <ele>1808.3092041016</ele>
        <time>2010-08-04T14:05:15Z</time>
      </trkpt>
      <trkpt lat="45.37137" lon="6.19111">
        <ele>1809.416015625</ele>
        <time>2010-08-04T14:05:20Z</time>
      </trkpt>
      <trkpt lat="45.37133" lon="6.19106">
        <ele>1808.2874755859</ele>
        <time>2010-08-04T14:05:27Z</time>
      </trkpt>
      <trkpt lat="45.37127" lon="6.19099">
        <ele>1806.181640625</ele>
        <time>2010-08-04T14:05:35Z</time>
      </trkpt>
      <trkpt lat="45.37122" lon="6.19096">
        <ele>1805.4273681641</ele>
        <time>2010-08-04T14:05:43Z</time>
      </trkpt>
      <trkpt lat="45.3712" lon="6.19094">
        <ele>1804.7885742188</ele>
        <time>2010-08-04T14:05:47Z</time>
      </trkpt>
      <trkpt lat="45.37118" lon="6.19091">
        <ele>1803.7135009766</ele>
        <time>2010-08-04T14:05:52Z</time>
      </trkpt>
      <trkpt lat="45.37114" lon="6.19091">
        <ele>1804.2741699219</ele>
        <time>2010-08-04T14:05:56Z</time>
      </trkpt>
      <trkpt lat="45.37112" lon="6.19087">
        <ele>1802.4045410156</ele>
        <time>2010-08-04T14:06:01Z</time>
      </trkpt>
      <trkpt lat="45.37108" lon="6.19081">
        <ele>1798.8991699219</ele>
        <time>2010-08-04T14:06:06Z</time>
      </trkpt>
      <trkpt lat="45.37104" lon="6.19079">
        <ele>1797.2620849609</ele>
        <time>2010-08-04T14:06:13Z</time>
      </trkpt>
      <trkpt lat="45.37102" lon="6.19081">
        <ele>1797.7858886719</ele>
        <time>2010-08-04T14:06:17Z</time>
      </trkpt>
      <trkpt lat="45.37101" lon="6.19087">
        <ele>1800.5603027344</ele>
        <time>2010-08-04T14:06:22Z</time>
      </trkpt>
      <trkpt lat="45.37101" lon="6.19091">
        <ele>1802.4624023438</ele>
        <time>2010-08-04T14:06:24Z</time>
      </trkpt>
      <trkpt lat="45.37101" lon="6.19099">
        <ele>1805.9299316406</ele>
        <time>2010-08-04T14:06:29Z</time>
      </trkpt>
      <trkpt lat="45.371" lon="6.19102">
        <ele>1806.9598388672</ele>
        <time>2010-08-04T14:06:32Z</time>
      </trkpt>
      <trkpt lat="45.37097" lon="6.19102">
        <ele>1806.3487548828</ele>
        <time>2010-08-04T14:06:39Z</time>
      </trkpt>
      <trkpt lat="45.37092" lon="6.19095">
        <ele>1802.6065673828</ele>
        <time>2010-08-04T14:06:47Z</time>
      </trkpt>
      <trkpt lat="45.3709" lon="6.19094">
        <ele>1801.7001953125</ele>
        <time>2010-08-04T14:06:51Z</time>
      </trkpt>
      <trkpt lat="45.37084" lon="6.19093">
        <ele>1800.3269042969</ele>
        <time>2010-08-04T14:06:58Z</time>
      </trkpt>
      <trkpt lat="45.3708" lon="6.19097">
        <ele>1803.5025634766</ele>
        <time>2010-08-04T14:07:04Z</time>
      </trkpt>
      <trkpt lat="45.37078" lon="6.19104">
        <ele>1807.1793212891</ele>
        <time>2010-08-04T14:07:10Z</time>
      </trkpt>
      <trkpt lat="45.37075" lon="6.1911">
        <ele>1810.2703857422</ele>
        <time>2010-08-04T14:07:16Z</time>
      </trkpt>
      <trkpt lat="45.37074" lon="6.19116">
        <ele>1813.4747314453</ele>
        <time>2010-08-04T14:07:20Z</time>
      </trkpt>
      <trkpt lat="45.37074" lon="6.19119">
        <ele>1815.4206542969</ele>
        <time>2010-08-04T14:07:22Z</time>
      </trkpt>
      <trkpt lat="45.37074" lon="6.19122">
        <ele>1817.0867919922</ele>
        <time>2010-08-04T14:07:24Z</time>
      </trkpt>
      <trkpt lat="45.37073" lon="6.19138">
        <ele>1825.4649658203</ele>
        <time>2010-08-04T14:07:33Z</time>
      </trkpt>
      <trkpt lat="45.37072" lon="6.19142">
        <ele>1827.6346435547</ele>
        <time>2010-08-04T14:07:37Z</time>
      </trkpt>
      <trkpt lat="45.37068" lon="6.19143">
        <ele>1829.8481445312</ele>
        <time>2010-08-04T14:07:44Z</time>
      </trkpt>
      <trkpt lat="45.37066" lon="6.19146">
        <ele>1832.0772705078</ele>
        <time>2010-08-04T14:07:48Z</time>
      </trkpt>
      <trkpt lat="45.37063" lon="6.19151">
        <ele>1835.1984863281</ele>
        <time>2010-08-04T14:07:54Z</time>
      </trkpt>
      <trkpt lat="45.37063" lon="6.19158">
        <ele>1838.4912109375</ele>
        <time>2010-08-04T14:07:59Z</time>
      </trkpt>
      <trkpt lat="45.37066" lon="6.1916">
        <ele>1837.8319091797</ele>
        <time>2010-08-04T14:08:02Z</time>
      </trkpt>
      <trkpt lat="45.37075" lon="6.19161">
        <ele>1834.0402832031</ele>
        <time>2010-08-04T14:08:08Z</time>
      </trkpt>
      <trkpt lat="45.37081" lon="6.19163">
        <ele>1831.7293701172</ele>
        <time>2010-08-04T14:08:14Z</time>
      </trkpt>
      <trkpt lat="45.37083" lon="6.19165">
        <ele>1831.6910400391</ele>
        <time>2010-08-04T14:08:20Z</time>
      </trkpt>
      <trkpt lat="45.3708" lon="6.19167">
        <ele>1833.7100830078</ele>
        <time>2010-08-04T14:08:25Z</time>
      </trkpt>
      <trkpt lat="45.37078" lon="6.19171">
        <ele>1835.9478759766</ele>
        <time>2010-08-04T14:08:30Z</time>
      </trkpt>
      <trkpt lat="45.37075" lon="6.19172">
        <ele>1838.0500488281</ele>
        <time>2010-08-04T14:08:35Z</time>
      </trkpt>
      <trkpt lat="45.37074" lon="6.19178">
        <ele>1841.0506591797</ele>
        <time>2010-08-04T14:08:40Z</time>
      </trkpt>
      <trkpt lat="45.37072" lon="6.19184">
        <ele>1844.5795898438</ele>
        <time>2010-08-04T14:08:45Z</time>
      </trkpt>
      <trkpt lat="45.37071" lon="6.19186">
        <ele>1845.228515625</ele>
        <time>2010-08-04T14:08:46Z</time>
      </trkpt>
      <trkpt lat="45.37072" lon="6.19193">
        <ele>1847.2823486328</ele>
        <time>2010-08-04T14:08:52Z</time>
      </trkpt>
      <trkpt lat="45.37074" lon="6.19194">
        <ele>1846.7706298828</ele>
        <time>2010-08-04T14:08:54Z</time>
      </trkpt>
      <trkpt lat="45.37079" lon="6.19196">
        <ele>1845.1673583984</ele>
        <time>2010-08-04T14:08:58Z</time>
      </trkpt>
      <trkpt lat="45.37082" lon="6.19201">
        <ele>1845.6182861328</ele>
        <time>2010-08-04T14:09:03Z</time>
      </trkpt>
      <trkpt lat="45.37084" lon="6.19206">
        <ele>1847.2840576172</ele>
        <time>2010-08-04T14:09:09Z</time>
      </trkpt>
      <trkpt lat="45.37078" lon="6.19213">
        <ele>1852.9725341797</ele>
        <time>2010-08-04T14:09:23Z</time>
      </trkpt>
      <trkpt lat="45.37078" lon="6.1922">
        <ele>1855.6335449219</ele>
        <time>2010-08-04T14:09:29Z</time>
      </trkpt>
      <trkpt lat="45.37081" lon="6.1922">
        <ele>1854.8234863281</ele>
        <time>2010-08-04T14:09:31Z</time>
      </trkpt>
      <trkpt lat="45.37086" lon="6.19222">
        <ele>1855.5626220703</ele>
        <time>2010-08-04T14:09:36Z</time>
      </trkpt>
      <trkpt lat="45.37089" lon="6.19226">
        <ele>1857.8544921875</ele>
        <time>2010-08-04T14:09:40Z</time>
      </trkpt>
      <trkpt lat="45.3709" lon="6.19229">
        <ele>1859.8594970703</ele>
        <time>2010-08-04T14:09:46Z</time>
      </trkpt>
      <trkpt lat="45.37089" lon="6.19235">
        <ele>1862.4561767578</ele>
        <time>2010-08-04T14:09:53Z</time>
      </trkpt>
      <trkpt lat="45.37086" lon="6.19234">
        <ele>1861.5235595703</ele>
        <time>2010-08-04T14:09:58Z</time>
      </trkpt>
      <trkpt lat="45.3708" lon="6.19232">
        <ele>1861.0544433594</ele>
        <time>2010-08-04T14:10:03Z</time>
      </trkpt>
      <trkpt lat="45.37078" lon="6.19235">
        <ele>1863.0257568359</ele>
        <time>2010-08-04T14:10:08Z</time>
      </trkpt>
      <trkpt lat="45.37073" lon="6.19235">
        <ele>1864.7152099609</ele>
        <time>2010-08-04T14:10:14Z</time>
      </trkpt>
      <trkpt lat="45.3707" lon="6.19237">
        <ele>1866.4797363281</ele>
        <time>2010-08-04T14:10:19Z</time>
      </trkpt>
      <trkpt lat="45.37067" lon="6.19242">
        <ele>1869.3101806641</ele>
        <time>2010-08-04T14:10:25Z</time>
      </trkpt>
      <trkpt lat="45.37067" lon="6.19244">
        <ele>1870.1535644531</ele>
        <time>2010-08-04T14:10:26Z</time>
      </trkpt>
      <trkpt lat="45.37071" lon="6.19252">
        <ele>1873.0053710938</ele>
        <time>2010-08-04T14:10:34Z</time>
      </trkpt>
      <trkpt lat="45.37066" lon="6.19255">
        <ele>1874.8778076172</ele>
        <time>2010-08-04T14:10:42Z</time>
      </trkpt>
      <trkpt lat="45.37066" lon="6.19258">
        <ele>1876.1734619141</ele>
        <time>2010-08-04T14:10:46Z</time>
      </trkpt>
      <trkpt lat="45.37069" lon="6.19263">
        <ele>1877.287109375</ele>
        <time>2010-08-04T14:10:52Z</time>
      </trkpt>
      <trkpt lat="45.37068" lon="6.19268">
        <ele>1879.666015625</ele>
        <time>2010-08-04T14:11:00Z</time>
      </trkpt>
      <trkpt lat="45.37066" lon="6.19269">
        <ele>1880.4838867188</ele>
        <time>2010-08-04T14:11:06Z</time>
      </trkpt>
      <trkpt lat="45.37071" lon="6.19272">
        <ele>1880.4494628906</ele>
        <time>2010-08-04T14:11:11Z</time>
      </trkpt>
      <trkpt lat="45.37075" lon="6.19274">
        <ele>1880.3887939453</ele>
        <time>2010-08-04T14:11:15Z</time>
      </trkpt>
      <trkpt lat="45.37084" lon="6.19275">
        <ele>1879.1239013672</ele>
        <time>2010-08-04T14:11:20Z</time>
      </trkpt>
      <trkpt lat="45.37093" lon="6.19289">
        <ele>1882.8796386719</ele>
        <time>2010-08-04T14:11:27Z</time>
      </trkpt>
      <trkpt lat="45.37097" lon="6.19292">
        <ele>1884.5559082031</ele>
        <time>2010-08-04T14:11:30Z</time>
      </trkpt>
      <trkpt lat="45.37105" lon="6.19304">
        <ele>1890.140625</ele>
        <time>2010-08-04T14:11:37Z</time>
      </trkpt>
      <trkpt lat="45.37111" lon="6.19309">
        <ele>1893.6962890625</ele>
        <time>2010-08-04T14:11:42Z</time>
      </trkpt>
      <trkpt lat="45.37113" lon="6.19312">
        <ele>1894.0322265625</ele>
        <time>2010-08-04T14:11:44Z</time>
      </trkpt>
      <trkpt lat="45.37119" lon="6.19318">
        <ele>1894.0164794922</ele>
        <time>2010-08-04T14:11:51Z</time>
      </trkpt>
      <trkpt lat="45.37121" lon="6.1932">
        <ele>1894.2565917969</ele>
        <time>2010-08-04T14:11:53Z</time>
      </trkpt>
      <trkpt lat="45.3713" lon="6.19322">
        <ele>1892.9645996094</ele>
        <time>2010-08-04T14:11:59Z</time>
      </trkpt>
      <trkpt lat="45.37137" lon="6.1933">
        <ele>1894.8062744141</ele>
        <time>2010-08-04T14:12:06Z</time>
      </trkpt>
      <trkpt lat="45.3714" lon="6.19335">
        <ele>1896.0015869141</ele>
        <time>2010-08-04T14:12:11Z</time>
      </trkpt>
      <trkpt lat="45.37147" lon="6.19338">
        <ele>1894.7733154297</ele>
        <time>2010-08-04T14:12:15Z</time>
      </trkpt>
      <trkpt lat="45.37155" lon="6.19339">
        <ele>1893.1220703125</ele>
        <time>2010-08-04T14:12:21Z</time>
      </trkpt>
      <trkpt lat="45.3716" lon="6.19345">
        <ele>1894.0024414062</ele>
        <time>2010-08-04T14:12:27Z</time>
      </trkpt>
      <trkpt lat="45.37163" lon="6.1935">
        <ele>1895.7521972656</ele>
        <time>2010-08-04T14:12:33Z</time>
      </trkpt>
      <trkpt lat="45.37166" lon="6.19354">
        <ele>1897.0388183594</ele>
        <time>2010-08-04T14:12:37Z</time>
      </trkpt>
      <trkpt lat="45.37175" lon="6.19357">
        <ele>1895.4478759766</ele>
        <time>2010-08-04T14:12:42Z</time>
      </trkpt>
      <trkpt lat="45.37183" lon="6.19366">
        <ele>1896.1704101562</ele>
        <time>2010-08-04T14:12:48Z</time>
      </trkpt>
      <trkpt lat="45.37189" lon="6.19371">
        <ele>1896.0139160156</ele>
        <time>2010-08-04T14:12:54Z</time>
      </trkpt>
      <trkpt lat="45.3719" lon="6.19371">
        <ele>1895.6584472656</ele>
        <time>2010-08-04T14:12:55Z</time>
      </trkpt>
      <trkpt lat="45.37194" lon="6.19373">
        <ele>1895.1042480469</ele>
        <time>2010-08-04T14:13:02Z</time>
      </trkpt>
      <trkpt lat="45.37197" lon="6.19376">
        <ele>1896.0860595703</ele>
        <time>2010-08-04T14:13:07Z</time>
      </trkpt>
      <trkpt lat="45.37197" lon="6.19383">
        <ele>1898.5235595703</ele>
        <time>2010-08-04T14:13:14Z</time>
      </trkpt>
      <trkpt lat="45.37199" lon="6.19386">
        <ele>1899.6051025391</ele>
        <time>2010-08-04T14:13:18Z</time>
      </trkpt>
      <trkpt lat="45.37199" lon="6.1939">
        <ele>1900.7283935547</ele>
        <time>2010-08-04T14:13:23Z</time>
      </trkpt>
      <trkpt lat="45.37197" lon="6.19395">
        <ele>1901.4161376953</ele>
        <time>2010-08-04T14:13:28Z</time>
      </trkpt>
      <trkpt lat="45.37195" lon="6.19401">
        <ele>1902.2239990234</ele>
        <time>2010-08-04T14:13:35Z</time>
      </trkpt>
      <trkpt lat="45.37194" lon="6.19406">
        <ele>1902.8347167969</ele>
        <time>2010-08-04T14:13:39Z</time>
      </trkpt>
      <trkpt lat="45.37196" lon="6.19411">
        <ele>1903.2503662109</ele>
        <time>2010-08-04T14:13:44Z</time>
      </trkpt>
      <trkpt lat="45.37196" lon="6.1941">
        <ele>1903.1252441406</ele>
        <time>2010-08-04T14:13:49Z</time>
      </trkpt>
      <trkpt lat="45.37194" lon="6.19416">
        <ele>1903.9356689453</ele>
        <time>2010-08-04T14:13:57Z</time>
      </trkpt>
      <trkpt lat="45.37193" lon="6.1942">
        <ele>1904.3759765625</ele>
        <time>2010-08-04T14:14:10Z</time>
      </trkpt>
      <trkpt lat="45.37194" lon="6.19423">
        <ele>1904.7055664062</ele>
        <time>2010-08-04T14:14:19Z</time>
      </trkpt>
      <trkpt lat="45.37194" lon="6.19418">
        <ele>1904.1837158203</ele>
        <time>2010-08-04T14:14:27Z</time>
      </trkpt>
      <trkpt lat="45.37197" lon="6.19417">
        <ele>1903.8510742188</ele>
        <time>2010-08-04T14:14:36Z</time>
      </trkpt>
      <trkpt lat="45.37195" lon="6.19421">
        <ele>1904.4544677734</ele>
        <time>2010-08-04T14:14:40Z</time>
      </trkpt>
      <trkpt lat="45.37188" lon="6.19419">
        <ele>1904.4600830078</ele>
        <time>2010-08-04T14:14:44Z</time>
      </trkpt>
      <trkpt lat="45.37193" lon="6.1941">
        <ele>1903.380859375</ele>
        <time>2010-08-04T14:14:52Z</time>
      </trkpt>
      <trkpt lat="45.37199" lon="6.19393">
        <ele>1900.8930664062</ele>
        <time>2010-08-04T14:15:18Z</time>
      </trkpt>
      <trkpt lat="45.37198" lon="6.19398">
        <ele>1901.6735839844</ele>
        <time>2010-08-04T14:15:23Z</time>
      </trkpt>
      <trkpt lat="45.37196" lon="6.19409">
        <ele>1902.9777832031</ele>
        <time>2010-08-04T14:15:29Z</time>
      </trkpt>
      <trkpt lat="45.37194" lon="6.19415">
        <ele>1903.8558349609</ele>
        <time>2010-08-04T14:15:34Z</time>
      </trkpt>
      <trkpt lat="45.37192" lon="6.19423">
        <ele>1904.7570800781</ele>
        <time>2010-08-04T14:15:41Z</time>
      </trkpt>
      <trkpt lat="45.37194" lon="6.19422">
        <ele>1904.5510253906</ele>
        <time>2010-08-04T14:16:06Z</time>
      </trkpt>
      <trkpt lat="45.37189" lon="6.19428">
        <ele>1905.388671875</ele>
        <time>2010-08-04T14:16:21Z</time>
      </trkpt>
      <trkpt lat="45.37193" lon="6.19424">
        <ele>1904.8067626953</ele>
        <time>2010-08-04T14:16:32Z</time>
      </trkpt>
      <trkpt lat="45.37193" lon="6.19427">
        <ele>1905.1123046875</ele>
        <time>2010-08-04T14:16:42Z</time>
      </trkpt>
      <trkpt lat="45.37194" lon="6.19425">
        <ele>1904.8908691406</ele>
        <time>2010-08-04T14:16:50Z</time>
      </trkpt>
      <trkpt lat="45.37194" lon="6.19426">
        <ele>1904.9715576172</ele>
        <time>2010-08-04T14:16:56Z</time>
      </trkpt>
      <trkpt lat="45.37197" lon="6.19423">
        <ele>1904.5625</ele>
        <time>2010-08-04T14:19:00Z</time>
      </trkpt>
      <trkpt lat="45.37201" lon="6.19423">
        <ele>1904.2625732422</ele>
        <time>2010-08-04T14:19:06Z</time>
      </trkpt>
      <trkpt lat="45.37205" lon="6.19423">
        <ele>1904.0570068359</ele>
        <time>2010-08-04T14:19:11Z</time>
      </trkpt>
      <trkpt lat="45.37212" lon="6.19423">
        <ele>1903.5466308594</ele>
        <time>2010-08-04T14:19:16Z</time>
      </trkpt>
      <trkpt lat="45.37218" lon="6.1942">
        <ele>1902.8450927734</ele>
        <time>2010-08-04T14:19:21Z</time>
      </trkpt>
      <trkpt lat="45.37221" lon="6.19421">
        <ele>1902.7030029297</ele>
        <time>2010-08-04T14:19:23Z</time>
      </trkpt>
      <trkpt lat="45.37225" lon="6.19426">
        <ele>1903.2265625</ele>
        <time>2010-08-04T14:19:28Z</time>
      </trkpt>
      <trkpt lat="45.37228" lon="6.19428">
        <ele>1903.3570556641</ele>
        <time>2010-08-04T14:19:31Z</time>
      </trkpt>
      <trkpt lat="45.37233" lon="6.19429">
        <ele>1903.3500976562</ele>
        <time>2010-08-04T14:19:35Z</time>
      </trkpt>
      <trkpt lat="45.37239" lon="6.19433">
        <ele>1903.7003173828</ele>
        <time>2010-08-04T14:19:41Z</time>
      </trkpt>
      <trkpt lat="45.37241" lon="6.19433">
        <ele>1903.7072753906</ele>
        <time>2010-08-04T14:19:43Z</time>
      </trkpt>
      <trkpt lat="45.37247" lon="6.19434">
        <ele>1903.6110839844</ele>
        <time>2010-08-04T14:19:49Z</time>
      </trkpt>
      <trkpt lat="45.37261" lon="6.19437">
        <ele>1902.3903808594</ele>
        <time>2010-08-04T14:19:57Z</time>
      </trkpt>
      <trkpt lat="45.37269" lon="6.19439">
        <ele>1901.8645019531</ele>
        <time>2010-08-04T14:20:04Z</time>
      </trkpt>
      <trkpt lat="45.37278" lon="6.1944">
        <ele>1900.9711914062</ele>
        <time>2010-08-04T14:20:10Z</time>
      </trkpt>
      <trkpt lat="45.37285" lon="6.19444">
        <ele>1899.9858398438</ele>
        <time>2010-08-04T14:20:14Z</time>
      </trkpt>
      <trkpt lat="45.37295" lon="6.19451">
        <ele>1899.00390625</ele>
        <time>2010-08-04T14:20:20Z</time>
      </trkpt>
      <trkpt lat="45.37305" lon="6.19463">
        <ele>1901.1491699219</ele>
        <time>2010-08-04T14:20:28Z</time>
      </trkpt>
      <trkpt lat="45.37313" lon="6.19466">
        <ele>1898.8460693359</ele>
        <time>2010-08-04T14:20:32Z</time>
      </trkpt>
      <trkpt lat="45.3732" lon="6.19472">
        <ele>1898.1810302734</ele>
        <time>2010-08-04T14:20:36Z</time>
      </trkpt>
      <trkpt lat="45.37326" lon="6.19476">
        <ele>1896.9665527344</ele>
        <time>2010-08-04T14:20:41Z</time>
      </trkpt>
      <trkpt lat="45.37337" lon="6.19484">
        <ele>1896.0344238281</ele>
        <time>2010-08-04T14:20:50Z</time>
      </trkpt>
      <trkpt lat="45.37338" lon="6.19485">
        <ele>1895.5718994141</ele>
        <time>2010-08-04T14:20:51Z</time>
      </trkpt>
      <trkpt lat="45.37348" lon="6.19488">
        <ele>1892.6906738281</ele>
        <time>2010-08-04T14:20:58Z</time>
      </trkpt>
      <trkpt lat="45.37355" lon="6.19495">
        <ele>1892.6791992188</ele>
        <time>2010-08-04T14:21:05Z</time>
      </trkpt>
      <trkpt lat="45.37361" lon="6.19502">
        <ele>1893.1770019531</ele>
        <time>2010-08-04T14:21:12Z</time>
      </trkpt>
      <trkpt lat="45.37367" lon="6.19505">
        <ele>1892.9489746094</ele>
        <time>2010-08-04T14:21:20Z</time>
      </trkpt>
      <trkpt lat="45.37371" lon="6.19507">
        <ele>1893.3956298828</ele>
        <time>2010-08-04T14:21:26Z</time>
      </trkpt>
      <trkpt lat="45.37376" lon="6.19514">
        <ele>1894.8012695312</ele>
        <time>2010-08-04T14:21:34Z</time>
      </trkpt>
      <trkpt lat="45.37383" lon="6.19518">
        <ele>1894.7534179688</ele>
        <time>2010-08-04T14:21:40Z</time>
      </trkpt>
      <trkpt lat="45.37392" lon="6.1952">
        <ele>1893.3728027344</ele>
        <time>2010-08-04T14:21:47Z</time>
      </trkpt>
      <trkpt lat="45.37394" lon="6.19519">
        <ele>1893.4125976562</ele>
        <time>2010-08-04T14:21:51Z</time>
      </trkpt>
      <trkpt lat="45.37397" lon="6.19516">
        <ele>1892.6840820312</ele>
        <time>2010-08-04T14:21:56Z</time>
      </trkpt>
      <trkpt lat="45.37402" lon="6.19512">
        <ele>1891.34375</ele>
        <time>2010-08-04T14:22:02Z</time>
      </trkpt>
      <trkpt lat="45.37403" lon="6.19512">
        <ele>1891.4694824219</ele>
        <time>2010-08-04T14:22:05Z</time>
      </trkpt>
      <trkpt lat="45.37407" lon="6.19512">
        <ele>1891.7330322266</ele>
        <time>2010-08-04T14:22:08Z</time>
      </trkpt>
      <trkpt lat="45.37414" lon="6.19508">
        <ele>1890.6547851562</ele>
        <time>2010-08-04T14:22:14Z</time>
      </trkpt>
      <trkpt lat="45.37421" lon="6.19505">
        <ele>1890.2955322266</ele>
        <time>2010-08-04T14:22:19Z</time>
      </trkpt>
      <trkpt lat="45.37424" lon="6.19504">
        <ele>1890.3540039062</ele>
        <time>2010-08-04T14:22:21Z</time>
      </trkpt>
      <trkpt lat="45.37434" lon="6.195">
        <ele>1889.9313964844</ele>
        <time>2010-08-04T14:22:27Z</time>
      </trkpt>
      <trkpt lat="45.37444" lon="6.19494">
        <ele>1889.6887207031</ele>
        <time>2010-08-04T14:22:33Z</time>
      </trkpt>
      <trkpt lat="45.37446" lon="6.19493">
        <ele>1889.2274169922</ele>
        <time>2010-08-04T14:22:35Z</time>
      </trkpt>
      <trkpt lat="45.37455" lon="6.19488">
        <ele>1885.9766845703</ele>
        <time>2010-08-04T14:22:41Z</time>
      </trkpt>
      <trkpt lat="45.3746" lon="6.19483">
        <ele>1882.9505615234</ele>
        <time>2010-08-04T14:22:47Z</time>
      </trkpt>
      <trkpt lat="45.37466" lon="6.19478">
        <ele>1879.7952880859</ele>
        <time>2010-08-04T14:22:52Z</time>
      </trkpt>
      <trkpt lat="45.37468" lon="6.19477">
        <ele>1878.9038085938</ele>
        <time>2010-08-04T14:22:53Z</time>
      </trkpt>
      <trkpt lat="45.37475" lon="6.19473">
        <ele>1875.7685546875</ele>
        <time>2010-08-04T14:22:58Z</time>
      </trkpt>
      <trkpt lat="45.37482" lon="6.19468">
        <ele>1872.4639892578</ele>
        <time>2010-08-04T14:23:03Z</time>
      </trkpt>
      <trkpt lat="45.37484" lon="6.19466">
        <ele>1871.2739257812</ele>
        <time>2010-08-04T14:23:05Z</time>
      </trkpt>
      <trkpt lat="45.37491" lon="6.19467">
        <ele>1870.1905517578</ele>
        <time>2010-08-04T14:23:11Z</time>
      </trkpt>
      <trkpt lat="45.37499" lon="6.19465">
        <ele>1868.2374267578</ele>
        <time>2010-08-04T14:23:18Z</time>
      </trkpt>
      <trkpt lat="45.37506" lon="6.19463">
        <ele>1866.3425292969</ele>
        <time>2010-08-04T14:23:24Z</time>
      </trkpt>
      <trkpt lat="45.37512" lon="6.1946">
        <ele>1864.4267578125</ele>
        <time>2010-08-04T14:23:29Z</time>
      </trkpt>
      <trkpt lat="45.3752" lon="6.19457">
        <ele>1862.3668212891</ele>
        <time>2010-08-04T14:23:34Z</time>
      </trkpt>
      <trkpt lat="45.37524" lon="6.19456">
        <ele>1861.6047363281</ele>
        <time>2010-08-04T14:23:36Z</time>
      </trkpt>
      <trkpt lat="45.3753" lon="6.19454">
        <ele>1860.1059570312</ele>
        <time>2010-08-04T14:23:40Z</time>
      </trkpt>
      <trkpt lat="45.37539" lon="6.19457">
        <ele>1860.875</ele>
        <time>2010-08-04T14:23:46Z</time>
      </trkpt>
      <trkpt lat="45.37539" lon="6.19457">
        <ele>1860.9024658203</ele>
        <time>2010-08-04T14:23:47Z</time>
      </trkpt>
      <trkpt lat="45.37546" lon="6.19458">
        <ele>1861.2595214844</ele>
        <time>2010-08-04T14:23:52Z</time>
      </trkpt>
      <trkpt lat="45.37555" lon="6.19458">
        <ele>1861.0603027344</ele>
        <time>2010-08-04T14:23:58Z</time>
      </trkpt>
      <trkpt lat="45.37559" lon="6.19459">
        <ele>1860.4566650391</ele>
        <time>2010-08-04T14:24:00Z</time>
      </trkpt>
      <trkpt lat="45.37567" lon="6.19464">
        <ele>1861.6885986328</ele>
        <time>2010-08-04T14:24:06Z</time>
      </trkpt>
      <trkpt lat="45.37568" lon="6.19465">
        <ele>1861.6722412109</ele>
        <time>2010-08-04T14:24:07Z</time>
      </trkpt>
      <trkpt lat="45.37575" lon="6.19468">
        <ele>1862.140625</ele>
        <time>2010-08-04T14:24:12Z</time>
      </trkpt>
      <trkpt lat="45.37582" lon="6.19472">
        <ele>1863.2421875</ele>
        <time>2010-08-04T14:24:18Z</time>
      </trkpt>
      <trkpt lat="45.37589" lon="6.19475">
        <ele>1863.2735595703</ele>
        <time>2010-08-04T14:24:22Z</time>
      </trkpt>
      <trkpt lat="45.37595" lon="6.19476">
        <ele>1862.6898193359</ele>
        <time>2010-08-04T14:24:26Z</time>
      </trkpt>
      <trkpt lat="45.37605" lon="6.19483">
        <ele>1864.1032714844</ele>
        <time>2010-08-04T14:24:33Z</time>
      </trkpt>
      <trkpt lat="45.37613" lon="6.19487">
        <ele>1865.1536865234</ele>
        <time>2010-08-04T14:24:39Z</time>
      </trkpt>
      <trkpt lat="45.37618" lon="6.19487">
        <ele>1863.7244873047</ele>
        <time>2010-08-04T14:24:47Z</time>
      </trkpt>
      <trkpt lat="45.37619" lon="6.19488">
        <ele>1864.3132324219</ele>
        <time>2010-08-04T14:24:50Z</time>
      </trkpt>
      <trkpt lat="45.37621" lon="6.19487">
        <ele>1863.3044433594</ele>
        <time>2010-08-04T14:24:56Z</time>
      </trkpt>
      <trkpt lat="45.37624" lon="6.19486">
        <ele>1862.2005615234</ele>
        <time>2010-08-04T14:24:58Z</time>
      </trkpt>
      <trkpt lat="45.37627" lon="6.19484">
        <ele>1860.2779541016</ele>
        <time>2010-08-04T14:25:01Z</time>
      </trkpt>
      <trkpt lat="45.37635" lon="6.19484">
        <ele>1858.4285888672</ele>
        <time>2010-08-04T14:25:10Z</time>
      </trkpt>
      <trkpt lat="45.37637" lon="6.19484">
        <ele>1857.7042236328</ele>
        <time>2010-08-04T14:25:15Z</time>
      </trkpt>
      <trkpt lat="45.37643" lon="6.19484">
        <ele>1858.1956787109</ele>
        <time>2010-08-04T14:25:21Z</time>
      </trkpt>
      <trkpt lat="45.37646" lon="6.19484">
        <ele>1859.0728759766</ele>
        <time>2010-08-04T14:25:27Z</time>
      </trkpt>
      <trkpt lat="45.37647" lon="6.19484">
        <ele>1859.048828125</ele>
        <time>2010-08-04T14:25:33Z</time>
      </trkpt>
      <trkpt lat="45.3765" lon="6.19483">
        <ele>1859.4007568359</ele>
        <time>2010-08-04T14:25:37Z</time>
      </trkpt>
      <trkpt lat="45.37655" lon="6.19481">
        <ele>1859.4831542969</ele>
        <time>2010-08-04T14:25:43Z</time>
      </trkpt>
      <trkpt lat="45.3766" lon="6.19479">
        <ele>1859.5158691406</ele>
        <time>2010-08-04T14:25:47Z</time>
      </trkpt>
      <trkpt lat="45.37667" lon="6.19477">
        <ele>1860.25390625</ele>
        <time>2010-08-04T14:25:54Z</time>
      </trkpt>
      <trkpt lat="45.37672" lon="6.19478">
        <ele>1861.8916015625</ele>
        <time>2010-08-04T14:26:01Z</time>
      </trkpt>
      <trkpt lat="45.37677" lon="6.19477">
        <ele>1862.6864013672</ele>
        <time>2010-08-04T14:26:06Z</time>
      </trkpt>
      <trkpt lat="45.37689" lon="6.19477">
        <ele>1865.5875244141</ele>
        <time>2010-08-04T14:26:13Z</time>
      </trkpt>
      <trkpt lat="45.37694" lon="6.19476">
        <ele>1866.1368408203</ele>
        <time>2010-08-04T14:26:19Z</time>
      </trkpt>
      <trkpt lat="45.377" lon="6.19475">
        <ele>1867.5729980469</ele>
        <time>2010-08-04T14:26:26Z</time>
      </trkpt>
      <trkpt lat="45.37707" lon="6.19473">
        <ele>1868.8559570312</ele>
        <time>2010-08-04T14:26:31Z</time>
      </trkpt>
      <trkpt lat="45.37713" lon="6.19472">
        <ele>1870.3822021484</ele>
        <time>2010-08-04T14:26:36Z</time>
      </trkpt>
      <trkpt lat="45.37721" lon="6.19471">
        <ele>1873.0283203125</ele>
        <time>2010-08-04T14:26:45Z</time>
      </trkpt>
      <trkpt lat="45.37726" lon="6.19471">
        <ele>1874.4718017578</ele>
        <time>2010-08-04T14:26:50Z</time>
      </trkpt>
      <trkpt lat="45.37732" lon="6.1947">
        <ele>1876.3735351562</ele>
        <time>2010-08-04T14:26:57Z</time>
      </trkpt>
      <trkpt lat="45.37734" lon="6.19468">
        <ele>1876.1013183594</ele>
        <time>2010-08-04T14:26:59Z</time>
      </trkpt>
      <trkpt lat="45.37738" lon="6.19463">
        <ele>1874.9718017578</ele>
        <time>2010-08-04T14:27:08Z</time>
      </trkpt>
      <trkpt lat="45.37741" lon="6.19466">
        <ele>1877.1528320312</ele>
        <time>2010-08-04T14:27:13Z</time>
      </trkpt>
      <trkpt lat="45.37741" lon="6.19466">
        <ele>1877.3372802734</ele>
        <time>2010-08-04T14:27:14Z</time>
      </trkpt>
      <trkpt lat="45.37746" lon="6.19465">
        <ele>1878.8828125</ele>
        <time>2010-08-04T14:27:18Z</time>
      </trkpt>
      <trkpt lat="45.37756" lon="6.19467">
        <ele>1883.4169921875</ele>
        <time>2010-08-04T14:27:30Z</time>
      </trkpt>
      <trkpt lat="45.37762" lon="6.1947">
        <ele>1886.6579589844</ele>
        <time>2010-08-04T14:27:38Z</time>
      </trkpt>
      <trkpt lat="45.37768" lon="6.1947">
        <ele>1888.7775878906</ele>
        <time>2010-08-04T14:27:47Z</time>
      </trkpt>
      <trkpt lat="45.37772" lon="6.1947">
        <ele>1889.9294433594</ele>
        <time>2010-08-04T14:27:54Z</time>
      </trkpt>
      <trkpt lat="45.37776" lon="6.1947">
        <ele>1891.1258544922</ele>
        <time>2010-08-04T14:28:00Z</time>
      </trkpt>
      <trkpt lat="45.37778" lon="6.19473">
        <ele>1893.5340576172</ele>
        <time>2010-08-04T14:28:07Z</time>
      </trkpt>
      <trkpt lat="45.37778" lon="6.19478">
        <ele>1895.810546875</ele>
        <time>2010-08-04T14:28:12Z</time>
      </trkpt>
      <trkpt lat="45.37779" lon="6.19481">
        <ele>1897.2385253906</ele>
        <time>2010-08-04T14:28:17Z</time>
      </trkpt>
      <trkpt lat="45.37782" lon="6.19478">
        <ele>1896.0261230469</ele>
        <time>2010-08-04T14:28:22Z</time>
      </trkpt>
      <trkpt lat="45.37789" lon="6.19483">
        <ele>1899.1242675781</ele>
        <time>2010-08-04T14:28:31Z</time>
      </trkpt>
      <trkpt lat="45.37791" lon="6.19486">
        <ele>1900.5833740234</ele>
        <time>2010-08-04T14:28:39Z</time>
      </trkpt>
      <trkpt lat="45.37791" lon="6.19488">
        <ele>1901.4273681641</ele>
        <time>2010-08-04T14:28:44Z</time>
      </trkpt>
      <trkpt lat="45.37797" lon="6.19492">
        <ele>1904.2224121094</ele>
        <time>2010-08-04T14:28:53Z</time>
      </trkpt>
      <trkpt lat="45.37802" lon="6.19495">
        <ele>1906.2646484375</ele>
        <time>2010-08-04T14:29:01Z</time>
      </trkpt>
      <trkpt lat="45.37806" lon="6.19498">
        <ele>1908.2175292969</ele>
        <time>2010-08-04T14:29:08Z</time>
      </trkpt>
      <trkpt lat="45.37813" lon="6.19501">
        <ele>1910.0111083984</ele>
        <time>2010-08-04T14:29:18Z</time>
      </trkpt>
      <trkpt lat="45.37819" lon="6.19506">
        <ele>1912.7727050781</ele>
        <time>2010-08-04T14:29:26Z</time>
      </trkpt>
      <trkpt lat="45.37824" lon="6.19512">
        <ele>1916.9046630859</ele>
        <time>2010-08-04T14:29:35Z</time>
      </trkpt>
      <trkpt lat="45.37829" lon="6.19518">
        <ele>1921.0051269531</ele>
        <time>2010-08-04T14:29:45Z</time>
      </trkpt>
      <trkpt lat="45.37835" lon="6.19521">
        <ele>1922.6492919922</ele>
        <time>2010-08-04T14:29:54Z</time>
      </trkpt>
      <trkpt lat="45.37843" lon="6.19524">
        <ele>1923.3057861328</ele>
        <time>2010-08-04T14:30:05Z</time>
      </trkpt>
      <trkpt lat="45.37847" lon="6.19527">
        <ele>1924.0706787109</ele>
        <time>2010-08-04T14:30:13Z</time>
      </trkpt>
      <trkpt lat="45.3785" lon="6.19534">
        <ele>1927.3515625</ele>
        <time>2010-08-04T14:30:23Z</time>
      </trkpt>
      <trkpt lat="45.3785" lon="6.19538">
        <ele>1929.6003417969</ele>
        <time>2010-08-04T14:30:29Z</time>
      </trkpt>
      <trkpt lat="45.37854" lon="6.19546">
        <ele>1932.7846679688</ele>
        <time>2010-08-04T14:30:38Z</time>
      </trkpt>
      <trkpt lat="45.37858" lon="6.19548">
        <ele>1933.7373046875</ele>
        <time>2010-08-04T14:30:44Z</time>
      </trkpt>
      <trkpt lat="45.3786" lon="6.19552">
        <ele>1935.2823486328</ele>
        <time>2010-08-04T14:30:49Z</time>
      </trkpt>
      <trkpt lat="45.37864" lon="6.19559">
        <ele>1939.0155029297</ele>
        <time>2010-08-04T14:30:56Z</time>
      </trkpt>
      <trkpt lat="45.37868" lon="6.19561">
        <ele>1940.1826171875</ele>
        <time>2010-08-04T14:31:02Z</time>
      </trkpt>
      <trkpt lat="45.3787" lon="6.19562">
        <ele>1941.0418701172</ele>
        <time>2010-08-04T14:31:09Z</time>
      </trkpt>
      <trkpt lat="45.3787" lon="6.19562">
        <ele>1941.099609375</ele>
        <time>2010-08-04T14:31:11Z</time>
      </trkpt>
      <trkpt lat="45.37877" lon="6.19562">
        <ele>1941.5369873047</ele>
        <time>2010-08-04T14:31:20Z</time>
      </trkpt>
      <trkpt lat="45.3788" lon="6.19563">
        <ele>1942.3607177734</ele>
        <time>2010-08-04T14:31:28Z</time>
      </trkpt>
      <trkpt lat="45.37883" lon="6.19564">
        <ele>1942.9311523438</ele>
        <time>2010-08-04T14:31:34Z</time>
      </trkpt>
      <trkpt lat="45.37891" lon="6.19563">
        <ele>1943.3778076172</ele>
        <time>2010-08-04T14:31:40Z</time>
      </trkpt>
      <trkpt lat="45.37902" lon="6.19568">
        <ele>1947.4833984375</ele>
        <time>2010-08-04T14:31:48Z</time>
      </trkpt>
      <trkpt lat="45.37912" lon="6.19574">
        <ele>1952.4328613281</ele>
        <time>2010-08-04T14:31:55Z</time>
      </trkpt>
      <trkpt lat="45.37918" lon="6.19581">
        <ele>1956.6358642578</ele>
        <time>2010-08-04T14:32:02Z</time>
      </trkpt>
      <trkpt lat="45.37927" lon="6.1959">
        <ele>1958.1807861328</ele>
        <time>2010-08-04T14:32:12Z</time>
      </trkpt>
      <trkpt lat="45.37932" lon="6.19595">
        <ele>1959.4305419922</ele>
        <time>2010-08-04T14:32:21Z</time>
      </trkpt>
      <trkpt lat="45.37936" lon="6.19598">
        <ele>1959.9660644531</ele>
        <time>2010-08-04T14:32:28Z</time>
      </trkpt>
      <trkpt lat="45.37943" lon="6.19601">
        <ele>1959.1661376953</ele>
        <time>2010-08-04T14:32:37Z</time>
      </trkpt>
      <trkpt lat="45.3795" lon="6.19602">
        <ele>1960.4420166016</ele>
        <time>2010-08-04T14:32:44Z</time>
      </trkpt>
      <trkpt lat="45.3796" lon="6.19604">
        <ele>1963.4254150391</ele>
        <time>2010-08-04T14:32:56Z</time>
      </trkpt>
      <trkpt lat="45.37964" lon="6.19608">
        <ele>1965.9865722656</ele>
        <time>2010-08-04T14:33:04Z</time>
      </trkpt>
      <trkpt lat="45.37967" lon="6.1961">
        <ele>1967.4011230469</ele>
        <time>2010-08-04T14:33:11Z</time>
      </trkpt>
      <trkpt lat="45.37969" lon="6.19611">
        <ele>1968.4379882812</ele>
        <time>2010-08-04T14:33:18Z</time>
      </trkpt>
      <trkpt lat="45.37973" lon="6.1961">
        <ele>1968.6422119141</ele>
        <time>2010-08-04T14:33:25Z</time>
      </trkpt>
      <trkpt lat="45.37977" lon="6.1961">
        <ele>1970.2001953125</ele>
        <time>2010-08-04T14:33:33Z</time>
      </trkpt>
      <trkpt lat="45.37979" lon="6.19609">
        <ele>1970.5108642578</ele>
        <time>2010-08-04T14:33:35Z</time>
      </trkpt>
      <trkpt lat="45.37985" lon="6.19607">
        <ele>1972.1343994141</ele>
        <time>2010-08-04T14:33:44Z</time>
      </trkpt>
      <trkpt lat="45.37987" lon="6.1961">
        <ele>1974.2172851562</ele>
        <time>2010-08-04T14:33:52Z</time>
      </trkpt>
      <trkpt lat="45.37984" lon="6.19616">
        <ele>1976.3739013672</ele>
        <time>2010-08-04T14:34:03Z</time>
      </trkpt>
      <trkpt lat="45.37986" lon="6.19619">
        <ele>1978.4006347656</ele>
        <time>2010-08-04T14:34:08Z</time>
      </trkpt>
      <trkpt lat="45.37988" lon="6.1962">
        <ele>1979.7608642578</ele>
        <time>2010-08-04T14:34:14Z</time>
      </trkpt>
      <trkpt lat="45.37992" lon="6.19621">
        <ele>1982.0001220703</ele>
        <time>2010-08-04T14:34:21Z</time>
      </trkpt>
      <trkpt lat="45.37996" lon="6.19623">
        <ele>1983.6994628906</ele>
        <time>2010-08-04T14:34:27Z</time>
      </trkpt>
      <trkpt lat="45.37997" lon="6.19624">
        <ele>1985.1905517578</ele>
        <time>2010-08-04T14:34:34Z</time>
      </trkpt>
      <trkpt lat="45.37999" lon="6.19625">
        <ele>1985.9873046875</ele>
        <time>2010-08-04T14:34:39Z</time>
      </trkpt>
      <trkpt lat="45.38001" lon="6.19623">
        <ele>1986.2966308594</ele>
        <time>2010-08-04T14:34:44Z</time>
      </trkpt>
      <trkpt lat="45.38002" lon="6.1962">
        <ele>1985.4281005859</ele>
        <time>2010-08-04T14:34:49Z</time>
      </trkpt>
      <trkpt lat="45.38006" lon="6.19621">
        <ele>1988.1826171875</ele>
        <time>2010-08-04T14:34:56Z</time>
      </trkpt>
      <trkpt lat="45.38008" lon="6.19624">
        <ele>1990.1491699219</ele>
        <time>2010-08-04T14:35:01Z</time>
      </trkpt>
      <trkpt lat="45.38012" lon="6.19626">
        <ele>1992.3212890625</ele>
        <time>2010-08-04T14:35:06Z</time>
      </trkpt>
      <trkpt lat="45.38014" lon="6.19629">
        <ele>1994.1322021484</ele>
        <time>2010-08-04T14:35:11Z</time>
      </trkpt>
      <trkpt lat="45.38017" lon="6.19634">
        <ele>1996.4046630859</ele>
        <time>2010-08-04T14:35:21Z</time>
      </trkpt>
      <trkpt lat="45.3802" lon="6.19635">
        <ele>1997.5808105469</ele>
        <time>2010-08-04T14:35:31Z</time>
      </trkpt>
      <trkpt lat="45.38023" lon="6.19641">
        <ele>1999.2742919922</ele>
        <time>2010-08-04T14:35:40Z</time>
      </trkpt>
      <trkpt lat="45.38026" lon="6.19642">
        <ele>2000.1199951172</ele>
        <time>2010-08-04T14:35:46Z</time>
      </trkpt>
      <trkpt lat="45.38028" lon="6.19643">
        <ele>2001.2578125</ele>
        <time>2010-08-04T14:35:52Z</time>
      </trkpt>
      <trkpt lat="45.38031" lon="6.19649">
        <ele>2004.4044189453</ele>
        <time>2010-08-04T14:35:59Z</time>
      </trkpt>
      <trkpt lat="45.38034" lon="6.19656">
        <ele>2008.3309326172</ele>
        <time>2010-08-04T14:36:07Z</time>
      </trkpt>
      <trkpt lat="45.38038" lon="6.1966">
        <ele>2012.1571044922</ele>
        <time>2010-08-04T14:36:15Z</time>
      </trkpt>
      <trkpt lat="45.38041" lon="6.19663">
        <ele>2014.3790283203</ele>
        <time>2010-08-04T14:36:21Z</time>
      </trkpt>
      <trkpt lat="45.38044" lon="6.19666">
        <ele>2016.3900146484</ele>
        <time>2010-08-04T14:36:27Z</time>
      </trkpt>
      <trkpt lat="45.38046" lon="6.19668">
        <ele>2018.3934326172</ele>
        <time>2010-08-04T14:36:33Z</time>
      </trkpt>
      <trkpt lat="45.38049" lon="6.19671">
        <ele>2020.2150878906</ele>
        <time>2010-08-04T14:36:40Z</time>
      </trkpt>
      <trkpt lat="45.3805" lon="6.19676">
        <ele>2021.5655517578</ele>
        <time>2010-08-04T14:36:46Z</time>
      </trkpt>
      <trkpt lat="45.38052" lon="6.19685">
        <ele>2023.3391113281</ele>
        <time>2010-08-04T14:36:59Z</time>
      </trkpt>
      <trkpt lat="45.38055" lon="6.19686">
        <ele>2025.3746337891</ele>
        <time>2010-08-04T14:37:07Z</time>
      </trkpt>
      <trkpt lat="45.38053" lon="6.19686">
        <ele>2024.1297607422</ele>
        <time>2010-08-04T14:37:12Z</time>
      </trkpt>
      <trkpt lat="45.38053" lon="6.19686">
        <ele>2024.12109375</ele>
        <time>2010-08-04T14:37:13Z</time>
      </trkpt>
      <trkpt lat="45.3806" lon="6.19688">
        <ele>2029.7395019531</ele>
        <time>2010-08-04T14:37:23Z</time>
      </trkpt>
      <trkpt lat="45.38061" lon="6.19686">
        <ele>2030.8103027344</ele>
        <time>2010-08-04T14:37:30Z</time>
      </trkpt>
      <trkpt lat="45.38062" lon="6.19682">
        <ele>2032.2022705078</ele>
        <time>2010-08-04T14:37:37Z</time>
      </trkpt>
      <trkpt lat="45.38065" lon="6.19679">
        <ele>2034.7706298828</ele>
        <time>2010-08-04T14:37:45Z</time>
      </trkpt>
      <trkpt lat="45.38068" lon="6.19679">
        <ele>2037.8045654297</ele>
        <time>2010-08-04T14:37:52Z</time>
      </trkpt>
      <trkpt lat="45.38071" lon="6.19676">
        <ele>2040.4013671875</ele>
        <time>2010-08-04T14:37:58Z</time>
      </trkpt>
      <trkpt lat="45.38077" lon="6.19669">
        <ele>2046.7974853516</ele>
        <time>2010-08-04T14:38:09Z</time>
      </trkpt>
      <trkpt lat="45.38078" lon="6.19669">
        <ele>2047.9510498047</ele>
        <time>2010-08-04T14:38:15Z</time>
      </trkpt>
      <trkpt lat="45.3808" lon="6.19672">
        <ele>2049.8806152344</ele>
        <time>2010-08-04T14:38:23Z</time>
      </trkpt>
      <trkpt lat="45.38082" lon="6.19671">
        <ele>2051.7858886719</ele>
        <time>2010-08-04T14:38:32Z</time>
      </trkpt>
      <trkpt lat="45.38085" lon="6.19668">
        <ele>2054.2639160156</ele>
        <time>2010-08-04T14:38:39Z</time>
      </trkpt>
      <trkpt lat="45.38087" lon="6.19664">
        <ele>2056.8171386719</ele>
        <time>2010-08-04T14:38:48Z</time>
      </trkpt>
      <trkpt lat="45.38089" lon="6.1966">
        <ele>2059.7922363281</ele>
        <time>2010-08-04T14:38:56Z</time>
      </trkpt>
      <trkpt lat="45.3809" lon="6.19657">
        <ele>2061.2138671875</ele>
        <time>2010-08-04T14:39:03Z</time>
      </trkpt>
      <trkpt lat="45.38092" lon="6.19656">
        <ele>2062.7646484375</ele>
        <time>2010-08-04T14:39:08Z</time>
      </trkpt>
      <trkpt lat="45.38095" lon="6.19659">
        <ele>2064.7541503906</ele>
        <time>2010-08-04T14:39:16Z</time>
      </trkpt>
      <trkpt lat="45.381" lon="6.19668">
        <ele>2067.4799804688</ele>
        <time>2010-08-04T14:39:23Z</time>
      </trkpt>
      <trkpt lat="45.38104" lon="6.19683">
        <ele>2071.1862792969</ele>
        <time>2010-08-04T14:39:31Z</time>
      </trkpt>
      <trkpt lat="45.38107" lon="6.19694">
        <ele>2074.5573730469</ele>
        <time>2010-08-04T14:39:37Z</time>
      </trkpt>
      <trkpt lat="45.38115" lon="6.19708">
        <ele>2075.7705078125</ele>
        <time>2010-08-04T14:39:46Z</time>
      </trkpt>
      <trkpt lat="45.38117" lon="6.19713">
        <ele>2074.21484375</ele>
        <time>2010-08-04T14:39:52Z</time>
      </trkpt>
      <trkpt lat="45.3812" lon="6.19718">
        <ele>2072.4724121094</ele>
        <time>2010-08-04T14:39:56Z</time>
      </trkpt>
      <trkpt lat="45.38128" lon="6.19726">
        <ele>2067.4562988281</ele>
        <time>2010-08-04T14:40:03Z</time>
      </trkpt>
      <trkpt lat="45.38137" lon="6.19733">
        <ele>2062.1135253906</ele>
        <time>2010-08-04T14:40:12Z</time>
      </trkpt>
      <trkpt lat="45.38142" lon="6.19734">
        <ele>2060.646484375</ele>
        <time>2010-08-04T14:40:18Z</time>
      </trkpt>
      <trkpt lat="45.38148" lon="6.19737">
        <ele>2061.2744140625</ele>
        <time>2010-08-04T14:40:25Z</time>
      </trkpt>
      <trkpt lat="45.38156" lon="6.19739">
        <ele>2061.5153808594</ele>
        <time>2010-08-04T14:40:32Z</time>
      </trkpt>
      <trkpt lat="45.38157" lon="6.19739">
        <ele>2061.7473144531</ele>
        <time>2010-08-04T14:40:33Z</time>
      </trkpt>
      <trkpt lat="45.38162" lon="6.19745">
        <ele>2063.833984375</ele>
        <time>2010-08-04T14:40:39Z</time>
      </trkpt>
      <trkpt lat="45.38165" lon="6.19744">
        <ele>2063.5451660156</ele>
        <time>2010-08-04T14:40:45Z</time>
      </trkpt>
      <trkpt lat="45.38168" lon="6.19743">
        <ele>2062.9130859375</ele>
        <time>2010-08-04T14:40:53Z</time>
      </trkpt>
      <trkpt lat="45.38175" lon="6.19743">
        <ele>2063.6625976562</ele>
        <time>2010-08-04T14:40:57Z</time>
      </trkpt>
      <trkpt lat="45.38178" lon="6.19743">
        <ele>2063.8041992188</ele>
        <time>2010-08-04T14:41:02Z</time>
      </trkpt>
      <trkpt lat="45.38179" lon="6.19743">
        <ele>2063.8344726562</ele>
        <time>2010-08-04T14:41:03Z</time>
      </trkpt>
      <trkpt lat="45.38184" lon="6.19737">
        <ele>2062.6640625</ele>
        <time>2010-08-04T14:41:08Z</time>
      </trkpt>
      <trkpt lat="45.38187" lon="6.19737">
        <ele>2062.8479003906</ele>
        <time>2010-08-04T14:41:10Z</time>
      </trkpt>
      <trkpt lat="45.38195" lon="6.19741">
        <ele>2064.7846679688</ele>
        <time>2010-08-04T14:41:18Z</time>
      </trkpt>
      <trkpt lat="45.38195" lon="6.19742">
        <ele>2064.9538574219</ele>
        <time>2010-08-04T14:41:19Z</time>
      </trkpt>
      <trkpt lat="45.38202" lon="6.19745">
        <ele>2065.4487304688</ele>
        <time>2010-08-04T14:41:27Z</time>
      </trkpt>
      <trkpt lat="45.38213" lon="6.19749">
        <ele>2066.1552734375</ele>
        <time>2010-08-04T14:41:34Z</time>
      </trkpt>
      <trkpt lat="45.38218" lon="6.1975">
        <ele>2066.2548828125</ele>
        <time>2010-08-04T14:41:39Z</time>
      </trkpt>
      <trkpt lat="45.38226" lon="6.19752">
        <ele>2066.6228027344</ele>
        <time>2010-08-04T14:41:47Z</time>
      </trkpt>
      <trkpt lat="45.38235" lon="6.19752">
        <ele>2067.1088867188</ele>
        <time>2010-08-04T14:41:55Z</time>
      </trkpt>
      <trkpt lat="45.38237" lon="6.19751">
        <ele>2067.0261230469</ele>
        <time>2010-08-04T14:41:59Z</time>
      </trkpt>
      <trkpt lat="45.38248" lon="6.19745">
        <ele>2064.912109375</ele>
        <time>2010-08-04T14:42:08Z</time>
      </trkpt>
      <trkpt lat="45.38253" lon="6.19744">
        <ele>2064.6977539062</ele>
        <time>2010-08-04T14:42:12Z</time>
      </trkpt>
      <trkpt lat="45.38265" lon="6.19745">
        <ele>2065.82421875</ele>
        <time>2010-08-04T14:42:18Z</time>
      </trkpt>
      <trkpt lat="45.38266" lon="6.19745">
        <ele>2066.0935058594</ele>
        <time>2010-08-04T14:42:19Z</time>
      </trkpt>
      <trkpt lat="45.38269" lon="6.19746">
        <ele>2066.7331542969</ele>
        <time>2010-08-04T14:42:22Z</time>
      </trkpt>
      <trkpt lat="45.38275" lon="6.19737">
        <ele>2062.3544921875</ele>
        <time>2010-08-04T14:42:27Z</time>
      </trkpt>
      <trkpt lat="45.38281" lon="6.1973">
        <ele>2058.8811035156</ele>
        <time>2010-08-04T14:42:32Z</time>
      </trkpt>
      <trkpt lat="45.38287" lon="6.19725">
        <ele>2056.4501953125</ele>
        <time>2010-08-04T14:42:38Z</time>
      </trkpt>
      <trkpt lat="45.38295" lon="6.19717">
        <ele>2052.2209472656</ele>
        <time>2010-08-04T14:42:45Z</time>
      </trkpt>
      <trkpt lat="45.38303" lon="6.19714">
        <ele>2050.4528808594</ele>
        <time>2010-08-04T14:42:51Z</time>
      </trkpt>
      <trkpt lat="45.38311" lon="6.19708">
        <ele>2047.2406005859</ele>
        <time>2010-08-04T14:42:56Z</time>
      </trkpt>
      <trkpt lat="45.38312" lon="6.19708">
        <ele>2046.9963378906</ele>
        <time>2010-08-04T14:42:57Z</time>
      </trkpt>
      <trkpt lat="45.38316" lon="6.19709">
        <ele>2048.5625</ele>
        <time>2010-08-04T14:43:01Z</time>
      </trkpt>
      <trkpt lat="45.38329" lon="6.19706">
        <ele>2046.6544189453</ele>
        <time>2010-08-04T14:43:08Z</time>
      </trkpt>
      <trkpt lat="45.38335" lon="6.19701">
        <ele>2043.5330810547</ele>
        <time>2010-08-04T14:43:12Z</time>
      </trkpt>
      <trkpt lat="45.38337" lon="6.197">
        <ele>2043.3631591797</ele>
        <time>2010-08-04T14:43:13Z</time>
      </trkpt>
      <trkpt lat="45.38344" lon="6.19692">
        <ele>2040.1278076172</ele>
        <time>2010-08-04T14:43:17Z</time>
      </trkpt>
      <trkpt lat="45.38348" lon="6.19687">
        <ele>2038.7947998047</ele>
        <time>2010-08-04T14:43:19Z</time>
      </trkpt>
      <trkpt lat="45.38359" lon="6.19676">
        <ele>2035.9581298828</ele>
        <time>2010-08-04T14:43:26Z</time>
      </trkpt>
      <trkpt lat="45.38361" lon="6.19675">
        <ele>2035.7069091797</ele>
        <time>2010-08-04T14:43:27Z</time>
      </trkpt>
      <trkpt lat="45.3837" lon="6.19669">
        <ele>2032.8864746094</ele>
        <time>2010-08-04T14:43:34Z</time>
      </trkpt>
      <trkpt lat="45.38376" lon="6.19664">
        <ele>2030.6604003906</ele>
        <time>2010-08-04T14:43:38Z</time>
      </trkpt>
      <trkpt lat="45.38377" lon="6.19661">
        <ele>2029.2822265625</ele>
        <time>2010-08-04T14:43:41Z</time>
      </trkpt>
      <trkpt lat="45.38383" lon="6.19661">
        <ele>2029.7451171875</ele>
        <time>2010-08-04T14:43:46Z</time>
      </trkpt>
      <trkpt lat="45.38391" lon="6.19658">
        <ele>2029.5675048828</ele>
        <time>2010-08-04T14:43:51Z</time>
      </trkpt>
      <trkpt lat="45.38399" lon="6.19651">
        <ele>2027.2161865234</ele>
        <time>2010-08-04T14:43:57Z</time>
      </trkpt>
      <trkpt lat="45.38403" lon="6.19648">
        <ele>2025.9223632812</ele>
        <time>2010-08-04T14:44:01Z</time>
      </trkpt>
      <trkpt lat="45.38404" lon="6.19644">
        <ele>2024.3909912109</ele>
        <time>2010-08-04T14:44:04Z</time>
      </trkpt>
      <trkpt lat="45.38408" lon="6.19641">
        <ele>2023.2687988281</ele>
        <time>2010-08-04T14:44:07Z</time>
      </trkpt>
      <trkpt lat="45.38411" lon="6.19635">
        <ele>2019.5290527344</ele>
        <time>2010-08-04T14:44:11Z</time>
      </trkpt>
      <trkpt lat="45.38419" lon="6.19626">
        <ele>2012.8596191406</ele>
        <time>2010-08-04T14:44:17Z</time>
      </trkpt>
      <trkpt lat="45.38423" lon="6.19619">
        <ele>2007.1730957031</ele>
        <time>2010-08-04T14:44:22Z</time>
      </trkpt>
      <trkpt lat="45.38426" lon="6.19615">
        <ele>2004.3621826172</ele>
        <time>2010-08-04T14:44:25Z</time>
      </trkpt>
      <trkpt lat="45.38434" lon="6.19611">
        <ele>2003.1633300781</ele>
        <time>2010-08-04T14:44:31Z</time>
      </trkpt>
      <trkpt lat="45.38445" lon="6.19603">
        <ele>2000.6571044922</ele>
        <time>2010-08-04T14:44:38Z</time>
      </trkpt>
      <trkpt lat="45.38451" lon="6.19598">
        <ele>2000.5192871094</ele>
        <time>2010-08-04T14:44:44Z</time>
      </trkpt>
      <trkpt lat="45.38454" lon="6.19591">
        <ele>1998.6243896484</ele>
        <time>2010-08-04T14:44:52Z</time>
      </trkpt>
      <trkpt lat="45.38457" lon="6.19587">
        <ele>1997.9821777344</ele>
        <time>2010-08-04T14:44:59Z</time>
      </trkpt>
      <trkpt lat="45.38462" lon="6.19582">
        <ele>1998.0953369141</ele>
        <time>2010-08-04T14:45:07Z</time>
      </trkpt>
      <trkpt lat="45.38467" lon="6.19577">
        <ele>1998.4547119141</ele>
        <time>2010-08-04T14:45:15Z</time>
      </trkpt>
      <trkpt lat="45.38474" lon="6.19573">
        <ele>1999.9645996094</ele>
        <time>2010-08-04T14:45:23Z</time>
      </trkpt>
      <trkpt lat="45.38478" lon="6.19571">
        <ele>2000.1058349609</ele>
        <time>2010-08-04T14:45:29Z</time>
      </trkpt>
      <trkpt lat="45.3848" lon="6.19569">
        <ele>2000.3549804688</ele>
        <time>2010-08-04T14:45:31Z</time>
      </trkpt>
      <trkpt lat="45.3849" lon="6.19568">
        <ele>2003.8765869141</ele>
        <time>2010-08-04T14:45:40Z</time>
      </trkpt>
      <trkpt lat="45.38493" lon="6.19568">
        <ele>2005.0437011719</ele>
        <time>2010-08-04T14:45:43Z</time>
      </trkpt>
      <trkpt lat="45.38501" lon="6.19568">
        <ele>2007.6923828125</ele>
        <time>2010-08-04T14:45:52Z</time>
      </trkpt>
      <trkpt lat="45.38507" lon="6.19567">
        <ele>2008.5472412109</ele>
        <time>2010-08-04T14:45:57Z</time>
      </trkpt>
      <trkpt lat="45.38516" lon="6.19569">
        <ele>2011.0803222656</ele>
        <time>2010-08-04T14:46:04Z</time>
      </trkpt>
      <trkpt lat="45.38517" lon="6.1957">
        <ele>2012.12109375</ele>
        <time>2010-08-04T14:46:06Z</time>
      </trkpt>
      <trkpt lat="45.38518" lon="6.19575">
        <ele>2014.2567138672</ele>
        <time>2010-08-04T14:46:11Z</time>
      </trkpt>
      <trkpt lat="45.38521" lon="6.1958">
        <ele>2017.1287841797</ele>
        <time>2010-08-04T14:46:17Z</time>
      </trkpt>
      <trkpt lat="45.38527" lon="6.19588">
        <ele>2020.9798583984</ele>
        <time>2010-08-04T14:46:26Z</time>
      </trkpt>
      <trkpt lat="45.38532" lon="6.19596">
        <ele>2023.0424804688</ele>
        <time>2010-08-04T14:46:34Z</time>
      </trkpt>
      <trkpt lat="45.38535" lon="6.19603">
        <ele>2024.6770019531</ele>
        <time>2010-08-04T14:46:41Z</time>
      </trkpt>
      <trkpt lat="45.38541" lon="6.19607">
        <ele>2025.5013427734</ele>
        <time>2010-08-04T14:46:48Z</time>
      </trkpt>
      <trkpt lat="45.38546" lon="6.19611">
        <ele>2026.3609619141</ele>
        <time>2010-08-04T14:46:53Z</time>
      </trkpt>
      <trkpt lat="45.3855" lon="6.19618">
        <ele>2028.3277587891</ele>
        <time>2010-08-04T14:47:00Z</time>
      </trkpt>
      <trkpt lat="45.38556" lon="6.19624">
        <ele>2030.0512695312</ele>
        <time>2010-08-04T14:47:10Z</time>
      </trkpt>
      <trkpt lat="45.38558" lon="6.19631">
        <ele>2032.5462646484</ele>
        <time>2010-08-04T14:47:19Z</time>
      </trkpt>
      <trkpt lat="45.38561" lon="6.19638">
        <ele>2034.92578125</ele>
        <time>2010-08-04T14:47:27Z</time>
      </trkpt>
      <trkpt lat="45.38562" lon="6.19644">
        <ele>2037.158203125</ele>
        <time>2010-08-04T14:47:34Z</time>
      </trkpt>
      <trkpt lat="45.38563" lon="6.19651">
        <ele>2039.8739013672</ele>
        <time>2010-08-04T14:47:43Z</time>
      </trkpt>
      <trkpt lat="45.38564" lon="6.19658">
        <ele>2042.5725097656</ele>
        <time>2010-08-04T14:47:50Z</time>
      </trkpt>
      <trkpt lat="45.38566" lon="6.19667">
        <ele>2045.8614501953</ele>
        <time>2010-08-04T14:47:59Z</time>
      </trkpt>
      <trkpt lat="45.38565" lon="6.19674">
        <ele>2048.4226074219</ele>
        <time>2010-08-04T14:48:06Z</time>
      </trkpt>
      <trkpt lat="45.38566" lon="6.1968">
        <ele>2050.6267089844</ele>
        <time>2010-08-04T14:48:13Z</time>
      </trkpt>
      <trkpt lat="45.38567" lon="6.19685">
        <ele>2052.4086914062</ele>
        <time>2010-08-04T14:48:21Z</time>
      </trkpt>
      <trkpt lat="45.38568" lon="6.19692">
        <ele>2055.1860351562</ele>
        <time>2010-08-04T14:48:31Z</time>
      </trkpt>
      <trkpt lat="45.38569" lon="6.19699">
        <ele>2057.2399902344</ele>
        <time>2010-08-04T14:48:39Z</time>
      </trkpt>
      <trkpt lat="45.3857" lon="6.19704">
        <ele>2059.0109863281</ele>
        <time>2010-08-04T14:48:46Z</time>
      </trkpt>
      <trkpt lat="45.38572" lon="6.19708">
        <ele>2060.4379882812</ele>
        <time>2010-08-04T14:48:54Z</time>
      </trkpt>
      <trkpt lat="45.38577" lon="6.1971">
        <ele>2061.1450195312</ele>
        <time>2010-08-04T14:49:01Z</time>
      </trkpt>
      <trkpt lat="45.38578" lon="6.19713">
        <ele>2062.2124023438</ele>
        <time>2010-08-04T14:49:09Z</time>
      </trkpt>
      <trkpt lat="45.38578" lon="6.19717">
        <ele>2063.2607421875</ele>
        <time>2010-08-04T14:49:16Z</time>
      </trkpt>
      <trkpt lat="45.38579" lon="6.19722">
        <ele>2064.7529296875</ele>
        <time>2010-08-04T14:49:23Z</time>
      </trkpt>
      <trkpt lat="45.38579" lon="6.19725">
        <ele>2065.6149902344</ele>
        <time>2010-08-04T14:49:29Z</time>
      </trkpt>
      <trkpt lat="45.38577" lon="6.19731">
        <ele>2066.8415527344</ele>
        <time>2010-08-04T14:49:35Z</time>
      </trkpt>
      <trkpt lat="45.38577" lon="6.19737">
        <ele>2068.2653808594</ele>
        <time>2010-08-04T14:49:42Z</time>
      </trkpt>
      <trkpt lat="45.38572" lon="6.19741">
        <ele>2069.0463867188</ele>
        <time>2010-08-04T14:49:51Z</time>
      </trkpt>
      <trkpt lat="45.38569" lon="6.19745">
        <ele>2069.71875</ele>
        <time>2010-08-04T14:49:58Z</time>
      </trkpt>
      <trkpt lat="45.38569" lon="6.19754">
        <ele>2071.9411621094</ele>
        <time>2010-08-04T14:50:06Z</time>
      </trkpt>
      <trkpt lat="45.38573" lon="6.1976">
        <ele>2073.9399414062</ele>
        <time>2010-08-04T14:50:17Z</time>
      </trkpt>
      <trkpt lat="45.38576" lon="6.19764">
        <ele>2075.2270507812</ele>
        <time>2010-08-04T14:50:25Z</time>
      </trkpt>
      <trkpt lat="45.38579" lon="6.19765">
        <ele>2076.0734863281</ele>
        <time>2010-08-04T14:50:33Z</time>
      </trkpt>
      <trkpt lat="45.38583" lon="6.19767">
        <ele>2076.7399902344</ele>
        <time>2010-08-04T14:50:40Z</time>
      </trkpt>
      <trkpt lat="45.38589" lon="6.19768">
        <ele>2080.4460449219</ele>
        <time>2010-08-04T14:50:49Z</time>
      </trkpt>
      <trkpt lat="45.38588" lon="6.19771">
        <ele>2080.7045898438</ele>
        <time>2010-08-04T14:50:57Z</time>
      </trkpt>
      <trkpt lat="45.38594" lon="6.19773">
        <ele>2084.2866210938</ele>
        <time>2010-08-04T14:51:06Z</time>
      </trkpt>
      <trkpt lat="45.38596" lon="6.19776">
        <ele>2086.5725097656</ele>
        <time>2010-08-04T14:51:13Z</time>
      </trkpt>
      <trkpt lat="45.38601" lon="6.19783">
        <ele>2090.8977050781</ele>
        <time>2010-08-04T14:51:22Z</time>
      </trkpt>
      <trkpt lat="45.38605" lon="6.19789">
        <ele>2094.3996582031</ele>
        <time>2010-08-04T14:51:30Z</time>
      </trkpt>
      <trkpt lat="45.38609" lon="6.19796">
        <ele>2097.6647949219</ele>
        <time>2010-08-04T14:51:39Z</time>
      </trkpt>
      <trkpt lat="45.38612" lon="6.19802">
        <ele>2100.7077636719</ele>
        <time>2010-08-04T14:51:48Z</time>
      </trkpt>
      <trkpt lat="45.38616" lon="6.19809">
        <ele>2103.8542480469</ele>
        <time>2010-08-04T14:51:58Z</time>
      </trkpt>
      <trkpt lat="45.38618" lon="6.19818">
        <ele>2106.3708496094</ele>
        <time>2010-08-04T14:52:07Z</time>
      </trkpt>
      <trkpt lat="45.38623" lon="6.19824">
        <ele>2109.4296875</ele>
        <time>2010-08-04T14:52:18Z</time>
      </trkpt>
      <trkpt lat="45.38627" lon="6.19829">
        <ele>2112.23828125</ele>
        <time>2010-08-04T14:52:27Z</time>
      </trkpt>
      <trkpt lat="45.3863" lon="6.19839">
        <ele>2115.0607910156</ele>
        <time>2010-08-04T14:52:37Z</time>
      </trkpt>
      <trkpt lat="45.38631" lon="6.19844">
        <ele>2116.5676269531</ele>
        <time>2010-08-04T14:52:43Z</time>
      </trkpt>
      <trkpt lat="45.38633" lon="6.19849">
        <ele>2117.9624023438</ele>
        <time>2010-08-04T14:52:49Z</time>
      </trkpt>
      <trkpt lat="45.38634" lon="6.19853">
        <ele>2119.2072753906</ele>
        <time>2010-08-04T14:52:56Z</time>
      </trkpt>
      <trkpt lat="45.38634" lon="6.1986">
        <ele>2120.4301757812</ele>
        <time>2010-08-04T14:53:04Z</time>
      </trkpt>
      <trkpt lat="45.38636" lon="6.19861">
        <ele>2121.5209960938</ele>
        <time>2010-08-04T14:53:11Z</time>
      </trkpt>
      <trkpt lat="45.38637" lon="6.19859">
        <ele>2121.6520996094</ele>
        <time>2010-08-04T14:53:19Z</time>
      </trkpt>
      <trkpt lat="45.38637" lon="6.19857">
        <ele>2121.4311523438</ele>
        <time>2010-08-04T14:53:26Z</time>
      </trkpt>
      <trkpt lat="45.38639" lon="6.19854">
        <ele>2121.5712890625</ele>
        <time>2010-08-04T14:53:33Z</time>
      </trkpt>
      <trkpt lat="45.38642" lon="6.19852">
        <ele>2123.3571777344</ele>
        <time>2010-08-04T14:53:37Z</time>
      </trkpt>
      <trkpt lat="45.38644" lon="6.19849">
        <ele>2124.8051757812</ele>
        <time>2010-08-04T14:53:42Z</time>
      </trkpt>
      <trkpt lat="45.38645" lon="6.19845">
        <ele>2124.7185058594</ele>
        <time>2010-08-04T14:53:50Z</time>
      </trkpt>
      <trkpt lat="45.38647" lon="6.1984">
        <ele>2125.7111816406</ele>
        <time>2010-08-04T14:53:57Z</time>
      </trkpt>
      <trkpt lat="45.38651" lon="6.19835">
        <ele>2127.404296875</ele>
        <time>2010-08-04T14:54:07Z</time>
      </trkpt>
      <trkpt lat="45.38654" lon="6.19833">
        <ele>2129.5617675781</ele>
        <time>2010-08-04T14:54:16Z</time>
      </trkpt>
      <trkpt lat="45.38657" lon="6.19835">
        <ele>2132.80859375</ele>
        <time>2010-08-04T14:54:23Z</time>
      </trkpt>
      <trkpt lat="45.3866" lon="6.19839">
        <ele>2135.3315429688</ele>
        <time>2010-08-04T14:54:30Z</time>
      </trkpt>
      <trkpt lat="45.38662" lon="6.19839">
        <ele>2136.5053710938</ele>
        <time>2010-08-04T14:54:39Z</time>
      </trkpt>
      <trkpt lat="45.38665" lon="6.19834">
        <ele>2138.3994140625</ele>
        <time>2010-08-04T14:54:49Z</time>
      </trkpt>
      <trkpt lat="45.38665" lon="6.1983">
        <ele>2138.9650878906</ele>
        <time>2010-08-04T14:54:53Z</time>
      </trkpt>
      <trkpt lat="45.38665" lon="6.19828">
        <ele>2138.3120117188</ele>
        <time>2010-08-04T14:55:03Z</time>
      </trkpt>
      <trkpt lat="45.38665" lon="6.19826">
        <ele>2138.9272460938</ele>
        <time>2010-08-04T14:55:20Z</time>
      </trkpt>
      <trkpt lat="45.38667" lon="6.19822">
        <ele>2139.8852539062</ele>
        <time>2010-08-04T14:55:26Z</time>
      </trkpt>
      <trkpt lat="45.38668" lon="6.19818">
        <ele>2140.7084960938</ele>
        <time>2010-08-04T14:55:31Z</time>
      </trkpt>
      <trkpt lat="45.3867" lon="6.19811">
        <ele>2142.5461425781</ele>
        <time>2010-08-04T14:55:39Z</time>
      </trkpt>
      <trkpt lat="45.38671" lon="6.19805">
        <ele>2142.7312011719</ele>
        <time>2010-08-04T14:55:46Z</time>
      </trkpt>
      <trkpt lat="45.38671" lon="6.198">
        <ele>2142.66015625</ele>
        <time>2010-08-04T14:55:52Z</time>
      </trkpt>
      <trkpt lat="45.38675" lon="6.19793">
        <ele>2143.9985351562</ele>
        <time>2010-08-04T14:56:00Z</time>
      </trkpt>
      <trkpt lat="45.38677" lon="6.19788">
        <ele>2144.6123046875</ele>
        <time>2010-08-04T14:56:05Z</time>
      </trkpt>
      <trkpt lat="45.38678" lon="6.19781">
        <ele>2144.6704101562</ele>
        <time>2010-08-04T14:56:14Z</time>
      </trkpt>
      <trkpt lat="45.38678" lon="6.19775">
        <ele>2143.4504394531</ele>
        <time>2010-08-04T14:56:23Z</time>
      </trkpt>
      <trkpt lat="45.38681" lon="6.19768">
        <ele>2143.7993164062</ele>
        <time>2010-08-04T14:56:32Z</time>
      </trkpt>
      <trkpt lat="45.38686" lon="6.19761">
        <ele>2146.1193847656</ele>
        <time>2010-08-04T14:56:40Z</time>
      </trkpt>
      <trkpt lat="45.3869" lon="6.19755">
        <ele>2147.6108398438</ele>
        <time>2010-08-04T14:56:47Z</time>
      </trkpt>
      <trkpt lat="45.38692" lon="6.19748">
        <ele>2148.1372070312</ele>
        <time>2010-08-04T14:56:53Z</time>
      </trkpt>
      <trkpt lat="45.38691" lon="6.19745">
        <ele>2146.5654296875</ele>
        <time>2010-08-04T14:56:57Z</time>
      </trkpt>
      <trkpt lat="45.38691" lon="6.19743">
        <ele>2146.8361816406</ele>
        <time>2010-08-04T14:56:59Z</time>
      </trkpt>
      <trkpt lat="45.38694" lon="6.19733">
        <ele>2147.2839355469</ele>
        <time>2010-08-04T14:57:08Z</time>
      </trkpt>
      <trkpt lat="45.38696" lon="6.19725">
        <ele>2147.6086425781</ele>
        <time>2010-08-04T14:57:16Z</time>
      </trkpt>
      <trkpt lat="45.38697" lon="6.19723">
        <ele>2147.8215332031</ele>
        <time>2010-08-04T14:57:23Z</time>
      </trkpt>
      <trkpt lat="45.38697" lon="6.1972">
        <ele>2147.5666503906</ele>
        <time>2010-08-04T14:57:27Z</time>
      </trkpt>
      <trkpt lat="45.38698" lon="6.19718">
        <ele>2147.9331054688</ele>
        <time>2010-08-04T14:57:33Z</time>
      </trkpt>
      <trkpt lat="45.38703" lon="6.19717">
        <ele>2151.5642089844</ele>
        <time>2010-08-04T14:57:40Z</time>
      </trkpt>
      <trkpt lat="45.3871" lon="6.19718">
        <ele>2157.5087890625</ele>
        <time>2010-08-04T14:57:50Z</time>
      </trkpt>
      <trkpt lat="45.38712" lon="6.19722">
        <ele>2159.5961914062</ele>
        <time>2010-08-04T14:57:55Z</time>
      </trkpt>
      <trkpt lat="45.38715" lon="6.19724">
        <ele>2162.66015625</ele>
        <time>2010-08-04T14:57:59Z</time>
      </trkpt>
      <trkpt lat="45.38718" lon="6.19725">
        <ele>2165.5612792969</ele>
        <time>2010-08-04T14:58:04Z</time>
      </trkpt>
      <trkpt lat="45.38722" lon="6.19726">
        <ele>2168.927734375</ele>
        <time>2010-08-04T14:58:10Z</time>
      </trkpt>
      <trkpt lat="45.38729" lon="6.19728">
        <ele>2171.6428222656</ele>
        <time>2010-08-04T14:58:19Z</time>
      </trkpt>
      <trkpt lat="45.38736" lon="6.19728">
        <ele>2174.3745117188</ele>
        <time>2010-08-04T14:58:28Z</time>
      </trkpt>
      <trkpt lat="45.38742" lon="6.19729">
        <ele>2177.0034179688</ele>
        <time>2010-08-04T14:58:35Z</time>
      </trkpt>
      <trkpt lat="45.38749" lon="6.19731">
        <ele>2179.8095703125</ele>
        <time>2010-08-04T14:58:45Z</time>
      </trkpt>
      <trkpt lat="45.38753" lon="6.19731">
        <ele>2181.4418945312</ele>
        <time>2010-08-04T14:58:52Z</time>
      </trkpt>
      <trkpt lat="45.38757" lon="6.19733">
        <ele>2183.8103027344</ele>
        <time>2010-08-04T14:59:00Z</time>
      </trkpt>
      <trkpt lat="45.38761" lon="6.19737">
        <ele>2187.4587402344</ele>
        <time>2010-08-04T14:59:08Z</time>
      </trkpt>
      <trkpt lat="45.38766" lon="6.19739">
        <ele>2190.2114257812</ele>
        <time>2010-08-04T14:59:16Z</time>
      </trkpt>
      <trkpt lat="45.38769" lon="6.19741">
        <ele>2192.583984375</ele>
        <time>2010-08-04T14:59:24Z</time>
      </trkpt>
      <trkpt lat="45.38774" lon="6.19742">
        <ele>2196.0444335938</ele>
        <time>2010-08-04T14:59:31Z</time>
      </trkpt>
      <trkpt lat="45.38779" lon="6.19745">
        <ele>2199.0859375</ele>
        <time>2010-08-04T14:59:39Z</time>
      </trkpt>
      <trkpt lat="45.3878" lon="6.19747">
        <ele>2200.65234375</ele>
        <time>2010-08-04T14:59:45Z</time>
      </trkpt>
      <trkpt lat="45.38784" lon="6.19749">
        <ele>2202.5637207031</ele>
        <time>2010-08-04T14:59:52Z</time>
      </trkpt>
      <trkpt lat="45.38789" lon="6.19752">
        <ele>2204.2290039062</ele>
        <time>2010-08-04T15:00:01Z</time>
      </trkpt>
      <trkpt lat="45.38793" lon="6.19753">
        <ele>2205.2470703125</ele>
        <time>2010-08-04T15:00:09Z</time>
      </trkpt>
      <trkpt lat="45.38799" lon="6.19755">
        <ele>2206.9946289062</ele>
        <time>2010-08-04T15:00:17Z</time>
      </trkpt>
      <trkpt lat="45.38803" lon="6.19756">
        <ele>2207.9387207031</ele>
        <time>2010-08-04T15:00:25Z</time>
      </trkpt>
      <trkpt lat="45.38811" lon="6.19756">
        <ele>2208.8803710938</ele>
        <time>2010-08-04T15:00:34Z</time>
      </trkpt>
      <trkpt lat="45.38818" lon="6.19757">
        <ele>2209.6508789062</ele>
        <time>2010-08-04T15:00:42Z</time>
      </trkpt>
      <trkpt lat="45.38829" lon="6.1976">
        <ele>2211.5217285156</ele>
        <time>2010-08-04T15:00:52Z</time>
      </trkpt>
      <trkpt lat="45.38834" lon="6.19769">
        <ele>2214.6105957031</ele>
        <time>2010-08-04T15:00:58Z</time>
      </trkpt>
      <trkpt lat="45.38836" lon="6.19772">
        <ele>2215.4248046875</ele>
        <time>2010-08-04T15:01:01Z</time>
      </trkpt>
      <trkpt lat="45.3884" lon="6.19787">
        <ele>2222.4230957031</ele>
        <time>2010-08-04T15:01:08Z</time>
      </trkpt>
      <trkpt lat="45.38843" lon="6.19791">
        <ele>2224.6145019531</ele>
        <time>2010-08-04T15:01:12Z</time>
      </trkpt>
      <trkpt lat="45.3885" lon="6.19796">
        <ele>2227.1608886719</ele>
        <time>2010-08-04T15:01:21Z</time>
      </trkpt>
      <trkpt lat="45.38855" lon="6.19801">
        <ele>2229.5068359375</ele>
        <time>2010-08-04T15:01:28Z</time>
      </trkpt>
      <trkpt lat="45.3886" lon="6.19805">
        <ele>2231.8239746094</ele>
        <time>2010-08-04T15:01:32Z</time>
      </trkpt>
      <trkpt lat="45.38865" lon="6.1981">
        <ele>2234.6701660156</ele>
        <time>2010-08-04T15:01:39Z</time>
      </trkpt>
      <trkpt lat="45.38869" lon="6.19812">
        <ele>2234.8193359375</ele>
        <time>2010-08-04T15:01:43Z</time>
      </trkpt>
      <trkpt lat="45.38874" lon="6.19813">
        <ele>2234.9794921875</ele>
        <time>2010-08-04T15:01:48Z</time>
      </trkpt>
      <trkpt lat="45.3888" lon="6.19818">
        <ele>2236.8618164062</ele>
        <time>2010-08-04T15:01:54Z</time>
      </trkpt>
      <trkpt lat="45.38885" lon="6.1982">
        <ele>2237.7026367188</ele>
        <time>2010-08-04T15:01:59Z</time>
      </trkpt>
      <trkpt lat="45.38886" lon="6.19822">
        <ele>2238.1025390625</ele>
        <time>2010-08-04T15:02:02Z</time>
      </trkpt>
      <trkpt lat="45.3889" lon="6.19819">
        <ele>2235.1804199219</ele>
        <time>2010-08-04T15:02:07Z</time>
      </trkpt>
      <trkpt lat="45.38894" lon="6.19816">
        <ele>2232.927734375</ele>
        <time>2010-08-04T15:02:11Z</time>
      </trkpt>
      <trkpt lat="45.38895" lon="6.19816">
        <ele>2232.4675292969</ele>
        <time>2010-08-04T15:02:12Z</time>
      </trkpt>
      <trkpt lat="45.389" lon="6.19815">
        <ele>2230.8986816406</ele>
        <time>2010-08-04T15:02:16Z</time>
      </trkpt>
      <trkpt lat="45.38903" lon="6.19815">
        <ele>2230.521484375</ele>
        <time>2010-08-04T15:02:22Z</time>
      </trkpt>
      <trkpt lat="45.38909" lon="6.1981">
        <ele>2227.2607421875</ele>
        <time>2010-08-04T15:02:30Z</time>
      </trkpt>
      <trkpt lat="45.38914" lon="6.19811">
        <ele>2227.0354003906</ele>
        <time>2010-08-04T15:02:36Z</time>
      </trkpt>
      <trkpt lat="45.38917" lon="6.19813">
        <ele>2227.6865234375</ele>
        <time>2010-08-04T15:02:39Z</time>
      </trkpt>
      <trkpt lat="45.3893" lon="6.19819">
        <ele>2230.5463867188</ele>
        <time>2010-08-04T15:02:48Z</time>
      </trkpt>
      <trkpt lat="45.38935" lon="6.19819">
        <ele>2230.8107910156</ele>
        <time>2010-08-04T15:02:56Z</time>
      </trkpt>
      <trkpt lat="45.38944" lon="6.19818">
        <ele>2230.1137695312</ele>
        <time>2010-08-04T15:03:05Z</time>
      </trkpt>
      <trkpt lat="45.38945" lon="6.19824">
        <ele>2232.9077148438</ele>
        <time>2010-08-04T15:03:11Z</time>
      </trkpt>
      <trkpt lat="45.3895" lon="6.19831">
        <ele>2236.216796875</ele>
        <time>2010-08-04T15:03:18Z</time>
      </trkpt>
      <trkpt lat="45.38951" lon="6.19834">
        <ele>2237.4353027344</ele>
        <time>2010-08-04T15:03:20Z</time>
      </trkpt>
      <trkpt lat="45.3896" lon="6.19843">
        <ele>2244.8842773438</ele>
        <time>2010-08-04T15:03:29Z</time>
      </trkpt>
      <trkpt lat="45.38962" lon="6.19847">
        <ele>2248.0671386719</ele>
        <time>2010-08-04T15:03:32Z</time>
      </trkpt>
      <trkpt lat="45.38969" lon="6.1985">
        <ele>2249.9899902344</ele>
        <time>2010-08-04T15:03:43Z</time>
      </trkpt>
      <trkpt lat="45.38975" lon="6.19853">
        <ele>2251.3315429688</ele>
        <time>2010-08-04T15:03:51Z</time>
      </trkpt>
      <trkpt lat="45.38982" lon="6.19854">
        <ele>2249.8718261719</ele>
        <time>2010-08-04T15:03:59Z</time>
      </trkpt>
      <trkpt lat="45.38987" lon="6.19858">
        <ele>2250.0952148438</ele>
        <time>2010-08-04T15:04:10Z</time>
      </trkpt>
      <trkpt lat="45.3899" lon="6.19863">
        <ele>2251.9194335938</ele>
        <time>2010-08-04T15:04:18Z</time>
      </trkpt>
      <trkpt lat="45.38995" lon="6.19867">
        <ele>2252.3303222656</ele>
        <time>2010-08-04T15:04:26Z</time>
      </trkpt>
      <trkpt lat="45.38999" lon="6.19871">
        <ele>2254.1179199219</ele>
        <time>2010-08-04T15:04:33Z</time>
      </trkpt>
      <trkpt lat="45.39002" lon="6.19877">
        <ele>2258.521484375</ele>
        <time>2010-08-04T15:04:40Z</time>
      </trkpt>
      <trkpt lat="45.39001" lon="6.19884">
        <ele>2263.8127441406</ele>
        <time>2010-08-04T15:04:46Z</time>
      </trkpt>
      <trkpt lat="45.39006" lon="6.19889">
        <ele>2266.0939941406</ele>
        <time>2010-08-04T15:04:51Z</time>
      </trkpt>
      <trkpt lat="45.39008" lon="6.19893">
        <ele>2264.0085449219</ele>
        <time>2010-08-04T15:04:56Z</time>
      </trkpt>
      <trkpt lat="45.39009" lon="6.19897">
        <ele>2262.01171875</ele>
        <time>2010-08-04T15:05:00Z</time>
      </trkpt>
      <trkpt lat="45.3901" lon="6.19904">
        <ele>2259.1372070312</ele>
        <time>2010-08-04T15:05:06Z</time>
      </trkpt>
      <trkpt lat="45.39016" lon="6.19908">
        <ele>2255.9165039062</ele>
        <time>2010-08-04T15:05:12Z</time>
      </trkpt>
      <trkpt lat="45.39023" lon="6.19916">
        <ele>2251.3720703125</ele>
        <time>2010-08-04T15:05:19Z</time>
      </trkpt>
      <trkpt lat="45.39025" lon="6.19914">
        <ele>2251.7919921875</ele>
        <time>2010-08-04T15:05:28Z</time>
      </trkpt>
      <trkpt lat="45.39024" lon="6.19912">
        <ele>2252.2880859375</ele>
        <time>2010-08-04T15:05:38Z</time>
      </trkpt>
      <trkpt lat="45.39027" lon="6.19914">
        <ele>2250.8188476562</ele>
        <time>2010-08-04T15:05:49Z</time>
      </trkpt>
      <trkpt lat="45.39032" lon="6.19915">
        <ele>2250.5695800781</ele>
        <time>2010-08-04T15:05:56Z</time>
      </trkpt>
      <trkpt lat="45.39038" lon="6.19915">
        <ele>2250.4631347656</ele>
        <time>2010-08-04T15:06:05Z</time>
      </trkpt>
      <trkpt lat="45.39042" lon="6.19914">
        <ele>2250.9736328125</ele>
        <time>2010-08-04T15:06:12Z</time>
      </trkpt>
      <trkpt lat="45.39045" lon="6.19914">
        <ele>2251.1030273438</ele>
        <time>2010-08-04T15:06:17Z</time>
      </trkpt>
      <trkpt lat="45.3905" lon="6.19914">
        <ele>2250.9934082031</ele>
        <time>2010-08-04T15:06:22Z</time>
      </trkpt>
      <trkpt lat="45.39052" lon="6.19913">
        <ele>2251.2331542969</ele>
        <time>2010-08-04T15:06:27Z</time>
      </trkpt>
      <trkpt lat="45.39055" lon="6.19914">
        <ele>2250.935546875</ele>
        <time>2010-08-04T15:06:32Z</time>
      </trkpt>
      <trkpt lat="45.39058" lon="6.19918">
        <ele>2249.6499023438</ele>
        <time>2010-08-04T15:06:39Z</time>
      </trkpt>
      <trkpt lat="45.39062" lon="6.19922">
        <ele>2247.7333984375</ele>
        <time>2010-08-04T15:06:46Z</time>
      </trkpt>
      <trkpt lat="45.39067" lon="6.19925">
        <ele>2246.4689941406</ele>
        <time>2010-08-04T15:06:51Z</time>
      </trkpt>
      <trkpt lat="45.3907" lon="6.1993">
        <ele>2244.40234375</ele>
        <time>2010-08-04T15:06:57Z</time>
      </trkpt>
      <trkpt lat="45.39072" lon="6.19932">
        <ele>2243.7097167969</ele>
        <time>2010-08-04T15:07:03Z</time>
      </trkpt>
      <trkpt lat="45.39076" lon="6.19936">
        <ele>2242.5383300781</ele>
        <time>2010-08-04T15:07:10Z</time>
      </trkpt>
      <trkpt lat="45.3908" lon="6.19934">
        <ele>2244.7939453125</ele>
        <time>2010-08-04T15:07:17Z</time>
      </trkpt>
      <trkpt lat="45.39084" lon="6.19932">
        <ele>2246.7395019531</ele>
        <time>2010-08-04T15:07:25Z</time>
      </trkpt>
      <trkpt lat="45.39087" lon="6.19929">
        <ele>2249.4140625</ele>
        <time>2010-08-04T15:07:33Z</time>
      </trkpt>
      <trkpt lat="45.39087" lon="6.19925">
        <ele>2251.4064941406</ele>
        <time>2010-08-04T15:07:40Z</time>
      </trkpt>
      <trkpt lat="45.39087" lon="6.19922">
        <ele>2253.0334472656</ele>
        <time>2010-08-04T15:07:47Z</time>
      </trkpt>
      <trkpt lat="45.39089" lon="6.19921">
        <ele>2254.2998046875</ele>
        <time>2010-08-04T15:07:52Z</time>
      </trkpt>
      <trkpt lat="45.39091" lon="6.19919">
        <ele>2255.6416015625</ele>
        <time>2010-08-04T15:07:59Z</time>
      </trkpt>
      <trkpt lat="45.39093" lon="6.19917">
        <ele>2257.21875</ele>
        <time>2010-08-04T15:08:05Z</time>
      </trkpt>
      <trkpt lat="45.39095" lon="6.19915">
        <ele>2258.1728515625</ele>
        <time>2010-08-04T15:08:11Z</time>
      </trkpt>
      <trkpt lat="45.39096" lon="6.19913">
        <ele>2259.2922363281</ele>
        <time>2010-08-04T15:08:17Z</time>
      </trkpt>
      <trkpt lat="45.39098" lon="6.1991">
        <ele>2260.4311523438</ele>
        <time>2010-08-04T15:08:23Z</time>
      </trkpt>
      <trkpt lat="45.391" lon="6.19908">
        <ele>2261.5319824219</ele>
        <time>2010-08-04T15:08:30Z</time>
      </trkpt>
      <trkpt lat="45.39103" lon="6.19906">
        <ele>2262.7868652344</ele>
        <time>2010-08-04T15:08:39Z</time>
      </trkpt>
      <trkpt lat="45.39105" lon="6.19904">
        <ele>2263.8125</ele>
        <time>2010-08-04T15:08:46Z</time>
      </trkpt>
      <trkpt lat="45.39108" lon="6.19903">
        <ele>2264.8642578125</ele>
        <time>2010-08-04T15:08:53Z</time>
      </trkpt>
      <trkpt lat="45.39111" lon="6.19898">
        <ele>2267.4130859375</ele>
        <time>2010-08-04T15:09:01Z</time>
      </trkpt>
      <trkpt lat="45.39117" lon="6.19892">
        <ele>2269.2897949219</ele>
        <time>2010-08-04T15:09:10Z</time>
      </trkpt>
      <trkpt lat="45.39123" lon="6.19886">
        <ele>2269.3146972656</ele>
        <time>2010-08-04T15:09:17Z</time>
      </trkpt>
      <trkpt lat="45.39126" lon="6.19887">
        <ele>2269.4836425781</ele>
        <time>2010-08-04T15:09:20Z</time>
      </trkpt>
      <trkpt lat="45.39131" lon="6.19884">
        <ele>2268.9992675781</ele>
        <time>2010-08-04T15:09:25Z</time>
      </trkpt>
      <trkpt lat="45.3914" lon="6.19881">
        <ele>2268.4736328125</ele>
        <time>2010-08-04T15:09:32Z</time>
      </trkpt>
      <trkpt lat="45.39146" lon="6.19881">
        <ele>2266.9233398438</ele>
        <time>2010-08-04T15:09:37Z</time>
      </trkpt>
      <trkpt lat="45.39153" lon="6.19889">
        <ele>2267.5947265625</ele>
        <time>2010-08-04T15:09:43Z</time>
      </trkpt>
      <trkpt lat="45.39157" lon="6.19895">
        <ele>2267.4772949219</ele>
        <time>2010-08-04T15:09:47Z</time>
      </trkpt>
      <trkpt lat="45.39158" lon="6.19897">
        <ele>2267.5852050781</ele>
        <time>2010-08-04T15:10:08Z</time>
      </trkpt>
      <trkpt lat="45.39159" lon="6.19899">
        <ele>2267.6323242188</ele>
        <time>2010-08-04T15:10:30Z</time>
      </trkpt>
      <trkpt lat="45.39166" lon="6.19903">
        <ele>2267.6169433594</ele>
        <time>2010-08-04T15:10:36Z</time>
      </trkpt>
      <trkpt lat="45.39177" lon="6.1991">
        <ele>2264.6342773438</ele>
        <time>2010-08-04T15:10:42Z</time>
      </trkpt>
      <trkpt lat="45.39187" lon="6.19918">
        <ele>2262.7016601562</ele>
        <time>2010-08-04T15:10:49Z</time>
      </trkpt>
      <trkpt lat="45.39196" lon="6.19915">
        <ele>2258.7954101562</ele>
        <time>2010-08-04T15:10:56Z</time>
      </trkpt>
      <trkpt lat="45.39199" lon="6.19911">
        <ele>2256.3413085938</ele>
        <time>2010-08-04T15:11:00Z</time>
      </trkpt>
      <trkpt lat="45.39204" lon="6.19907">
        <ele>2252.8583984375</ele>
        <time>2010-08-04T15:11:06Z</time>
      </trkpt>
      <trkpt lat="45.39207" lon="6.19906">
        <ele>2251.2055664062</ele>
        <time>2010-08-04T15:11:09Z</time>
      </trkpt>
      <trkpt lat="45.39215" lon="6.1991">
        <ele>2249.8625488281</ele>
        <time>2010-08-04T15:11:16Z</time>
      </trkpt>
      <trkpt lat="45.39215" lon="6.19911">
        <ele>2250.2526855469</ele>
        <time>2010-08-04T15:11:17Z</time>
      </trkpt>
      <trkpt lat="45.3922" lon="6.19917">
        <ele>2251.90234375</ele>
        <time>2010-08-04T15:11:23Z</time>
      </trkpt>
      <trkpt lat="45.39225" lon="6.19926">
        <ele>2254.4140625</ele>
        <time>2010-08-04T15:11:30Z</time>
      </trkpt>
      <trkpt lat="45.39226" lon="6.1993">
        <ele>2256.0539550781</ele>
        <time>2010-08-04T15:11:33Z</time>
      </trkpt>
      <trkpt lat="45.39229" lon="6.19938">
        <ele>2258.9001464844</ele>
        <time>2010-08-04T15:11:39Z</time>
      </trkpt>
      <trkpt lat="45.39228" lon="6.19946">
        <ele>2263.0031738281</ele>
        <time>2010-08-04T15:11:45Z</time>
      </trkpt>
      <trkpt lat="45.39228" lon="6.19948">
        <ele>2263.5971679688</ele>
        <time>2010-08-04T15:11:46Z</time>
      </trkpt>
      <trkpt lat="45.39231" lon="6.19963">
        <ele>2268.0681152344</ele>
        <time>2010-08-04T15:11:55Z</time>
      </trkpt>
      <trkpt lat="45.39234" lon="6.19974">
        <ele>2270.1811523438</ele>
        <time>2010-08-04T15:12:03Z</time>
      </trkpt>
      <trkpt lat="45.39238" lon="6.19988">
        <ele>2269.5192871094</ele>
        <time>2010-08-04T15:12:12Z</time>
      </trkpt>
      <trkpt lat="45.3924" lon="6.19998">
        <ele>2270.208984375</ele>
        <time>2010-08-04T15:12:17Z</time>
      </trkpt>
      <trkpt lat="45.39244" lon="6.20001">
        <ele>2271.2468261719</ele>
        <time>2010-08-04T15:12:21Z</time>
      </trkpt>
      <trkpt lat="45.39247" lon="6.20002">
        <ele>2271.8081054688</ele>
        <time>2010-08-04T15:12:23Z</time>
      </trkpt>
      <trkpt lat="45.39254" lon="6.2">
        <ele>2271.1455078125</ele>
        <time>2010-08-04T15:12:29Z</time>
      </trkpt>
      <trkpt lat="45.39256" lon="6.19999">
        <ele>2269.9262695312</ele>
        <time>2010-08-04T15:12:39Z</time>
      </trkpt>
      <trkpt lat="45.39258" lon="6.2">
        <ele>2269.5881347656</ele>
        <time>2010-08-04T15:12:55Z</time>
      </trkpt>
      <trkpt lat="45.39259" lon="6.20005">
        <ele>2268.61328125</ele>
        <time>2010-08-04T15:13:07Z</time>
      </trkpt>
      <trkpt lat="45.39263" lon="6.20008">
        <ele>2266.986328125</ele>
        <time>2010-08-04T15:13:14Z</time>
      </trkpt>
      <trkpt lat="45.39264" lon="6.20016">
        <ele>2266.4206542969</ele>
        <time>2010-08-04T15:13:20Z</time>
      </trkpt>
      <trkpt lat="45.39266" lon="6.20021">
        <ele>2265.7270507812</ele>
        <time>2010-08-04T15:13:25Z</time>
      </trkpt>
      <trkpt lat="45.3927" lon="6.20026">
        <ele>2264.7431640625</ele>
        <time>2010-08-04T15:13:32Z</time>
      </trkpt>
      <trkpt lat="45.39274" lon="6.20027">
        <ele>2263.806640625</ele>
        <time>2010-08-04T15:13:35Z</time>
      </trkpt>
      <trkpt lat="45.39281" lon="6.20032">
        <ele>2260.5798339844</ele>
        <time>2010-08-04T15:13:39Z</time>
      </trkpt>
      <trkpt lat="45.39288" lon="6.2004">
        <ele>2254.89453125</ele>
        <time>2010-08-04T15:13:45Z</time>
      </trkpt>
      <trkpt lat="45.39295" lon="6.20049">
        <ele>2248.5771484375</ele>
        <time>2010-08-04T15:13:50Z</time>
      </trkpt>
      <trkpt lat="45.39298" lon="6.20052">
        <ele>2246.3662109375</ele>
        <time>2010-08-04T15:13:55Z</time>
      </trkpt>
      <trkpt lat="45.39304" lon="6.20058">
        <ele>2241.3190917969</ele>
        <time>2010-08-04T15:14:00Z</time>
      </trkpt>
      <trkpt lat="45.3931" lon="6.20062">
        <ele>2238.3850097656</ele>
        <time>2010-08-04T15:14:05Z</time>
      </trkpt>
      <trkpt lat="45.39318" lon="6.20073">
        <ele>2234.6496582031</ele>
        <time>2010-08-04T15:14:12Z</time>
      </trkpt>
      <trkpt lat="45.39324" lon="6.20078">
        <ele>2231.8549804688</ele>
        <time>2010-08-04T15:14:18Z</time>
      </trkpt>
      <trkpt lat="45.39331" lon="6.20083">
        <ele>2228.0646972656</ele>
        <time>2010-08-04T15:14:23Z</time>
      </trkpt>
      <trkpt lat="45.39333" lon="6.20087">
        <ele>2227.6955566406</ele>
        <time>2010-08-04T15:14:27Z</time>
      </trkpt>
      <trkpt lat="45.39339" lon="6.2009">
        <ele>2223.7106933594</ele>
        <time>2010-08-04T15:14:33Z</time>
      </trkpt>
      <trkpt lat="45.39342" lon="6.20088">
        <ele>2221.4653320312</ele>
        <time>2010-08-04T15:14:37Z</time>
      </trkpt>
      <trkpt lat="45.39351" lon="6.20092">
        <ele>2216.0202636719</ele>
        <time>2010-08-04T15:14:42Z</time>
      </trkpt>
      <trkpt lat="45.39359" lon="6.20101">
        <ele>2211.8386230469</ele>
        <time>2010-08-04T15:14:47Z</time>
      </trkpt>
      <trkpt lat="45.39361" lon="6.20109">
        <ele>2211.88671875</ele>
        <time>2010-08-04T15:14:51Z</time>
      </trkpt>
      <trkpt lat="45.3937" lon="6.20112">
        <ele>2207.9458007812</ele>
        <time>2010-08-04T15:14:58Z</time>
      </trkpt>
      <trkpt lat="45.3938" lon="6.20108">
        <ele>2202.3461914062</ele>
        <time>2010-08-04T15:15:05Z</time>
      </trkpt>
      <trkpt lat="45.39382" lon="6.20111">
        <ele>2202.2084960938</ele>
        <time>2010-08-04T15:15:11Z</time>
      </trkpt>
      <trkpt lat="45.39396" lon="6.2011">
        <ele>2196.7458496094</ele>
        <time>2010-08-04T15:15:17Z</time>
      </trkpt>
      <trkpt lat="45.394" lon="6.20111">
        <ele>2196.2385253906</ele>
        <time>2010-08-04T15:15:21Z</time>
      </trkpt>
      <trkpt lat="45.39407" lon="6.20114">
        <ele>2196.1818847656</ele>
        <time>2010-08-04T15:15:26Z</time>
      </trkpt>
      <trkpt lat="45.39412" lon="6.20116">
        <ele>2196.1743164062</ele>
        <time>2010-08-04T15:15:33Z</time>
      </trkpt>
      <trkpt lat="45.39421" lon="6.20115">
        <ele>2194.5698242188</ele>
        <time>2010-08-04T15:15:38Z</time>
      </trkpt>
      <trkpt lat="45.39422" lon="6.20115">
        <ele>2194.3581542969</ele>
        <time>2010-08-04T15:15:39Z</time>
      </trkpt>
      <trkpt lat="45.39436" lon="6.20108">
        <ele>2190.7446289062</ele>
        <time>2010-08-04T15:15:44Z</time>
      </trkpt>
      <trkpt lat="45.39441" lon="6.20106">
        <ele>2189.5407714844</ele>
        <time>2010-08-04T15:15:47Z</time>
      </trkpt>
      <trkpt lat="45.39447" lon="6.20103">
        <ele>2187.787109375</ele>
        <time>2010-08-04T15:15:51Z</time>
      </trkpt>
      <trkpt lat="45.39455" lon="6.20099">
        <ele>2186.7229003906</ele>
        <time>2010-08-04T15:15:57Z</time>
      </trkpt>
      <trkpt lat="45.39462" lon="6.20095">
        <ele>2185.2397460938</ele>
        <time>2010-08-04T15:16:02Z</time>
      </trkpt>
      <trkpt lat="45.39464" lon="6.20095">
        <ele>2185.3542480469</ele>
        <time>2010-08-04T15:16:04Z</time>
      </trkpt>
      <trkpt lat="45.39467" lon="6.20095">
        <ele>2185.8701171875</ele>
        <time>2010-08-04T15:16:07Z</time>
      </trkpt>
      <trkpt lat="45.39477" lon="6.20088">
        <ele>2183.4135742188</ele>
        <time>2010-08-04T15:16:15Z</time>
      </trkpt>
      <trkpt lat="45.39483" lon="6.20086">
        <ele>2183.7863769531</ele>
        <time>2010-08-04T15:16:21Z</time>
      </trkpt>
      <trkpt lat="45.39484" lon="6.20086">
        <ele>2183.5893554688</ele>
        <time>2010-08-04T15:16:22Z</time>
      </trkpt>
      <trkpt lat="45.39491" lon="6.20085">
        <ele>2184.4016113281</ele>
        <time>2010-08-04T15:16:28Z</time>
      </trkpt>
      <trkpt lat="45.39494" lon="6.20082">
        <ele>2183.3696289062</ele>
        <time>2010-08-04T15:16:37Z</time>
      </trkpt>
      <trkpt lat="45.39499" lon="6.20079">
        <ele>2182.50390625</ele>
        <time>2010-08-04T15:16:44Z</time>
      </trkpt>
      <trkpt lat="45.39504" lon="6.20079">
        <ele>2184.6760253906</ele>
        <time>2010-08-04T15:16:49Z</time>
      </trkpt>
      <trkpt lat="45.39508" lon="6.20077">
        <ele>2185.9323730469</ele>
        <time>2010-08-04T15:16:57Z</time>
      </trkpt>
      <trkpt lat="45.3951" lon="6.20076">
        <ele>2186.8100585938</ele>
        <time>2010-08-04T15:17:06Z</time>
      </trkpt>
      <trkpt lat="45.39516" lon="6.20076">
        <ele>2190.458984375</ele>
        <time>2010-08-04T15:17:14Z</time>
      </trkpt>
      <trkpt lat="45.39521" lon="6.20075">
        <ele>2192.431640625</ele>
        <time>2010-08-04T15:17:20Z</time>
      </trkpt>
      <trkpt lat="45.39523" lon="6.20076">
        <ele>2194.2687988281</ele>
        <time>2010-08-04T15:17:29Z</time>
      </trkpt>
      <trkpt lat="45.39525" lon="6.20075">
        <ele>2194.4755859375</ele>
        <time>2010-08-04T15:17:35Z</time>
      </trkpt>
      <trkpt lat="45.39529" lon="6.20073">
        <ele>2196.1027832031</ele>
        <time>2010-08-04T15:17:42Z</time>
      </trkpt>
      <trkpt lat="45.39533" lon="6.20074">
        <ele>2198.5141601562</ele>
        <time>2010-08-04T15:17:50Z</time>
      </trkpt>
      <trkpt lat="45.39534" lon="6.20073">
        <ele>2198.2038574219</ele>
        <time>2010-08-04T15:17:55Z</time>
      </trkpt>
      <trkpt lat="45.39537" lon="6.20072">
        <ele>2198.9382324219</ele>
        <time>2010-08-04T15:18:03Z</time>
      </trkpt>
      <trkpt lat="45.3954" lon="6.20069">
        <ele>2199.1596679688</ele>
        <time>2010-08-04T15:18:08Z</time>
      </trkpt>
      <trkpt lat="45.39545" lon="6.20069">
        <ele>2201.3913574219</ele>
        <time>2010-08-04T15:18:17Z</time>
      </trkpt>
      <trkpt lat="45.39547" lon="6.2007">
        <ele>2202.6052246094</ele>
        <time>2010-08-04T15:18:23Z</time>
      </trkpt>
      <trkpt lat="45.39548" lon="6.20072">
        <ele>2204.6943359375</ele>
        <time>2010-08-04T15:18:29Z</time>
      </trkpt>
      <trkpt lat="45.39553" lon="6.20072">
        <ele>2207.4868164062</ele>
        <time>2010-08-04T15:18:35Z</time>
      </trkpt>
      <trkpt lat="45.39554" lon="6.20073">
        <ele>2208.4521484375</ele>
        <time>2010-08-04T15:18:41Z</time>
      </trkpt>
      <trkpt lat="45.39558" lon="6.20071">
        <ele>2210.2331542969</ele>
        <time>2010-08-04T15:18:49Z</time>
      </trkpt>
      <trkpt lat="45.39561" lon="6.2007">
        <ele>2212.1103515625</ele>
        <time>2010-08-04T15:18:55Z</time>
      </trkpt>
      <trkpt lat="45.39562" lon="6.20072">
        <ele>2214.4328613281</ele>
        <time>2010-08-04T15:19:04Z</time>
      </trkpt>
      <trkpt lat="45.39564" lon="6.20067">
        <ele>2211.9616699219</ele>
        <time>2010-08-04T15:19:13Z</time>
      </trkpt>
      <trkpt lat="45.39567" lon="6.20065">
        <ele>2213.3627929688</ele>
        <time>2010-08-04T15:19:21Z</time>
      </trkpt>
      <trkpt lat="45.39571" lon="6.20066">
        <ele>2217.1340332031</ele>
        <time>2010-08-04T15:19:28Z</time>
      </trkpt>
      <trkpt lat="45.39579" lon="6.20067">
        <ele>2224.5603027344</ele>
        <time>2010-08-04T15:19:37Z</time>
      </trkpt>
      <trkpt lat="45.39585" lon="6.20059">
        <ele>2222.5375976562</ele>
        <time>2010-08-04T15:19:43Z</time>
      </trkpt>
      <trkpt lat="45.39593" lon="6.20048">
        <ele>2220.6608886719</ele>
        <time>2010-08-04T15:19:50Z</time>
      </trkpt>
      <trkpt lat="45.39599" lon="6.20041">
        <ele>2221.4020996094</ele>
        <time>2010-08-04T15:19:55Z</time>
      </trkpt>
      <trkpt lat="45.39598" lon="6.20033">
        <ele>2217.1630859375</ele>
        <time>2010-08-04T15:20:01Z</time>
      </trkpt>
      <trkpt lat="45.39599" lon="6.20027">
        <ele>2214.7321777344</ele>
        <time>2010-08-04T15:20:06Z</time>
      </trkpt>
      <trkpt lat="45.39602" lon="6.20019">
        <ele>2212.5881347656</ele>
        <time>2010-08-04T15:20:12Z</time>
      </trkpt>
      <trkpt lat="45.39602" lon="6.20011">
        <ele>2208.9211425781</ele>
        <time>2010-08-04T15:20:18Z</time>
      </trkpt>
      <trkpt lat="45.39602" lon="6.20009">
        <ele>2208.2192382812</ele>
        <time>2010-08-04T15:20:19Z</time>
      </trkpt>
      <trkpt lat="45.39603" lon="6.20002">
        <ele>2205.4057617188</ele>
        <time>2010-08-04T15:20:25Z</time>
      </trkpt>
      <trkpt lat="45.39602" lon="6.19995">
        <ele>2201.33203125</ele>
        <time>2010-08-04T15:20:31Z</time>
      </trkpt>
      <trkpt lat="45.39601" lon="6.19989">
        <ele>2198.021484375</ele>
        <time>2010-08-04T15:20:36Z</time>
      </trkpt>
      <trkpt lat="45.39602" lon="6.19978">
        <ele>2193.91015625</ele>
        <time>2010-08-04T15:20:43Z</time>
      </trkpt>
      <trkpt lat="45.39602" lon="6.19966">
        <ele>2189.6240234375</ele>
        <time>2010-08-04T15:20:49Z</time>
      </trkpt>
      <trkpt lat="45.39603" lon="6.19959">
        <ele>2187.9523925781</ele>
        <time>2010-08-04T15:20:52Z</time>
      </trkpt>
      <trkpt lat="45.39606" lon="6.19949">
        <ele>2188.8166503906</ele>
        <time>2010-08-04T15:20:59Z</time>
      </trkpt>
      <trkpt lat="45.39608" lon="6.19947">
        <ele>2190.0832519531</ele>
        <time>2010-08-04T15:21:02Z</time>
      </trkpt>
      <trkpt lat="45.39616" lon="6.19944">
        <ele>2195.9526367188</ele>
        <time>2010-08-04T15:21:07Z</time>
      </trkpt>
      <trkpt lat="45.39621" lon="6.19941">
        <ele>2199.8918457031</ele>
        <time>2010-08-04T15:21:13Z</time>
      </trkpt>
      <trkpt lat="45.39621" lon="6.19938">
        <ele>2199.8688964844</ele>
        <time>2010-08-04T15:21:18Z</time>
      </trkpt>
      <trkpt lat="45.39621" lon="6.19933">
        <ele>2198.3447265625</ele>
        <time>2010-08-04T15:21:24Z</time>
      </trkpt>
      <trkpt lat="45.39624" lon="6.1993">
        <ele>2201.0004882812</ele>
        <time>2010-08-04T15:21:31Z</time>
      </trkpt>
      <trkpt lat="45.3963" lon="6.19922">
        <ele>2204.6672363281</ele>
        <time>2010-08-04T15:21:41Z</time>
      </trkpt>
      <trkpt lat="45.39633" lon="6.19916">
        <ele>2207.0764160156</ele>
        <time>2010-08-04T15:21:48Z</time>
      </trkpt>
      <trkpt lat="45.39634" lon="6.19909">
        <ele>2206.9812011719</ele>
        <time>2010-08-04T15:21:56Z</time>
      </trkpt>
      <trkpt lat="45.39637" lon="6.19906">
        <ele>2208.7526855469</ele>
        <time>2010-08-04T15:22:02Z</time>
      </trkpt>
      <trkpt lat="45.3964" lon="6.19908">
        <ele>2211.939453125</ele>
        <time>2010-08-04T15:22:09Z</time>
      </trkpt>
      <trkpt lat="45.39645" lon="6.19904">
        <ele>2213.9338378906</ele>
        <time>2010-08-04T15:22:16Z</time>
      </trkpt>
      <trkpt lat="45.39647" lon="6.19898">
        <ele>2213.9851074219</ele>
        <time>2010-08-04T15:22:23Z</time>
      </trkpt>
      <trkpt lat="45.39648" lon="6.19888">
        <ele>2213.060546875</ele>
        <time>2010-08-04T15:22:32Z</time>
      </trkpt>
      <trkpt lat="45.39653" lon="6.19879">
        <ele>2214.6208496094</ele>
        <time>2010-08-04T15:22:40Z</time>
      </trkpt>
      <trkpt lat="45.39655" lon="6.19873">
        <ele>2214.92578125</ele>
        <time>2010-08-04T15:22:46Z</time>
      </trkpt>
      <trkpt lat="45.3966" lon="6.19871">
        <ele>2217.5</ele>
        <time>2010-08-04T15:22:51Z</time>
      </trkpt>
      <trkpt lat="45.39671" lon="6.19869">
        <ele>2220.8466796875</ele>
        <time>2010-08-04T15:22:58Z</time>
      </trkpt>
      <trkpt lat="45.39673" lon="6.19868">
        <ele>2220.814453125</ele>
        <time>2010-08-04T15:23:00Z</time>
      </trkpt>
      <trkpt lat="45.39684" lon="6.19865">
        <ele>2219.94140625</ele>
        <time>2010-08-04T15:23:08Z</time>
      </trkpt>
      <trkpt lat="45.39686" lon="6.19865">
        <ele>2219.8095703125</ele>
        <time>2010-08-04T15:23:09Z</time>
      </trkpt>
      <trkpt lat="45.39687" lon="6.19863">
        <ele>2219.1704101562</ele>
        <time>2010-08-04T15:23:12Z</time>
      </trkpt>
      <trkpt lat="45.3969" lon="6.19861">
        <ele>2218.1845703125</ele>
        <time>2010-08-04T15:23:18Z</time>
      </trkpt>
      <trkpt lat="45.39692" lon="6.19869">
        <ele>2221.1008300781</ele>
        <time>2010-08-04T15:23:24Z</time>
      </trkpt>
      <trkpt lat="45.39693" lon="6.19872">
        <ele>2222.2521972656</ele>
        <time>2010-08-04T15:23:26Z</time>
      </trkpt>
      <trkpt lat="45.39697" lon="6.19877">
        <ele>2223.6979980469</ele>
        <time>2010-08-04T15:23:31Z</time>
      </trkpt>
      <trkpt lat="45.39699" lon="6.19885">
        <ele>2226.1843261719</ele>
        <time>2010-08-04T15:23:37Z</time>
      </trkpt>
      <trkpt lat="45.39701" lon="6.19894">
        <ele>2228.0803222656</ele>
        <time>2010-08-04T15:23:43Z</time>
      </trkpt>
      <trkpt lat="45.39706" lon="6.19902">
        <ele>2228.2106933594</ele>
        <time>2010-08-04T15:23:49Z</time>
      </trkpt>
      <trkpt lat="45.39711" lon="6.19909">
        <ele>2227.7219238281</ele>
        <time>2010-08-04T15:23:55Z</time>
      </trkpt>
      <trkpt lat="45.39715" lon="6.19914">
        <ele>2227.1630859375</ele>
        <time>2010-08-04T15:24:00Z</time>
      </trkpt>
      <trkpt lat="45.39719" lon="6.19919">
        <ele>2226.5134277344</ele>
        <time>2010-08-04T15:24:04Z</time>
      </trkpt>
      <trkpt lat="45.39725" lon="6.19927">
        <ele>2224.5187988281</ele>
        <time>2010-08-04T15:24:10Z</time>
      </trkpt>
      <trkpt lat="45.39729" lon="6.19937">
        <ele>2222.7390136719</ele>
        <time>2010-08-04T15:24:17Z</time>
      </trkpt>
      <trkpt lat="45.39731" lon="6.19938">
        <ele>2221.6420898438</ele>
        <time>2010-08-04T15:24:22Z</time>
      </trkpt>
      <trkpt lat="45.39732" lon="6.19937">
        <ele>2221.0161132812</ele>
        <time>2010-08-04T15:24:28Z</time>
      </trkpt>
      <trkpt lat="45.39734" lon="6.19938">
        <ele>2219.9562988281</ele>
        <time>2010-08-04T15:24:30Z</time>
      </trkpt>
      <trkpt lat="45.39742" lon="6.19946">
        <ele>2216.1101074219</ele>
        <time>2010-08-04T15:24:37Z</time>
      </trkpt>
      <trkpt lat="45.39748" lon="6.19949">
        <ele>2213.3159179688</ele>
        <time>2010-08-04T15:24:40Z</time>
      </trkpt>
      <trkpt lat="45.39758" lon="6.19956">
        <ele>2206.8500976562</ele>
        <time>2010-08-04T15:24:47Z</time>
      </trkpt>
      <trkpt lat="45.39763" lon="6.19957">
        <ele>2203.6433105469</ele>
        <time>2010-08-04T15:24:52Z</time>
      </trkpt>
      <trkpt lat="45.39767" lon="6.19954">
        <ele>2200.3479003906</ele>
        <time>2010-08-04T15:24:56Z</time>
      </trkpt>
      <trkpt lat="45.39766" lon="6.19953">
        <ele>2200.44921875</ele>
        <time>2010-08-04T15:24:57Z</time>
      </trkpt>
      <trkpt lat="45.39766" lon="6.19953">
        <ele>2200.2958984375</ele>
        <time>2010-08-04T15:25:01Z</time>
      </trkpt>
      <trkpt lat="45.39769" lon="6.19955">
        <ele>2199.095703125</ele>
        <time>2010-08-04T15:25:08Z</time>
      </trkpt>
      <trkpt lat="45.39781" lon="6.19962">
        <ele>2191.1850585938</ele>
        <time>2010-08-04T15:25:14Z</time>
      </trkpt>
      <trkpt lat="45.39792" lon="6.19969">
        <ele>2182.9108886719</ele>
        <time>2010-08-04T15:25:20Z</time>
      </trkpt>
      <trkpt lat="45.39797" lon="6.19971">
        <ele>2179.2250976562</ele>
        <time>2010-08-04T15:25:25Z</time>
      </trkpt>
      <trkpt lat="45.39792" lon="6.19971">
        <ele>2183.2546386719</ele>
        <time>2010-08-04T15:25:30Z</time>
      </trkpt>
      <trkpt lat="45.39792" lon="6.19969">
        <ele>2182.5895996094</ele>
        <time>2010-08-04T15:25:35Z</time>
      </trkpt>
      <trkpt lat="45.39797" lon="6.19968">
        <ele>2178.453125</ele>
        <time>2010-08-04T15:25:40Z</time>
      </trkpt>
      <trkpt lat="45.39796" lon="6.19964">
        <ele>2178.3154296875</ele>
        <time>2010-08-04T15:25:45Z</time>
      </trkpt>
      <trkpt lat="45.39799" lon="6.19965">
        <ele>2175.2866210938</ele>
        <time>2010-08-04T15:25:51Z</time>
      </trkpt>
      <trkpt lat="45.39804" lon="6.19966">
        <ele>2171.7185058594</ele>
        <time>2010-08-04T15:25:56Z</time>
      </trkpt>
      <trkpt lat="45.39809" lon="6.19964">
        <ele>2167.2177734375</ele>
        <time>2010-08-04T15:26:00Z</time>
      </trkpt>
      <trkpt lat="45.39816" lon="6.19963">
        <ele>2162.4250488281</ele>
        <time>2010-08-04T15:26:05Z</time>
      </trkpt>
      <trkpt lat="45.3982" lon="6.19963">
        <ele>2159.1977539062</ele>
        <time>2010-08-04T15:26:08Z</time>
      </trkpt>
      <trkpt lat="45.3983" lon="6.19962">
        <ele>2152.04296875</ele>
        <time>2010-08-04T15:26:14Z</time>
      </trkpt>
      <trkpt lat="45.39832" lon="6.19962">
        <ele>2150.8757324219</ele>
        <time>2010-08-04T15:26:15Z</time>
      </trkpt>
      <trkpt lat="45.39844" lon="6.19959">
        <ele>2143.4819335938</ele>
        <time>2010-08-04T15:26:21Z</time>
      </trkpt>
      <trkpt lat="45.39855" lon="6.19956">
        <ele>2136.0029296875</ele>
        <time>2010-08-04T15:26:27Z</time>
      </trkpt>
      <trkpt lat="45.39868" lon="6.19952">
        <ele>2128.9792480469</ele>
        <time>2010-08-04T15:26:33Z</time>
      </trkpt>
      <trkpt lat="45.39876" lon="6.19949">
        <ele>2125.9775390625</ele>
        <time>2010-08-04T15:26:38Z</time>
      </trkpt>
      <trkpt lat="45.39886" lon="6.19943">
        <ele>2119.5078125</ele>
        <time>2010-08-04T15:26:44Z</time>
      </trkpt>
      <trkpt lat="45.39894" lon="6.19935">
        <ele>2113.4963378906</ele>
        <time>2010-08-04T15:26:50Z</time>
      </trkpt>
      <trkpt lat="45.39896" lon="6.19933">
        <ele>2112.4182128906</ele>
        <time>2010-08-04T15:26:52Z</time>
      </trkpt>
      <trkpt lat="45.39898" lon="6.19932">
        <ele>2111.5454101562</ele>
        <time>2010-08-04T15:26:54Z</time>
      </trkpt>
      <trkpt lat="45.39906" lon="6.1992">
        <ele>2103.8779296875</ele>
        <time>2010-08-04T15:27:01Z</time>
      </trkpt>
      <trkpt lat="45.39909" lon="6.19915">
        <ele>2101.2319335938</ele>
        <time>2010-08-04T15:27:04Z</time>
      </trkpt>
      <trkpt lat="45.39919" lon="6.19903">
        <ele>2095.5700683594</ele>
        <time>2010-08-04T15:27:11Z</time>
      </trkpt>
      <trkpt lat="45.39925" lon="6.19896">
        <ele>2093.9128417969</ele>
        <time>2010-08-04T15:27:18Z</time>
      </trkpt>
      <trkpt lat="45.39927" lon="6.19894">
        <ele>2093.0881347656</ele>
        <time>2010-08-04T15:27:21Z</time>
      </trkpt>
      <trkpt lat="45.39928" lon="6.19887">
        <ele>2089.1411132812</ele>
        <time>2010-08-04T15:27:26Z</time>
      </trkpt>
      <trkpt lat="45.39937" lon="6.1988">
        <ele>2089.6604003906</ele>
        <time>2010-08-04T15:27:31Z</time>
      </trkpt>
      <trkpt lat="45.39946" lon="6.19871">
        <ele>2089.8125</ele>
        <time>2010-08-04T15:27:36Z</time>
      </trkpt>
      <trkpt lat="45.39949" lon="6.19864">
        <ele>2088.1022949219</ele>
        <time>2010-08-04T15:27:41Z</time>
      </trkpt>
      <trkpt lat="45.39953" lon="6.19861">
        <ele>2088.0659179688</ele>
        <time>2010-08-04T15:27:44Z</time>
      </trkpt>
      <trkpt lat="45.39957" lon="6.19852">
        <ele>2086.4006347656</ele>
        <time>2010-08-04T15:27:49Z</time>
      </trkpt>
      <trkpt lat="45.3996" lon="6.19843">
        <ele>2084.2548828125</ele>
        <time>2010-08-04T15:27:55Z</time>
      </trkpt>
      <trkpt lat="45.39962" lon="6.19836">
        <ele>2082.50390625</ele>
        <time>2010-08-04T15:28:00Z</time>
      </trkpt>
      <trkpt lat="45.39968" lon="6.19831">
        <ele>2082.0490722656</ele>
        <time>2010-08-04T15:28:04Z</time>
      </trkpt>
      <trkpt lat="45.39977" lon="6.19818">
        <ele>2078.2885742188</ele>
        <time>2010-08-04T15:28:12Z</time>
      </trkpt>
      <trkpt lat="45.3998" lon="6.19809">
        <ele>2074.0888671875</ele>
        <time>2010-08-04T15:28:18Z</time>
      </trkpt>
      <trkpt lat="45.39979" lon="6.19799">
        <ele>2069.4348144531</ele>
        <time>2010-08-04T15:28:23Z</time>
      </trkpt>
      <trkpt lat="45.3998" lon="6.19795">
        <ele>2067.9018554688</ele>
        <time>2010-08-04T15:28:25Z</time>
      </trkpt>
      <trkpt lat="45.39981" lon="6.19783">
        <ele>2062.8347167969</ele>
        <time>2010-08-04T15:28:31Z</time>
      </trkpt>
      <trkpt lat="45.39984" lon="6.19774">
        <ele>2060.7570800781</ele>
        <time>2010-08-04T15:28:37Z</time>
      </trkpt>
      <trkpt lat="45.39983" lon="6.19766">
        <ele>2058.244140625</ele>
        <time>2010-08-04T15:28:43Z</time>
      </trkpt>
      <trkpt lat="45.39983" lon="6.19758">
        <ele>2055.7602539062</ele>
        <time>2010-08-04T15:28:47Z</time>
      </trkpt>
      <trkpt lat="45.39982" lon="6.1975">
        <ele>2053.1545410156</ele>
        <time>2010-08-04T15:28:53Z</time>
      </trkpt>
      <trkpt lat="45.3998" lon="6.19745">
        <ele>2050.759765625</ele>
        <time>2010-08-04T15:28:58Z</time>
      </trkpt>
      <trkpt lat="45.39978" lon="6.19741">
        <ele>2048.599609375</ele>
        <time>2010-08-04T15:29:01Z</time>
      </trkpt>
      <trkpt lat="45.39974" lon="6.19735">
        <ele>2044.1937255859</ele>
        <time>2010-08-04T15:29:05Z</time>
      </trkpt>
      <trkpt lat="45.39973" lon="6.1973">
        <ele>2042.8527832031</ele>
        <time>2010-08-04T15:29:08Z</time>
      </trkpt>
      <trkpt lat="45.39973" lon="6.19727">
        <ele>2041.4799804688</ele>
        <time>2010-08-04T15:29:10Z</time>
      </trkpt>
      <trkpt lat="45.3997" lon="6.19723">
        <ele>2039.5959472656</ele>
        <time>2010-08-04T15:29:14Z</time>
      </trkpt>
      <trkpt lat="45.39961" lon="6.1971">
        <ele>2032.6667480469</ele>
        <time>2010-08-04T15:29:20Z</time>
      </trkpt>
      <trkpt lat="45.39962" lon="6.19706">
        <ele>2031.3536376953</ele>
        <time>2010-08-04T15:29:23Z</time>
      </trkpt>
      <trkpt lat="45.39959" lon="6.19701">
        <ele>2029.0953369141</ele>
        <time>2010-08-04T15:29:28Z</time>
      </trkpt>
      <trkpt lat="45.39959" lon="6.197">
        <ele>2028.7181396484</ele>
        <time>2010-08-04T15:29:29Z</time>
      </trkpt>
      <trkpt lat="45.39957" lon="6.19693">
        <ele>2026.1129150391</ele>
        <time>2010-08-04T15:29:33Z</time>
      </trkpt>
      <trkpt lat="45.39955" lon="6.19683">
        <ele>2022.7770996094</ele>
        <time>2010-08-04T15:29:38Z</time>
      </trkpt>
      <trkpt lat="45.39953" lon="6.1968">
        <ele>2021.6500244141</ele>
        <time>2010-08-04T15:29:40Z</time>
      </trkpt>
      <trkpt lat="45.39954" lon="6.19674">
        <ele>2019.8725585938</ele>
        <time>2010-08-04T15:29:43Z</time>
      </trkpt>
      <trkpt lat="45.39954" lon="6.19672">
        <ele>2019.0256347656</ele>
        <time>2010-08-04T15:29:45Z</time>
      </trkpt>
      <trkpt lat="45.39956" lon="6.19664">
        <ele>2016.6955566406</ele>
        <time>2010-08-04T15:29:51Z</time>
      </trkpt>
      <trkpt lat="45.39959" lon="6.19657">
        <ele>2014.2689208984</ele>
        <time>2010-08-04T15:29:57Z</time>
      </trkpt>
      <trkpt lat="45.39964" lon="6.19651">
        <ele>2012.0494384766</ele>
        <time>2010-08-04T15:30:02Z</time>
      </trkpt>
      <trkpt lat="45.39964" lon="6.19647">
        <ele>2010.626953125</ele>
        <time>2010-08-04T15:30:04Z</time>
      </trkpt>
      <trkpt lat="45.39972" lon="6.19635">
        <ele>2005.3688964844</ele>
        <time>2010-08-04T15:30:12Z</time>
      </trkpt>
      <trkpt lat="45.39978" lon="6.1963">
        <ele>2004.6203613281</ele>
        <time>2010-08-04T15:30:17Z</time>
      </trkpt>
      <trkpt lat="45.39982" lon="6.19626">
        <ele>2003.3731689453</ele>
        <time>2010-08-04T15:30:20Z</time>
      </trkpt>
      <trkpt lat="45.39991" lon="6.19613">
        <ele>1997.6148681641</ele>
        <time>2010-08-04T15:30:26Z</time>
      </trkpt>
      <trkpt lat="45.39992" lon="6.19602">
        <ele>1993.205078125</ele>
        <time>2010-08-04T15:30:32Z</time>
      </trkpt>
      <trkpt lat="45.39992" lon="6.19598">
        <ele>1992.1223144531</ele>
        <time>2010-08-04T15:30:34Z</time>
      </trkpt>
      <trkpt lat="45.39994" lon="6.19593">
        <ele>1990.6320800781</ele>
        <time>2010-08-04T15:30:37Z</time>
      </trkpt>
      <trkpt lat="45.40001" lon="6.19585">
        <ele>1990.2442626953</ele>
        <time>2010-08-04T15:30:42Z</time>
      </trkpt>
      <trkpt lat="45.40003" lon="6.19573">
        <ele>1987.3177490234</ele>
        <time>2010-08-04T15:30:48Z</time>
      </trkpt>
      <trkpt lat="45.4001" lon="6.19564">
        <ele>1988.66015625</ele>
        <time>2010-08-04T15:30:54Z</time>
      </trkpt>
      <trkpt lat="45.40011" lon="6.19559">
        <ele>1987.6767578125</ele>
        <time>2010-08-04T15:30:57Z</time>
      </trkpt>
      <trkpt lat="45.40011" lon="6.19558">
        <ele>1987.2390136719</ele>
        <time>2010-08-04T15:30:58Z</time>
      </trkpt>
      <trkpt lat="45.40011" lon="6.19545">
        <ele>1983.4865722656</ele>
        <time>2010-08-04T15:31:05Z</time>
      </trkpt>
      <trkpt lat="45.4001" lon="6.19543">
        <ele>1982.4636230469</ele>
        <time>2010-08-04T15:31:06Z</time>
      </trkpt>
      <trkpt lat="45.4001" lon="6.19529">
        <ele>1979.0151367188</ele>
        <time>2010-08-04T15:31:12Z</time>
      </trkpt>
      <trkpt lat="45.40012" lon="6.19527">
        <ele>1979.4337158203</ele>
        <time>2010-08-04T15:31:13Z</time>
      </trkpt>
      <trkpt lat="45.40016" lon="6.1951">
        <ele>1975.9538574219</ele>
        <time>2010-08-04T15:31:20Z</time>
      </trkpt>
      <trkpt lat="45.40024" lon="6.19493">
        <ele>1974.8861083984</ele>
        <time>2010-08-04T15:31:26Z</time>
      </trkpt>
      <trkpt lat="45.40026" lon="6.19481">
        <ele>1973.4029541016</ele>
        <time>2010-08-04T15:31:30Z</time>
      </trkpt>
      <trkpt lat="45.40026" lon="6.19473">
        <ele>1971.4975585938</ele>
        <time>2010-08-04T15:31:34Z</time>
      </trkpt>
      <trkpt lat="45.40025" lon="6.19459">
        <ele>1967.4627685547</ele>
        <time>2010-08-04T15:31:39Z</time>
      </trkpt>
      <trkpt lat="45.40031" lon="6.19446">
        <ele>1966.6195068359</ele>
        <time>2010-08-04T15:31:43Z</time>
      </trkpt>
      <trkpt lat="45.4004" lon="6.19427">
        <ele>1964.8880615234</ele>
        <time>2010-08-04T15:31:50Z</time>
      </trkpt>
      <trkpt lat="45.40041" lon="6.19425">
        <ele>1964.8742675781</ele>
        <time>2010-08-04T15:31:51Z</time>
      </trkpt>
      <trkpt lat="45.40049" lon="6.1942">
        <ele>1966.1514892578</ele>
        <time>2010-08-04T15:31:56Z</time>
      </trkpt>
      <trkpt lat="45.40051" lon="6.19416">
        <ele>1965.9592285156</ele>
        <time>2010-08-04T15:31:59Z</time>
      </trkpt>
      <trkpt lat="45.40056" lon="6.19409">
        <ele>1966.2598876953</ele>
        <time>2010-08-04T15:32:06Z</time>
      </trkpt>
      <trkpt lat="45.40059" lon="6.19406">
        <ele>1966.5877685547</ele>
        <time>2010-08-04T15:32:08Z</time>
      </trkpt>
      <trkpt lat="45.40061" lon="6.19396">
        <ele>1965.25390625</ele>
        <time>2010-08-04T15:32:13Z</time>
      </trkpt>
      <trkpt lat="45.40059" lon="6.19384">
        <ele>1961.6361083984</ele>
        <time>2010-08-04T15:32:19Z</time>
      </trkpt>
      <trkpt lat="45.4006" lon="6.19383">
        <ele>1961.4815673828</ele>
        <time>2010-08-04T15:32:20Z</time>
      </trkpt>
      <trkpt lat="45.40063" lon="6.19379">
        <ele>1961.8626708984</ele>
        <time>2010-08-04T15:32:23Z</time>
      </trkpt>
      <trkpt lat="45.40064" lon="6.19367">
        <ele>1959.9263916016</ele>
        <time>2010-08-04T15:32:29Z</time>
      </trkpt>
      <trkpt lat="45.40071" lon="6.19353">
        <ele>1959.8875732422</ele>
        <time>2010-08-04T15:32:35Z</time>
      </trkpt>
      <trkpt lat="45.40078" lon="6.19339">
        <ele>1960.01953125</ele>
        <time>2010-08-04T15:32:44Z</time>
      </trkpt>
      <trkpt lat="45.40078" lon="6.19333">
        <ele>1958.916015625</ele>
        <time>2010-08-04T15:32:49Z</time>
      </trkpt>
      <trkpt lat="45.40081" lon="6.19327">
        <ele>1958.9888916016</ele>
        <time>2010-08-04T15:32:54Z</time>
      </trkpt>
      <trkpt lat="45.40078" lon="6.19317">
        <ele>1956.291015625</ele>
        <time>2010-08-04T15:33:00Z</time>
      </trkpt>
      <trkpt lat="45.40084" lon="6.19307">
        <ele>1957.6364746094</ele>
        <time>2010-08-04T15:33:08Z</time>
      </trkpt>
      <trkpt lat="45.40087" lon="6.19304">
        <ele>1958.8327636719</ele>
        <time>2010-08-04T15:33:10Z</time>
      </trkpt>
      <trkpt lat="45.40089" lon="6.19295">
        <ele>1958.1942138672</ele>
        <time>2010-08-04T15:33:16Z</time>
      </trkpt>
      <trkpt lat="45.4009" lon="6.19292">
        <ele>1958.0225830078</ele>
        <time>2010-08-04T15:33:18Z</time>
      </trkpt>
      <trkpt lat="45.40095" lon="6.19284">
        <ele>1959.5709228516</ele>
        <time>2010-08-04T15:33:26Z</time>
      </trkpt>
      <trkpt lat="45.40099" lon="6.19278">
        <ele>1960.9235839844</ele>
        <time>2010-08-04T15:33:32Z</time>
      </trkpt>
      <trkpt lat="45.40102" lon="6.19275">
        <ele>1962.1500244141</ele>
        <time>2010-08-04T15:33:35Z</time>
      </trkpt>
      <trkpt lat="45.40109" lon="6.19263">
        <ele>1963.5473632812</ele>
        <time>2010-08-04T15:33:45Z</time>
      </trkpt>
      <trkpt lat="45.4011" lon="6.19262">
        <ele>1963.7243652344</ele>
        <time>2010-08-04T15:33:46Z</time>
      </trkpt>
      <trkpt lat="45.40114" lon="6.19257">
        <ele>1965.5362548828</ele>
        <time>2010-08-04T15:33:53Z</time>
      </trkpt>
      <trkpt lat="45.40118" lon="6.19254">
        <ele>1967.6373291016</ele>
        <time>2010-08-04T15:33:58Z</time>
      </trkpt>
      <trkpt lat="45.40123" lon="6.19248">
        <ele>1969.2996826172</ele>
        <time>2010-08-04T15:34:05Z</time>
      </trkpt>
      <trkpt lat="45.40128" lon="6.19245">
        <ele>1970.5970458984</ele>
        <time>2010-08-04T15:34:09Z</time>
      </trkpt>
      <trkpt lat="45.40133" lon="6.19241">
        <ele>1972.1667480469</ele>
        <time>2010-08-04T15:34:17Z</time>
      </trkpt>
      <trkpt lat="45.40135" lon="6.19235">
        <ele>1970.9753417969</ele>
        <time>2010-08-04T15:34:22Z</time>
      </trkpt>
      <trkpt lat="45.40137" lon="6.1923">
        <ele>1970.0424804688</ele>
        <time>2010-08-04T15:34:26Z</time>
      </trkpt>
      <trkpt lat="45.40143" lon="6.19227">
        <ele>1971.4763183594</ele>
        <time>2010-08-04T15:34:30Z</time>
      </trkpt>
      <trkpt lat="45.40151" lon="6.19226">
        <ele>1975.9516601562</ele>
        <time>2010-08-04T15:34:37Z</time>
      </trkpt>
      <trkpt lat="45.40157" lon="6.19224">
        <ele>1978.9647216797</ele>
        <time>2010-08-04T15:34:44Z</time>
      </trkpt>
      <trkpt lat="45.40164" lon="6.19222">
        <ele>1982.0563964844</ele>
        <time>2010-08-04T15:34:51Z</time>
      </trkpt>
      <trkpt lat="45.40165" lon="6.1922">
        <ele>1982.0612792969</ele>
        <time>2010-08-04T15:34:53Z</time>
      </trkpt>
      <trkpt lat="45.40168" lon="6.19214">
        <ele>1981.0992431641</ele>
        <time>2010-08-04T15:34:59Z</time>
      </trkpt>
      <trkpt lat="45.40169" lon="6.19211">
        <ele>1980.0202636719</ele>
        <time>2010-08-04T15:35:04Z</time>
      </trkpt>
      <trkpt lat="45.40174" lon="6.19209">
        <ele>1980.2923583984</ele>
        <time>2010-08-04T15:35:09Z</time>
      </trkpt>
      <trkpt lat="45.40177" lon="6.19207">
        <ele>1980.4066162109</ele>
        <time>2010-08-04T15:35:13Z</time>
      </trkpt>
      <trkpt lat="45.40181" lon="6.19201">
        <ele>1979.3131103516</ele>
        <time>2010-08-04T15:35:19Z</time>
      </trkpt>
      <trkpt lat="45.40183" lon="6.19196">
        <ele>1978.3841552734</ele>
        <time>2010-08-04T15:35:24Z</time>
      </trkpt>
      <trkpt lat="45.40185" lon="6.19194">
        <ele>1977.8840332031</ele>
        <time>2010-08-04T15:35:26Z</time>
      </trkpt>
      <trkpt lat="45.40186" lon="6.19189">
        <ele>1976.4729003906</ele>
        <time>2010-08-04T15:35:29Z</time>
      </trkpt>
      <trkpt lat="45.40185" lon="6.19186">
        <ele>1974.97265625</ele>
        <time>2010-08-04T15:35:33Z</time>
      </trkpt>
      <trkpt lat="45.40189" lon="6.19178">
        <ele>1972.8045654297</ele>
        <time>2010-08-04T15:35:38Z</time>
      </trkpt>
      <trkpt lat="45.40194" lon="6.19163">
        <ele>1968.177734375</ele>
        <time>2010-08-04T15:35:46Z</time>
      </trkpt>
      <trkpt lat="45.40195" lon="6.1916">
        <ele>1966.6700439453</ele>
        <time>2010-08-04T15:35:48Z</time>
      </trkpt>
      <trkpt lat="45.40199" lon="6.19149">
        <ele>1960.6865234375</ele>
        <time>2010-08-04T15:35:54Z</time>
      </trkpt>
      <trkpt lat="45.40201" lon="6.19146">
        <ele>1959.4322509766</ele>
        <time>2010-08-04T15:35:56Z</time>
      </trkpt>
      <trkpt lat="45.40208" lon="6.1914">
        <ele>1956.1076660156</ele>
        <time>2010-08-04T15:36:02Z</time>
      </trkpt>
      <trkpt lat="45.4021" lon="6.19138">
        <ele>1955.1512451172</ele>
        <time>2010-08-04T15:36:04Z</time>
      </trkpt>
      <trkpt lat="45.40211" lon="6.19131">
        <ele>1951.1618652344</ele>
        <time>2010-08-04T15:36:08Z</time>
      </trkpt>
      <trkpt lat="45.40211" lon="6.19128">
        <ele>1949.4622802734</ele>
        <time>2010-08-04T15:36:10Z</time>
      </trkpt>
      <trkpt lat="45.40221" lon="6.19119">
        <ele>1945.4428710938</ele>
        <time>2010-08-04T15:36:17Z</time>
      </trkpt>
      <trkpt lat="45.40221" lon="6.19117">
        <ele>1944.7982177734</ele>
        <time>2010-08-04T15:36:18Z</time>
      </trkpt>
      <trkpt lat="45.40225" lon="6.1911">
        <ele>1942.2390136719</ele>
        <time>2010-08-04T15:36:24Z</time>
      </trkpt>
      <trkpt lat="45.40228" lon="6.19106">
        <ele>1941.3996582031</ele>
        <time>2010-08-04T15:36:29Z</time>
      </trkpt>
      <trkpt lat="45.40229" lon="6.19106">
        <ele>1941.5266113281</ele>
        <time>2010-08-04T15:36:30Z</time>
      </trkpt>
      <trkpt lat="45.40233" lon="6.191">
        <ele>1939.9937744141</ele>
        <time>2010-08-04T15:36:36Z</time>
      </trkpt>
      <trkpt lat="45.40232" lon="6.19099">
        <ele>1938.8830566406</ele>
        <time>2010-08-04T15:36:37Z</time>
      </trkpt>
      <trkpt lat="45.40237" lon="6.19087">
        <ele>1935.0190429688</ele>
        <time>2010-08-04T15:36:42Z</time>
      </trkpt>
      <trkpt lat="45.40245" lon="6.19077">
        <ele>1932.3251953125</ele>
        <time>2010-08-04T15:36:47Z</time>
      </trkpt>
      <trkpt lat="45.40246" lon="6.19075">
        <ele>1931.6577148438</ele>
        <time>2010-08-04T15:36:48Z</time>
      </trkpt>
      <trkpt lat="45.40248" lon="6.1907">
        <ele>1929.6193847656</ele>
        <time>2010-08-04T15:36:51Z</time>
      </trkpt>
      <trkpt lat="45.40259" lon="6.19056">
        <ele>1925.9783935547</ele>
        <time>2010-08-04T15:36:58Z</time>
      </trkpt>
      <trkpt lat="45.4027" lon="6.19047">
        <ele>1924.1348876953</ele>
        <time>2010-08-04T15:37:04Z</time>
      </trkpt>
      <trkpt lat="45.40279" lon="6.19037">
        <ele>1921.3879394531</ele>
        <time>2010-08-04T15:37:09Z</time>
      </trkpt>
      <trkpt lat="45.40291" lon="6.19028">
        <ele>1920.5227050781</ele>
        <time>2010-08-04T15:37:15Z</time>
      </trkpt>
      <trkpt lat="45.40302" lon="6.19025">
        <ele>1922.5026855469</ele>
        <time>2010-08-04T15:37:20Z</time>
      </trkpt>
      <trkpt lat="45.40311" lon="6.19021">
        <ele>1922.494140625</ele>
        <time>2010-08-04T15:37:25Z</time>
      </trkpt>
      <trkpt lat="45.40316" lon="6.19019">
        <ele>1922.4255371094</ele>
        <time>2010-08-04T15:37:27Z</time>
      </trkpt>
      <trkpt lat="45.40326" lon="6.19015">
        <ele>1922.2126464844</ele>
        <time>2010-08-04T15:37:33Z</time>
      </trkpt>
      <trkpt lat="45.40331" lon="6.19015">
        <ele>1922.8718261719</ele>
        <time>2010-08-04T15:37:36Z</time>
      </trkpt>
      <trkpt lat="45.40339" lon="6.19006">
        <ele>1920.2454833984</ele>
        <time>2010-08-04T15:37:43Z</time>
      </trkpt>
      <trkpt lat="45.40345" lon="6.18997">
        <ele>1916.7416992188</ele>
        <time>2010-08-04T15:37:48Z</time>
      </trkpt>
      <trkpt lat="45.40348" lon="6.18993">
        <ele>1915.0109863281</ele>
        <time>2010-08-04T15:37:51Z</time>
      </trkpt>
      <trkpt lat="45.40352" lon="6.1899">
        <ele>1914.1407470703</ele>
        <time>2010-08-04T15:37:54Z</time>
      </trkpt>
      <trkpt lat="45.4036" lon="6.18986">
        <ele>1913.3360595703</ele>
        <time>2010-08-04T15:37:59Z</time>
      </trkpt>
      <trkpt lat="45.40372" lon="6.18981">
        <ele>1911.4434814453</ele>
        <time>2010-08-04T15:38:07Z</time>
      </trkpt>
      <trkpt lat="45.40373" lon="6.18981">
        <ele>1911.3820800781</ele>
        <time>2010-08-04T15:38:08Z</time>
      </trkpt>
      <trkpt lat="45.40377" lon="6.18981">
        <ele>1911.7591552734</ele>
        <time>2010-08-04T15:38:11Z</time>
      </trkpt>
      <trkpt lat="45.40384" lon="6.18976">
        <ele>1909.0997314453</ele>
        <time>2010-08-04T15:38:16Z</time>
      </trkpt>
      <trkpt lat="45.40386" lon="6.18974">
        <ele>1907.8961181641</ele>
        <time>2010-08-04T15:38:18Z</time>
      </trkpt>
      <trkpt lat="45.40393" lon="6.18967">
        <ele>1904.2145996094</ele>
        <time>2010-08-04T15:38:24Z</time>
      </trkpt>
      <trkpt lat="45.40404" lon="6.18964">
        <ele>1903.9812011719</ele>
        <time>2010-08-04T15:38:32Z</time>
      </trkpt>
      <trkpt lat="45.40412" lon="6.18962">
        <ele>1903.81640625</ele>
        <time>2010-08-04T15:38:38Z</time>
      </trkpt>
      <trkpt lat="45.40413" lon="6.18962">
        <ele>1903.7065429688</ele>
        <time>2010-08-04T15:38:39Z</time>
      </trkpt>
      <trkpt lat="45.40423" lon="6.18959">
        <ele>1903.2272949219</ele>
        <time>2010-08-04T15:38:45Z</time>
      </trkpt>
      <trkpt lat="45.40435" lon="6.18958">
        <ele>1903.6429443359</ele>
        <time>2010-08-04T15:38:51Z</time>
      </trkpt>
      <trkpt lat="45.40442" lon="6.18958">
        <ele>1904.7119140625</ele>
        <time>2010-08-04T15:38:56Z</time>
      </trkpt>
      <trkpt lat="45.4045" lon="6.18959">
        <ele>1906.0505371094</ele>
        <time>2010-08-04T15:39:00Z</time>
      </trkpt>
      <trkpt lat="45.40453" lon="6.18955">
        <ele>1904.0169677734</ele>
        <time>2010-08-04T15:39:06Z</time>
      </trkpt>
      <trkpt lat="45.40453" lon="6.18952">
        <ele>1901.9184570312</ele>
        <time>2010-08-04T15:39:09Z</time>
      </trkpt>
      <trkpt lat="45.40458" lon="6.18939">
        <ele>1894.8292236328</ele>
        <time>2010-08-04T15:39:15Z</time>
      </trkpt>
      <trkpt lat="45.40466" lon="6.18931">
        <ele>1891.2702636719</ele>
        <time>2010-08-04T15:39:20Z</time>
      </trkpt>
      <trkpt lat="45.40474" lon="6.18922">
        <ele>1887.4375</ele>
        <time>2010-08-04T15:39:26Z</time>
      </trkpt>
      <trkpt lat="45.40479" lon="6.1892">
        <ele>1887.7447509766</ele>
        <time>2010-08-04T15:39:31Z</time>
      </trkpt>
      <trkpt lat="45.40486" lon="6.18916">
        <ele>1888.3068847656</ele>
        <time>2010-08-04T15:39:37Z</time>
      </trkpt>
      <trkpt lat="45.40497" lon="6.18912">
        <ele>1890.7615966797</ele>
        <time>2010-08-04T15:39:43Z</time>
      </trkpt>
      <trkpt lat="45.40507" lon="6.1891">
        <ele>1891.5539550781</ele>
        <time>2010-08-04T15:39:48Z</time>
      </trkpt>
      <trkpt lat="45.4051" lon="6.18907">
        <ele>1890.5631103516</ele>
        <time>2010-08-04T15:39:54Z</time>
      </trkpt>
      <trkpt lat="45.40516" lon="6.18904">
        <ele>1889.7154541016</ele>
        <time>2010-08-04T15:39:58Z</time>
      </trkpt>
      <trkpt lat="45.40526" lon="6.18901">
        <ele>1889.0225830078</ele>
        <time>2010-08-04T15:40:04Z</time>
      </trkpt>
      <trkpt lat="45.4053" lon="6.189">
        <ele>1889.9803466797</ele>
        <time>2010-08-04T15:40:07Z</time>
      </trkpt>
      <trkpt lat="45.40534" lon="6.18895">
        <ele>1888.6474609375</ele>
        <time>2010-08-04T15:40:11Z</time>
      </trkpt>
      <trkpt lat="45.40539" lon="6.18885">
        <ele>1885.1361083984</ele>
        <time>2010-08-04T15:40:18Z</time>
      </trkpt>
      <trkpt lat="45.40541" lon="6.18881">
        <ele>1884.1605224609</ele>
        <time>2010-08-04T15:40:20Z</time>
      </trkpt>
      <trkpt lat="45.40549" lon="6.18875">
        <ele>1884.1046142578</ele>
        <time>2010-08-04T15:40:25Z</time>
      </trkpt>
      <trkpt lat="45.40553" lon="6.18871">
        <ele>1883.5046386719</ele>
        <time>2010-08-04T15:40:29Z</time>
      </trkpt>
      <trkpt lat="45.40562" lon="6.18866">
        <ele>1884.3981933594</ele>
        <time>2010-08-04T15:40:35Z</time>
      </trkpt>
      <trkpt lat="45.40577" lon="6.18861">
        <ele>1884.9991455078</ele>
        <time>2010-08-04T15:40:41Z</time>
      </trkpt>
      <trkpt lat="45.40581" lon="6.18857">
        <ele>1884.2199707031</ele>
        <time>2010-08-04T15:40:44Z</time>
      </trkpt>
      <trkpt lat="45.40588" lon="6.1885">
        <ele>1881.8680419922</ele>
        <time>2010-08-04T15:40:49Z</time>
      </trkpt>
      <trkpt lat="45.40597" lon="6.18843">
        <ele>1879.7532958984</ele>
        <time>2010-08-04T15:40:55Z</time>
      </trkpt>
      <trkpt lat="45.40604" lon="6.18837">
        <ele>1878.0676269531</ele>
        <time>2010-08-04T15:41:00Z</time>
      </trkpt>
      <trkpt lat="45.40604" lon="6.18836">
        <ele>1877.6239013672</ele>
        <time>2010-08-04T15:41:01Z</time>
      </trkpt>
      <trkpt lat="45.40607" lon="6.18833">
        <ele>1876.9675292969</ele>
        <time>2010-08-04T15:41:04Z</time>
      </trkpt>
      <trkpt lat="45.40612" lon="6.18824">
        <ele>1874.1578369141</ele>
        <time>2010-08-04T15:41:11Z</time>
      </trkpt>
      <trkpt lat="45.40612" lon="6.18822">
        <ele>1873.5023193359</ele>
        <time>2010-08-04T15:41:12Z</time>
      </trkpt>
      <trkpt lat="45.40614" lon="6.18815">
        <ele>1870.6535644531</ele>
        <time>2010-08-04T15:41:18Z</time>
      </trkpt>
      <trkpt lat="45.40614" lon="6.18813">
        <ele>1870.0314941406</ele>
        <time>2010-08-04T15:41:19Z</time>
      </trkpt>
      <trkpt lat="45.40617" lon="6.18806">
        <ele>1867.6623535156</ele>
        <time>2010-08-04T15:41:24Z</time>
      </trkpt>
      <trkpt lat="45.40618" lon="6.1879">
        <ele>1861.3355712891</ele>
        <time>2010-08-04T15:41:32Z</time>
      </trkpt>
      <trkpt lat="45.40625" lon="6.18779">
        <ele>1859.1318359375</ele>
        <time>2010-08-04T15:41:37Z</time>
      </trkpt>
      <trkpt lat="45.40633" lon="6.18773">
        <ele>1859.0717773438</ele>
        <time>2010-08-04T15:41:41Z</time>
      </trkpt>
      <trkpt lat="45.40634" lon="6.1877">
        <ele>1858.0914306641</ele>
        <time>2010-08-04T15:41:43Z</time>
      </trkpt>
      <trkpt lat="45.40636" lon="6.18759">
        <ele>1853.8673095703</ele>
        <time>2010-08-04T15:41:50Z</time>
      </trkpt>
      <trkpt lat="45.40637" lon="6.18752">
        <ele>1851.0447998047</ele>
        <time>2010-08-04T15:41:55Z</time>
      </trkpt>
      <trkpt lat="45.40644" lon="6.18746">
        <ele>1851.0540771484</ele>
        <time>2010-08-04T15:42:02Z</time>
      </trkpt>
      <trkpt lat="45.40646" lon="6.18743">
        <ele>1850.5989990234</ele>
        <time>2010-08-04T15:42:04Z</time>
      </trkpt>
      <trkpt lat="45.40653" lon="6.1874">
        <ele>1851.7001953125</ele>
        <time>2010-08-04T15:42:09Z</time>
      </trkpt>
      <trkpt lat="45.40657" lon="6.18734">
        <ele>1851.3997802734</ele>
        <time>2010-08-04T15:42:14Z</time>
      </trkpt>
      <trkpt lat="45.4066" lon="6.18732">
        <ele>1851.6676025391</ele>
        <time>2010-08-04T15:42:16Z</time>
      </trkpt>
      <trkpt lat="45.40664" lon="6.18725">
        <ele>1850.7329101562</ele>
        <time>2010-08-04T15:42:20Z</time>
      </trkpt>
      <trkpt lat="45.4067" lon="6.18719">
        <ele>1851.1439208984</ele>
        <time>2010-08-04T15:42:25Z</time>
      </trkpt>
      <trkpt lat="45.40676" lon="6.18713">
        <ele>1851.3979492188</ele>
        <time>2010-08-04T15:42:29Z</time>
      </trkpt>
      <trkpt lat="45.40684" lon="6.18711">
        <ele>1854.1550292969</ele>
        <time>2010-08-04T15:42:34Z</time>
      </trkpt>
      <trkpt lat="45.40691" lon="6.18704">
        <ele>1854.2750244141</ele>
        <time>2010-08-04T15:42:40Z</time>
      </trkpt>
      <trkpt lat="45.40695" lon="6.18695">
        <ele>1852.2003173828</ele>
        <time>2010-08-04T15:42:46Z</time>
      </trkpt>
      <trkpt lat="45.40699" lon="6.18686">
        <ele>1849.0634765625</ele>
        <time>2010-08-04T15:42:50Z</time>
      </trkpt>
      <trkpt lat="45.40705" lon="6.18679">
        <ele>1847.0935058594</ele>
        <time>2010-08-04T15:42:55Z</time>
      </trkpt>
      <trkpt lat="45.40714" lon="6.18675">
        <ele>1847.6142578125</ele>
        <time>2010-08-04T15:43:01Z</time>
      </trkpt>
      <trkpt lat="45.4072" lon="6.18673">
        <ele>1848.2391357422</ele>
        <time>2010-08-04T15:43:04Z</time>
      </trkpt>
      <trkpt lat="45.40729" lon="6.18674">
        <ele>1850.2741699219</ele>
        <time>2010-08-04T15:43:11Z</time>
      </trkpt>
      <trkpt lat="45.40733" lon="6.18671">
        <ele>1849.8729248047</ele>
        <time>2010-08-04T15:43:17Z</time>
      </trkpt>
      <trkpt lat="45.40733" lon="6.18664">
        <ele>1847.4230957031</ele>
        <time>2010-08-04T15:43:22Z</time>
      </trkpt>
      <trkpt lat="45.40734" lon="6.18659">
        <ele>1845.8017578125</ele>
        <time>2010-08-04T15:43:26Z</time>
      </trkpt>
      <trkpt lat="45.40737" lon="6.18656">
        <ele>1845.4654541016</ele>
        <time>2010-08-04T15:43:29Z</time>
      </trkpt>
      <trkpt lat="45.40749" lon="6.18655">
        <ele>1847.1536865234</ele>
        <time>2010-08-04T15:43:37Z</time>
      </trkpt>
      <trkpt lat="45.40753" lon="6.18652">
        <ele>1846.8489990234</ele>
        <time>2010-08-04T15:43:40Z</time>
      </trkpt>
      <trkpt lat="45.40755" lon="6.18652">
        <ele>1847.1688232422</ele>
        <time>2010-08-04T15:43:42Z</time>
      </trkpt>
      <trkpt lat="45.4076" lon="6.18646">
        <ele>1846.0861816406</ele>
        <time>2010-08-04T15:43:47Z</time>
      </trkpt>
      <trkpt lat="45.40761" lon="6.18642">
        <ele>1844.9575195312</ele>
        <time>2010-08-04T15:43:49Z</time>
      </trkpt>
      <trkpt lat="45.40767" lon="6.18635">
        <ele>1844.7386474609</ele>
        <time>2010-08-04T15:43:54Z</time>
      </trkpt>
      <trkpt lat="45.4077" lon="6.18634">
        <ele>1845.4165039062</ele>
        <time>2010-08-04T15:43:57Z</time>
      </trkpt>
      <trkpt lat="45.40778" lon="6.18629">
        <ele>1846.8536376953</ele>
        <time>2010-08-04T15:44:04Z</time>
      </trkpt>
      <trkpt lat="45.40781" lon="6.18623">
        <ele>1847.443359375</ele>
        <time>2010-08-04T15:44:10Z</time>
      </trkpt>
      <trkpt lat="45.40781" lon="6.18617">
        <ele>1846.9837646484</ele>
        <time>2010-08-04T15:44:15Z</time>
      </trkpt>
      <trkpt lat="45.40781" lon="6.18613">
        <ele>1846.4288330078</ele>
        <time>2010-08-04T15:44:17Z</time>
      </trkpt>
      <trkpt lat="45.4078" lon="6.18601">
        <ele>1845.3150634766</ele>
        <time>2010-08-04T15:44:23Z</time>
      </trkpt>
      <trkpt lat="45.40775" lon="6.18588">
        <ele>1842.5635986328</ele>
        <time>2010-08-04T15:44:29Z</time>
      </trkpt>
      <trkpt lat="45.40771" lon="6.18575">
        <ele>1839.7320556641</ele>
        <time>2010-08-04T15:44:36Z</time>
      </trkpt>
      <trkpt lat="45.4077" lon="6.18565">
        <ele>1838.18359375</ele>
        <time>2010-08-04T15:44:40Z</time>
      </trkpt>
      <trkpt lat="45.40768" lon="6.1855">
        <ele>1836.1696777344</ele>
        <time>2010-08-04T15:44:47Z</time>
      </trkpt>
      <trkpt lat="45.40767" lon="6.18548">
        <ele>1835.3041992188</ele>
        <time>2010-08-04T15:44:48Z</time>
      </trkpt>
      <trkpt lat="45.40761" lon="6.18545">
        <ele>1833.0714111328</ele>
        <time>2010-08-04T15:44:53Z</time>
      </trkpt>
      <trkpt lat="45.40759" lon="6.18538">
        <ele>1831.6409912109</ele>
        <time>2010-08-04T15:44:58Z</time>
      </trkpt>
      <trkpt lat="45.40758" lon="6.18536">
        <ele>1830.9797363281</ele>
        <time>2010-08-04T15:45:05Z</time>
      </trkpt>
      <trkpt lat="45.40758" lon="6.18536">
        <ele>1830.8371582031</ele>
        <time>2010-08-04T15:45:10Z</time>
      </trkpt>
      <trkpt lat="45.40756" lon="6.18538">
        <ele>1830.3549804688</ele>
        <time>2010-08-04T15:45:14Z</time>
      </trkpt>
      <trkpt lat="45.40754" lon="6.18543">
        <ele>1830.2985839844</ele>
        <time>2010-08-04T15:45:20Z</time>
      </trkpt>
      <trkpt lat="45.40751" lon="6.18549">
        <ele>1829.8107910156</ele>
        <time>2010-08-04T15:45:27Z</time>
      </trkpt>
      <trkpt lat="45.40752" lon="6.18549">
        <ele>1830.0361328125</ele>
        <time>2010-08-04T15:45:34Z</time>
      </trkpt>
      <trkpt lat="45.40747" lon="6.18546">
        <ele>1828.0803222656</ele>
        <time>2010-08-04T15:48:28Z</time>
      </trkpt>
      <trkpt lat="45.40747" lon="6.1855">
        <ele>1828.5174560547</ele>
        <time>2010-08-04T15:49:40Z</time>
      </trkpt>
      <trkpt lat="45.40754" lon="6.18549">
        <ele>1830.5985107422</ele>
        <time>2010-08-04T15:50:24Z</time>
      </trkpt>
      <trkpt lat="45.40757" lon="6.18548">
        <ele>1831.5904541016</ele>
        <time>2010-08-04T15:50:30Z</time>
      </trkpt>
      <trkpt lat="45.40758" lon="6.18545">
        <ele>1831.7105712891</ele>
        <time>2010-08-04T15:50:49Z</time>
      </trkpt>
      <trkpt lat="45.40756" lon="6.18549">
        <ele>1831.4516601562</ele>
        <time>2010-08-04T15:51:11Z</time>
      </trkpt>
      <trkpt lat="45.4076" lon="6.18542">
        <ele>1832.1467285156</ele>
        <time>2010-08-04T15:51:27Z</time>
      </trkpt>
      <trkpt lat="45.40761" lon="6.18542">
        <ele>1832.6018066406</ele>
        <time>2010-08-04T15:51:33Z</time>
      </trkpt>
      <trkpt lat="45.40757" lon="6.1854">
        <ele>1830.986328125</ele>
        <time>2010-08-04T15:51:54Z</time>
      </trkpt>
      <trkpt lat="45.40755" lon="6.1854">
        <ele>1830.3775634766</ele>
        <time>2010-08-04T15:51:59Z</time>
      </trkpt>
      <trkpt lat="45.4076" lon="6.1854">
        <ele>1832.0102539062</ele>
        <time>2010-08-04T15:52:09Z</time>
      </trkpt>
      <trkpt lat="45.40759" lon="6.1854">
        <ele>1831.6651611328</ele>
        <time>2010-08-04T15:52:21Z</time>
      </trkpt>
      <trkpt lat="45.40763" lon="6.18539">
        <ele>1833.0648193359</ele>
        <time>2010-08-04T15:52:27Z</time>
      </trkpt>
      <trkpt lat="45.40769" lon="6.1854">
        <ele>1835.59765625</ele>
        <time>2010-08-04T15:52:43Z</time>
      </trkpt>
      <trkpt lat="45.40773" lon="6.18539">
        <ele>1836.9558105469</ele>
        <time>2010-08-04T15:52:48Z</time>
      </trkpt>
      <trkpt lat="45.40776" lon="6.18537">
        <ele>1837.8441162109</ele>
        <time>2010-08-04T15:52:53Z</time>
      </trkpt>
      <trkpt lat="45.4078" lon="6.18536">
        <ele>1839.1286621094</ele>
        <time>2010-08-04T15:52:59Z</time>
      </trkpt>
      <trkpt lat="45.40785" lon="6.1854">
        <ele>1840.7666015625</ele>
        <time>2010-08-04T15:53:07Z</time>
      </trkpt>
      <trkpt lat="45.40789" lon="6.18542">
        <ele>1842.1419677734</ele>
        <time>2010-08-04T15:53:14Z</time>
      </trkpt>
      <trkpt lat="45.40796" lon="6.18543">
        <ele>1844.0965576172</ele>
        <time>2010-08-04T15:53:23Z</time>
      </trkpt>
      <trkpt lat="45.408" lon="6.1855">
        <ele>1845.8343505859</ele>
        <time>2010-08-04T15:53:31Z</time>
      </trkpt>
      <trkpt lat="45.40802" lon="6.18559">
        <ele>1847.5042724609</ele>
        <time>2010-08-04T15:53:40Z</time>
      </trkpt>
      <trkpt lat="45.408" lon="6.18563">
        <ele>1847.7923583984</ele>
        <time>2010-08-04T15:53:45Z</time>
      </trkpt>
      <trkpt lat="45.40799" lon="6.18567">
        <ele>1848.0144042969</ele>
        <time>2010-08-04T15:53:50Z</time>
      </trkpt>
      <trkpt lat="45.40801" lon="6.18577">
        <ele>1850.1823730469</ele>
        <time>2010-08-04T15:53:58Z</time>
      </trkpt>
      <trkpt lat="45.40802" lon="6.18583">
        <ele>1851.6575927734</ele>
        <time>2010-08-04T15:54:05Z</time>
      </trkpt>
      <trkpt lat="45.40805" lon="6.18593">
        <ele>1854.0959472656</ele>
        <time>2010-08-04T15:54:15Z</time>
      </trkpt>
      <trkpt lat="45.40805" lon="6.18602">
        <ele>1855.5291748047</ele>
        <time>2010-08-04T15:54:24Z</time>
      </trkpt>
      <trkpt lat="45.40807" lon="6.18606">
        <ele>1856.9005126953</ele>
        <time>2010-08-04T15:54:30Z</time>
      </trkpt>
      <trkpt lat="45.40802" lon="6.18603">
        <ele>1854.5141601562</ele>
        <time>2010-08-04T15:54:36Z</time>
      </trkpt>
      <trkpt lat="45.40797" lon="6.18604">
        <ele>1852.5653076172</ele>
        <time>2010-08-04T15:54:45Z</time>
      </trkpt>
      <trkpt lat="45.40801" lon="6.18603">
        <ele>1853.9440917969</ele>
        <time>2010-08-04T15:54:52Z</time>
      </trkpt>
      <trkpt lat="45.40805" lon="6.18601">
        <ele>1855.3182373047</ele>
        <time>2010-08-04T15:54:59Z</time>
      </trkpt>
      <trkpt lat="45.40807" lon="6.18603">
        <ele>1856.4267578125</ele>
        <time>2010-08-04T15:55:03Z</time>
      </trkpt>
      <trkpt lat="45.40807" lon="6.18607">
        <ele>1856.9554443359</ele>
        <time>2010-08-04T15:55:09Z</time>
      </trkpt>
      <trkpt lat="45.4081" lon="6.18602">
        <ele>1857.7451171875</ele>
        <time>2010-08-04T15:55:17Z</time>
      </trkpt>
      <trkpt lat="45.40811" lon="6.18598">
        <ele>1857.7175292969</ele>
        <time>2010-08-04T15:55:21Z</time>
      </trkpt>
      <trkpt lat="45.40812" lon="6.18594">
        <ele>1857.5458984375</ele>
        <time>2010-08-04T15:55:27Z</time>
      </trkpt>
      <trkpt lat="45.40819" lon="6.18589">
        <ele>1860.1964111328</ele>
        <time>2010-08-04T15:55:35Z</time>
      </trkpt>
      <trkpt lat="45.40826" lon="6.1859">
        <ele>1863.3000488281</ele>
        <time>2010-08-04T15:55:44Z</time>
      </trkpt>
      <trkpt lat="45.40826" lon="6.18596">
        <ele>1864.3369140625</ele>
        <time>2010-08-04T15:55:50Z</time>
      </trkpt>
      <trkpt lat="45.40823" lon="6.18602">
        <ele>1863.6501464844</ele>
        <time>2010-08-04T15:55:57Z</time>
      </trkpt>
      <trkpt lat="45.40825" lon="6.18605">
        <ele>1865.1333007812</ele>
        <time>2010-08-04T15:56:02Z</time>
      </trkpt>
      <trkpt lat="45.40825" lon="6.1861">
        <ele>1865.7170410156</ele>
        <time>2010-08-04T15:56:08Z</time>
      </trkpt>
      <trkpt lat="45.40825" lon="6.18615">
        <ele>1866.8892822266</ele>
        <time>2010-08-04T15:56:15Z</time>
      </trkpt>
      <trkpt lat="45.40824" lon="6.18623">
        <ele>1867.6630859375</ele>
        <time>2010-08-04T15:56:22Z</time>
      </trkpt>
      <trkpt lat="45.40826" lon="6.18626">
        <ele>1869.1168212891</ele>
        <time>2010-08-04T15:56:28Z</time>
      </trkpt>
      <trkpt lat="45.40828" lon="6.18634">
        <ele>1871.7694091797</ele>
        <time>2010-08-04T15:56:36Z</time>
      </trkpt>
      <trkpt lat="45.40831" lon="6.18634">
        <ele>1873.8707275391</ele>
        <time>2010-08-04T15:56:42Z</time>
      </trkpt>
      <trkpt lat="45.40834" lon="6.18637">
        <ele>1875.9217529297</ele>
        <time>2010-08-04T15:56:49Z</time>
      </trkpt>
      <trkpt lat="45.40836" lon="6.18639">
        <ele>1877.2425537109</ele>
        <time>2010-08-04T15:56:55Z</time>
      </trkpt>
      <trkpt lat="45.40839" lon="6.1864">
        <ele>1878.6761474609</ele>
        <time>2010-08-04T15:57:01Z</time>
      </trkpt>
      <trkpt lat="45.40847" lon="6.18638">
        <ele>1880.9797363281</ele>
        <time>2010-08-04T15:57:09Z</time>
      </trkpt>
      <trkpt lat="45.4085" lon="6.1864">
        <ele>1882.9912109375</ele>
        <time>2010-08-04T15:57:17Z</time>
      </trkpt>
      <trkpt lat="45.40851" lon="6.18649">
        <ele>1885.5450439453</ele>
        <time>2010-08-04T15:57:26Z</time>
      </trkpt>
      <trkpt lat="45.40855" lon="6.18656">
        <ele>1888.6547851562</ele>
        <time>2010-08-04T15:57:34Z</time>
      </trkpt>
      <trkpt lat="45.4086" lon="6.18658">
        <ele>1891.5672607422</ele>
        <time>2010-08-04T15:57:41Z</time>
      </trkpt>
      <trkpt lat="45.40863" lon="6.18662">
        <ele>1893.7701416016</ele>
        <time>2010-08-04T15:57:48Z</time>
      </trkpt>
      <trkpt lat="45.40863" lon="6.18666">
        <ele>1894.3863525391</ele>
        <time>2010-08-04T15:57:52Z</time>
      </trkpt>
      <trkpt lat="45.40865" lon="6.18674">
        <ele>1897.7750244141</ele>
        <time>2010-08-04T15:58:02Z</time>
      </trkpt>
      <trkpt lat="45.40867" lon="6.18681">
        <ele>1900.3532714844</ele>
        <time>2010-08-04T15:58:09Z</time>
      </trkpt>
      <trkpt lat="45.40869" lon="6.18688">
        <ele>1902.7308349609</ele>
        <time>2010-08-04T15:58:17Z</time>
      </trkpt>
      <trkpt lat="45.40872" lon="6.18694">
        <ele>1905.6319580078</ele>
        <time>2010-08-04T15:58:25Z</time>
      </trkpt>
      <trkpt lat="45.40876" lon="6.18692">
        <ele>1907</ele>
        <time>2010-08-04T15:58:34Z</time>
      </trkpt>
      <trkpt lat="45.40877" lon="6.18699">
        <ele>1909.0479736328</ele>
        <time>2010-08-04T15:58:42Z</time>
      </trkpt>
      <trkpt lat="45.40881" lon="6.18701">
        <ele>1911.2126464844</ele>
        <time>2010-08-04T15:58:50Z</time>
      </trkpt>
      <trkpt lat="45.40882" lon="6.18704">
        <ele>1912.4039306641</ele>
        <time>2010-08-04T15:58:54Z</time>
      </trkpt>
      <trkpt lat="45.40884" lon="6.18706">
        <ele>1913.7686767578</ele>
        <time>2010-08-04T15:58:59Z</time>
      </trkpt>
      <trkpt lat="45.4089" lon="6.1871">
        <ele>1917.009765625</ele>
        <time>2010-08-04T15:59:07Z</time>
      </trkpt>
      <trkpt lat="45.40892" lon="6.18715">
        <ele>1918.8012695312</ele>
        <time>2010-08-04T15:59:14Z</time>
      </trkpt>
      <trkpt lat="45.40895" lon="6.1872">
        <ele>1920.3471679688</ele>
        <time>2010-08-04T15:59:20Z</time>
      </trkpt>
      <trkpt lat="45.40897" lon="6.18728">
        <ele>1923.3355712891</ele>
        <time>2010-08-04T15:59:27Z</time>
      </trkpt>
      <trkpt lat="45.40899" lon="6.18735">
        <ele>1925.841796875</ele>
        <time>2010-08-04T15:59:32Z</time>
      </trkpt>
      <trkpt lat="45.409" lon="6.18744">
        <ele>1929.2836914062</ele>
        <time>2010-08-04T15:59:40Z</time>
      </trkpt>
      <trkpt lat="45.40901" lon="6.1875">
        <ele>1931.3013916016</ele>
        <time>2010-08-04T15:59:45Z</time>
      </trkpt>
      <trkpt lat="45.40905" lon="6.18758">
        <ele>1934.3737792969</ele>
        <time>2010-08-04T15:59:52Z</time>
      </trkpt>
      <trkpt lat="45.40907" lon="6.18765">
        <ele>1936.859375</ele>
        <time>2010-08-04T15:59:59Z</time>
      </trkpt>
      <trkpt lat="45.40908" lon="6.18768">
        <ele>1938.0067138672</ele>
        <time>2010-08-04T16:00:03Z</time>
      </trkpt>
      <trkpt lat="45.40909" lon="6.18772">
        <ele>1939.4088134766</ele>
        <time>2010-08-04T16:00:07Z</time>
      </trkpt>
      <trkpt lat="45.40909" lon="6.18776">
        <ele>1940.5704345703</ele>
        <time>2010-08-04T16:00:11Z</time>
      </trkpt>
      <trkpt lat="45.40913" lon="6.18781">
        <ele>1942.3980712891</ele>
        <time>2010-08-04T16:00:18Z</time>
      </trkpt>
      <trkpt lat="45.40914" lon="6.18785">
        <ele>1943.2346191406</ele>
        <time>2010-08-04T16:00:22Z</time>
      </trkpt>
      <trkpt lat="45.40916" lon="6.18792">
        <ele>1944.8673095703</ele>
        <time>2010-08-04T16:00:29Z</time>
      </trkpt>
      <trkpt lat="45.40918" lon="6.18799">
        <ele>1946.7935791016</ele>
        <time>2010-08-04T16:00:36Z</time>
      </trkpt>
      <trkpt lat="45.40918" lon="6.18807">
        <ele>1948.9207763672</ele>
        <time>2010-08-04T16:00:44Z</time>
      </trkpt>
      <trkpt lat="45.4092" lon="6.18813">
        <ele>1950.8056640625</ele>
        <time>2010-08-04T16:00:51Z</time>
      </trkpt>
      <trkpt lat="45.40921" lon="6.18821">
        <ele>1952.7735595703</ele>
        <time>2010-08-04T16:00:57Z</time>
      </trkpt>
      <trkpt lat="45.40922" lon="6.18831">
        <ele>1955.6590576172</ele>
        <time>2010-08-04T16:01:04Z</time>
      </trkpt>
      <trkpt lat="45.40928" lon="6.18833">
        <ele>1957.2574462891</ele>
        <time>2010-08-04T16:01:10Z</time>
      </trkpt>
      <trkpt lat="45.40936" lon="6.18828">
        <ele>1958.0483398438</ele>
        <time>2010-08-04T16:01:19Z</time>
      </trkpt>
      <trkpt lat="45.40944" lon="6.18821">
        <ele>1958.5788574219</ele>
        <time>2010-08-04T16:01:27Z</time>
      </trkpt>
      <trkpt lat="45.40955" lon="6.18816">
        <ele>1961.2467041016</ele>
        <time>2010-08-04T16:01:34Z</time>
      </trkpt>
      <trkpt lat="45.40966" lon="6.1881">
        <ele>1963.8474121094</ele>
        <time>2010-08-04T16:01:41Z</time>
      </trkpt>
      <trkpt lat="45.40977" lon="6.18805">
        <ele>1965.7788085938</ele>
        <time>2010-08-04T16:01:49Z</time>
      </trkpt>
      <trkpt lat="45.40986" lon="6.18807">
        <ele>1967.9605712891</ele>
        <time>2010-08-04T16:01:56Z</time>
      </trkpt>
      <trkpt lat="45.40992" lon="6.18806">
        <ele>1968.8199462891</ele>
        <time>2010-08-04T16:02:00Z</time>
      </trkpt>
      <trkpt lat="45.41003" lon="6.18803">
        <ele>1969.3453369141</ele>
        <time>2010-08-04T16:02:08Z</time>
      </trkpt>
      <trkpt lat="45.41013" lon="6.18799">
        <ele>1968.5880126953</ele>
        <time>2010-08-04T16:02:16Z</time>
      </trkpt>
      <trkpt lat="45.41015" lon="6.18798">
        <ele>1968.2524414062</ele>
        <time>2010-08-04T16:02:18Z</time>
      </trkpt>
      <trkpt lat="45.4102" lon="6.18799">
        <ele>1968.9226074219</ele>
        <time>2010-08-04T16:02:22Z</time>
      </trkpt>
      <trkpt lat="45.41029" lon="6.18805">
        <ele>1970.9792480469</ele>
        <time>2010-08-04T16:02:29Z</time>
      </trkpt>
      <trkpt lat="45.41034" lon="6.18805">
        <ele>1971.693359375</ele>
        <time>2010-08-04T16:02:34Z</time>
      </trkpt>
      <trkpt lat="45.41042" lon="6.18805">
        <ele>1972.9155273438</ele>
        <time>2010-08-04T16:02:39Z</time>
      </trkpt>
      <trkpt lat="45.41046" lon="6.18803">
        <ele>1972.9841308594</ele>
        <time>2010-08-04T16:02:43Z</time>
      </trkpt>
      <trkpt lat="45.41051" lon="6.18799">
        <ele>1972.5859375</ele>
        <time>2010-08-04T16:02:47Z</time>
      </trkpt>
      <trkpt lat="45.41059" lon="6.18796">
        <ele>1972.5126953125</ele>
        <time>2010-08-04T16:02:51Z</time>
      </trkpt>
      <trkpt lat="45.4107" lon="6.18795">
        <ele>1973.8580322266</ele>
        <time>2010-08-04T16:02:58Z</time>
      </trkpt>
      <trkpt lat="45.41079" lon="6.18799">
        <ele>1975.7192382812</ele>
        <time>2010-08-04T16:03:06Z</time>
      </trkpt>
      <trkpt lat="45.41085" lon="6.18805">
        <ele>1977.8345947266</ele>
        <time>2010-08-04T16:03:12Z</time>
      </trkpt>
      <trkpt lat="45.41093" lon="6.18811">
        <ele>1980.1851806641</ele>
        <time>2010-08-04T16:03:19Z</time>
      </trkpt>
      <trkpt lat="45.41098" lon="6.18822">
        <ele>1982.8425292969</ele>
        <time>2010-08-04T16:03:27Z</time>
      </trkpt>
      <trkpt lat="45.41102" lon="6.18834">
        <ele>1984.6185302734</ele>
        <time>2010-08-04T16:03:34Z</time>
      </trkpt>
      <trkpt lat="45.41105" lon="6.18839">
        <ele>1984.0614013672</ele>
        <time>2010-08-04T16:03:41Z</time>
      </trkpt>
      <trkpt lat="45.41106" lon="6.18842">
        <ele>1983.9771728516</ele>
        <time>2010-08-04T16:03:50Z</time>
      </trkpt>
      <trkpt lat="45.41106" lon="6.18845">
        <ele>1983.8779296875</ele>
        <time>2010-08-04T16:04:02Z</time>
      </trkpt>
      <trkpt lat="45.41114" lon="6.18844">
        <ele>1982.2294921875</ele>
        <time>2010-08-04T16:04:11Z</time>
      </trkpt>
      <trkpt lat="45.41108" lon="6.18843">
        <ele>1983.3247070312</ele>
        <time>2010-08-04T16:04:26Z</time>
      </trkpt>
      <trkpt lat="45.41109" lon="6.18847">
        <ele>1983.0446777344</ele>
        <time>2010-08-04T16:04:35Z</time>
      </trkpt>
      <trkpt lat="45.41113" lon="6.1886">
        <ele>1981.6241455078</ele>
        <time>2010-08-04T16:04:41Z</time>
      </trkpt>
      <trkpt lat="45.41123" lon="6.18878">
        <ele>1975.4285888672</ele>
        <time>2010-08-04T16:04:50Z</time>
      </trkpt>
      <trkpt lat="45.4113" lon="6.1889">
        <ele>1970.7385253906</ele>
        <time>2010-08-04T16:04:55Z</time>
      </trkpt>
      <trkpt lat="45.41139" lon="6.18902">
        <ele>1964.6247558594</ele>
        <time>2010-08-04T16:05:00Z</time>
      </trkpt>
      <trkpt lat="45.41141" lon="6.18907">
        <ele>1963.4024658203</ele>
        <time>2010-08-04T16:05:02Z</time>
      </trkpt>
      <trkpt lat="45.41135" lon="6.18913">
        <ele>1963.2479248047</ele>
        <time>2010-08-04T16:05:07Z</time>
      </trkpt>
      <trkpt lat="45.41134" lon="6.18913">
        <ele>1963.6488037109</ele>
        <time>2010-08-04T16:05:08Z</time>
      </trkpt>
      <trkpt lat="45.41128" lon="6.18924">
        <ele>1963.2583007812</ele>
        <time>2010-08-04T16:05:14Z</time>
      </trkpt>
      <trkpt lat="45.4113" lon="6.18933">
        <ele>1960.3670654297</ele>
        <time>2010-08-04T16:05:18Z</time>
      </trkpt>
      <trkpt lat="45.41131" lon="6.18946">
        <ele>1956.7777099609</ele>
        <time>2010-08-04T16:05:24Z</time>
      </trkpt>
      <trkpt lat="45.41135" lon="6.18953">
        <ele>1953.6019287109</ele>
        <time>2010-08-04T16:05:28Z</time>
      </trkpt>
      <trkpt lat="45.4114" lon="6.18965">
        <ele>1949.3109130859</ele>
        <time>2010-08-04T16:05:34Z</time>
      </trkpt>
      <trkpt lat="45.41145" lon="6.18978">
        <ele>1945.5114746094</ele>
        <time>2010-08-04T16:05:40Z</time>
      </trkpt>
      <trkpt lat="45.4115" lon="6.18991">
        <ele>1942.3582763672</ele>
        <time>2010-08-04T16:05:46Z</time>
      </trkpt>
      <trkpt lat="45.4116" lon="6.18997">
        <ele>1940.1494140625</ele>
        <time>2010-08-04T16:05:52Z</time>
      </trkpt>
      <trkpt lat="45.41161" lon="6.18998">
        <ele>1939.8260498047</ele>
        <time>2010-08-04T16:05:53Z</time>
      </trkpt>
      <trkpt lat="45.41164" lon="6.19003">
        <ele>1939.1354980469</ele>
        <time>2010-08-04T16:05:56Z</time>
      </trkpt>
      <trkpt lat="45.41164" lon="6.1901">
        <ele>1938.576171875</ele>
        <time>2010-08-04T16:06:02Z</time>
      </trkpt>
      <trkpt lat="45.41162" lon="6.19016">
        <ele>1938.4423828125</ele>
        <time>2010-08-04T16:06:07Z</time>
      </trkpt>
      <trkpt lat="45.41162" lon="6.19022">
        <ele>1938.1097412109</ele>
        <time>2010-08-04T16:06:11Z</time>
      </trkpt>
      <trkpt lat="45.41171" lon="6.19028">
        <ele>1935.1638183594</ele>
        <time>2010-08-04T16:06:17Z</time>
      </trkpt>
      <trkpt lat="45.41171" lon="6.19037">
        <ele>1933.9124755859</ele>
        <time>2010-08-04T16:06:21Z</time>
      </trkpt>
      <trkpt lat="45.41169" lon="6.1905">
        <ele>1933.4501953125</ele>
        <time>2010-08-04T16:06:28Z</time>
      </trkpt>
      <trkpt lat="45.4117" lon="6.19054">
        <ele>1932.6450195312</ele>
        <time>2010-08-04T16:06:30Z</time>
      </trkpt>
      <trkpt lat="45.41173" lon="6.19073">
        <ele>1929.1219482422</ele>
        <time>2010-08-04T16:06:39Z</time>
      </trkpt>
      <trkpt lat="45.41178" lon="6.19085">
        <ele>1925.9571533203</ele>
        <time>2010-08-04T16:06:45Z</time>
      </trkpt>
      <trkpt lat="45.41181" lon="6.19094">
        <ele>1924.5240478516</ele>
        <time>2010-08-04T16:06:49Z</time>
      </trkpt>
      <trkpt lat="45.41188" lon="6.19101">
        <ele>1922.1497802734</ele>
        <time>2010-08-04T16:06:54Z</time>
      </trkpt>
      <trkpt lat="45.41191" lon="6.19106">
        <ele>1921.4654541016</ele>
        <time>2010-08-04T16:06:56Z</time>
      </trkpt>
      <trkpt lat="45.41199" lon="6.19112">
        <ele>1920.1148681641</ele>
        <time>2010-08-04T16:07:02Z</time>
      </trkpt>
      <trkpt lat="45.412" lon="6.19113">
        <ele>1919.7863769531</ele>
        <time>2010-08-04T16:07:03Z</time>
      </trkpt>
      <trkpt lat="45.41205" lon="6.19119">
        <ele>1918.8393554688</ele>
        <time>2010-08-04T16:07:06Z</time>
      </trkpt>
      <trkpt lat="45.41208" lon="6.1913">
        <ele>1918.490234375</ele>
        <time>2010-08-04T16:07:11Z</time>
      </trkpt>
      <trkpt lat="45.41209" lon="6.19131">
        <ele>1918.529296875</ele>
        <time>2010-08-04T16:07:12Z</time>
      </trkpt>
      <trkpt lat="45.41213" lon="6.19134">
        <ele>1918.7762451172</ele>
        <time>2010-08-04T16:07:14Z</time>
      </trkpt>
      <trkpt lat="45.4122" lon="6.19148">
        <ele>1915.1120605469</ele>
        <time>2010-08-04T16:07:20Z</time>
      </trkpt>
      <trkpt lat="45.41222" lon="6.1915">
        <ele>1914.0589599609</ele>
        <time>2010-08-04T16:07:21Z</time>
      </trkpt>
      <trkpt lat="45.41224" lon="6.19157">
        <ele>1910.0441894531</ele>
        <time>2010-08-04T16:07:24Z</time>
      </trkpt>
      <trkpt lat="45.41234" lon="6.19172">
        <ele>1905.4405517578</ele>
        <time>2010-08-04T16:07:30Z</time>
      </trkpt>
      <trkpt lat="45.41242" lon="6.19181">
        <ele>1904.9930419922</ele>
        <time>2010-08-04T16:07:35Z</time>
      </trkpt>
      <trkpt lat="45.41245" lon="6.19182">
        <ele>1905.0513916016</ele>
        <time>2010-08-04T16:07:36Z</time>
      </trkpt>
      <trkpt lat="45.4125" lon="6.19189">
        <ele>1904.8127441406</ele>
        <time>2010-08-04T16:07:40Z</time>
      </trkpt>
      <trkpt lat="45.41261" lon="6.19195">
        <ele>1902.4395751953</ele>
        <time>2010-08-04T16:07:46Z</time>
      </trkpt>
      <trkpt lat="45.41269" lon="6.19201">
        <ele>1900.9183349609</ele>
        <time>2010-08-04T16:07:51Z</time>
      </trkpt>
      <trkpt lat="45.41275" lon="6.19204">
        <ele>1900.1932373047</ele>
        <time>2010-08-04T16:07:54Z</time>
      </trkpt>
      <trkpt lat="45.4128" lon="6.19211">
        <ele>1899.0892333984</ele>
        <time>2010-08-04T16:07:58Z</time>
      </trkpt>
      <trkpt lat="45.41282" lon="6.19215">
        <ele>1898.3427734375</ele>
        <time>2010-08-04T16:08:00Z</time>
      </trkpt>
      <trkpt lat="45.41293" lon="6.1922">
        <ele>1894.2408447266</ele>
        <time>2010-08-04T16:08:05Z</time>
      </trkpt>
      <trkpt lat="45.41296" lon="6.19225">
        <ele>1891.7932128906</ele>
        <time>2010-08-04T16:08:08Z</time>
      </trkpt>
      <trkpt lat="45.41302" lon="6.19231">
        <ele>1888.298828125</ele>
        <time>2010-08-04T16:08:13Z</time>
      </trkpt>
      <trkpt lat="45.41307" lon="6.19237">
        <ele>1885.9390869141</ele>
        <time>2010-08-04T16:08:17Z</time>
      </trkpt>
      <trkpt lat="45.41315" lon="6.19242">
        <ele>1883.6437988281</ele>
        <time>2010-08-04T16:08:22Z</time>
      </trkpt>
      <trkpt lat="45.4132" lon="6.19247">
        <ele>1882.2009277344</ele>
        <time>2010-08-04T16:08:26Z</time>
      </trkpt>
      <trkpt lat="45.41326" lon="6.19252">
        <ele>1880.9445800781</ele>
        <time>2010-08-04T16:08:30Z</time>
      </trkpt>
      <trkpt lat="45.41336" lon="6.19259">
        <ele>1879.8299560547</ele>
        <time>2010-08-04T16:08:35Z</time>
      </trkpt>
      <trkpt lat="45.41342" lon="6.19261">
        <ele>1879.4512939453</ele>
        <time>2010-08-04T16:08:39Z</time>
      </trkpt>
      <trkpt lat="45.41346" lon="6.19261">
        <ele>1879.1762695312</ele>
        <time>2010-08-04T16:08:42Z</time>
      </trkpt>
      <trkpt lat="45.41348" lon="6.19264">
        <ele>1879.1990966797</ele>
        <time>2010-08-04T16:08:45Z</time>
      </trkpt>
      <trkpt lat="45.41353" lon="6.19265">
        <ele>1879.0258789062</ele>
        <time>2010-08-04T16:08:49Z</time>
      </trkpt>
      <trkpt lat="45.41359" lon="6.19268">
        <ele>1879.0394287109</ele>
        <time>2010-08-04T16:08:54Z</time>
      </trkpt>
      <trkpt lat="45.41368" lon="6.19273">
        <ele>1875.7745361328</ele>
        <time>2010-08-04T16:08:59Z</time>
      </trkpt>
      <trkpt lat="45.41374" lon="6.19284">
        <ele>1872.4371337891</ele>
        <time>2010-08-04T16:09:04Z</time>
      </trkpt>
      <trkpt lat="45.41376" lon="6.19285">
        <ele>1871.4259033203</ele>
        <time>2010-08-04T16:09:05Z</time>
      </trkpt>
      <trkpt lat="45.41385" lon="6.19293">
        <ele>1866.5738525391</ele>
        <time>2010-08-04T16:09:11Z</time>
      </trkpt>
      <trkpt lat="45.41392" lon="6.19297">
        <ele>1864.3367919922</ele>
        <time>2010-08-04T16:09:15Z</time>
      </trkpt>
      <trkpt lat="45.41401" lon="6.19304">
        <ele>1862.3649902344</ele>
        <time>2010-08-04T16:09:21Z</time>
      </trkpt>
      <trkpt lat="45.41406" lon="6.19306">
        <ele>1861.4830322266</ele>
        <time>2010-08-04T16:09:25Z</time>
      </trkpt>
      <trkpt lat="45.41413" lon="6.19306">
        <ele>1860.4989013672</ele>
        <time>2010-08-04T16:09:30Z</time>
      </trkpt>
      <trkpt lat="45.41418" lon="6.19312">
        <ele>1859.0592041016</ele>
        <time>2010-08-04T16:09:34Z</time>
      </trkpt>
      <trkpt lat="45.41425" lon="6.19316">
        <ele>1856.9567871094</ele>
        <time>2010-08-04T16:09:39Z</time>
      </trkpt>
      <trkpt lat="45.41435" lon="6.19325">
        <ele>1853.4125976562</ele>
        <time>2010-08-04T16:09:45Z</time>
      </trkpt>
      <trkpt lat="45.41444" lon="6.19327">
        <ele>1850.9187011719</ele>
        <time>2010-08-04T16:09:50Z</time>
      </trkpt>
      <trkpt lat="45.41447" lon="6.19328">
        <ele>1849.7875976562</ele>
        <time>2010-08-04T16:09:52Z</time>
      </trkpt>
      <trkpt lat="45.41455" lon="6.19333">
        <ele>1847.4290771484</ele>
        <time>2010-08-04T16:09:57Z</time>
      </trkpt>
      <trkpt lat="45.4146" lon="6.19335">
        <ele>1845.5266113281</ele>
        <time>2010-08-04T16:10:01Z</time>
      </trkpt>
      <trkpt lat="45.41467" lon="6.19337">
        <ele>1843.3568115234</ele>
        <time>2010-08-04T16:10:05Z</time>
      </trkpt>
      <trkpt lat="45.41473" lon="6.19339">
        <ele>1840.8829345703</ele>
        <time>2010-08-04T16:10:10Z</time>
      </trkpt>
      <trkpt lat="45.41475" lon="6.19339">
        <ele>1840.0223388672</ele>
        <time>2010-08-04T16:10:11Z</time>
      </trkpt>
      <trkpt lat="45.41484" lon="6.19341">
        <ele>1834.8021240234</ele>
        <time>2010-08-04T16:10:17Z</time>
      </trkpt>
      <trkpt lat="45.41487" lon="6.19341">
        <ele>1833.4295654297</ele>
        <time>2010-08-04T16:10:19Z</time>
      </trkpt>
      <trkpt lat="45.41493" lon="6.19345">
        <ele>1829.6032714844</ele>
        <time>2010-08-04T16:10:24Z</time>
      </trkpt>
      <trkpt lat="45.41496" lon="6.19345">
        <ele>1828.3359375</ele>
        <time>2010-08-04T16:10:26Z</time>
      </trkpt>
      <trkpt lat="45.41499" lon="6.19347">
        <ele>1826.3820800781</ele>
        <time>2010-08-04T16:10:29Z</time>
      </trkpt>
      <trkpt lat="45.41509" lon="6.19351">
        <ele>1823.4279785156</ele>
        <time>2010-08-04T16:10:35Z</time>
      </trkpt>
      <trkpt lat="45.4151" lon="6.19352">
        <ele>1823.0609130859</ele>
        <time>2010-08-04T16:10:36Z</time>
      </trkpt>
      <trkpt lat="45.41511" lon="6.19354">
        <ele>1822.822265625</ele>
        <time>2010-08-04T16:10:38Z</time>
      </trkpt>
      <trkpt lat="45.41518" lon="6.19356">
        <ele>1821.4230957031</ele>
        <time>2010-08-04T16:10:42Z</time>
      </trkpt>
      <trkpt lat="45.41528" lon="6.19362">
        <ele>1819.9521484375</ele>
        <time>2010-08-04T16:10:47Z</time>
      </trkpt>
      <trkpt lat="45.41533" lon="6.19355">
        <ele>1818.3634033203</ele>
        <time>2010-08-04T16:10:52Z</time>
      </trkpt>
      <trkpt lat="45.4154" lon="6.19357">
        <ele>1816.5969238281</ele>
        <time>2010-08-04T16:10:56Z</time>
      </trkpt>
      <trkpt lat="45.41546" lon="6.19362">
        <ele>1814.5941162109</ele>
        <time>2010-08-04T16:11:00Z</time>
      </trkpt>
      <trkpt lat="45.41551" lon="6.19368">
        <ele>1812.1799316406</ele>
        <time>2010-08-04T16:11:05Z</time>
      </trkpt>
      <trkpt lat="45.41551" lon="6.19372">
        <ele>1811.5935058594</ele>
        <time>2010-08-04T16:11:07Z</time>
      </trkpt>
      <trkpt lat="45.41555" lon="6.19382">
        <ele>1808.6932373047</ele>
        <time>2010-08-04T16:11:13Z</time>
      </trkpt>
      <trkpt lat="45.41558" lon="6.19385">
        <ele>1807.9493408203</ele>
        <time>2010-08-04T16:11:16Z</time>
      </trkpt>
      <trkpt lat="45.41564" lon="6.19387">
        <ele>1808.0179443359</ele>
        <time>2010-08-04T16:11:19Z</time>
      </trkpt>
      <trkpt lat="45.4157" lon="6.19393">
        <ele>1807.3056640625</ele>
        <time>2010-08-04T16:11:24Z</time>
      </trkpt>
      <trkpt lat="45.41581" lon="6.19401">
        <ele>1806.5760498047</ele>
        <time>2010-08-04T16:11:31Z</time>
      </trkpt>
      <trkpt lat="45.41587" lon="6.19407">
        <ele>1806.2297363281</ele>
        <time>2010-08-04T16:11:35Z</time>
      </trkpt>
      <trkpt lat="45.41591" lon="6.19411">
        <ele>1805.9036865234</ele>
        <time>2010-08-04T16:11:38Z</time>
      </trkpt>
      <trkpt lat="45.41595" lon="6.19416">
        <ele>1805.3114013672</ele>
        <time>2010-08-04T16:11:42Z</time>
      </trkpt>
      <trkpt lat="45.416" lon="6.19426">
        <ele>1803.0922851562</ele>
        <time>2010-08-04T16:11:47Z</time>
      </trkpt>
      <trkpt lat="45.41603" lon="6.19429">
        <ele>1802.4970703125</ele>
        <time>2010-08-04T16:11:49Z</time>
      </trkpt>
      <trkpt lat="45.41613" lon="6.19437">
        <ele>1802.4508056641</ele>
        <time>2010-08-04T16:11:55Z</time>
      </trkpt>
      <trkpt lat="45.41618" lon="6.19444">
        <ele>1801.1518554688</ele>
        <time>2010-08-04T16:12:00Z</time>
      </trkpt>
      <trkpt lat="45.4162" lon="6.19451">
        <ele>1798.5867919922</ele>
        <time>2010-08-04T16:12:04Z</time>
      </trkpt>
      <trkpt lat="45.41626" lon="6.19459">
        <ele>1796.6099853516</ele>
        <time>2010-08-04T16:12:10Z</time>
      </trkpt>
      <trkpt lat="45.41627" lon="6.1946">
        <ele>1796.7469482422</ele>
        <time>2010-08-04T16:12:11Z</time>
      </trkpt>
      <trkpt lat="45.41634" lon="6.1947">
        <ele>1796.6055908203</ele>
        <time>2010-08-04T16:12:18Z</time>
      </trkpt>
      <trkpt lat="45.41636" lon="6.19478">
        <ele>1794.4697265625</ele>
        <time>2010-08-04T16:12:40Z</time>
      </trkpt>
      <trkpt lat="45.4164" lon="6.19483">
        <ele>1793.0623779297</ele>
        <time>2010-08-04T16:12:45Z</time>
      </trkpt>
      <trkpt lat="45.41646" lon="6.19486">
        <ele>1791.1340332031</ele>
        <time>2010-08-04T16:12:50Z</time>
      </trkpt>
      <trkpt lat="45.41648" lon="6.19487">
        <ele>1790.5075683594</ele>
        <time>2010-08-04T16:12:52Z</time>
      </trkpt>
      <trkpt lat="45.41651" lon="6.19493">
        <ele>1788.2885742188</ele>
        <time>2010-08-04T16:12:56Z</time>
      </trkpt>
      <trkpt lat="45.41663" lon="6.19503">
        <ele>1785.4514160156</ele>
        <time>2010-08-04T16:13:04Z</time>
      </trkpt>
      <trkpt lat="45.41667" lon="6.19512">
        <ele>1783.8959960938</ele>
        <time>2010-08-04T16:13:08Z</time>
      </trkpt>
      <trkpt lat="45.4167" lon="6.19516">
        <ele>1782.8830566406</ele>
        <time>2010-08-04T16:13:10Z</time>
      </trkpt>
      <trkpt lat="45.41672" lon="6.1952">
        <ele>1781.9108886719</ele>
        <time>2010-08-04T16:13:12Z</time>
      </trkpt>
      <trkpt lat="45.41679" lon="6.19529">
        <ele>1780.1533203125</ele>
        <time>2010-08-04T16:13:16Z</time>
      </trkpt>
      <trkpt lat="45.41687" lon="6.19538">
        <ele>1778.5355224609</ele>
        <time>2010-08-04T16:13:22Z</time>
      </trkpt>
      <trkpt lat="45.4169" lon="6.19542">
        <ele>1778.8884277344</ele>
        <time>2010-08-04T16:13:25Z</time>
      </trkpt>
      <trkpt lat="45.41693" lon="6.19552">
        <ele>1779.5374755859</ele>
        <time>2010-08-04T16:13:31Z</time>
      </trkpt>
      <trkpt lat="45.41695" lon="6.19553">
        <ele>1779.7993164062</ele>
        <time>2010-08-04T16:13:33Z</time>
      </trkpt>
      <trkpt lat="45.41698" lon="6.19555">
        <ele>1778.8448486328</ele>
        <time>2010-08-04T16:13:35Z</time>
      </trkpt>
      <trkpt lat="45.41704" lon="6.19564">
        <ele>1773.8393554688</ele>
        <time>2010-08-04T16:13:40Z</time>
      </trkpt>
      <trkpt lat="45.41712" lon="6.19578">
        <ele>1767.9674072266</ele>
        <time>2010-08-04T16:13:46Z</time>
      </trkpt>
      <trkpt lat="45.41717" lon="6.19586">
        <ele>1765.9302978516</ele>
        <time>2010-08-04T16:13:50Z</time>
      </trkpt>
      <trkpt lat="45.41726" lon="6.19598">
        <ele>1764.3083496094</ele>
        <time>2010-08-04T16:13:55Z</time>
      </trkpt>
      <trkpt lat="45.41726" lon="6.196">
        <ele>1764.1275634766</ele>
        <time>2010-08-04T16:13:56Z</time>
      </trkpt>
      <trkpt lat="45.41728" lon="6.19605">
        <ele>1763.6798095703</ele>
        <time>2010-08-04T16:13:58Z</time>
      </trkpt>
      <trkpt lat="45.41735" lon="6.19613">
        <ele>1763.2462158203</ele>
        <time>2010-08-04T16:14:02Z</time>
      </trkpt>
      <trkpt lat="45.41743" lon="6.19624">
        <ele>1761.8957519531</ele>
        <time>2010-08-04T16:14:08Z</time>
      </trkpt>
      <trkpt lat="45.41748" lon="6.19631">
        <ele>1762.5031738281</ele>
        <time>2010-08-04T16:14:11Z</time>
      </trkpt>
      <trkpt lat="45.41753" lon="6.19638">
        <ele>1761.8653564453</ele>
        <time>2010-08-04T16:14:15Z</time>
      </trkpt>
      <trkpt lat="45.41758" lon="6.19645">
        <ele>1759.3203125</ele>
        <time>2010-08-04T16:14:20Z</time>
      </trkpt>
      <trkpt lat="45.41762" lon="6.19647">
        <ele>1758.720703125</ele>
        <time>2010-08-04T16:14:22Z</time>
      </trkpt>
      <trkpt lat="45.41769" lon="6.19658">
        <ele>1757.7017822266</ele>
        <time>2010-08-04T16:14:28Z</time>
      </trkpt>
      <trkpt lat="45.41773" lon="6.19664">
        <ele>1758.1364746094</ele>
        <time>2010-08-04T16:14:31Z</time>
      </trkpt>
      <trkpt lat="45.41776" lon="6.19668">
        <ele>1758.7106933594</ele>
        <time>2010-08-04T16:14:33Z</time>
      </trkpt>
      <trkpt lat="45.41779" lon="6.19673">
        <ele>1757.5435791016</ele>
        <time>2010-08-04T16:14:36Z</time>
      </trkpt>
      <trkpt lat="45.41785" lon="6.19681">
        <ele>1752.640625</ele>
        <time>2010-08-04T16:14:42Z</time>
      </trkpt>
      <trkpt lat="45.41787" lon="6.19682">
        <ele>1751.86328125</ele>
        <time>2010-08-04T16:14:43Z</time>
      </trkpt>
      <trkpt lat="45.41791" lon="6.19685">
        <ele>1750.185546875</ele>
        <time>2010-08-04T16:14:45Z</time>
      </trkpt>
      <trkpt lat="45.41796" lon="6.19694">
        <ele>1746.8197021484</ele>
        <time>2010-08-04T16:14:50Z</time>
      </trkpt>
      <trkpt lat="45.41796" lon="6.19695">
        <ele>1746.4523925781</ele>
        <time>2010-08-04T16:14:51Z</time>
      </trkpt>
      <trkpt lat="45.418" lon="6.19704">
        <ele>1744.4935302734</ele>
        <time>2010-08-04T16:14:56Z</time>
      </trkpt>
      <trkpt lat="45.41807" lon="6.19713">
        <ele>1742.7506103516</ele>
        <time>2010-08-04T16:15:02Z</time>
      </trkpt>
      <trkpt lat="45.41811" lon="6.19714">
        <ele>1742.1519775391</ele>
        <time>2010-08-04T16:15:05Z</time>
      </trkpt>
      <trkpt lat="45.41814" lon="6.19716">
        <ele>1741.6002197266</ele>
        <time>2010-08-04T16:15:07Z</time>
      </trkpt>
      <trkpt lat="45.4182" lon="6.19722">
        <ele>1740.3797607422</ele>
        <time>2010-08-04T16:15:11Z</time>
      </trkpt>
      <trkpt lat="45.41821" lon="6.19724">
        <ele>1739.9698486328</ele>
        <time>2010-08-04T16:15:13Z</time>
      </trkpt>
      <trkpt lat="45.41821" lon="6.19736">
        <ele>1737.9923095703</ele>
        <time>2010-08-04T16:15:18Z</time>
      </trkpt>
      <trkpt lat="45.41827" lon="6.19745">
        <ele>1738.0653076172</ele>
        <time>2010-08-04T16:15:22Z</time>
      </trkpt>
      <trkpt lat="45.41837" lon="6.19754">
        <ele>1737.2214355469</ele>
        <time>2010-08-04T16:15:27Z</time>
      </trkpt>
      <trkpt lat="45.41839" lon="6.19755">
        <ele>1735.9741210938</ele>
        <time>2010-08-04T16:15:28Z</time>
      </trkpt>
      <trkpt lat="45.41843" lon="6.19757">
        <ele>1733.6412353516</ele>
        <time>2010-08-04T16:15:30Z</time>
      </trkpt>
      <trkpt lat="45.41849" lon="6.19765">
        <ele>1729.9348144531</ele>
        <time>2010-08-04T16:15:34Z</time>
      </trkpt>
      <trkpt lat="45.4186" lon="6.19779">
        <ele>1725.0848388672</ele>
        <time>2010-08-04T16:15:40Z</time>
      </trkpt>
      <trkpt lat="45.41862" lon="6.1978">
        <ele>1724.4571533203</ele>
        <time>2010-08-04T16:15:41Z</time>
      </trkpt>
      <trkpt lat="45.41872" lon="6.19791">
        <ele>1721.9237060547</ele>
        <time>2010-08-04T16:15:48Z</time>
      </trkpt>
      <trkpt lat="45.41875" lon="6.19794">
        <ele>1721.3621826172</ele>
        <time>2010-08-04T16:15:50Z</time>
      </trkpt>
      <trkpt lat="45.41882" lon="6.19802">
        <ele>1720.3411865234</ele>
        <time>2010-08-04T16:15:56Z</time>
      </trkpt>
      <trkpt lat="45.4189" lon="6.19811">
        <ele>1718.9559326172</ele>
        <time>2010-08-04T16:16:01Z</time>
      </trkpt>
      <trkpt lat="45.41893" lon="6.19813">
        <ele>1718.7469482422</ele>
        <time>2010-08-04T16:16:03Z</time>
      </trkpt>
      <trkpt lat="45.41903" lon="6.19817">
        <ele>1718.6867675781</ele>
        <time>2010-08-04T16:16:10Z</time>
      </trkpt>
      <trkpt lat="45.41911" lon="6.19825">
        <ele>1719.0860595703</ele>
        <time>2010-08-04T16:16:16Z</time>
      </trkpt>
      <trkpt lat="45.41914" lon="6.19828">
        <ele>1719.3819580078</ele>
        <time>2010-08-04T16:16:18Z</time>
      </trkpt>
      <trkpt lat="45.41924" lon="6.19835">
        <ele>1715.1335449219</ele>
        <time>2010-08-04T16:16:24Z</time>
      </trkpt>
      <trkpt lat="45.41933" lon="6.19836">
        <ele>1709.2829589844</ele>
        <time>2010-08-04T16:16:29Z</time>
      </trkpt>
      <trkpt lat="45.4194" lon="6.19836">
        <ele>1705.333984375</ele>
        <time>2010-08-04T16:16:33Z</time>
      </trkpt>
      <trkpt lat="45.41956" lon="6.19842">
        <ele>1699.0660400391</ele>
        <time>2010-08-04T16:16:40Z</time>
      </trkpt>
      <trkpt lat="45.41961" lon="6.19841">
        <ele>1698.0390625</ele>
        <time>2010-08-04T16:16:42Z</time>
      </trkpt>
      <trkpt lat="45.41971" lon="6.19843">
        <ele>1695.2980957031</ele>
        <time>2010-08-04T16:16:47Z</time>
      </trkpt>
      <trkpt lat="45.41978" lon="6.19842">
        <ele>1694.3016357422</ele>
        <time>2010-08-04T16:16:51Z</time>
      </trkpt>
      <trkpt lat="45.4199" lon="6.19844">
        <ele>1692.1146240234</ele>
        <time>2010-08-04T16:16:56Z</time>
      </trkpt>
      <trkpt lat="45.42002" lon="6.1985">
        <ele>1688.9521484375</ele>
        <time>2010-08-04T16:17:02Z</time>
      </trkpt>
      <trkpt lat="45.42004" lon="6.19852">
        <ele>1688.2723388672</ele>
        <time>2010-08-04T16:17:03Z</time>
      </trkpt>
      <trkpt lat="45.42016" lon="6.19853">
        <ele>1685.1823730469</ele>
        <time>2010-08-04T16:17:09Z</time>
      </trkpt>
      <trkpt lat="45.42021" lon="6.19858">
        <ele>1683.1739501953</ele>
        <time>2010-08-04T16:17:13Z</time>
      </trkpt>
      <trkpt lat="45.42023" lon="6.1986">
        <ele>1682.1851806641</ele>
        <time>2010-08-04T16:17:15Z</time>
      </trkpt>
      <trkpt lat="45.42027" lon="6.19864">
        <ele>1681.2510986328</ele>
        <time>2010-08-04T16:17:18Z</time>
      </trkpt>
      <trkpt lat="45.42033" lon="6.19865">
        <ele>1680.0590820312</ele>
        <time>2010-08-04T16:17:24Z</time>
      </trkpt>
      <trkpt lat="45.42041" lon="6.19866">
        <ele>1678.6857910156</ele>
        <time>2010-08-04T16:17:30Z</time>
      </trkpt>
      <trkpt lat="45.42042" lon="6.19866">
        <ele>1678.4111328125</ele>
        <time>2010-08-04T16:17:31Z</time>
      </trkpt>
      <trkpt lat="45.42051" lon="6.19868">
        <ele>1676.8319091797</ele>
        <time>2010-08-04T16:17:36Z</time>
      </trkpt>
      <trkpt lat="45.42057" lon="6.19872">
        <ele>1675.4260253906</ele>
        <time>2010-08-04T16:17:40Z</time>
      </trkpt>
      <trkpt lat="45.4206" lon="6.19873">
        <ele>1674.0809326172</ele>
        <time>2010-08-04T16:17:42Z</time>
      </trkpt>
      <trkpt lat="45.4207" lon="6.19874">
        <ele>1670.1790771484</ele>
        <time>2010-08-04T16:17:47Z</time>
      </trkpt>
      <trkpt lat="45.42086" lon="6.19872">
        <ele>1664.6508789062</ele>
        <time>2010-08-04T16:17:53Z</time>
      </trkpt>
      <trkpt lat="45.42096" lon="6.19872">
        <ele>1662.6490478516</ele>
        <time>2010-08-04T16:17:57Z</time>
      </trkpt>
      <trkpt lat="45.42101" lon="6.19872">
        <ele>1661.4508056641</ele>
        <time>2010-08-04T16:18:00Z</time>
      </trkpt>
      <trkpt lat="45.42111" lon="6.19872">
        <ele>1659.4686279297</ele>
        <time>2010-08-04T16:18:06Z</time>
      </trkpt>
      <trkpt lat="45.42122" lon="6.19875">
        <ele>1659.3153076172</ele>
        <time>2010-08-04T16:18:11Z</time>
      </trkpt>
      <trkpt lat="45.42131" lon="6.19876">
        <ele>1659.2150878906</ele>
        <time>2010-08-04T16:18:16Z</time>
      </trkpt>
      <trkpt lat="45.42142" lon="6.19879">
        <ele>1658.9178466797</ele>
        <time>2010-08-04T16:18:22Z</time>
      </trkpt>
      <trkpt lat="45.42147" lon="6.19881">
        <ele>1658.6813964844</ele>
        <time>2010-08-04T16:18:24Z</time>
      </trkpt>
      <trkpt lat="45.42159" lon="6.19888">
        <ele>1659.6763916016</ele>
        <time>2010-08-04T16:18:30Z</time>
      </trkpt>
      <trkpt lat="45.42167" lon="6.19894">
        <ele>1660</ele>
        <time>2010-08-04T16:18:34Z</time>
      </trkpt>
      <trkpt lat="45.42175" lon="6.19904">
        <ele>1660</ele>
        <time>2010-08-04T16:18:39Z</time>
      </trkpt>
      <trkpt lat="45.42183" lon="6.19915">
        <ele>1660</ele>
        <time>2010-08-04T16:18:44Z</time>
      </trkpt>
      <trkpt lat="45.42184" lon="6.19917">
        <ele>1659.927734375</ele>
        <time>2010-08-04T16:18:45Z</time>
      </trkpt>
      <trkpt lat="45.42189" lon="6.19933">
        <ele>1658.0490722656</ele>
        <time>2010-08-04T16:18:52Z</time>
      </trkpt>
      <trkpt lat="45.42195" lon="6.19946">
        <ele>1656.8679199219</ele>
        <time>2010-08-04T16:18:57Z</time>
      </trkpt>
      <trkpt lat="45.42201" lon="6.1996">
        <ele>1655.9190673828</ele>
        <time>2010-08-04T16:19:02Z</time>
      </trkpt>
      <trkpt lat="45.42206" lon="6.19966">
        <ele>1655.6427001953</ele>
        <time>2010-08-04T16:19:05Z</time>
      </trkpt>
      <trkpt lat="45.42212" lon="6.1996">
        <ele>1656.87890625</ele>
        <time>2010-08-04T16:19:11Z</time>
      </trkpt>
      <trkpt lat="45.42221" lon="6.19963">
        <ele>1657.3277587891</ele>
        <time>2010-08-04T16:19:17Z</time>
      </trkpt>
      <trkpt lat="45.42235" lon="6.19966">
        <ele>1656.8482666016</ele>
        <time>2010-08-04T16:19:23Z</time>
      </trkpt>
      <trkpt lat="45.42239" lon="6.19959">
        <ele>1657.6314697266</ele>
        <time>2010-08-04T16:19:28Z</time>
      </trkpt>
      <trkpt lat="45.42241" lon="6.19952">
        <ele>1658.3883056641</ele>
        <time>2010-08-04T16:19:32Z</time>
      </trkpt>
      <trkpt lat="45.42244" lon="6.19948">
        <ele>1658.861328125</ele>
        <time>2010-08-04T16:19:34Z</time>
      </trkpt>
      <trkpt lat="45.42248" lon="6.1994">
        <ele>1658.109375</ele>
        <time>2010-08-04T16:19:38Z</time>
      </trkpt>
      <trkpt lat="45.42255" lon="6.19938">
        <ele>1654.4926757812</ele>
        <time>2010-08-04T16:19:45Z</time>
      </trkpt>
      <trkpt lat="45.4226" lon="6.19934">
        <ele>1650.9399414062</ele>
        <time>2010-08-04T16:19:50Z</time>
      </trkpt>
      <trkpt lat="45.42268" lon="6.19927">
        <ele>1646.0478515625</ele>
        <time>2010-08-04T16:19:56Z</time>
      </trkpt>
      <trkpt lat="45.42271" lon="6.19925">
        <ele>1644.2421875</ele>
        <time>2010-08-04T16:19:59Z</time>
      </trkpt>
      <trkpt lat="45.42275" lon="6.19915">
        <ele>1642.0526123047</ele>
        <time>2010-08-04T16:20:04Z</time>
      </trkpt>
      <trkpt lat="45.42274" lon="6.1991">
        <ele>1641.9116210938</ele>
        <time>2010-08-04T16:20:07Z</time>
      </trkpt>
      <trkpt lat="45.42278" lon="6.19905">
        <ele>1640.5855712891</ele>
        <time>2010-08-04T16:20:11Z</time>
      </trkpt>
      <trkpt lat="45.42287" lon="6.19904">
        <ele>1640.4273681641</ele>
        <time>2010-08-04T16:20:16Z</time>
      </trkpt>
      <trkpt lat="45.42291" lon="6.19901">
        <ele>1640.1212158203</ele>
        <time>2010-08-04T16:20:19Z</time>
      </trkpt>
      <trkpt lat="45.42298" lon="6.19896">
        <ele>1639.3792724609</ele>
        <time>2010-08-04T16:20:24Z</time>
      </trkpt>
      <trkpt lat="45.42307" lon="6.19892">
        <ele>1638.1853027344</ele>
        <time>2010-08-04T16:20:29Z</time>
      </trkpt>
      <trkpt lat="45.42308" lon="6.19891">
        <ele>1637.7944335938</ele>
        <time>2010-08-04T16:20:30Z</time>
      </trkpt>
      <trkpt lat="45.42317" lon="6.19889">
        <ele>1635.9702148438</ele>
        <time>2010-08-04T16:20:35Z</time>
      </trkpt>
      <trkpt lat="45.42325" lon="6.19881">
        <ele>1634.3570556641</ele>
        <time>2010-08-04T16:20:41Z</time>
      </trkpt>
      <trkpt lat="45.42331" lon="6.19874">
        <ele>1633.3374023438</ele>
        <time>2010-08-04T16:20:46Z</time>
      </trkpt>
      <trkpt lat="45.42333" lon="6.19868">
        <ele>1633.0141601562</ele>
        <time>2010-08-04T16:20:48Z</time>
      </trkpt>
      <trkpt lat="45.42342" lon="6.19857">
        <ele>1632.2584228516</ele>
        <time>2010-08-04T16:20:54Z</time>
      </trkpt>
      <trkpt lat="45.42345" lon="6.19853">
        <ele>1631.8721923828</ele>
        <time>2010-08-04T16:20:57Z</time>
      </trkpt>
      <trkpt lat="45.42353" lon="6.19847">
        <ele>1631.0601806641</ele>
        <time>2010-08-04T16:21:03Z</time>
      </trkpt>
      <trkpt lat="45.42355" lon="6.19848">
        <ele>1630.9555664062</ele>
        <time>2010-08-04T16:21:05Z</time>
      </trkpt>
      <trkpt lat="45.42359" lon="6.19852">
        <ele>1630.8576660156</ele>
        <time>2010-08-04T16:21:12Z</time>
      </trkpt>
      <trkpt lat="45.42359" lon="6.19856">
        <ele>1630.9641113281</ele>
        <time>2010-08-04T16:21:16Z</time>
      </trkpt>
      <trkpt lat="45.42357" lon="6.1986">
        <ele>1631.2198486328</ele>
        <time>2010-08-04T16:21:22Z</time>
      </trkpt>
      <trkpt lat="45.42357" lon="6.19863">
        <ele>1631.2062988281</ele>
        <time>2010-08-04T16:21:27Z</time>
      </trkpt>
      <trkpt lat="45.4236" lon="6.19866">
        <ele>1630.8941650391</ele>
        <time>2010-08-04T16:21:34Z</time>
      </trkpt>
      <trkpt lat="45.42362" lon="6.1987">
        <ele>1630.6164550781</ele>
        <time>2010-08-04T16:21:41Z</time>
      </trkpt>
      <trkpt lat="45.42365" lon="6.19874">
        <ele>1630.2890625</ele>
        <time>2010-08-04T16:21:49Z</time>
      </trkpt>
      <trkpt lat="45.42367" lon="6.19875">
        <ele>1630.193359375</ele>
        <time>2010-08-04T16:22:05Z</time>
      </trkpt>
      <trkpt lat="45.42369" lon="6.1988">
        <ele>1630.1586914062</ele>
        <time>2010-08-04T16:22:15Z</time>
      </trkpt>
      <trkpt lat="45.42371" lon="6.19883">
        <ele>1630.1916503906</ele>
        <time>2010-08-04T16:22:20Z</time>
      </trkpt>
      <trkpt lat="45.42375" lon="6.19883">
        <ele>1630.1931152344</ele>
        <time>2010-08-04T16:22:25Z</time>
      </trkpt>
      <trkpt lat="45.42381" lon="6.19878">
        <ele>1629.6817626953</ele>
        <time>2010-08-04T16:22:34Z</time>
      </trkpt>
      <trkpt lat="45.42385" lon="6.19875">
        <ele>1629.1492919922</ele>
        <time>2010-08-04T16:22:40Z</time>
      </trkpt>
      <trkpt lat="45.4239" lon="6.19875">
        <ele>1629.2416992188</ele>
        <time>2010-08-04T16:22:47Z</time>
      </trkpt>
      <trkpt lat="45.42384" lon="6.19873">
        <ele>1629.0520019531</ele>
        <time>2010-08-04T16:22:54Z</time>
      </trkpt>
      <trkpt lat="45.42381" lon="6.19879">
        <ele>1629.7788085938</ele>
        <time>2010-08-04T16:23:01Z</time>
      </trkpt>
      <trkpt lat="45.42378" lon="6.19885">
        <ele>1630.3404541016</ele>
        <time>2010-08-04T16:23:09Z</time>
      </trkpt>
      <trkpt lat="45.42379" lon="6.19896">
        <ele>1631.9500732422</ele>
        <time>2010-08-04T16:23:18Z</time>
      </trkpt>
      <trkpt lat="45.42381" lon="6.19904">
        <ele>1633.7336425781</ele>
        <time>2010-08-04T16:23:25Z</time>
      </trkpt>
      <trkpt lat="45.42383" lon="6.19911">
        <ele>1635.6440429688</ele>
        <time>2010-08-04T16:23:32Z</time>
      </trkpt>
      <trkpt lat="45.42386" lon="6.19916">
        <ele>1637.1740722656</ele>
        <time>2010-08-04T16:23:38Z</time>
      </trkpt>
      <trkpt lat="45.42392" lon="6.19915">
        <ele>1639.3059082031</ele>
        <time>2010-08-04T16:23:50Z</time>
      </trkpt>
      <trkpt lat="45.42395" lon="6.19915">
        <ele>1640.994140625</ele>
        <time>2010-08-04T16:23:54Z</time>
      </trkpt>
      <trkpt lat="45.42398" lon="6.19916">
        <ele>1642.7905273438</ele>
        <time>2010-08-04T16:24:00Z</time>
      </trkpt>
      <trkpt lat="45.424" lon="6.19913">
        <ele>1643.109375</ele>
        <time>2010-08-04T16:24:06Z</time>
      </trkpt>
      <trkpt lat="45.42405" lon="6.19905">
        <ele>1643.4621582031</ele>
        <time>2010-08-04T16:24:16Z</time>
      </trkpt>
      <trkpt lat="45.42412" lon="6.19906">
        <ele>1647.2022705078</ele>
        <time>2010-08-04T16:24:23Z</time>
      </trkpt>
      <trkpt lat="45.42414" lon="6.19905">
        <ele>1647.8005371094</ele>
        <time>2010-08-04T16:24:27Z</time>
      </trkpt>
      <trkpt lat="45.42419" lon="6.199">
        <ele>1648.5949707031</ele>
        <time>2010-08-04T16:24:35Z</time>
      </trkpt>
      <trkpt lat="45.42424" lon="6.19899">
        <ele>1649.8123779297</ele>
        <time>2010-08-04T16:24:41Z</time>
      </trkpt>
      <trkpt lat="45.42429" lon="6.199">
        <ele>1651.5009765625</ele>
        <time>2010-08-04T16:24:47Z</time>
      </trkpt>
      <trkpt lat="45.42435" lon="6.19897">
        <ele>1652.9458007812</ele>
        <time>2010-08-04T16:24:53Z</time>
      </trkpt>
      <trkpt lat="45.42437" lon="6.19896">
        <ele>1653.1839599609</ele>
        <time>2010-08-04T16:24:55Z</time>
      </trkpt>
      <trkpt lat="45.42445" lon="6.19893">
        <ele>1654.6301269531</ele>
        <time>2010-08-04T16:25:04Z</time>
      </trkpt>
      <trkpt lat="45.42446" lon="6.19896">
        <ele>1656.1629638672</ele>
        <time>2010-08-04T16:25:09Z</time>
      </trkpt>
      <trkpt lat="45.42445" lon="6.19899">
        <ele>1656.6568603516</ele>
        <time>2010-08-04T16:25:14Z</time>
      </trkpt>
      <trkpt lat="45.42442" lon="6.19902">
        <ele>1656.8516845703</ele>
        <time>2010-08-04T16:25:21Z</time>
      </trkpt>
      <trkpt lat="45.4244" lon="6.1991">
        <ele>1658.9323730469</ele>
        <time>2010-08-04T16:25:30Z</time>
      </trkpt>
      <trkpt lat="45.42442" lon="6.19913">
        <ele>1660.6909179688</ele>
        <time>2010-08-04T16:25:35Z</time>
      </trkpt>
      <trkpt lat="45.42439" lon="6.19922">
        <ele>1662.4647216797</ele>
        <time>2010-08-04T16:25:44Z</time>
      </trkpt>
      <trkpt lat="45.42437" lon="6.19928">
        <ele>1663.7708740234</ele>
        <time>2010-08-04T16:25:51Z</time>
      </trkpt>
      <trkpt lat="45.42433" lon="6.19935">
        <ele>1664.6525878906</ele>
        <time>2010-08-04T16:25:59Z</time>
      </trkpt>
      <trkpt lat="45.4243" lon="6.19942">
        <ele>1665.6842041016</ele>
        <time>2010-08-04T16:26:06Z</time>
      </trkpt>
      <trkpt lat="45.42429" lon="6.1995">
        <ele>1667.6025390625</ele>
        <time>2010-08-04T16:26:12Z</time>
      </trkpt>
      <trkpt lat="45.42429" lon="6.19956">
        <ele>1669.5384521484</ele>
        <time>2010-08-04T16:26:18Z</time>
      </trkpt>
      <trkpt lat="45.4243" lon="6.19963">
        <ele>1671.8801269531</ele>
        <time>2010-08-04T16:26:25Z</time>
      </trkpt>
      <trkpt lat="45.4243" lon="6.19968">
        <ele>1673.7985839844</ele>
        <time>2010-08-04T16:26:30Z</time>
      </trkpt>
      <trkpt lat="45.42434" lon="6.19977">
        <ele>1677.9165039062</ele>
        <time>2010-08-04T16:26:38Z</time>
      </trkpt>
      <trkpt lat="45.42437" lon="6.19977">
        <ele>1678.9464111328</ele>
        <time>2010-08-04T16:26:43Z</time>
      </trkpt>
      <trkpt lat="45.42439" lon="6.19976">
        <ele>1679.3068847656</ele>
        <time>2010-08-04T16:26:48Z</time>
      </trkpt>
      <trkpt lat="45.42441" lon="6.19977">
        <ele>1680.2683105469</ele>
        <time>2010-08-04T16:26:52Z</time>
      </trkpt>
      <trkpt lat="45.42444" lon="6.1998">
        <ele>1682.6199951172</ele>
        <time>2010-08-04T16:26:58Z</time>
      </trkpt>
      <trkpt lat="45.42446" lon="6.19984">
        <ele>1684.7659912109</ele>
        <time>2010-08-04T16:27:05Z</time>
      </trkpt>
      <trkpt lat="45.42443" lon="6.19987">
        <ele>1684.9888916016</ele>
        <time>2010-08-04T16:27:11Z</time>
      </trkpt>
      <trkpt lat="45.42444" lon="6.19991">
        <ele>1686.3966064453</ele>
        <time>2010-08-04T16:27:16Z</time>
      </trkpt>
      <trkpt lat="45.42447" lon="6.19993">
        <ele>1688.1215820312</ele>
        <time>2010-08-04T16:27:21Z</time>
      </trkpt>
      <trkpt lat="45.4245" lon="6.19993">
        <ele>1689.1218261719</ele>
        <time>2010-08-04T16:27:27Z</time>
      </trkpt>
      <trkpt lat="45.42453" lon="6.19992">
        <ele>1689.8121337891</ele>
        <time>2010-08-04T16:27:32Z</time>
      </trkpt>
      <trkpt lat="45.42455" lon="6.19992">
        <ele>1690.4364013672</ele>
        <time>2010-08-04T16:27:39Z</time>
      </trkpt>
      <trkpt lat="45.4246" lon="6.19994">
        <ele>1692.5533447266</ele>
        <time>2010-08-04T16:27:46Z</time>
      </trkpt>
      <trkpt lat="45.42464" lon="6.19998">
        <ele>1695.1817626953</ele>
        <time>2010-08-04T16:27:58Z</time>
      </trkpt>
      <trkpt lat="45.42466" lon="6.20001">
        <ele>1696.6746826172</ele>
        <time>2010-08-04T16:28:03Z</time>
      </trkpt>
      <trkpt lat="45.42465" lon="6.20002">
        <ele>1696.7313232422</ele>
        <time>2010-08-04T16:28:08Z</time>
      </trkpt>
      <trkpt lat="45.42465" lon="6.20006">
        <ele>1697.9364013672</ele>
        <time>2010-08-04T16:28:14Z</time>
      </trkpt>
      <trkpt lat="45.42469" lon="6.20012">
        <ele>1700.9370117188</ele>
        <time>2010-08-04T16:28:22Z</time>
      </trkpt>
      <trkpt lat="45.42472" lon="6.20017">
        <ele>1703.5395507812</ele>
        <time>2010-08-04T16:28:30Z</time>
      </trkpt>
      <trkpt lat="45.42475" lon="6.20022">
        <ele>1705.4671630859</ele>
        <time>2010-08-04T16:28:38Z</time>
      </trkpt>
      <trkpt lat="45.42474" lon="6.20025">
        <ele>1706.5289306641</ele>
        <time>2010-08-04T16:28:43Z</time>
      </trkpt>
      <trkpt lat="45.42472" lon="6.2003">
        <ele>1707.8001708984</ele>
        <time>2010-08-04T16:28:51Z</time>
      </trkpt>
      <trkpt lat="45.42468" lon="6.20036">
        <ele>1708.7957763672</ele>
        <time>2010-08-04T16:28:59Z</time>
      </trkpt>
      <trkpt lat="45.42466" lon="6.20045">
        <ele>1711.3364257812</ele>
        <time>2010-08-04T16:29:08Z</time>
      </trkpt>
      <trkpt lat="45.42464" lon="6.20051">
        <ele>1713.0048828125</ele>
        <time>2010-08-04T16:29:16Z</time>
      </trkpt>
      <trkpt lat="45.42462" lon="6.2006">
        <ele>1715.3365478516</ele>
        <time>2010-08-04T16:29:24Z</time>
      </trkpt>
      <trkpt lat="45.42459" lon="6.2007">
        <ele>1718.1008300781</ele>
        <time>2010-08-04T16:29:33Z</time>
      </trkpt>
      <trkpt lat="45.42458" lon="6.2008">
        <ele>1720.7801513672</ele>
        <time>2010-08-04T16:29:41Z</time>
      </trkpt>
      <trkpt lat="45.42456" lon="6.20087">
        <ele>1722.7491455078</ele>
        <time>2010-08-04T16:29:48Z</time>
      </trkpt>
      <trkpt lat="45.42459" lon="6.20096">
        <ele>1725.6558837891</ele>
        <time>2010-08-04T16:29:55Z</time>
      </trkpt>
      <trkpt lat="45.42461" lon="6.20102">
        <ele>1727.9760742188</ele>
        <time>2010-08-04T16:30:02Z</time>
      </trkpt>
      <trkpt lat="45.42461" lon="6.2011">
        <ele>1730.041015625</ele>
        <time>2010-08-04T16:30:11Z</time>
      </trkpt>
      <trkpt lat="45.42458" lon="6.2012">
        <ele>1732.4930419922</ele>
        <time>2010-08-04T16:30:21Z</time>
      </trkpt>
      <trkpt lat="45.42454" lon="6.20124">
        <ele>1733.1110839844</ele>
        <time>2010-08-04T16:30:28Z</time>
      </trkpt>
      <trkpt lat="45.42449" lon="6.20129">
        <ele>1733.7839355469</ele>
        <time>2010-08-04T16:30:35Z</time>
      </trkpt>
      <trkpt lat="45.42444" lon="6.20137">
        <ele>1735.4548339844</ele>
        <time>2010-08-04T16:30:43Z</time>
      </trkpt>
      <trkpt lat="45.42437" lon="6.2014">
        <ele>1734.4829101562</ele>
        <time>2010-08-04T16:30:50Z</time>
      </trkpt>
      <trkpt lat="45.4243" lon="6.20142">
        <ele>1732.7429199219</ele>
        <time>2010-08-04T16:30:58Z</time>
      </trkpt>
      <trkpt lat="45.42425" lon="6.20145">
        <ele>1732.5162353516</ele>
        <time>2010-08-04T16:31:05Z</time>
      </trkpt>
      <trkpt lat="45.4242" lon="6.20151">
        <ele>1733.3364257812</ele>
        <time>2010-08-04T16:31:12Z</time>
      </trkpt>
      <trkpt lat="45.42415" lon="6.20151">
        <ele>1731.5595703125</ele>
        <time>2010-08-04T16:31:19Z</time>
      </trkpt>
      <trkpt lat="45.42413" lon="6.20147">
        <ele>1729.2485351562</ele>
        <time>2010-08-04T16:31:25Z</time>
      </trkpt>
      <trkpt lat="45.42414" lon="6.20151">
        <ele>1730.8153076172</ele>
        <time>2010-08-04T16:31:31Z</time>
      </trkpt>
      <trkpt lat="45.42416" lon="6.20152">
        <ele>1732.3671875</ele>
        <time>2010-08-04T16:31:38Z</time>
      </trkpt>
      <trkpt lat="45.42421" lon="6.20154">
        <ele>1734.4399414062</ele>
        <time>2010-08-04T16:31:46Z</time>
      </trkpt>
      <trkpt lat="45.42425" lon="6.20157">
        <ele>1736.7501220703</ele>
        <time>2010-08-04T16:31:54Z</time>
      </trkpt>
      <trkpt lat="45.42428" lon="6.20161">
        <ele>1739.0876464844</ele>
        <time>2010-08-04T16:32:01Z</time>
      </trkpt>
      <trkpt lat="45.42432" lon="6.20167">
        <ele>1741.9389648438</ele>
        <time>2010-08-04T16:32:10Z</time>
      </trkpt>
      <trkpt lat="45.42438" lon="6.20171">
        <ele>1744.6301269531</ele>
        <time>2010-08-04T16:32:19Z</time>
      </trkpt>
      <trkpt lat="45.4244" lon="6.20177">
        <ele>1746.9956054688</ele>
        <time>2010-08-04T16:32:28Z</time>
      </trkpt>
      <trkpt lat="45.42441" lon="6.20181">
        <ele>1748.7362060547</ele>
        <time>2010-08-04T16:32:36Z</time>
      </trkpt>
      <trkpt lat="45.42444" lon="6.20186">
        <ele>1751.3317871094</ele>
        <time>2010-08-04T16:32:45Z</time>
      </trkpt>
      <trkpt lat="45.42443" lon="6.20192">
        <ele>1752.9093017578</ele>
        <time>2010-08-04T16:32:55Z</time>
      </trkpt>
      <trkpt lat="45.4244" lon="6.20198">
        <ele>1753.8194580078</ele>
        <time>2010-08-04T16:33:03Z</time>
      </trkpt>
      <trkpt lat="45.42437" lon="6.20203">
        <ele>1754.5061035156</ele>
        <time>2010-08-04T16:33:11Z</time>
      </trkpt>
      <trkpt lat="45.4243" lon="6.20207">
        <ele>1754.01171875</ele>
        <time>2010-08-04T16:33:20Z</time>
      </trkpt>
      <trkpt lat="45.42426" lon="6.2021">
        <ele>1753.6821289062</ele>
        <time>2010-08-04T16:33:28Z</time>
      </trkpt>
      <trkpt lat="45.42424" lon="6.20214">
        <ele>1754.2451171875</ele>
        <time>2010-08-04T16:33:34Z</time>
      </trkpt>
      <trkpt lat="45.42426" lon="6.20218">
        <ele>1756.0578613281</ele>
        <time>2010-08-04T16:33:40Z</time>
      </trkpt>
      <trkpt lat="45.42424" lon="6.20223">
        <ele>1757.1346435547</ele>
        <time>2010-08-04T16:33:47Z</time>
      </trkpt>
      <trkpt lat="45.42424" lon="6.20229">
        <ele>1758.6231689453</ele>
        <time>2010-08-04T16:33:53Z</time>
      </trkpt>
      <trkpt lat="45.42427" lon="6.2024">
        <ele>1761.6981201172</ele>
        <time>2010-08-04T16:34:03Z</time>
      </trkpt>
      <trkpt lat="45.42429" lon="6.20248">
        <ele>1764.1320800781</ele>
        <time>2010-08-04T16:34:12Z</time>
      </trkpt>
      <trkpt lat="45.4243" lon="6.20253">
        <ele>1765.673828125</ele>
        <time>2010-08-04T16:34:20Z</time>
      </trkpt>
      <trkpt lat="45.42431" lon="6.20257">
        <ele>1766.6589355469</ele>
        <time>2010-08-04T16:34:26Z</time>
      </trkpt>
      <trkpt lat="45.42432" lon="6.20262">
        <ele>1767.7877197266</ele>
        <time>2010-08-04T16:34:32Z</time>
      </trkpt>
      <trkpt lat="45.42433" lon="6.20265">
        <ele>1768.9177246094</ele>
        <time>2010-08-04T16:34:37Z</time>
      </trkpt>
      <trkpt lat="45.42436" lon="6.20267">
        <ele>1770.00390625</ele>
        <time>2010-08-04T16:34:43Z</time>
      </trkpt>
      <trkpt lat="45.42437" lon="6.2027">
        <ele>1770.9862060547</ele>
        <time>2010-08-04T16:34:49Z</time>
      </trkpt>
      <trkpt lat="45.42438" lon="6.20273">
        <ele>1771.9575195312</ele>
        <time>2010-08-04T16:34:55Z</time>
      </trkpt>
      <trkpt lat="45.42441" lon="6.20276">
        <ele>1773.5850830078</ele>
        <time>2010-08-04T16:35:03Z</time>
      </trkpt>
      <trkpt lat="45.42442" lon="6.2028">
        <ele>1774.6800537109</ele>
        <time>2010-08-04T16:35:11Z</time>
      </trkpt>
      <trkpt lat="45.42443" lon="6.20286">
        <ele>1776.5673828125</ele>
        <time>2010-08-04T16:35:19Z</time>
      </trkpt>
      <trkpt lat="45.42445" lon="6.20291">
        <ele>1778.3862304688</ele>
        <time>2010-08-04T16:35:25Z</time>
      </trkpt>
      <trkpt lat="45.42447" lon="6.20295">
        <ele>1780.1689453125</ele>
        <time>2010-08-04T16:35:32Z</time>
      </trkpt>
      <trkpt lat="45.42448" lon="6.20295">
        <ele>1780.7642822266</ele>
        <time>2010-08-04T16:35:38Z</time>
      </trkpt>
      <trkpt lat="45.4245" lon="6.20299">
        <ele>1782.4201660156</ele>
        <time>2010-08-04T16:35:45Z</time>
      </trkpt>
      <trkpt lat="45.42453" lon="6.20301">
        <ele>1783.9802246094</ele>
        <time>2010-08-04T16:35:52Z</time>
      </trkpt>
      <trkpt lat="45.42457" lon="6.20305">
        <ele>1786.3012695312</ele>
        <time>2010-08-04T16:35:59Z</time>
      </trkpt>
      <trkpt lat="45.4246" lon="6.20311">
        <ele>1788.8762207031</ele>
        <time>2010-08-04T16:36:07Z</time>
      </trkpt>
      <trkpt lat="45.42464" lon="6.20318">
        <ele>1792.1416015625</ele>
        <time>2010-08-04T16:36:15Z</time>
      </trkpt>
      <trkpt lat="45.42468" lon="6.20325">
        <ele>1795.8989257812</ele>
        <time>2010-08-04T16:36:25Z</time>
      </trkpt>
      <trkpt lat="45.42471" lon="6.20332">
        <ele>1798.9370117188</ele>
        <time>2010-08-04T16:36:33Z</time>
      </trkpt>
      <trkpt lat="45.42474" lon="6.20336">
        <ele>1800.7628173828</ele>
        <time>2010-08-04T16:36:40Z</time>
      </trkpt>
      <trkpt lat="45.42479" lon="6.20335">
        <ele>1802.6337890625</ele>
        <time>2010-08-04T16:36:48Z</time>
      </trkpt>
      <trkpt lat="45.42481" lon="6.20335">
        <ele>1803.5526123047</ele>
        <time>2010-08-04T16:36:55Z</time>
      </trkpt>
      <trkpt lat="45.42486" lon="6.20339">
        <ele>1805.5327148438</ele>
        <time>2010-08-04T16:37:04Z</time>
      </trkpt>
      <trkpt lat="45.42489" lon="6.20344">
        <ele>1806.6661376953</ele>
        <time>2010-08-04T16:37:10Z</time>
      </trkpt>
      <trkpt lat="45.42493" lon="6.20353">
        <ele>1808.5985107422</ele>
        <time>2010-08-04T16:37:20Z</time>
      </trkpt>
      <trkpt lat="45.42497" lon="6.20358">
        <ele>1810.4450683594</ele>
        <time>2010-08-04T16:37:28Z</time>
      </trkpt>
      <trkpt lat="45.42496" lon="6.20363">
        <ele>1810.6716308594</ele>
        <time>2010-08-04T16:37:36Z</time>
      </trkpt>
      <trkpt lat="45.42498" lon="6.20368">
        <ele>1812.3186035156</ele>
        <time>2010-08-04T16:37:44Z</time>
      </trkpt>
      <trkpt lat="45.42497" lon="6.20371">
        <ele>1812.4659423828</ele>
        <time>2010-08-04T16:37:50Z</time>
      </trkpt>
      <trkpt lat="45.42495" lon="6.20373">
        <ele>1812.2241210938</ele>
        <time>2010-08-04T16:37:56Z</time>
      </trkpt>
      <trkpt lat="45.42495" lon="6.20379">
        <ele>1812.9930419922</ele>
        <time>2010-08-04T16:38:04Z</time>
      </trkpt>
      <trkpt lat="45.42498" lon="6.20385">
        <ele>1816.1870117188</ele>
        <time>2010-08-04T16:38:12Z</time>
      </trkpt>
      <trkpt lat="45.425" lon="6.20387">
        <ele>1817.7529296875</ele>
        <time>2010-08-04T16:38:19Z</time>
      </trkpt>
      <trkpt lat="45.425" lon="6.2039">
        <ele>1817.8731689453</ele>
        <time>2010-08-04T16:38:24Z</time>
      </trkpt>
      <trkpt lat="45.42498" lon="6.20392">
        <ele>1817.36328125</ele>
        <time>2010-08-04T16:38:31Z</time>
      </trkpt>
      <trkpt lat="45.425" lon="6.20396">
        <ele>1819.2033691406</ele>
        <time>2010-08-04T16:38:36Z</time>
      </trkpt>
      <trkpt lat="45.42502" lon="6.20399">
        <ele>1820.5668945312</ele>
        <time>2010-08-04T16:38:42Z</time>
      </trkpt>
      <trkpt lat="45.42502" lon="6.20404">
        <ele>1821.31640625</ele>
        <time>2010-08-04T16:38:50Z</time>
      </trkpt>
      <trkpt lat="45.42502" lon="6.20407">
        <ele>1821.9890136719</ele>
        <time>2010-08-04T16:38:55Z</time>
      </trkpt>
      <trkpt lat="45.42503" lon="6.20412">
        <ele>1822.9569091797</ele>
        <time>2010-08-04T16:39:01Z</time>
      </trkpt>
      <trkpt lat="45.42504" lon="6.20417">
        <ele>1824.4108886719</ele>
        <time>2010-08-04T16:39:08Z</time>
      </trkpt>
      <trkpt lat="45.42501" lon="6.20421">
        <ele>1822.7941894531</ele>
        <time>2010-08-04T16:39:16Z</time>
      </trkpt>
      <trkpt lat="45.42501" lon="6.20428">
        <ele>1823.2807617188</ele>
        <time>2010-08-04T16:39:22Z</time>
      </trkpt>
      <trkpt lat="45.42503" lon="6.20435">
        <ele>1825.5567626953</ele>
        <time>2010-08-04T16:39:28Z</time>
      </trkpt>
      <trkpt lat="45.42507" lon="6.20442">
        <ele>1828.4669189453</ele>
        <time>2010-08-04T16:39:35Z</time>
      </trkpt>
      <trkpt lat="45.42509" lon="6.20448">
        <ele>1830.3524169922</ele>
        <time>2010-08-04T16:39:40Z</time>
      </trkpt>
      <trkpt lat="45.42512" lon="6.20456">
        <ele>1833.71875</ele>
        <time>2010-08-04T16:39:46Z</time>
      </trkpt>
      <trkpt lat="45.42519" lon="6.20471">
        <ele>1840.5159912109</ele>
        <time>2010-08-04T16:39:58Z</time>
      </trkpt>
      <trkpt lat="45.42525" lon="6.2048">
        <ele>1843.8039550781</ele>
        <time>2010-08-04T16:40:08Z</time>
      </trkpt>
      <trkpt lat="45.42529" lon="6.20486">
        <ele>1845.7436523438</ele>
        <time>2010-08-04T16:40:16Z</time>
      </trkpt>
      <trkpt lat="45.42532" lon="6.20491">
        <ele>1847.2139892578</ele>
        <time>2010-08-04T16:40:23Z</time>
      </trkpt>
      <trkpt lat="45.42538" lon="6.20499">
        <ele>1849.2016601562</ele>
        <time>2010-08-04T16:40:31Z</time>
      </trkpt>
      <trkpt lat="45.42543" lon="6.2051">
        <ele>1851.2947998047</ele>
        <time>2010-08-04T16:40:39Z</time>
      </trkpt>
      <trkpt lat="45.42546" lon="6.20522">
        <ele>1852.0827636719</ele>
        <time>2010-08-04T16:40:47Z</time>
      </trkpt>
      <trkpt lat="45.42551" lon="6.20534">
        <ele>1854.771484375</ele>
        <time>2010-08-04T16:40:55Z</time>
      </trkpt>
      <trkpt lat="45.42558" lon="6.20543">
        <ele>1858.3817138672</ele>
        <time>2010-08-04T16:41:03Z</time>
      </trkpt>
      <trkpt lat="45.42566" lon="6.20552">
        <ele>1861.6516113281</ele>
        <time>2010-08-04T16:41:13Z</time>
      </trkpt>
      <trkpt lat="45.42575" lon="6.20559">
        <ele>1863.8518066406</ele>
        <time>2010-08-04T16:41:23Z</time>
      </trkpt>
      <trkpt lat="45.42581" lon="6.20566">
        <ele>1864.5517578125</ele>
        <time>2010-08-04T16:41:33Z</time>
      </trkpt>
      <trkpt lat="45.42585" lon="6.20572">
        <ele>1864.9259033203</ele>
        <time>2010-08-04T16:41:42Z</time>
      </trkpt>
      <trkpt lat="45.42589" lon="6.2058">
        <ele>1864.9808349609</ele>
        <time>2010-08-04T16:41:50Z</time>
      </trkpt>
      <trkpt lat="45.42592" lon="6.2059">
        <ele>1866.9487304688</ele>
        <time>2010-08-04T16:42:00Z</time>
      </trkpt>
      <trkpt lat="45.42595" lon="6.20599">
        <ele>1869.6281738281</ele>
        <time>2010-08-04T16:42:09Z</time>
      </trkpt>
      <trkpt lat="45.42598" lon="6.20606">
        <ele>1872.1088867188</ele>
        <time>2010-08-04T16:42:17Z</time>
      </trkpt>
      <trkpt lat="45.42603" lon="6.20615">
        <ele>1874.767578125</ele>
        <time>2010-08-04T16:42:26Z</time>
      </trkpt>
      <trkpt lat="45.42606" lon="6.2062">
        <ele>1876.7407226562</ele>
        <time>2010-08-04T16:42:33Z</time>
      </trkpt>
      <trkpt lat="45.42611" lon="6.20628">
        <ele>1879.3397216797</ele>
        <time>2010-08-04T16:42:42Z</time>
      </trkpt>
      <trkpt lat="45.42616" lon="6.20635">
        <ele>1881.3461914062</ele>
        <time>2010-08-04T16:42:51Z</time>
      </trkpt>
      <trkpt lat="45.42621" lon="6.20645">
        <ele>1884.0198974609</ele>
        <time>2010-08-04T16:43:00Z</time>
      </trkpt>
      <trkpt lat="45.42627" lon="6.20655">
        <ele>1887.2188720703</ele>
        <time>2010-08-04T16:43:10Z</time>
      </trkpt>
      <trkpt lat="45.42633" lon="6.20666">
        <ele>1890.6690673828</ele>
        <time>2010-08-04T16:43:21Z</time>
      </trkpt>
      <trkpt lat="45.42639" lon="6.20675">
        <ele>1892.9897460938</ele>
        <time>2010-08-04T16:43:29Z</time>
      </trkpt>
      <trkpt lat="45.42644" lon="6.20684">
        <ele>1894.6872558594</ele>
        <time>2010-08-04T16:43:37Z</time>
      </trkpt>
      <trkpt lat="45.42651" lon="6.20693">
        <ele>1896.1989746094</ele>
        <time>2010-08-04T16:43:47Z</time>
      </trkpt>
      <trkpt lat="45.42656" lon="6.20701">
        <ele>1897.2056884766</ele>
        <time>2010-08-04T16:43:55Z</time>
      </trkpt>
      <trkpt lat="45.42661" lon="6.2071">
        <ele>1898.1535644531</ele>
        <time>2010-08-04T16:44:04Z</time>
      </trkpt>
      <trkpt lat="45.42666" lon="6.20719">
        <ele>1898.8376464844</ele>
        <time>2010-08-04T16:44:13Z</time>
      </trkpt>
      <trkpt lat="45.4267" lon="6.20726">
        <ele>1901.3421630859</ele>
        <time>2010-08-04T16:44:20Z</time>
      </trkpt>
      <trkpt lat="45.42675" lon="6.20736">
        <ele>1905.1997070312</ele>
        <time>2010-08-04T16:44:29Z</time>
      </trkpt>
      <trkpt lat="45.42681" lon="6.20747">
        <ele>1908.9473876953</ele>
        <time>2010-08-04T16:44:38Z</time>
      </trkpt>
      <trkpt lat="45.42684" lon="6.20756">
        <ele>1911.3848876953</ele>
        <time>2010-08-04T16:44:45Z</time>
      </trkpt>
      <trkpt lat="45.4269" lon="6.20766">
        <ele>1915.0650634766</ele>
        <time>2010-08-04T16:44:53Z</time>
      </trkpt>
      <trkpt lat="45.42695" lon="6.20776">
        <ele>1917.9921875</ele>
        <time>2010-08-04T16:44:59Z</time>
      </trkpt>
      <trkpt lat="45.42701" lon="6.20786">
        <ele>1918.7241210938</ele>
        <time>2010-08-04T16:45:05Z</time>
      </trkpt>
      <trkpt lat="45.42707" lon="6.20797">
        <ele>1919.2741699219</ele>
        <time>2010-08-04T16:45:11Z</time>
      </trkpt>
      <trkpt lat="45.42715" lon="6.20813">
        <ele>1919.8128662109</ele>
        <time>2010-08-04T16:45:17Z</time>
      </trkpt>
      <trkpt lat="45.42719" lon="6.20825">
        <ele>1919.9639892578</ele>
        <time>2010-08-04T16:45:22Z</time>
      </trkpt>
      <trkpt lat="45.42721" lon="6.20839">
        <ele>1920.0164794922</ele>
        <time>2010-08-04T16:45:29Z</time>
      </trkpt>
      <trkpt lat="45.42722" lon="6.20841">
        <ele>1920.0133056641</ele>
        <time>2010-08-04T16:45:30Z</time>
      </trkpt>
      <trkpt lat="45.42723" lon="6.20852">
        <ele>1920.0316162109</ele>
        <time>2010-08-04T16:45:36Z</time>
      </trkpt>
      <trkpt lat="45.42725" lon="6.20866">
        <ele>1920</ele>
        <time>2010-08-04T16:45:44Z</time>
      </trkpt>
      <trkpt lat="45.42726" lon="6.20885">
        <ele>1920</ele>
        <time>2010-08-04T16:45:54Z</time>
      </trkpt>
      <trkpt lat="45.4273" lon="6.20898">
        <ele>1920.4454345703</ele>
        <time>2010-08-04T16:46:03Z</time>
      </trkpt>
      <trkpt lat="45.42734" lon="6.20907">
        <ele>1920.7790527344</ele>
        <time>2010-08-04T16:46:12Z</time>
      </trkpt>
      <trkpt lat="45.42738" lon="6.20917">
        <ele>1920.873046875</ele>
        <time>2010-08-04T16:46:20Z</time>
      </trkpt>
      <trkpt lat="45.42742" lon="6.20927">
        <ele>1920.9790039062</ele>
        <time>2010-08-04T16:46:28Z</time>
      </trkpt>
      <trkpt lat="45.42746" lon="6.20934">
        <ele>1920.5867919922</ele>
        <time>2010-08-04T16:46:37Z</time>
      </trkpt>
      <trkpt lat="45.42748" lon="6.20935">
        <ele>1920.2880859375</ele>
        <time>2010-08-04T16:46:47Z</time>
      </trkpt>
      <trkpt lat="45.42749" lon="6.20938">
        <ele>1920.1795654297</ele>
        <time>2010-08-04T16:46:54Z</time>
      </trkpt>
      <trkpt lat="45.42752" lon="6.20944">
        <ele>1920.7320556641</ele>
        <time>2010-08-04T16:47:02Z</time>
      </trkpt>
      <trkpt lat="45.42755" lon="6.20954">
        <ele>1923.1187744141</ele>
        <time>2010-08-04T16:47:12Z</time>
      </trkpt>
      <trkpt lat="45.42759" lon="6.20961">
        <ele>1925.4313964844</ele>
        <time>2010-08-04T16:47:21Z</time>
      </trkpt>
      <trkpt lat="45.42759" lon="6.20968">
        <ele>1925.8615722656</ele>
        <time>2010-08-04T16:47:27Z</time>
      </trkpt>
      <trkpt lat="45.42763" lon="6.20978">
        <ele>1928.3298339844</ele>
        <time>2010-08-04T16:47:36Z</time>
      </trkpt>
      <trkpt lat="45.42767" lon="6.20986">
        <ele>1930.5506591797</ele>
        <time>2010-08-04T16:47:43Z</time>
      </trkpt>
      <trkpt lat="45.42769" lon="6.20994">
        <ele>1932.1721191406</ele>
        <time>2010-08-04T16:47:49Z</time>
      </trkpt>
      <trkpt lat="45.4277" lon="6.21003">
        <ele>1933.5301513672</ele>
        <time>2010-08-04T16:47:58Z</time>
      </trkpt>
      <trkpt lat="45.42774" lon="6.21006">
        <ele>1934.7094726562</ele>
        <time>2010-08-04T16:48:04Z</time>
      </trkpt>
      <trkpt lat="45.42774" lon="6.21012">
        <ele>1935.373046875</ele>
        <time>2010-08-04T16:48:12Z</time>
      </trkpt>
      <trkpt lat="45.42776" lon="6.21016">
        <ele>1936.4379882812</ele>
        <time>2010-08-04T16:48:19Z</time>
      </trkpt>
      <trkpt lat="45.42775" lon="6.21023">
        <ele>1936.8253173828</ele>
        <time>2010-08-04T16:48:26Z</time>
      </trkpt>
      <trkpt lat="45.42774" lon="6.21028">
        <ele>1937.2512207031</ele>
        <time>2010-08-04T16:48:36Z</time>
      </trkpt>
      <trkpt lat="45.42772" lon="6.21042">
        <ele>1938.0867919922</ele>
        <time>2010-08-04T16:48:48Z</time>
      </trkpt>
      <trkpt lat="45.42777" lon="6.21047">
        <ele>1939.2580566406</ele>
        <time>2010-08-04T16:48:58Z</time>
      </trkpt>
      <trkpt lat="45.42781" lon="6.21052">
        <ele>1941.9025878906</ele>
        <time>2010-08-04T16:49:09Z</time>
      </trkpt>
      <trkpt lat="45.42785" lon="6.21057">
        <ele>1944.8048095703</ele>
        <time>2010-08-04T16:49:19Z</time>
      </trkpt>
      <trkpt lat="45.42785" lon="6.21062">
        <ele>1946.7573242188</ele>
        <time>2010-08-04T16:49:26Z</time>
      </trkpt>
      <trkpt lat="45.42785" lon="6.21068">
        <ele>1949.4229736328</ele>
        <time>2010-08-04T16:49:32Z</time>
      </trkpt>
      <trkpt lat="45.42781" lon="6.21093">
        <ele>1960.0368652344</ele>
        <time>2010-08-04T16:50:01Z</time>
      </trkpt>
      <trkpt lat="45.42782" lon="6.21096">
        <ele>1961.8074951172</ele>
        <time>2010-08-04T16:50:06Z</time>
      </trkpt>
      <trkpt lat="45.42784" lon="6.21102">
        <ele>1964.6446533203</ele>
        <time>2010-08-04T16:50:14Z</time>
      </trkpt>
      <trkpt lat="45.42782" lon="6.21105">
        <ele>1966.3804931641</ele>
        <time>2010-08-04T16:50:19Z</time>
      </trkpt>
      <trkpt lat="45.42786" lon="6.21109">
        <ele>1967.8526611328</ele>
        <time>2010-08-04T16:50:27Z</time>
      </trkpt>
      <trkpt lat="45.4279" lon="6.21111">
        <ele>1968.0025634766</ele>
        <time>2010-08-04T16:50:32Z</time>
      </trkpt>
      <trkpt lat="45.42793" lon="6.21114">
        <ele>1969.3679199219</ele>
        <time>2010-08-04T16:50:40Z</time>
      </trkpt>
      <trkpt lat="45.42794" lon="6.21117">
        <ele>1970.6160888672</ele>
        <time>2010-08-04T16:50:44Z</time>
      </trkpt>
      <trkpt lat="45.42799" lon="6.21129">
        <ele>1975.3415527344</ele>
        <time>2010-08-04T16:50:57Z</time>
      </trkpt>
      <trkpt lat="45.42804" lon="6.21133">
        <ele>1975.6284179688</ele>
        <time>2010-08-04T16:51:06Z</time>
      </trkpt>
      <trkpt lat="45.42806" lon="6.21137">
        <ele>1977.2387695312</ele>
        <time>2010-08-04T16:51:11Z</time>
      </trkpt>
      <trkpt lat="45.42807" lon="6.21143">
        <ele>1980.2750244141</ele>
        <time>2010-08-04T16:51:18Z</time>
      </trkpt>
      <trkpt lat="45.42806" lon="6.21155">
        <ele>1984.8265380859</ele>
        <time>2010-08-04T16:51:36Z</time>
      </trkpt>
      <trkpt lat="45.42808" lon="6.21155">
        <ele>1984.9898681641</ele>
        <time>2010-08-04T16:52:16Z</time>
      </trkpt>
      <trkpt lat="45.42805" lon="6.21156">
        <ele>1985.96875</ele>
        <time>2010-08-04T16:52:36Z</time>
      </trkpt>
      <trkpt lat="45.42805" lon="6.21157">
        <ele>1986.0532226562</ele>
        <time>2010-08-04T16:52:41Z</time>
      </trkpt>
      <trkpt lat="45.42805" lon="6.21157">
        <ele>1985.7478027344</ele>
        <time>2010-08-04T16:52:42Z</time>
      </trkpt>
      <trkpt lat="45.42806" lon="6.21163">
        <ele>1988.2810058594</ele>
        <time>2010-08-04T16:52:46Z</time>
      </trkpt>
      <trkpt lat="45.42813" lon="6.21167">
        <ele>1987.4333496094</ele>
        <time>2010-08-04T16:52:53Z</time>
      </trkpt>
      <trkpt lat="45.42823" lon="6.2117">
        <ele>1984.6146240234</ele>
        <time>2010-08-04T16:52:58Z</time>
      </trkpt>
      <trkpt lat="45.42838" lon="6.21173">
        <ele>1980.6909179688</ele>
        <time>2010-08-04T16:53:04Z</time>
      </trkpt>
      <trkpt lat="45.42848" lon="6.21177">
        <ele>1979.9530029297</ele>
        <time>2010-08-04T16:53:09Z</time>
      </trkpt>
      <trkpt lat="45.4286" lon="6.21188">
        <ele>1976.7127685547</ele>
        <time>2010-08-04T16:53:15Z</time>
      </trkpt>
      <trkpt lat="45.42869" lon="6.212">
        <ele>1973.7879638672</ele>
        <time>2010-08-04T16:53:20Z</time>
      </trkpt>
      <trkpt lat="45.42881" lon="6.21212">
        <ele>1970.369140625</ele>
        <time>2010-08-04T16:53:27Z</time>
      </trkpt>
      <trkpt lat="45.42882" lon="6.21213">
        <ele>1970.0811767578</ele>
        <time>2010-08-04T16:53:28Z</time>
      </trkpt>
      <trkpt lat="45.42889" lon="6.21218">
        <ele>1968.2587890625</ele>
        <time>2010-08-04T16:53:32Z</time>
      </trkpt>
      <trkpt lat="45.42906" lon="6.21226">
        <ele>1968.4235839844</ele>
        <time>2010-08-04T16:53:38Z</time>
      </trkpt>
      <trkpt lat="45.42916" lon="6.21232">
        <ele>1967.9704589844</ele>
        <time>2010-08-04T16:53:43Z</time>
      </trkpt>
      <trkpt lat="45.42931" lon="6.21239">
        <ele>1969.2091064453</ele>
        <time>2010-08-04T16:53:48Z</time>
      </trkpt>
      <trkpt lat="45.42949" lon="6.21241">
        <ele>1972.7989501953</ele>
        <time>2010-08-04T16:53:54Z</time>
      </trkpt>
      <trkpt lat="45.42962" lon="6.21251">
        <ele>1971.9421386719</ele>
        <time>2010-08-04T16:53:59Z</time>
      </trkpt>
      <trkpt lat="45.42973" lon="6.21258">
        <ele>1970.7802734375</ele>
        <time>2010-08-04T16:54:04Z</time>
      </trkpt>
      <trkpt lat="45.42987" lon="6.21266">
        <ele>1968.3757324219</ele>
        <time>2010-08-04T16:54:10Z</time>
      </trkpt>
      <trkpt lat="45.42998" lon="6.21273">
        <ele>1966.5067138672</ele>
        <time>2010-08-04T16:54:16Z</time>
      </trkpt>
      <trkpt lat="45.43" lon="6.21275">
        <ele>1966.1193847656</ele>
        <time>2010-08-04T16:54:17Z</time>
      </trkpt>
      <trkpt lat="45.43011" lon="6.21284">
        <ele>1962.7803955078</ele>
        <time>2010-08-04T16:54:23Z</time>
      </trkpt>
      <trkpt lat="45.43013" lon="6.21286">
        <ele>1962.4154052734</ele>
        <time>2010-08-04T16:54:24Z</time>
      </trkpt>
      <trkpt lat="45.4303" lon="6.21296">
        <ele>1960.8740234375</ele>
        <time>2010-08-04T16:54:31Z</time>
      </trkpt>
      <trkpt lat="45.43044" lon="6.21302">
        <ele>1960.4962158203</ele>
        <time>2010-08-04T16:54:37Z</time>
      </trkpt>
      <trkpt lat="45.4306" lon="6.21312">
        <ele>1959.0344238281</ele>
        <time>2010-08-04T16:54:43Z</time>
      </trkpt>
      <trkpt lat="45.43073" lon="6.21313">
        <ele>1957.6652832031</ele>
        <time>2010-08-04T16:54:48Z</time>
      </trkpt>
      <trkpt lat="45.43087" lon="6.21308">
        <ele>1957.0223388672</ele>
        <time>2010-08-04T16:54:54Z</time>
      </trkpt>
      <trkpt lat="45.43105" lon="6.21306">
        <ele>1955.6560058594</ele>
        <time>2010-08-04T16:55:02Z</time>
      </trkpt>
      <trkpt lat="45.43106" lon="6.21305">
        <ele>1955.5991210938</ele>
        <time>2010-08-04T16:55:03Z</time>
      </trkpt>
      <trkpt lat="45.43108" lon="6.21305">
        <ele>1955.3532714844</ele>
        <time>2010-08-04T16:55:05Z</time>
      </trkpt>
      <trkpt lat="45.43111" lon="6.21304">
        <ele>1955.3365478516</ele>
        <time>2010-08-04T16:55:10Z</time>
      </trkpt>
      <trkpt lat="45.4312" lon="6.21304">
        <ele>1955.0618896484</ele>
        <time>2010-08-04T16:55:18Z</time>
      </trkpt>
      <trkpt lat="45.43136" lon="6.21294">
        <ele>1957.3238525391</ele>
        <time>2010-08-04T16:55:27Z</time>
      </trkpt>
      <trkpt lat="45.43155" lon="6.2129">
        <ele>1956.8924560547</ele>
        <time>2010-08-04T16:55:35Z</time>
      </trkpt>
      <trkpt lat="45.43166" lon="6.21293">
        <ele>1954.5478515625</ele>
        <time>2010-08-04T16:55:41Z</time>
      </trkpt>
      <trkpt lat="45.43169" lon="6.21296">
        <ele>1952.7028808594</ele>
        <time>2010-08-04T16:55:43Z</time>
      </trkpt>
      <trkpt lat="45.43176" lon="6.21303">
        <ele>1948.8438720703</ele>
        <time>2010-08-04T16:55:48Z</time>
      </trkpt>
      <trkpt lat="45.43187" lon="6.2131">
        <ele>1944.4910888672</ele>
        <time>2010-08-04T16:55:54Z</time>
      </trkpt>
      <trkpt lat="45.43194" lon="6.21307">
        <ele>1943.6488037109</ele>
        <time>2010-08-04T16:55:57Z</time>
      </trkpt>
      <trkpt lat="45.43207" lon="6.21299">
        <ele>1943.8410644531</ele>
        <time>2010-08-04T16:56:04Z</time>
      </trkpt>
      <trkpt lat="45.43214" lon="6.21301">
        <ele>1941.9907226562</ele>
        <time>2010-08-04T16:56:08Z</time>
      </trkpt>
      <trkpt lat="45.43229" lon="6.21301">
        <ele>1939.3988037109</ele>
        <time>2010-08-04T16:56:15Z</time>
      </trkpt>
      <trkpt lat="45.43231" lon="6.21301">
        <ele>1939.3497314453</ele>
        <time>2010-08-04T16:56:16Z</time>
      </trkpt>
      <trkpt lat="45.4324" lon="6.21302">
        <ele>1938.0262451172</ele>
        <time>2010-08-04T16:56:21Z</time>
      </trkpt>
      <trkpt lat="45.43244" lon="6.21301">
        <ele>1937.6090087891</ele>
        <time>2010-08-04T16:56:23Z</time>
      </trkpt>
      <trkpt lat="45.43254" lon="6.21306">
        <ele>1935.8752441406</ele>
        <time>2010-08-04T16:56:28Z</time>
      </trkpt>
      <trkpt lat="45.43257" lon="6.21312">
        <ele>1934.7113037109</ele>
        <time>2010-08-04T16:56:30Z</time>
      </trkpt>
      <trkpt lat="45.43261" lon="6.21323">
        <ele>1932.3217773438</ele>
        <time>2010-08-04T16:56:34Z</time>
      </trkpt>
      <trkpt lat="45.43267" lon="6.21338">
        <ele>1928.8265380859</ele>
        <time>2010-08-04T16:56:40Z</time>
      </trkpt>
      <trkpt lat="45.4327" lon="6.21347">
        <ele>1926.8011474609</ele>
        <time>2010-08-04T16:56:43Z</time>
      </trkpt>
      <trkpt lat="45.43274" lon="6.21361">
        <ele>1923.0943603516</ele>
        <time>2010-08-04T16:56:49Z</time>
      </trkpt>
      <trkpt lat="45.43284" lon="6.21368">
        <ele>1921.9235839844</ele>
        <time>2010-08-04T16:56:55Z</time>
      </trkpt>
      <trkpt lat="45.43289" lon="6.21373">
        <ele>1920.8432617188</ele>
        <time>2010-08-04T16:56:59Z</time>
      </trkpt>
      <trkpt lat="45.43299" lon="6.21374">
        <ele>1920.6356201172</ele>
        <time>2010-08-04T16:57:04Z</time>
      </trkpt>
      <trkpt lat="45.43314" lon="6.21372">
        <ele>1921.7945556641</ele>
        <time>2010-08-04T16:57:11Z</time>
      </trkpt>
      <trkpt lat="45.43327" lon="6.21369">
        <ele>1923.4105224609</ele>
        <time>2010-08-04T16:57:16Z</time>
      </trkpt>
      <trkpt lat="45.43338" lon="6.21372">
        <ele>1921.9279785156</ele>
        <time>2010-08-04T16:57:21Z</time>
      </trkpt>
      <trkpt lat="45.43345" lon="6.21375">
        <ele>1920.0174560547</ele>
        <time>2010-08-04T16:57:24Z</time>
      </trkpt>
      <trkpt lat="45.43349" lon="6.21383">
        <ele>1917.0495605469</ele>
        <time>2010-08-04T16:57:28Z</time>
      </trkpt>
      <trkpt lat="45.43354" lon="6.21391">
        <ele>1913.6889648438</ele>
        <time>2010-08-04T16:57:32Z</time>
      </trkpt>
      <trkpt lat="45.43362" lon="6.21392">
        <ele>1912.0334472656</ele>
        <time>2010-08-04T16:57:37Z</time>
      </trkpt>
      <trkpt lat="45.4337" lon="6.21393">
        <ele>1911.0720214844</ele>
        <time>2010-08-04T16:57:41Z</time>
      </trkpt>
      <trkpt lat="45.4338" lon="6.21398">
        <ele>1908.9984130859</ele>
        <time>2010-08-04T16:57:46Z</time>
      </trkpt>
      <trkpt lat="45.43392" lon="6.21405">
        <ele>1906.6022949219</ele>
        <time>2010-08-04T16:57:52Z</time>
      </trkpt>
      <trkpt lat="45.43402" lon="6.21416">
        <ele>1903.7827148438</ele>
        <time>2010-08-04T16:57:58Z</time>
      </trkpt>
      <trkpt lat="45.43413" lon="6.21426">
        <ele>1900.6882324219</ele>
        <time>2010-08-04T16:58:04Z</time>
      </trkpt>
      <trkpt lat="45.43421" lon="6.2143">
        <ele>1899.7583007812</ele>
        <time>2010-08-04T16:58:08Z</time>
      </trkpt>
      <trkpt lat="45.43428" lon="6.2144">
        <ele>1896.3713378906</ele>
        <time>2010-08-04T16:58:13Z</time>
      </trkpt>
      <trkpt lat="45.43433" lon="6.21451">
        <ele>1893.4234619141</ele>
        <time>2010-08-04T16:58:18Z</time>
      </trkpt>
      <trkpt lat="45.43436" lon="6.21466">
        <ele>1889.3018798828</ele>
        <time>2010-08-04T16:58:24Z</time>
      </trkpt>
      <trkpt lat="45.43438" lon="6.21469">
        <ele>1888.6616210938</ele>
        <time>2010-08-04T16:58:25Z</time>
      </trkpt>
      <trkpt lat="45.43448" lon="6.21485">
        <ele>1885.8330078125</ele>
        <time>2010-08-04T16:58:31Z</time>
      </trkpt>
      <trkpt lat="45.43458" lon="6.21497">
        <ele>1884.0924072266</ele>
        <time>2010-08-04T16:58:37Z</time>
      </trkpt>
      <trkpt lat="45.4347" lon="6.21499">
        <ele>1884.0666503906</ele>
        <time>2010-08-04T16:58:44Z</time>
      </trkpt>
      <trkpt lat="45.43482" lon="6.21497">
        <ele>1886.4050292969</ele>
        <time>2010-08-04T16:58:52Z</time>
      </trkpt>
      <trkpt lat="45.43493" lon="6.21498">
        <ele>1888.5045166016</ele>
        <time>2010-08-04T16:59:00Z</time>
      </trkpt>
      <trkpt lat="45.435" lon="6.21497">
        <ele>1889.9938964844</ele>
        <time>2010-08-04T16:59:04Z</time>
      </trkpt>
      <trkpt lat="45.43511" lon="6.21504">
        <ele>1888.4553222656</ele>
        <time>2010-08-04T16:59:11Z</time>
      </trkpt>
      <trkpt lat="45.43521" lon="6.21514">
        <ele>1886.6837158203</ele>
        <time>2010-08-04T16:59:17Z</time>
      </trkpt>
      <trkpt lat="45.43531" lon="6.21515">
        <ele>1885.6452636719</ele>
        <time>2010-08-04T16:59:22Z</time>
      </trkpt>
      <trkpt lat="45.43544" lon="6.21526">
        <ele>1881.5148925781</ele>
        <time>2010-08-04T16:59:29Z</time>
      </trkpt>
      <trkpt lat="45.43555" lon="6.21532">
        <ele>1880.0505371094</ele>
        <time>2010-08-04T16:59:35Z</time>
      </trkpt>
      <trkpt lat="45.43567" lon="6.21542">
        <ele>1878.0915527344</ele>
        <time>2010-08-04T16:59:42Z</time>
      </trkpt>
      <trkpt lat="45.43577" lon="6.21553">
        <ele>1879.3288574219</ele>
        <time>2010-08-04T16:59:48Z</time>
      </trkpt>
      <trkpt lat="45.43585" lon="6.2156">
        <ele>1878.8098144531</ele>
        <time>2010-08-04T16:59:54Z</time>
      </trkpt>
      <trkpt lat="45.43592" lon="6.21567">
        <ele>1877.7595214844</ele>
        <time>2010-08-04T16:59:59Z</time>
      </trkpt>
      <trkpt lat="45.43599" lon="6.21575">
        <ele>1877.6434326172</ele>
        <time>2010-08-04T17:00:04Z</time>
      </trkpt>
      <trkpt lat="45.43607" lon="6.21578">
        <ele>1879.0645751953</ele>
        <time>2010-08-04T17:00:09Z</time>
      </trkpt>
      <trkpt lat="45.4362" lon="6.21577">
        <ele>1879.8472900391</ele>
        <time>2010-08-04T17:00:15Z</time>
      </trkpt>
      <trkpt lat="45.43626" lon="6.2158">
        <ele>1879.9473876953</ele>
        <time>2010-08-04T17:00:18Z</time>
      </trkpt>
      <trkpt lat="45.43639" lon="6.21585">
        <ele>1880</ele>
        <time>2010-08-04T17:00:24Z</time>
      </trkpt>
      <trkpt lat="45.43651" lon="6.21594">
        <ele>1880</ele>
        <time>2010-08-04T17:00:31Z</time>
      </trkpt>
      <trkpt lat="45.43659" lon="6.21603">
        <ele>1880</ele>
        <time>2010-08-04T17:00:38Z</time>
      </trkpt>
      <trkpt lat="45.43666" lon="6.21613">
        <ele>1879.99609375</ele>
        <time>2010-08-04T17:00:43Z</time>
      </trkpt>
      <trkpt lat="45.43677" lon="6.21627">
        <ele>1880</ele>
        <time>2010-08-04T17:00:49Z</time>
      </trkpt>
      <trkpt lat="45.43689" lon="6.21639">
        <ele>1879.9692382812</ele>
        <time>2010-08-04T17:00:55Z</time>
      </trkpt>
      <trkpt lat="45.437" lon="6.21654">
        <ele>1880</ele>
        <time>2010-08-04T17:01:02Z</time>
      </trkpt>
      <trkpt lat="45.43712" lon="6.21667">
        <ele>1879.9276123047</ele>
        <time>2010-08-04T17:01:09Z</time>
      </trkpt>
      <trkpt lat="45.43722" lon="6.21681">
        <ele>1878.4289550781</ele>
        <time>2010-08-04T17:01:15Z</time>
      </trkpt>
      <trkpt lat="45.43731" lon="6.21694">
        <ele>1877.7125244141</ele>
        <time>2010-08-04T17:01:21Z</time>
      </trkpt>
      <trkpt lat="45.43741" lon="6.21704">
        <ele>1876.8901367188</ele>
        <time>2010-08-04T17:01:26Z</time>
      </trkpt>
      <trkpt lat="45.43752" lon="6.21714">
        <ele>1876.0373535156</ele>
        <time>2010-08-04T17:01:32Z</time>
      </trkpt>
      <trkpt lat="45.43755" lon="6.21717">
        <ele>1875.2750244141</ele>
        <time>2010-08-04T17:01:34Z</time>
      </trkpt>
      <trkpt lat="45.43756" lon="6.2172">
        <ele>1874.7937011719</ele>
        <time>2010-08-04T17:01:36Z</time>
      </trkpt>
      <trkpt lat="45.43751" lon="6.21724">
        <ele>1874.6934814453</ele>
        <time>2010-08-04T17:01:41Z</time>
      </trkpt>
      <trkpt lat="45.4375" lon="6.21729">
        <ele>1874.0662841797</ele>
        <time>2010-08-04T17:01:45Z</time>
      </trkpt>
      <trkpt lat="45.4376" lon="6.2174">
        <ele>1870.775390625</ele>
        <time>2010-08-04T17:01:51Z</time>
      </trkpt>
      <trkpt lat="45.43763" lon="6.21734">
        <ele>1871.2945556641</ele>
        <time>2010-08-04T17:01:54Z</time>
      </trkpt>
      <trkpt lat="45.43769" lon="6.21731">
        <ele>1870.9741210938</ele>
        <time>2010-08-04T17:01:59Z</time>
      </trkpt>
      <trkpt lat="45.43771" lon="6.21731">
        <ele>1870.7333984375</ele>
        <time>2010-08-04T17:02:00Z</time>
      </trkpt>
      <trkpt lat="45.4379" lon="6.21728">
        <ele>1867.3820800781</ele>
        <time>2010-08-04T17:02:07Z</time>
      </trkpt>
      <trkpt lat="45.43811" lon="6.21721">
        <ele>1863.3743896484</ele>
        <time>2010-08-04T17:02:15Z</time>
      </trkpt>
      <trkpt lat="45.4383" lon="6.2172">
        <ele>1860.5993652344</ele>
        <time>2010-08-04T17:02:23Z</time>
      </trkpt>
      <trkpt lat="45.43843" lon="6.21726">
        <ele>1858.3735351562</ele>
        <time>2010-08-04T17:02:29Z</time>
      </trkpt>
      <trkpt lat="45.43859" lon="6.21729">
        <ele>1855.8879394531</ele>
        <time>2010-08-04T17:02:35Z</time>
      </trkpt>
      <trkpt lat="45.4387" lon="6.21735">
        <ele>1856.7900390625</ele>
        <time>2010-08-04T17:02:40Z</time>
      </trkpt>
      <trkpt lat="45.4388" lon="6.21742">
        <ele>1858.5526123047</ele>
        <time>2010-08-04T17:02:46Z</time>
      </trkpt>
      <trkpt lat="45.43884" lon="6.21744">
        <ele>1859.2371826172</ele>
        <time>2010-08-04T17:02:48Z</time>
      </trkpt>
      <trkpt lat="45.43899" lon="6.21746">
        <ele>1860.7810058594</ele>
        <time>2010-08-04T17:02:58Z</time>
      </trkpt>
      <trkpt lat="45.43902" lon="6.21746">
        <ele>1860.9645996094</ele>
        <time>2010-08-04T17:03:00Z</time>
      </trkpt>
      <trkpt lat="45.43908" lon="6.21735">
        <ele>1861.1900634766</ele>
        <time>2010-08-04T17:03:06Z</time>
      </trkpt>
      <trkpt lat="45.43914" lon="6.21721">
        <ele>1861</ele>
        <time>2010-08-04T17:03:13Z</time>
      </trkpt>
      <trkpt lat="45.43915" lon="6.21718">
        <ele>1861</ele>
        <time>2010-08-04T17:03:19Z</time>
      </trkpt>
      <trkpt lat="45.43914" lon="6.21716">
        <ele>1861</ele>
        <time>2010-08-04T17:03:27Z</time>
      </trkpt>
      <trkpt lat="45.43918" lon="6.21717">
        <ele>1861</ele>
        <time>2010-08-04T17:03:33Z</time>
      </trkpt>
      <trkpt lat="45.4392" lon="6.21717">
        <ele>1861</ele>
        <time>2010-08-04T17:03:34Z</time>
      </trkpt>
      <trkpt lat="45.43929" lon="6.21725">
        <ele>1861.0994873047</ele>
        <time>2010-08-04T17:03:43Z</time>
      </trkpt>
      <trkpt lat="45.43935" lon="6.21733">
        <ele>1861.3758544922</ele>
        <time>2010-08-04T17:03:51Z</time>
      </trkpt>
      <trkpt lat="45.43943" lon="6.2174">
        <ele>1861.6574707031</ele>
        <time>2010-08-04T17:03:59Z</time>
      </trkpt>
      <trkpt lat="45.43953" lon="6.21747">
        <ele>1863.9516601562</ele>
        <time>2010-08-04T17:04:09Z</time>
      </trkpt>
      <trkpt lat="45.43962" lon="6.21751">
        <ele>1866.1702880859</ele>
        <time>2010-08-04T17:04:18Z</time>
      </trkpt>
      <trkpt lat="45.43972" lon="6.21756">
        <ele>1867.7125244141</ele>
        <time>2010-08-04T17:04:28Z</time>
      </trkpt>
      <trkpt lat="45.43978" lon="6.21758">
        <ele>1868.6990966797</ele>
        <time>2010-08-04T17:04:36Z</time>
      </trkpt>
      <trkpt lat="45.43984" lon="6.21759">
        <ele>1869.69140625</ele>
        <time>2010-08-04T17:04:43Z</time>
      </trkpt>
      <trkpt lat="45.43991" lon="6.21759">
        <ele>1871.2629394531</ele>
        <time>2010-08-04T17:04:52Z</time>
      </trkpt>
      <trkpt lat="45.44" lon="6.21761">
        <ele>1873.130859375</ele>
        <time>2010-08-04T17:05:01Z</time>
      </trkpt>
      <trkpt lat="45.44007" lon="6.21761">
        <ele>1874.4495849609</ele>
        <time>2010-08-04T17:05:09Z</time>
      </trkpt>
      <trkpt lat="45.44015" lon="6.2176">
        <ele>1875.8591308594</ele>
        <time>2010-08-04T17:05:19Z</time>
      </trkpt>
      <trkpt lat="45.44024" lon="6.21761">
        <ele>1877.6522216797</ele>
        <time>2010-08-04T17:05:29Z</time>
      </trkpt>
      <trkpt lat="45.44032" lon="6.21762">
        <ele>1879.0264892578</ele>
        <time>2010-08-04T17:05:38Z</time>
      </trkpt>
      <trkpt lat="45.44042" lon="6.21763">
        <ele>1880.4516601562</ele>
        <time>2010-08-04T17:05:48Z</time>
      </trkpt>
      <trkpt lat="45.44049" lon="6.21761">
        <ele>1881.1776123047</ele>
        <time>2010-08-04T17:05:56Z</time>
      </trkpt>
      <trkpt lat="45.44055" lon="6.21753">
        <ele>1881.8520507812</ele>
        <time>2010-08-04T17:06:05Z</time>
      </trkpt>
      <trkpt lat="45.44059" lon="6.21747">
        <ele>1882.7421875</ele>
        <time>2010-08-04T17:06:11Z</time>
      </trkpt>
      <trkpt lat="45.44067" lon="6.21738">
        <ele>1884.1046142578</ele>
        <time>2010-08-04T17:06:20Z</time>
      </trkpt>
      <trkpt lat="45.44073" lon="6.2173">
        <ele>1884.9826660156</ele>
        <time>2010-08-04T17:06:30Z</time>
      </trkpt>
      <trkpt lat="45.4408" lon="6.21718">
        <ele>1884.7491455078</ele>
        <time>2010-08-04T17:06:40Z</time>
      </trkpt>
      <trkpt lat="45.44084" lon="6.21713">
        <ele>1884.6496582031</ele>
        <time>2010-08-04T17:06:47Z</time>
      </trkpt>
      <trkpt lat="45.44088" lon="6.21709">
        <ele>1884.8830566406</ele>
        <time>2010-08-04T17:06:54Z</time>
      </trkpt>
      <trkpt lat="45.44094" lon="6.21704">
        <ele>1885.5422363281</ele>
        <time>2010-08-04T17:07:01Z</time>
      </trkpt>
      <trkpt lat="45.44101" lon="6.217">
        <ele>1886.8605957031</ele>
        <time>2010-08-04T17:07:10Z</time>
      </trkpt>
      <trkpt lat="45.44109" lon="6.21696">
        <ele>1888.8381347656</ele>
        <time>2010-08-04T17:07:19Z</time>
      </trkpt>
      <trkpt lat="45.44119" lon="6.21693">
        <ele>1892.357421875</ele>
        <time>2010-08-04T17:07:29Z</time>
      </trkpt>
      <trkpt lat="45.44131" lon="6.21692">
        <ele>1897.7319335938</ele>
        <time>2010-08-04T17:07:40Z</time>
      </trkpt>
      <trkpt lat="45.44141" lon="6.21691">
        <ele>1900.9079589844</ele>
        <time>2010-08-04T17:07:49Z</time>
      </trkpt>
      <trkpt lat="45.44151" lon="6.21692">
        <ele>1903.2092285156</ele>
        <time>2010-08-04T17:07:57Z</time>
      </trkpt>
      <trkpt lat="45.44161" lon="6.21696">
        <ele>1907.7186279297</ele>
        <time>2010-08-04T17:08:04Z</time>
      </trkpt>
      <trkpt lat="45.44169" lon="6.217">
        <ele>1910.9916992188</ele>
        <time>2010-08-04T17:08:10Z</time>
      </trkpt>
      <trkpt lat="45.4418" lon="6.217">
        <ele>1909.8656005859</ele>
        <time>2010-08-04T17:08:17Z</time>
      </trkpt>
      <trkpt lat="45.44189" lon="6.21696">
        <ele>1906.2401123047</ele>
        <time>2010-08-04T17:08:22Z</time>
      </trkpt>
      <trkpt lat="45.442" lon="6.21694">
        <ele>1905.2618408203</ele>
        <time>2010-08-04T17:08:30Z</time>
      </trkpt>
      <trkpt lat="45.44209" lon="6.21696">
        <ele>1906.6461181641</ele>
        <time>2010-08-04T17:08:38Z</time>
      </trkpt>
      <trkpt lat="45.44219" lon="6.21696">
        <ele>1907.7963867188</ele>
        <time>2010-08-04T17:08:46Z</time>
      </trkpt>
      <trkpt lat="45.44228" lon="6.21698">
        <ele>1909.6827392578</ele>
        <time>2010-08-04T17:08:51Z</time>
      </trkpt>
      <trkpt lat="45.44237" lon="6.21697">
        <ele>1910.9467773438</ele>
        <time>2010-08-04T17:08:56Z</time>
      </trkpt>
      <trkpt lat="45.44245" lon="6.217">
        <ele>1913.6713867188</ele>
        <time>2010-08-04T17:09:02Z</time>
      </trkpt>
      <trkpt lat="45.44258" lon="6.21705">
        <ele>1917.0328369141</ele>
        <time>2010-08-04T17:09:10Z</time>
      </trkpt>
      <trkpt lat="45.4426" lon="6.21705">
        <ele>1917.1667480469</ele>
        <time>2010-08-04T17:09:11Z</time>
      </trkpt>
      <trkpt lat="45.44267" lon="6.21704">
        <ele>1916.5864257812</ele>
        <time>2010-08-04T17:09:16Z</time>
      </trkpt>
      <trkpt lat="45.44281" lon="6.21701">
        <ele>1915.05078125</ele>
        <time>2010-08-04T17:09:23Z</time>
      </trkpt>
      <trkpt lat="45.44292" lon="6.21697">
        <ele>1914.0173339844</ele>
        <time>2010-08-04T17:09:29Z</time>
      </trkpt>
      <trkpt lat="45.44307" lon="6.21692">
        <ele>1913.0131835938</ele>
        <time>2010-08-04T17:09:36Z</time>
      </trkpt>
      <trkpt lat="45.44312" lon="6.21692">
        <ele>1913.5593261719</ele>
        <time>2010-08-04T17:09:39Z</time>
      </trkpt>
      <trkpt lat="45.44316" lon="6.21691">
        <ele>1913.4388427734</ele>
        <time>2010-08-04T17:09:43Z</time>
      </trkpt>
      <trkpt lat="45.44319" lon="6.21691">
        <ele>1913.4916992188</ele>
        <time>2010-08-04T17:09:46Z</time>
      </trkpt>
      <trkpt lat="45.44331" lon="6.21687">
        <ele>1912.8297119141</ele>
        <time>2010-08-04T17:09:53Z</time>
      </trkpt>
      <trkpt lat="45.44341" lon="6.21686">
        <ele>1913.8988037109</ele>
        <time>2010-08-04T17:09:59Z</time>
      </trkpt>
      <trkpt lat="45.44346" lon="6.21685">
        <ele>1914.1484375</ele>
        <time>2010-08-04T17:10:02Z</time>
      </trkpt>
      <trkpt lat="45.44354" lon="6.21684">
        <ele>1915.5362548828</ele>
        <time>2010-08-04T17:10:08Z</time>
      </trkpt>
      <trkpt lat="45.44361" lon="6.21681">
        <ele>1915.8536376953</ele>
        <time>2010-08-04T17:10:14Z</time>
      </trkpt>
      <trkpt lat="45.44373" lon="6.21676">
        <ele>1915.4639892578</ele>
        <time>2010-08-04T17:10:21Z</time>
      </trkpt>
      <trkpt lat="45.44381" lon="6.21674">
        <ele>1915.9909667969</ele>
        <time>2010-08-04T17:10:27Z</time>
      </trkpt>
      <trkpt lat="45.44393" lon="6.21671">
        <ele>1916.5216064453</ele>
        <time>2010-08-04T17:10:34Z</time>
      </trkpt>
      <trkpt lat="45.44405" lon="6.21664">
        <ele>1916.4810791016</ele>
        <time>2010-08-04T17:10:43Z</time>
      </trkpt>
      <trkpt lat="45.44413" lon="6.21663">
        <ele>1918.009765625</ele>
        <time>2010-08-04T17:10:50Z</time>
      </trkpt>
      <trkpt lat="45.44422" lon="6.21659">
        <ele>1918.0804443359</ele>
        <time>2010-08-04T17:10:58Z</time>
      </trkpt>
      <trkpt lat="45.44433" lon="6.21652">
        <ele>1917.7569580078</ele>
        <time>2010-08-04T17:11:08Z</time>
      </trkpt>
      <trkpt lat="45.4444" lon="6.21644">
        <ele>1917.7670898438</ele>
        <time>2010-08-04T17:11:17Z</time>
      </trkpt>
      <trkpt lat="45.44448" lon="6.21637">
        <ele>1919.0913085938</ele>
        <time>2010-08-04T17:11:26Z</time>
      </trkpt>
      <trkpt lat="45.44456" lon="6.21631">
        <ele>1920.7310791016</ele>
        <time>2010-08-04T17:11:35Z</time>
      </trkpt>
      <trkpt lat="45.44463" lon="6.21622">
        <ele>1921.9233398438</ele>
        <time>2010-08-04T17:11:44Z</time>
      </trkpt>
      <trkpt lat="45.4447" lon="6.21617">
        <ele>1924.2028808594</ele>
        <time>2010-08-04T17:11:54Z</time>
      </trkpt>
      <trkpt lat="45.44476" lon="6.21616">
        <ele>1926.6774902344</ele>
        <time>2010-08-04T17:12:01Z</time>
      </trkpt>
      <trkpt lat="45.44481" lon="6.21612">
        <ele>1929.2432861328</ele>
        <time>2010-08-04T17:12:09Z</time>
      </trkpt>
      <trkpt lat="45.44487" lon="6.21608">
        <ele>1931.7249755859</ele>
        <time>2010-08-04T17:12:16Z</time>
      </trkpt>
      <trkpt lat="45.44495" lon="6.21603">
        <ele>1935.0615234375</ele>
        <time>2010-08-04T17:12:27Z</time>
      </trkpt>
      <trkpt lat="45.445" lon="6.21598">
        <ele>1936.2376708984</ele>
        <time>2010-08-04T17:12:34Z</time>
      </trkpt>
      <trkpt lat="45.44507" lon="6.21591">
        <ele>1936.1405029297</ele>
        <time>2010-08-04T17:12:43Z</time>
      </trkpt>
      <trkpt lat="45.44514" lon="6.21584">
        <ele>1937.0654296875</ele>
        <time>2010-08-04T17:12:52Z</time>
      </trkpt>
      <trkpt lat="45.4452" lon="6.21579">
        <ele>1938.2564697266</ele>
        <time>2010-08-04T17:13:01Z</time>
      </trkpt>
      <trkpt lat="45.44528" lon="6.21571">
        <ele>1939.8146972656</ele>
        <time>2010-08-04T17:13:13Z</time>
      </trkpt>
      <trkpt lat="45.44534" lon="6.21566">
        <ele>1942.8763427734</ele>
        <time>2010-08-04T17:13:22Z</time>
      </trkpt>
      <trkpt lat="45.44538" lon="6.21562">
        <ele>1945.2785644531</ele>
        <time>2010-08-04T17:13:30Z</time>
      </trkpt>
      <trkpt lat="45.44543" lon="6.21556">
        <ele>1948.56640625</ele>
        <time>2010-08-04T17:13:38Z</time>
      </trkpt>
      <trkpt lat="45.4455" lon="6.21548">
        <ele>1950.7799072266</ele>
        <time>2010-08-04T17:13:47Z</time>
      </trkpt>
      <trkpt lat="45.44551" lon="6.21546">
        <ele>1950.873046875</ele>
        <time>2010-08-04T17:13:49Z</time>
      </trkpt>
      <trkpt lat="45.44559" lon="6.21535">
        <ele>1951.1953125</ele>
        <time>2010-08-04T17:14:00Z</time>
      </trkpt>
      <trkpt lat="45.4456" lon="6.21533">
        <ele>1951.2703857422</ele>
        <time>2010-08-04T17:14:01Z</time>
      </trkpt>
      <trkpt lat="45.4457" lon="6.21525">
        <ele>1955.5686035156</ele>
        <time>2010-08-04T17:14:11Z</time>
      </trkpt>
      <trkpt lat="45.44575" lon="6.21519">
        <ele>1957.7279052734</ele>
        <time>2010-08-04T17:14:19Z</time>
      </trkpt>
      <trkpt lat="45.44581" lon="6.21512">
        <ele>1960.8742675781</ele>
        <time>2010-08-04T17:14:27Z</time>
      </trkpt>
      <trkpt lat="45.4459" lon="6.21502">
        <ele>1963.2220458984</ele>
        <time>2010-08-04T17:14:38Z</time>
      </trkpt>
      <trkpt lat="45.44597" lon="6.21495">
        <ele>1964.1462402344</ele>
        <time>2010-08-04T17:14:46Z</time>
      </trkpt>
      <trkpt lat="45.44603" lon="6.21487">
        <ele>1964.6779785156</ele>
        <time>2010-08-04T17:14:54Z</time>
      </trkpt>
      <trkpt lat="45.44609" lon="6.2148">
        <ele>1967.0161132812</ele>
        <time>2010-08-04T17:15:02Z</time>
      </trkpt>
      <trkpt lat="45.44615" lon="6.21477">
        <ele>1969.9254150391</ele>
        <time>2010-08-04T17:15:08Z</time>
      </trkpt>
      <trkpt lat="45.44619" lon="6.21473">
        <ele>1971.1719970703</ele>
        <time>2010-08-04T17:15:12Z</time>
      </trkpt>
      <trkpt lat="45.44627" lon="6.21467">
        <ele>1974.4599609375</ele>
        <time>2010-08-04T17:15:21Z</time>
      </trkpt>
      <trkpt lat="45.44635" lon="6.21462">
        <ele>1977.5163574219</ele>
        <time>2010-08-04T17:15:30Z</time>
      </trkpt>
      <trkpt lat="45.44637" lon="6.2146">
        <ele>1977.7169189453</ele>
        <time>2010-08-04T17:15:35Z</time>
      </trkpt>
      <trkpt lat="45.44638" lon="6.21463">
        <ele>1978.9031982422</ele>
        <time>2010-08-04T17:15:42Z</time>
      </trkpt>
      <trkpt lat="45.44641" lon="6.21463">
        <ele>1980.3114013672</ele>
        <time>2010-08-04T17:15:47Z</time>
      </trkpt>
      <trkpt lat="45.4465" lon="6.21461">
        <ele>1981.6713867188</ele>
        <time>2010-08-04T17:15:55Z</time>
      </trkpt>
      <trkpt lat="45.44657" lon="6.2146">
        <ele>1983.2182617188</ele>
        <time>2010-08-04T17:16:00Z</time>
      </trkpt>
      <trkpt lat="45.4466" lon="6.21459">
        <ele>1983.5656738281</ele>
        <time>2010-08-04T17:16:02Z</time>
      </trkpt>
      <trkpt lat="45.44669" lon="6.21461">
        <ele>1985.7980957031</ele>
        <time>2010-08-04T17:16:07Z</time>
      </trkpt>
      <trkpt lat="45.44686" lon="6.21463">
        <ele>1985.0465087891</ele>
        <time>2010-08-04T17:16:16Z</time>
      </trkpt>
      <trkpt lat="45.44697" lon="6.2146">
        <ele>1982.3779296875</ele>
        <time>2010-08-04T17:16:22Z</time>
      </trkpt>
      <trkpt lat="45.44714" lon="6.21458">
        <ele>1976.9031982422</ele>
        <time>2010-08-04T17:16:29Z</time>
      </trkpt>
      <trkpt lat="45.44728" lon="6.21461">
        <ele>1975.6071777344</ele>
        <time>2010-08-04T17:16:35Z</time>
      </trkpt>
      <trkpt lat="45.4474" lon="6.21469">
        <ele>1978.0457763672</ele>
        <time>2010-08-04T17:16:41Z</time>
      </trkpt>
      <trkpt lat="45.44754" lon="6.21472">
        <ele>1977.9178466797</ele>
        <time>2010-08-04T17:16:48Z</time>
      </trkpt>
      <trkpt lat="45.44757" lon="6.21472">
        <ele>1978.0523681641</ele>
        <time>2010-08-04T17:16:50Z</time>
      </trkpt>
      <trkpt lat="45.44756" lon="6.21474">
        <ele>1978.47265625</ele>
        <time>2010-08-04T17:16:58Z</time>
      </trkpt>
      <trkpt lat="45.44756" lon="6.21476">
        <ele>1978.8203125</ele>
        <time>2010-08-04T17:17:15Z</time>
      </trkpt>
      <trkpt lat="45.44765" lon="6.21475">
        <ele>1978.8646240234</ele>
        <time>2010-08-04T17:17:22Z</time>
      </trkpt>
      <trkpt lat="45.44778" lon="6.21475">
        <ele>1979.1015625</ele>
        <time>2010-08-04T17:17:31Z</time>
      </trkpt>
      <trkpt lat="45.44797" lon="6.21472">
        <ele>1977.8558349609</ele>
        <time>2010-08-04T17:17:39Z</time>
      </trkpt>
      <trkpt lat="45.44811" lon="6.21465">
        <ele>1976.4666748047</ele>
        <time>2010-08-04T17:17:45Z</time>
      </trkpt>
      <trkpt lat="45.4483" lon="6.21457">
        <ele>1977.3627929688</ele>
        <time>2010-08-04T17:17:52Z</time>
      </trkpt>
      <trkpt lat="45.44849" lon="6.2145">
        <ele>1977.5262451172</ele>
        <time>2010-08-04T17:18:00Z</time>
      </trkpt>
      <trkpt lat="45.44863" lon="6.21444">
        <ele>1977.5736083984</ele>
        <time>2010-08-04T17:18:06Z</time>
      </trkpt>
      <trkpt lat="45.44878" lon="6.21438">
        <ele>1974.7375488281</ele>
        <time>2010-08-04T17:18:12Z</time>
      </trkpt>
      <trkpt lat="45.4489" lon="6.21431">
        <ele>1972.4373779297</ele>
        <time>2010-08-04T17:18:18Z</time>
      </trkpt>
      <trkpt lat="45.44907" lon="6.21423">
        <ele>1970.3972167969</ele>
        <time>2010-08-04T17:18:25Z</time>
      </trkpt>
      <trkpt lat="45.44927" lon="6.21417">
        <ele>1968.8190917969</ele>
        <time>2010-08-04T17:18:33Z</time>
      </trkpt>
      <trkpt lat="45.44942" lon="6.21411">
        <ele>1964.8226318359</ele>
        <time>2010-08-04T17:18:39Z</time>
      </trkpt>
      <trkpt lat="45.44958" lon="6.214">
        <ele>1961.9609375</ele>
        <time>2010-08-04T17:18:46Z</time>
      </trkpt>
      <trkpt lat="45.44967" lon="6.21388">
        <ele>1960.1787109375</ele>
        <time>2010-08-04T17:18:54Z</time>
      </trkpt>
      <trkpt lat="45.44976" lon="6.21381">
        <ele>1960.2302246094</ele>
        <time>2010-08-04T17:19:01Z</time>
      </trkpt>
      <trkpt lat="45.44987" lon="6.21374">
        <ele>1960.2897949219</ele>
        <time>2010-08-04T17:19:08Z</time>
      </trkpt>
      <trkpt lat="45.45001" lon="6.21364">
        <ele>1959.1748046875</ele>
        <time>2010-08-04T17:19:15Z</time>
      </trkpt>
      <trkpt lat="45.45014" lon="6.21353">
        <ele>1954.5666503906</ele>
        <time>2010-08-04T17:19:21Z</time>
      </trkpt>
      <trkpt lat="45.45027" lon="6.21353">
        <ele>1954.5954589844</ele>
        <time>2010-08-04T17:19:27Z</time>
      </trkpt>
      <trkpt lat="45.45043" lon="6.2135">
        <ele>1955.2491455078</ele>
        <time>2010-08-04T17:19:35Z</time>
      </trkpt>
      <trkpt lat="45.45056" lon="6.21344">
        <ele>1955.0579833984</ele>
        <time>2010-08-04T17:19:41Z</time>
      </trkpt>
      <trkpt lat="45.45071" lon="6.21332">
        <ele>1955.0570068359</ele>
        <time>2010-08-04T17:19:48Z</time>
      </trkpt>
      <trkpt lat="45.45086" lon="6.21327">
        <ele>1956.0485839844</ele>
        <time>2010-08-04T17:19:54Z</time>
      </trkpt>
      <trkpt lat="45.45103" lon="6.21321">
        <ele>1955.4105224609</ele>
        <time>2010-08-04T17:20:02Z</time>
      </trkpt>
      <trkpt lat="45.4512" lon="6.21317">
        <ele>1956.4792480469</ele>
        <time>2010-08-04T17:20:11Z</time>
      </trkpt>
      <trkpt lat="45.45136" lon="6.21311">
        <ele>1959.2326660156</ele>
        <time>2010-08-04T17:20:20Z</time>
      </trkpt>
      <trkpt lat="45.45152" lon="6.21306">
        <ele>1959.9831542969</ele>
        <time>2010-08-04T17:20:28Z</time>
      </trkpt>
      <trkpt lat="45.45164" lon="6.21298">
        <ele>1957.3483886719</ele>
        <time>2010-08-04T17:20:35Z</time>
      </trkpt>
      <trkpt lat="45.45177" lon="6.21293">
        <ele>1956.7438964844</ele>
        <time>2010-08-04T17:20:43Z</time>
      </trkpt>
      <trkpt lat="45.45191" lon="6.21287">
        <ele>1956.3128662109</ele>
        <time>2010-08-04T17:20:49Z</time>
      </trkpt>
      <trkpt lat="45.45204" lon="6.21287">
        <ele>1956.5935058594</ele>
        <time>2010-08-04T17:20:55Z</time>
      </trkpt>
      <trkpt lat="45.45205" lon="6.21288">
        <ele>1956.8681640625</ele>
        <time>2010-08-04T17:20:59Z</time>
      </trkpt>
      <trkpt lat="45.45206" lon="6.2129">
        <ele>1957.1428222656</ele>
        <time>2010-08-04T17:21:12Z</time>
      </trkpt>
      <trkpt lat="45.45206" lon="6.21289">
        <ele>1957.0484619141</ele>
        <time>2010-08-04T17:21:21Z</time>
      </trkpt>
      <trkpt lat="45.45205" lon="6.21288">
        <ele>1956.7823486328</ele>
        <time>2010-08-04T17:21:36Z</time>
      </trkpt>
      <trkpt lat="45.45204" lon="6.21289">
        <ele>1956.9454345703</ele>
        <time>2010-08-04T17:21:53Z</time>
      </trkpt>
      <trkpt lat="45.45203" lon="6.21291">
        <ele>1957.314453125</ele>
        <time>2010-08-04T17:22:01Z</time>
      </trkpt>
      <trkpt lat="45.45204" lon="6.2129">
        <ele>1957.2373046875</ele>
        <time>2010-08-04T17:22:14Z</time>
      </trkpt>
      <trkpt lat="45.45204" lon="6.21289">
        <ele>1956.9539794922</ele>
        <time>2010-08-04T17:22:20Z</time>
      </trkpt>
      <trkpt lat="45.45205" lon="6.2129">
        <ele>1957.1943359375</ele>
        <time>2010-08-04T17:22:30Z</time>
      </trkpt>
      <trkpt lat="45.45204" lon="6.21291">
        <ele>1957.3745117188</ele>
        <time>2010-08-04T17:22:36Z</time>
      </trkpt>
      <trkpt lat="45.45203" lon="6.21288">
        <ele>1956.9024658203</ele>
        <time>2010-08-04T17:23:10Z</time>
      </trkpt>
      <trkpt lat="45.45203" lon="6.21288">
        <ele>1956.8509521484</ele>
        <time>2010-08-04T17:23:33Z</time>
      </trkpt>
      <trkpt lat="45.45203" lon="6.21288">
        <ele>1956.8424072266</ele>
        <time>2010-08-04T17:23:46Z</time>
      </trkpt>
      <trkpt lat="45.45205" lon="6.21288">
        <ele>1956.9282226562</ele>
        <time>2010-08-04T17:24:05Z</time>
      </trkpt>
      <trkpt lat="45.45208" lon="6.21292">
        <ele>1957.5633544922</ele>
        <time>2010-08-04T17:24:14Z</time>
      </trkpt>
      <trkpt lat="45.45214" lon="6.21294">
        <ele>1957.8466796875</ele>
        <time>2010-08-04T17:24:22Z</time>
      </trkpt>
      <trkpt lat="45.45221" lon="6.21298">
        <ele>1958.6105957031</ele>
        <time>2010-08-04T17:24:30Z</time>
      </trkpt>
      <trkpt lat="45.45229" lon="6.21303">
        <ele>1959.4997558594</ele>
        <time>2010-08-04T17:24:38Z</time>
      </trkpt>
      <trkpt lat="45.45238" lon="6.21309">
        <ele>1960</ele>
        <time>2010-08-04T17:24:45Z</time>
      </trkpt>
      <trkpt lat="45.4525" lon="6.21318">
        <ele>1960</ele>
        <time>2010-08-04T17:24:53Z</time>
      </trkpt>
      <trkpt lat="45.45258" lon="6.21321">
        <ele>1957.4442138672</ele>
        <time>2010-08-04T17:25:00Z</time>
      </trkpt>
      <trkpt lat="45.45261" lon="6.21322">
        <ele>1956.6318359375</ele>
        <time>2010-08-04T17:25:02Z</time>
      </trkpt>
      <trkpt lat="45.45273" lon="6.21324">
        <ele>1953.5686035156</ele>
        <time>2010-08-04T17:25:09Z</time>
      </trkpt>
      <trkpt lat="45.45275" lon="6.21325">
        <ele>1953.2139892578</ele>
        <time>2010-08-04T17:25:10Z</time>
      </trkpt>
      <trkpt lat="45.45278" lon="6.21327">
        <ele>1952.8259277344</ele>
        <time>2010-08-04T17:25:12Z</time>
      </trkpt>
      <trkpt lat="45.45286" lon="6.21334">
        <ele>1949.8028564453</ele>
        <time>2010-08-04T17:25:18Z</time>
      </trkpt>
      <trkpt lat="45.45298" lon="6.2134">
        <ele>1943.2835693359</ele>
        <time>2010-08-04T17:25:26Z</time>
      </trkpt>
      <trkpt lat="45.45301" lon="6.21343">
        <ele>1941.8759765625</ele>
        <time>2010-08-04T17:25:28Z</time>
      </trkpt>
      <trkpt lat="45.45306" lon="6.21341">
        <ele>1938.6838378906</ele>
        <time>2010-08-04T17:25:32Z</time>
      </trkpt>
      <trkpt lat="45.45312" lon="6.21324">
        <ele>1932.9554443359</ele>
        <time>2010-08-04T17:25:40Z</time>
      </trkpt>
      <trkpt lat="45.45319" lon="6.21325">
        <ele>1929.5910644531</ele>
        <time>2010-08-04T17:25:45Z</time>
      </trkpt>
      <trkpt lat="45.45327" lon="6.21332">
        <ele>1927.7052001953</ele>
        <time>2010-08-04T17:25:49Z</time>
      </trkpt>
      <trkpt lat="45.45337" lon="6.21338">
        <ele>1924.5389404297</ele>
        <time>2010-08-04T17:25:55Z</time>
      </trkpt>
      <trkpt lat="45.45351" lon="6.21347">
        <ele>1921.0026855469</ele>
        <time>2010-08-04T17:26:02Z</time>
      </trkpt>
      <trkpt lat="45.45357" lon="6.21351">
        <ele>1919.4440917969</ele>
        <time>2010-08-04T17:26:05Z</time>
      </trkpt>
      <trkpt lat="45.45369" lon="6.21355">
        <ele>1915.4177246094</ele>
        <time>2010-08-04T17:26:10Z</time>
      </trkpt>
      <trkpt lat="45.4538" lon="6.2136">
        <ele>1911.5302734375</ele>
        <time>2010-08-04T17:26:15Z</time>
      </trkpt>
      <trkpt lat="45.45395" lon="6.21364">
        <ele>1907.2225341797</ele>
        <time>2010-08-04T17:26:21Z</time>
      </trkpt>
      <trkpt lat="45.45409" lon="6.21371">
        <ele>1905.4080810547</ele>
        <time>2010-08-04T17:26:27Z</time>
      </trkpt>
      <trkpt lat="45.45415" lon="6.21374">
        <ele>1904.6750488281</ele>
        <time>2010-08-04T17:26:29Z</time>
      </trkpt>
      <trkpt lat="45.45426" lon="6.21369">
        <ele>1900.2523193359</ele>
        <time>2010-08-04T17:26:34Z</time>
      </trkpt>
      <trkpt lat="45.45437" lon="6.21367">
        <ele>1896.1434326172</ele>
        <time>2010-08-04T17:26:40Z</time>
      </trkpt>
      <trkpt lat="45.45441" lon="6.21368">
        <ele>1895.0594482422</ele>
        <time>2010-08-04T17:26:42Z</time>
      </trkpt>
      <trkpt lat="45.45464" lon="6.21382">
        <ele>1890.39453125</ele>
        <time>2010-08-04T17:26:50Z</time>
      </trkpt>
      <trkpt lat="45.45481" lon="6.21388">
        <ele>1885.9527587891</ele>
        <time>2010-08-04T17:26:56Z</time>
      </trkpt>
      <trkpt lat="45.45492" lon="6.21392">
        <ele>1883.6162109375</ele>
        <time>2010-08-04T17:27:01Z</time>
      </trkpt>
      <trkpt lat="45.45505" lon="6.21394">
        <ele>1881.5072021484</ele>
        <time>2010-08-04T17:27:07Z</time>
      </trkpt>
      <trkpt lat="45.45522" lon="6.214">
        <ele>1880.3350830078</ele>
        <time>2010-08-04T17:27:14Z</time>
      </trkpt>
      <trkpt lat="45.45544" lon="6.21411">
        <ele>1879.0526123047</ele>
        <time>2010-08-04T17:27:22Z</time>
      </trkpt>
      <trkpt lat="45.45559" lon="6.21421">
        <ele>1879.6887207031</ele>
        <time>2010-08-04T17:27:29Z</time>
      </trkpt>
      <trkpt lat="45.4557" lon="6.21428">
        <ele>1879.0670166016</ele>
        <time>2010-08-04T17:27:36Z</time>
      </trkpt>
      <trkpt lat="45.45583" lon="6.21439">
        <ele>1879.4125976562</ele>
        <time>2010-08-04T17:27:43Z</time>
      </trkpt>
      <trkpt lat="45.45596" lon="6.21451">
        <ele>1880</ele>
        <time>2010-08-04T17:27:50Z</time>
      </trkpt>
      <trkpt lat="45.45609" lon="6.21463">
        <ele>1880</ele>
        <time>2010-08-04T17:27:57Z</time>
      </trkpt>
      <trkpt lat="45.45617" lon="6.21473">
        <ele>1880</ele>
        <time>2010-08-04T17:28:03Z</time>
      </trkpt>
      <trkpt lat="45.45627" lon="6.21483">
        <ele>1880</ele>
        <time>2010-08-04T17:28:08Z</time>
      </trkpt>
      <trkpt lat="45.4564" lon="6.21494">
        <ele>1879.6925048828</ele>
        <time>2010-08-04T17:28:14Z</time>
      </trkpt>
      <trkpt lat="45.45655" lon="6.21508">
        <ele>1877.8763427734</ele>
        <time>2010-08-04T17:28:21Z</time>
      </trkpt>
      <trkpt lat="45.4567" lon="6.21522">
        <ele>1878.0194091797</ele>
        <time>2010-08-04T17:28:28Z</time>
      </trkpt>
      <trkpt lat="45.45676" lon="6.21526">
        <ele>1876.6859130859</ele>
        <time>2010-08-04T17:28:31Z</time>
      </trkpt>
      <trkpt lat="45.45688" lon="6.21537">
        <ele>1872.0057373047</ele>
        <time>2010-08-04T17:28:37Z</time>
      </trkpt>
      <trkpt lat="45.45695" lon="6.21544">
        <ele>1868.9659423828</ele>
        <time>2010-08-04T17:28:41Z</time>
      </trkpt>
      <trkpt lat="45.45709" lon="6.21559">
        <ele>1864.6667480469</ele>
        <time>2010-08-04T17:28:48Z</time>
      </trkpt>
      <trkpt lat="45.45721" lon="6.21574">
        <ele>1862.0928955078</ele>
        <time>2010-08-04T17:28:55Z</time>
      </trkpt>
      <trkpt lat="45.45729" lon="6.21587">
        <ele>1861.4094238281</ele>
        <time>2010-08-04T17:29:00Z</time>
      </trkpt>
      <trkpt lat="45.45737" lon="6.216">
        <ele>1860.6778564453</ele>
        <time>2010-08-04T17:29:05Z</time>
      </trkpt>
      <trkpt lat="45.45741" lon="6.21609">
        <ele>1860.3389892578</ele>
        <time>2010-08-04T17:29:09Z</time>
      </trkpt>
      <trkpt lat="45.45747" lon="6.21625">
        <ele>1860.1081542969</ele>
        <time>2010-08-04T17:29:15Z</time>
      </trkpt>
      <trkpt lat="45.45749" lon="6.21626">
        <ele>1860.0258789062</ele>
        <time>2010-08-04T17:29:16Z</time>
      </trkpt>
      <trkpt lat="45.45758" lon="6.21635">
        <ele>1860</ele>
        <time>2010-08-04T17:29:22Z</time>
      </trkpt>
      <trkpt lat="45.45763" lon="6.2164">
        <ele>1860</ele>
        <time>2010-08-04T17:29:25Z</time>
      </trkpt>
      <trkpt lat="45.45767" lon="6.21642">
        <ele>1860</ele>
        <time>2010-08-04T17:29:27Z</time>
      </trkpt>
      <trkpt lat="45.45773" lon="6.21653">
        <ele>1860</ele>
        <time>2010-08-04T17:29:33Z</time>
      </trkpt>
      <trkpt lat="45.45777" lon="6.21658">
        <ele>1860</ele>
        <time>2010-08-04T17:29:37Z</time>
      </trkpt>
      <trkpt lat="45.45782" lon="6.21663">
        <ele>1859.3902587891</ele>
        <time>2010-08-04T17:29:40Z</time>
      </trkpt>
      <trkpt lat="45.45792" lon="6.21675">
        <ele>1857.3713378906</ele>
        <time>2010-08-04T17:29:47Z</time>
      </trkpt>
      <trkpt lat="45.45805" lon="6.21689">
        <ele>1853.1290283203</ele>
        <time>2010-08-04T17:29:54Z</time>
      </trkpt>
      <trkpt lat="45.45817" lon="6.21703">
        <ele>1847.3140869141</ele>
        <time>2010-08-04T17:30:00Z</time>
      </trkpt>
      <trkpt lat="45.45833" lon="6.21723">
        <ele>1842.0603027344</ele>
        <time>2010-08-04T17:30:09Z</time>
      </trkpt>
      <trkpt lat="45.45848" lon="6.21736">
        <ele>1840.7276611328</ele>
        <time>2010-08-04T17:30:16Z</time>
      </trkpt>
      <trkpt lat="45.4586" lon="6.21751">
        <ele>1840.0535888672</ele>
        <time>2010-08-04T17:30:22Z</time>
      </trkpt>
      <trkpt lat="45.45866" lon="6.21764">
        <ele>1839.4415283203</ele>
        <time>2010-08-04T17:30:27Z</time>
      </trkpt>
      <trkpt lat="45.45871" lon="6.21775">
        <ele>1839.7957763672</ele>
        <time>2010-08-04T17:30:30Z</time>
      </trkpt>
      <trkpt lat="45.45876" lon="6.21786">
        <ele>1839.125</ele>
        <time>2010-08-04T17:30:35Z</time>
      </trkpt>
      <trkpt lat="45.45878" lon="6.21797">
        <ele>1837.9200439453</ele>
        <time>2010-08-04T17:30:39Z</time>
      </trkpt>
      <trkpt lat="45.45882" lon="6.21807">
        <ele>1836.5295410156</ele>
        <time>2010-08-04T17:30:43Z</time>
      </trkpt>
      <trkpt lat="45.45887" lon="6.21813">
        <ele>1834.7725830078</ele>
        <time>2010-08-04T17:30:45Z</time>
      </trkpt>
      <trkpt lat="45.45898" lon="6.21822">
        <ele>1829.4813232422</ele>
        <time>2010-08-04T17:30:51Z</time>
      </trkpt>
      <trkpt lat="45.45905" lon="6.21828">
        <ele>1826.3198242188</ele>
        <time>2010-08-04T17:30:55Z</time>
      </trkpt>
      <trkpt lat="45.45908" lon="6.2183">
        <ele>1825.2458496094</ele>
        <time>2010-08-04T17:30:57Z</time>
      </trkpt>
      <trkpt lat="45.45916" lon="6.21837">
        <ele>1822.9421386719</ele>
        <time>2010-08-04T17:31:02Z</time>
      </trkpt>
      <trkpt lat="45.4592" lon="6.21844">
        <ele>1822.2698974609</ele>
        <time>2010-08-04T17:31:06Z</time>
      </trkpt>
      <trkpt lat="45.45922" lon="6.21854">
        <ele>1821.8067626953</ele>
        <time>2010-08-04T17:31:13Z</time>
      </trkpt>
      <trkpt lat="45.45927" lon="6.21861">
        <ele>1821.2447509766</ele>
        <time>2010-08-04T17:31:17Z</time>
      </trkpt>
      <trkpt lat="45.4593" lon="6.21868">
        <ele>1820.8969726562</ele>
        <time>2010-08-04T17:31:20Z</time>
      </trkpt>
      <trkpt lat="45.45944" lon="6.21882">
        <ele>1820.0275878906</ele>
        <time>2010-08-04T17:31:26Z</time>
      </trkpt>
      <trkpt lat="45.45948" lon="6.21888">
        <ele>1818.43359375</ele>
        <time>2010-08-04T17:31:30Z</time>
      </trkpt>
      <trkpt lat="45.45954" lon="6.21895">
        <ele>1814.7398681641</ele>
        <time>2010-08-04T17:31:34Z</time>
      </trkpt>
      <trkpt lat="45.45966" lon="6.21901">
        <ele>1809.6229248047</ele>
        <time>2010-08-04T17:31:40Z</time>
      </trkpt>
      <trkpt lat="45.45972" lon="6.21901">
        <ele>1807.7197265625</ele>
        <time>2010-08-04T17:31:43Z</time>
      </trkpt>
      <trkpt lat="45.45975" lon="6.21906">
        <ele>1805.6340332031</ele>
        <time>2010-08-04T17:31:46Z</time>
      </trkpt>
      <trkpt lat="45.4598" lon="6.2191">
        <ele>1802.0218505859</ele>
        <time>2010-08-04T17:31:50Z</time>
      </trkpt>
      <trkpt lat="45.4598" lon="6.21912">
        <ele>1801.8198242188</ele>
        <time>2010-08-04T17:31:51Z</time>
      </trkpt>
      <trkpt lat="45.45976" lon="6.21924">
        <ele>1803.0200195312</ele>
        <time>2010-08-04T17:31:57Z</time>
      </trkpt>
      <trkpt lat="45.45979" lon="6.2193">
        <ele>1800.1000976562</ele>
        <time>2010-08-04T17:32:01Z</time>
      </trkpt>
      <trkpt lat="45.45986" lon="6.21933">
        <ele>1795.9702148438</ele>
        <time>2010-08-04T17:32:06Z</time>
      </trkpt>
      <trkpt lat="45.45992" lon="6.21939">
        <ele>1792.3453369141</ele>
        <time>2010-08-04T17:32:12Z</time>
      </trkpt>
      <trkpt lat="45.45995" lon="6.21945">
        <ele>1789.9255371094</ele>
        <time>2010-08-04T17:32:17Z</time>
      </trkpt>
      <trkpt lat="45.46001" lon="6.21952">
        <ele>1786.4313964844</ele>
        <time>2010-08-04T17:32:23Z</time>
      </trkpt>
      <trkpt lat="45.46001" lon="6.21954">
        <ele>1785.697265625</ele>
        <time>2010-08-04T17:32:24Z</time>
      </trkpt>
      <trkpt lat="45.46009" lon="6.21966">
        <ele>1779.986328125</ele>
        <time>2010-08-04T17:32:30Z</time>
      </trkpt>
      <trkpt lat="45.46017" lon="6.21975">
        <ele>1775.7904052734</ele>
        <time>2010-08-04T17:32:34Z</time>
      </trkpt>
      <trkpt lat="45.46022" lon="6.21975">
        <ele>1773.5015869141</ele>
        <time>2010-08-04T17:32:38Z</time>
      </trkpt>
      <trkpt lat="45.46027" lon="6.21967">
        <ele>1771.1890869141</ele>
        <time>2010-08-04T17:32:45Z</time>
      </trkpt>
      <trkpt lat="45.4603" lon="6.21963">
        <ele>1769.3049316406</ele>
        <time>2010-08-04T17:32:47Z</time>
      </trkpt>
      <trkpt lat="45.46037" lon="6.21968">
        <ele>1765.7218017578</ele>
        <time>2010-08-04T17:32:53Z</time>
      </trkpt>
      <trkpt lat="45.46044" lon="6.21979">
        <ele>1763.236328125</ele>
        <time>2010-08-04T17:32:58Z</time>
      </trkpt>
      <trkpt lat="45.46048" lon="6.21986">
        <ele>1761.6168212891</ele>
        <time>2010-08-04T17:33:03Z</time>
      </trkpt>
      <trkpt lat="45.46054" lon="6.21993">
        <ele>1759.8411865234</ele>
        <time>2010-08-04T17:33:08Z</time>
      </trkpt>
      <trkpt lat="45.46057" lon="6.21996">
        <ele>1758.5731201172</ele>
        <time>2010-08-04T17:33:11Z</time>
      </trkpt>
      <trkpt lat="45.46062" lon="6.22004">
        <ele>1754.4743652344</ele>
        <time>2010-08-04T17:33:16Z</time>
      </trkpt>
      <trkpt lat="45.46073" lon="6.22005">
        <ele>1745.6226806641</ele>
        <time>2010-08-04T17:33:21Z</time>
      </trkpt>
      <trkpt lat="45.46082" lon="6.2201">
        <ele>1739.4641113281</ele>
        <time>2010-08-04T17:33:25Z</time>
      </trkpt>
      <trkpt lat="45.46099" lon="6.22027">
        <ele>1732.4969482422</ele>
        <time>2010-08-04T17:33:32Z</time>
      </trkpt>
      <trkpt lat="45.4611" lon="6.22036">
        <ele>1727.4289550781</ele>
        <time>2010-08-04T17:33:37Z</time>
      </trkpt>
      <trkpt lat="45.4612" lon="6.22042">
        <ele>1723.9484863281</ele>
        <time>2010-08-04T17:33:42Z</time>
      </trkpt>
      <trkpt lat="45.46126" lon="6.22042">
        <ele>1721.8865966797</ele>
        <time>2010-08-04T17:33:44Z</time>
      </trkpt>
      <trkpt lat="45.46131" lon="6.22033">
        <ele>1719.58984375</ele>
        <time>2010-08-04T17:33:48Z</time>
      </trkpt>
      <trkpt lat="45.46133" lon="6.22023">
        <ele>1717.6846923828</ele>
        <time>2010-08-04T17:33:52Z</time>
      </trkpt>
      <trkpt lat="45.46135" lon="6.22016">
        <ele>1715.9576416016</ele>
        <time>2010-08-04T17:33:58Z</time>
      </trkpt>
      <trkpt lat="45.46139" lon="6.22004">
        <ele>1712.5372314453</ele>
        <time>2010-08-04T17:34:03Z</time>
      </trkpt>
      <trkpt lat="45.46149" lon="6.21991">
        <ele>1710.0645751953</ele>
        <time>2010-08-04T17:34:10Z</time>
      </trkpt>
      <trkpt lat="45.4615" lon="6.21989">
        <ele>1709.6824951172</ele>
        <time>2010-08-04T17:34:11Z</time>
      </trkpt>
      <trkpt lat="45.46158" lon="6.21979">
        <ele>1707.2802734375</ele>
        <time>2010-08-04T17:34:17Z</time>
      </trkpt>
      <trkpt lat="45.46161" lon="6.21975">
        <ele>1706.3082275391</ele>
        <time>2010-08-04T17:34:19Z</time>
      </trkpt>
      <trkpt lat="45.46174" lon="6.21964">
        <ele>1701.5655517578</ele>
        <time>2010-08-04T17:34:25Z</time>
      </trkpt>
      <trkpt lat="45.46185" lon="6.21958">
        <ele>1697.7307128906</ele>
        <time>2010-08-04T17:34:30Z</time>
      </trkpt>
      <trkpt lat="45.46196" lon="6.2195">
        <ele>1694.1389160156</ele>
        <time>2010-08-04T17:34:35Z</time>
      </trkpt>
      <trkpt lat="45.46213" lon="6.21948">
        <ele>1689.8282470703</ele>
        <time>2010-08-04T17:34:40Z</time>
      </trkpt>
      <trkpt lat="45.4622" lon="6.21949">
        <ele>1688.2423095703</ele>
        <time>2010-08-04T17:34:42Z</time>
      </trkpt>
      <trkpt lat="45.46241" lon="6.21956">
        <ele>1685.9796142578</ele>
        <time>2010-08-04T17:34:47Z</time>
      </trkpt>
      <trkpt lat="45.46257" lon="6.2197">
        <ele>1685.5454101562</ele>
        <time>2010-08-04T17:34:52Z</time>
      </trkpt>
      <trkpt lat="45.46272" lon="6.21978">
        <ele>1683.2059326172</ele>
        <time>2010-08-04T17:34:57Z</time>
      </trkpt>
      <trkpt lat="45.46275" lon="6.21979">
        <ele>1682.8345947266</ele>
        <time>2010-08-04T17:34:58Z</time>
      </trkpt>
      <trkpt lat="45.46289" lon="6.21975">
        <ele>1677.6105957031</ele>
        <time>2010-08-04T17:35:03Z</time>
      </trkpt>
      <trkpt lat="45.46305" lon="6.21975">
        <ele>1672.8059082031</ele>
        <time>2010-08-04T17:35:08Z</time>
      </trkpt>
      <trkpt lat="45.46308" lon="6.21977">
        <ele>1671.9145507812</ele>
        <time>2010-08-04T17:35:09Z</time>
      </trkpt>
      <trkpt lat="45.46315" lon="6.21983">
        <ele>1670.3951416016</ele>
        <time>2010-08-04T17:35:11Z</time>
      </trkpt>
      <trkpt lat="45.46326" lon="6.21989">
        <ele>1667.1248779297</ele>
        <time>2010-08-04T17:35:16Z</time>
      </trkpt>
      <trkpt lat="45.46337" lon="6.21979">
        <ele>1661.4987792969</ele>
        <time>2010-08-04T17:35:20Z</time>
      </trkpt>
      <trkpt lat="45.46347" lon="6.21973">
        <ele>1658.119140625</ele>
        <time>2010-08-04T17:35:25Z</time>
      </trkpt>
      <trkpt lat="45.46355" lon="6.21972">
        <ele>1656.3796386719</ele>
        <time>2010-08-04T17:35:29Z</time>
      </trkpt>
      <trkpt lat="45.46368" lon="6.21974">
        <ele>1653.169921875</ele>
        <time>2010-08-04T17:35:34Z</time>
      </trkpt>
      <trkpt lat="45.46387" lon="6.21974">
        <ele>1647.9553222656</ele>
        <time>2010-08-04T17:35:40Z</time>
      </trkpt>
      <trkpt lat="45.464" lon="6.21983">
        <ele>1646.6755371094</ele>
        <time>2010-08-04T17:35:44Z</time>
      </trkpt>
      <trkpt lat="45.46415" lon="6.21989">
        <ele>1645.0244140625</ele>
        <time>2010-08-04T17:35:49Z</time>
      </trkpt>
      <trkpt lat="45.46418" lon="6.21988">
        <ele>1644.0920410156</ele>
        <time>2010-08-04T17:35:50Z</time>
      </trkpt>
      <trkpt lat="45.46431" lon="6.21963">
        <ele>1636.7269287109</ele>
        <time>2010-08-04T17:35:56Z</time>
      </trkpt>
      <trkpt lat="45.46437" lon="6.21953">
        <ele>1633.8774414062</ele>
        <time>2010-08-04T17:35:59Z</time>
      </trkpt>
      <trkpt lat="45.46449" lon="6.21941">
        <ele>1629.7375488281</ele>
        <time>2010-08-04T17:36:03Z</time>
      </trkpt>
      <trkpt lat="45.46457" lon="6.21935">
        <ele>1627.4682617188</ele>
        <time>2010-08-04T17:36:06Z</time>
      </trkpt>
      <trkpt lat="45.46468" lon="6.21933">
        <ele>1625.5867919922</ele>
        <time>2010-08-04T17:36:11Z</time>
      </trkpt>
      <trkpt lat="45.4648" lon="6.21928">
        <ele>1622.6293945312</ele>
        <time>2010-08-04T17:36:15Z</time>
      </trkpt>
      <trkpt lat="45.46494" lon="6.21919">
        <ele>1618.6296386719</ele>
        <time>2010-08-04T17:36:19Z</time>
      </trkpt>
      <trkpt lat="45.46496" lon="6.21918">
        <ele>1618.0373535156</ele>
        <time>2010-08-04T17:36:20Z</time>
      </trkpt>
      <trkpt lat="45.46508" lon="6.21916">
        <ele>1615.6741943359</ele>
        <time>2010-08-04T17:36:24Z</time>
      </trkpt>
      <trkpt lat="45.46527" lon="6.21913">
        <ele>1612.3405761719</ele>
        <time>2010-08-04T17:36:30Z</time>
      </trkpt>
      <trkpt lat="45.4654" lon="6.21914">
        <ele>1609.6649169922</ele>
        <time>2010-08-04T17:36:34Z</time>
      </trkpt>
      <trkpt lat="45.46544" lon="6.21912">
        <ele>1608.4321289062</ele>
        <time>2010-08-04T17:36:35Z</time>
      </trkpt>
      <trkpt lat="45.46553" lon="6.2191">
        <ele>1606.2513427734</ele>
        <time>2010-08-04T17:36:37Z</time>
      </trkpt>
      <trkpt lat="45.46563" lon="6.2191">
        <ele>1603.7883300781</ele>
        <time>2010-08-04T17:36:41Z</time>
      </trkpt>
      <trkpt lat="45.46582" lon="6.21909">
        <ele>1599.2292480469</ele>
        <time>2010-08-04T17:36:47Z</time>
      </trkpt>
      <trkpt lat="45.46596" lon="6.21904">
        <ele>1597.6872558594</ele>
        <time>2010-08-04T17:36:51Z</time>
      </trkpt>
      <trkpt lat="45.46613" lon="6.21894">
        <ele>1595.3577880859</ele>
        <time>2010-08-04T17:36:56Z</time>
      </trkpt>
      <trkpt lat="45.46614" lon="6.21891">
        <ele>1594.2965087891</ele>
        <time>2010-08-04T17:36:58Z</time>
      </trkpt>
      <trkpt lat="45.46609" lon="6.21882">
        <ele>1591.8790283203</ele>
        <time>2010-08-04T17:37:02Z</time>
      </trkpt>
      <trkpt lat="45.46601" lon="6.21871">
        <ele>1588.3383789062</ele>
        <time>2010-08-04T17:37:07Z</time>
      </trkpt>
      <trkpt lat="45.46592" lon="6.21855">
        <ele>1583.8962402344</ele>
        <time>2010-08-04T17:37:14Z</time>
      </trkpt>
      <trkpt lat="45.46589" lon="6.21846">
        <ele>1581.2353515625</ele>
        <time>2010-08-04T17:37:18Z</time>
      </trkpt>
      <trkpt lat="45.46595" lon="6.21829">
        <ele>1576.044921875</ele>
        <time>2010-08-04T17:37:24Z</time>
      </trkpt>
      <trkpt lat="45.46597" lon="6.21818">
        <ele>1572.6668701172</ele>
        <time>2010-08-04T17:37:29Z</time>
      </trkpt>
      <trkpt lat="45.46597" lon="6.21813">
        <ele>1571.1793212891</ele>
        <time>2010-08-04T17:37:31Z</time>
      </trkpt>
      <trkpt lat="45.46602" lon="6.21797">
        <ele>1566.3190917969</ele>
        <time>2010-08-04T17:37:36Z</time>
      </trkpt>
      <trkpt lat="45.466" lon="6.21783">
        <ele>1563.2972412109</ele>
        <time>2010-08-04T17:37:40Z</time>
      </trkpt>
      <trkpt lat="45.46598" lon="6.21762">
        <ele>1558.6187744141</ele>
        <time>2010-08-04T17:37:45Z</time>
      </trkpt>
      <trkpt lat="45.46604" lon="6.21746">
        <ele>1553.6756591797</ele>
        <time>2010-08-04T17:37:51Z</time>
      </trkpt>
      <trkpt lat="45.46604" lon="6.21727">
        <ele>1550.0411376953</ele>
        <time>2010-08-04T17:37:56Z</time>
      </trkpt>
      <trkpt lat="45.46602" lon="6.21712">
        <ele>1547.7663574219</ele>
        <time>2010-08-04T17:38:01Z</time>
      </trkpt>
      <trkpt lat="45.46602" lon="6.21701">
        <ele>1545.5687255859</ele>
        <time>2010-08-04T17:38:05Z</time>
      </trkpt>
      <trkpt lat="45.46606" lon="6.21686">
        <ele>1541.2663574219</ele>
        <time>2010-08-04T17:38:12Z</time>
      </trkpt>
      <trkpt lat="45.46608" lon="6.21685">
        <ele>1540.5738525391</ele>
        <time>2010-08-04T17:38:13Z</time>
      </trkpt>
      <trkpt lat="45.46608" lon="6.21669">
        <ele>1537.6047363281</ele>
        <time>2010-08-04T17:38:18Z</time>
      </trkpt>
      <trkpt lat="45.46612" lon="6.21646">
        <ele>1532.0090332031</ele>
        <time>2010-08-04T17:38:23Z</time>
      </trkpt>
      <trkpt lat="45.46612" lon="6.21639">
        <ele>1530.7584228516</ele>
        <time>2010-08-04T17:38:27Z</time>
      </trkpt>
      <trkpt lat="45.46616" lon="6.21643">
        <ele>1529.4010009766</ele>
        <time>2010-08-04T17:38:33Z</time>
      </trkpt>
      <trkpt lat="45.46619" lon="6.21645">
        <ele>1528.2288818359</ele>
        <time>2010-08-04T17:38:38Z</time>
      </trkpt>
      <trkpt lat="45.46622" lon="6.21642">
        <ele>1526.7224121094</ele>
        <time>2010-08-04T17:38:46Z</time>
      </trkpt>
      <trkpt lat="45.46629" lon="6.21652">
        <ele>1525.3856201172</ele>
        <time>2010-08-04T17:38:54Z</time>
      </trkpt>
      <trkpt lat="45.46636" lon="6.21665">
        <ele>1524.7974853516</ele>
        <time>2010-08-04T17:39:03Z</time>
      </trkpt>
      <trkpt lat="45.46638" lon="6.21667">
        <ele>1524.3588867188</ele>
        <time>2010-08-04T17:39:06Z</time>
      </trkpt>
      <trkpt lat="45.46649" lon="6.21681">
        <ele>1523.6237792969</ele>
        <time>2010-08-04T17:39:14Z</time>
      </trkpt>
      <trkpt lat="45.46658" lon="6.21689">
        <ele>1522.5241699219</ele>
        <time>2010-08-04T17:39:20Z</time>
      </trkpt>
      <trkpt lat="45.46665" lon="6.21692">
        <ele>1520.8879394531</ele>
        <time>2010-08-04T17:39:25Z</time>
      </trkpt>
      <trkpt lat="45.46676" lon="6.21698">
        <ele>1518.2946777344</ele>
        <time>2010-08-04T17:39:32Z</time>
      </trkpt>
      <trkpt lat="45.46678" lon="6.21699">
        <ele>1517.8170166016</ele>
        <time>2010-08-04T17:39:33Z</time>
      </trkpt>
      <trkpt lat="45.46686" lon="6.21701">
        <ele>1515.5357666016</ele>
        <time>2010-08-04T17:39:39Z</time>
      </trkpt>
      <trkpt lat="45.46692" lon="6.21702">
        <ele>1513.9289550781</ele>
        <time>2010-08-04T17:39:44Z</time>
      </trkpt>
      <trkpt lat="45.46703" lon="6.21699">
        <ele>1507.7132568359</ele>
        <time>2010-08-04T17:39:49Z</time>
      </trkpt>
      <trkpt lat="45.46717" lon="6.21696">
        <ele>1498.9448242188</ele>
        <time>2010-08-04T17:39:56Z</time>
      </trkpt>
      <trkpt lat="45.46721" lon="6.21696">
        <ele>1496.9879150391</ele>
        <time>2010-08-04T17:39:58Z</time>
      </trkpt>
      <trkpt lat="45.46736" lon="6.21708">
        <ele>1497.0003662109</ele>
        <time>2010-08-04T17:40:06Z</time>
      </trkpt>
      <trkpt lat="45.46745" lon="6.21713">
        <ele>1496.5102539062</ele>
        <time>2010-08-04T17:40:10Z</time>
      </trkpt>
      <trkpt lat="45.46758" lon="6.21717">
        <ele>1494.0186767578</ele>
        <time>2010-08-04T17:40:15Z</time>
      </trkpt>
      <trkpt lat="45.46776" lon="6.21719">
        <ele>1489.0124511719</ele>
        <time>2010-08-04T17:40:22Z</time>
      </trkpt>
      <trkpt lat="45.46794" lon="6.21726">
        <ele>1485.8082275391</ele>
        <time>2010-08-04T17:40:28Z</time>
      </trkpt>
      <trkpt lat="45.46804" lon="6.21734">
        <ele>1486.4327392578</ele>
        <time>2010-08-04T17:40:32Z</time>
      </trkpt>
      <trkpt lat="45.46815" lon="6.21742">
        <ele>1487.2415771484</ele>
        <time>2010-08-04T17:40:36Z</time>
      </trkpt>
      <trkpt lat="45.46828" lon="6.21736">
        <ele>1480.8890380859</ele>
        <time>2010-08-04T17:40:40Z</time>
      </trkpt>
      <trkpt lat="45.46844" lon="6.21732">
        <ele>1476.0926513672</ele>
        <time>2010-08-04T17:40:45Z</time>
      </trkpt>
      <trkpt lat="45.46861" lon="6.21735">
        <ele>1474.5772705078</ele>
        <time>2010-08-04T17:40:50Z</time>
      </trkpt>
      <trkpt lat="45.4688" lon="6.21736">
        <ele>1472.5534667969</ele>
        <time>2010-08-04T17:40:55Z</time>
      </trkpt>
      <trkpt lat="45.46889" lon="6.2174">
        <ele>1473.0806884766</ele>
        <time>2010-08-04T17:40:57Z</time>
      </trkpt>
      <trkpt lat="45.46908" lon="6.21743">
        <ele>1470.7963867188</ele>
        <time>2010-08-04T17:41:03Z</time>
      </trkpt>
      <trkpt lat="45.46926" lon="6.21757">
        <ele>1472.4348144531</ele>
        <time>2010-08-04T17:41:07Z</time>
      </trkpt>
      <trkpt lat="45.46942" lon="6.21762">
        <ele>1470.96875</ele>
        <time>2010-08-04T17:41:11Z</time>
      </trkpt>
      <trkpt lat="45.4695" lon="6.21766">
        <ele>1470.5911865234</ele>
        <time>2010-08-04T17:41:13Z</time>
      </trkpt>
      <trkpt lat="45.46964" lon="6.21779">
        <ele>1472.2353515625</ele>
        <time>2010-08-04T17:41:18Z</time>
      </trkpt>
      <trkpt lat="45.4697" lon="6.21783">
        <ele>1472.3560791016</ele>
        <time>2010-08-04T17:41:20Z</time>
      </trkpt>
      <trkpt lat="45.46992" lon="6.218">
        <ele>1472.3536376953</ele>
        <time>2010-08-04T17:41:26Z</time>
      </trkpt>
      <trkpt lat="45.47" lon="6.21806">
        <ele>1472.1834716797</ele>
        <time>2010-08-04T17:41:28Z</time>
      </trkpt>
      <trkpt lat="45.47025" lon="6.2182">
        <ele>1472.0106201172</ele>
        <time>2010-08-04T17:41:35Z</time>
      </trkpt>
      <trkpt lat="45.47034" lon="6.21831">
        <ele>1473.5555419922</ele>
        <time>2010-08-04T17:41:37Z</time>
      </trkpt>
      <trkpt lat="45.47053" lon="6.21847">
        <ele>1472.8660888672</ele>
        <time>2010-08-04T17:41:42Z</time>
      </trkpt>
      <trkpt lat="45.47058" lon="6.21855">
        <ele>1473.2034912109</ele>
        <time>2010-08-04T17:41:44Z</time>
      </trkpt>
      <trkpt lat="45.47075" lon="6.21869">
        <ele>1472.4267578125</ele>
        <time>2010-08-04T17:41:49Z</time>
      </trkpt>
      <trkpt lat="45.4709" lon="6.21883">
        <ele>1471.9799804688</ele>
        <time>2010-08-04T17:41:55Z</time>
      </trkpt>
      <trkpt lat="45.47101" lon="6.21892">
        <ele>1471.1140136719</ele>
        <time>2010-08-04T17:42:00Z</time>
      </trkpt>
      <trkpt lat="45.4711" lon="6.21899">
        <ele>1470.6369628906</ele>
        <time>2010-08-04T17:42:04Z</time>
      </trkpt>
      <trkpt lat="45.47129" lon="6.21926">
        <ele>1470.7568359375</ele>
        <time>2010-08-04T17:42:09Z</time>
      </trkpt>
      <trkpt lat="45.47131" lon="6.21927">
        <ele>1470.2332763672</ele>
        <time>2010-08-04T17:42:10Z</time>
      </trkpt>
      <trkpt lat="45.47141" lon="6.21926">
        <ele>1465.7547607422</ele>
        <time>2010-08-04T17:42:15Z</time>
      </trkpt>
      <trkpt lat="45.47156" lon="6.21923">
        <ele>1462.2358398438</ele>
        <time>2010-08-04T17:42:21Z</time>
      </trkpt>
      <trkpt lat="45.47158" lon="6.2192">
        <ele>1461.3969726562</ele>
        <time>2010-08-04T17:42:22Z</time>
      </trkpt>
      <trkpt lat="45.47167" lon="6.21918">
        <ele>1459.1844482422</ele>
        <time>2010-08-04T17:42:27Z</time>
      </trkpt>
      <trkpt lat="45.47181" lon="6.21914">
        <ele>1456.5035400391</ele>
        <time>2010-08-04T17:42:33Z</time>
      </trkpt>
      <trkpt lat="45.4719" lon="6.21899">
        <ele>1453.6032714844</ele>
        <time>2010-08-04T17:42:37Z</time>
      </trkpt>
      <trkpt lat="45.47192" lon="6.21895">
        <ele>1452.9442138672</ele>
        <time>2010-08-04T17:42:38Z</time>
      </trkpt>
      <trkpt lat="45.47197" lon="6.21877">
        <ele>1450.7204589844</ele>
        <time>2010-08-04T17:42:44Z</time>
      </trkpt>
      <trkpt lat="45.47198" lon="6.21871">
        <ele>1449.9000244141</ele>
        <time>2010-08-04T17:42:46Z</time>
      </trkpt>
      <trkpt lat="45.47202" lon="6.21865">
        <ele>1449.2083740234</ele>
        <time>2010-08-04T17:42:48Z</time>
      </trkpt>
      <trkpt lat="45.47206" lon="6.21855">
        <ele>1447.9427490234</ele>
        <time>2010-08-04T17:42:53Z</time>
      </trkpt>
      <trkpt lat="45.47208" lon="6.21854">
        <ele>1447.8355712891</ele>
        <time>2010-08-04T17:42:54Z</time>
      </trkpt>
      <trkpt lat="45.47219" lon="6.21848">
        <ele>1447.0633544922</ele>
        <time>2010-08-04T17:43:00Z</time>
      </trkpt>
      <trkpt lat="45.47227" lon="6.2184">
        <ele>1444.4940185547</ele>
        <time>2010-08-04T17:43:04Z</time>
      </trkpt>
      <trkpt lat="45.47233" lon="6.21832">
        <ele>1440.8264160156</ele>
        <time>2010-08-04T17:43:08Z</time>
      </trkpt>
      <trkpt lat="45.47239" lon="6.21828">
        <ele>1438.4475097656</ele>
        <time>2010-08-04T17:43:11Z</time>
      </trkpt>
      <trkpt lat="45.47248" lon="6.21824">
        <ele>1435.2803955078</ele>
        <time>2010-08-04T17:43:16Z</time>
      </trkpt>
      <trkpt lat="45.47252" lon="6.21823">
        <ele>1434.0544433594</ele>
        <time>2010-08-04T17:43:18Z</time>
      </trkpt>
      <trkpt lat="45.47259" lon="6.21815">
        <ele>1429.7080078125</ele>
        <time>2010-08-04T17:43:24Z</time>
      </trkpt>
      <trkpt lat="45.47266" lon="6.21805">
        <ele>1424.8530273438</ele>
        <time>2010-08-04T17:43:28Z</time>
      </trkpt>
      <trkpt lat="45.47269" lon="6.218">
        <ele>1422.7360839844</ele>
        <time>2010-08-04T17:43:32Z</time>
      </trkpt>
      <trkpt lat="45.47271" lon="6.21802">
        <ele>1422.5288085938</ele>
        <time>2010-08-04T17:43:35Z</time>
      </trkpt>
      <trkpt lat="45.47272" lon="6.21804">
        <ele>1422.5100097656</ele>
        <time>2010-08-04T17:43:37Z</time>
      </trkpt>
      <trkpt lat="45.47287" lon="6.21803">
        <ele>1417.8044433594</ele>
        <time>2010-08-04T17:43:43Z</time>
      </trkpt>
      <trkpt lat="45.47305" lon="6.21808">
        <ele>1413.7919921875</ele>
        <time>2010-08-04T17:43:48Z</time>
      </trkpt>
      <trkpt lat="45.47321" lon="6.21812">
        <ele>1408.6778564453</ele>
        <time>2010-08-04T17:43:53Z</time>
      </trkpt>
      <trkpt lat="45.47326" lon="6.21811">
        <ele>1406.7895507812</ele>
        <time>2010-08-04T17:43:55Z</time>
      </trkpt>
      <trkpt lat="45.47344" lon="6.21803">
        <ele>1399.1328125</ele>
        <time>2010-08-04T17:44:01Z</time>
      </trkpt>
      <trkpt lat="45.47359" lon="6.21817">
        <ele>1397.1834716797</ele>
        <time>2010-08-04T17:44:06Z</time>
      </trkpt>
      <trkpt lat="45.47375" lon="6.21832">
        <ele>1392.8665771484</ele>
        <time>2010-08-04T17:44:12Z</time>
      </trkpt>
      <trkpt lat="45.47384" lon="6.21847">
        <ele>1391.8657226562</ele>
        <time>2010-08-04T17:44:15Z</time>
      </trkpt>
      <trkpt lat="45.47395" lon="6.21834">
        <ele>1385.6369628906</ele>
        <time>2010-08-04T17:44:20Z</time>
      </trkpt>
      <trkpt lat="45.47401" lon="6.2181">
        <ele>1377.6851806641</ele>
        <time>2010-08-04T17:44:25Z</time>
      </trkpt>
      <trkpt lat="45.47403" lon="6.21806">
        <ele>1375.9666748047</ele>
        <time>2010-08-04T17:44:26Z</time>
      </trkpt>
      <trkpt lat="45.47406" lon="6.21792">
        <ele>1372.7713623047</ele>
        <time>2010-08-04T17:44:30Z</time>
      </trkpt>
      <trkpt lat="45.47403" lon="6.21788">
        <ele>1372.7181396484</ele>
        <time>2010-08-04T17:44:32Z</time>
      </trkpt>
      <trkpt lat="45.47411" lon="6.21789">
        <ele>1370.6839599609</ele>
        <time>2010-08-04T17:44:38Z</time>
      </trkpt>
      <trkpt lat="45.47415" lon="6.21793">
        <ele>1370.2462158203</ele>
        <time>2010-08-04T17:44:41Z</time>
      </trkpt>
      <trkpt lat="45.47427" lon="6.21814">
        <ele>1371.2995605469</ele>
        <time>2010-08-04T17:44:47Z</time>
      </trkpt>
      <trkpt lat="45.47432" lon="6.21811">
        <ele>1369.0217285156</ele>
        <time>2010-08-04T17:44:52Z</time>
      </trkpt>
      <trkpt lat="45.47435" lon="6.21799">
        <ele>1365.2020263672</ele>
        <time>2010-08-04T17:44:57Z</time>
      </trkpt>
      <trkpt lat="45.47442" lon="6.21776">
        <ele>1358.3255615234</ele>
        <time>2010-08-04T17:45:03Z</time>
      </trkpt>
      <trkpt lat="45.47441" lon="6.21769">
        <ele>1356.1568603516</ele>
        <time>2010-08-04T17:45:09Z</time>
      </trkpt>
      <trkpt lat="45.47441" lon="6.21771">
        <ele>1356.7230224609</ele>
        <time>2010-08-04T17:45:10Z</time>
      </trkpt>
      <trkpt lat="45.47451" lon="6.2178">
        <ele>1355.8361816406</ele>
        <time>2010-08-04T17:45:16Z</time>
      </trkpt>
      <trkpt lat="45.47459" lon="6.21769">
        <ele>1349.1121826172</ele>
        <time>2010-08-04T17:45:20Z</time>
      </trkpt>
      <trkpt lat="45.47462" lon="6.21763">
        <ele>1345.517578125</ele>
        <time>2010-08-04T17:45:22Z</time>
      </trkpt>
      <trkpt lat="45.47466" lon="6.21753">
        <ele>1340.8054199219</ele>
        <time>2010-08-04T17:45:25Z</time>
      </trkpt>
      <trkpt lat="45.47467" lon="6.21731">
        <ele>1331.7606201172</ele>
        <time>2010-08-04T17:45:30Z</time>
      </trkpt>
      <trkpt lat="45.47465" lon="6.21727">
        <ele>1331.0317382812</ele>
        <time>2010-08-04T17:45:31Z</time>
      </trkpt>
      <trkpt lat="45.47456" lon="6.21712">
        <ele>1328.0806884766</ele>
        <time>2010-08-04T17:45:36Z</time>
      </trkpt>
      <trkpt lat="45.47466" lon="6.21713">
        <ele>1323.6517333984</ele>
        <time>2010-08-04T17:45:41Z</time>
      </trkpt>
      <trkpt lat="45.47485" lon="6.21721">
        <ele>1316.2824707031</ele>
        <time>2010-08-04T17:45:47Z</time>
      </trkpt>
      <trkpt lat="45.47498" lon="6.21734">
        <ele>1313.9703369141</ele>
        <time>2010-08-04T17:45:52Z</time>
      </trkpt>
      <trkpt lat="45.47503" lon="6.21746">
        <ele>1316.9709472656</ele>
        <time>2010-08-04T17:45:56Z</time>
      </trkpt>
      <trkpt lat="45.47512" lon="6.21763">
        <ele>1317.9348144531</ele>
        <time>2010-08-04T17:46:02Z</time>
      </trkpt>
      <trkpt lat="45.47523" lon="6.21775">
        <ele>1317.3328857422</ele>
        <time>2010-08-04T17:46:06Z</time>
      </trkpt>
      <trkpt lat="45.47531" lon="6.21801">
        <ele>1317.7872314453</ele>
        <time>2010-08-04T17:46:11Z</time>
      </trkpt>
      <trkpt lat="45.47537" lon="6.21809">
        <ele>1316.0159912109</ele>
        <time>2010-08-04T17:46:15Z</time>
      </trkpt>
      <trkpt lat="45.47545" lon="6.21823">
        <ele>1314.5112304688</ele>
        <time>2010-08-04T17:46:20Z</time>
      </trkpt>
      <trkpt lat="45.47554" lon="6.21831">
        <ele>1311.1217041016</ele>
        <time>2010-08-04T17:46:24Z</time>
      </trkpt>
      <trkpt lat="45.47565" lon="6.21836">
        <ele>1305.1734619141</ele>
        <time>2010-08-04T17:46:28Z</time>
      </trkpt>
      <trkpt lat="45.4758" lon="6.21854">
        <ele>1297.3778076172</ele>
        <time>2010-08-04T17:46:34Z</time>
      </trkpt>
      <trkpt lat="45.47602" lon="6.21858">
        <ele>1284.6003417969</ele>
        <time>2010-08-04T17:46:39Z</time>
      </trkpt>
      <trkpt lat="45.47607" lon="6.21856">
        <ele>1281.9029541016</ele>
        <time>2010-08-04T17:46:40Z</time>
      </trkpt>
      <trkpt lat="45.47617" lon="6.21836">
        <ele>1272.9152832031</ele>
        <time>2010-08-04T17:46:45Z</time>
      </trkpt>
      <trkpt lat="45.47619" lon="6.21832">
        <ele>1270.9948730469</ele>
        <time>2010-08-04T17:46:46Z</time>
      </trkpt>
      <trkpt lat="45.47629" lon="6.21813">
        <ele>1261.5432128906</ele>
        <time>2010-08-04T17:46:51Z</time>
      </trkpt>
      <trkpt lat="45.47639" lon="6.2179">
        <ele>1251.9294433594</ele>
        <time>2010-08-04T17:46:57Z</time>
      </trkpt>
      <trkpt lat="45.47642" lon="6.21771">
        <ele>1247.0794677734</ele>
        <time>2010-08-04T17:47:01Z</time>
      </trkpt>
      <trkpt lat="45.47646" lon="6.2175">
        <ele>1240.9494628906</ele>
        <time>2010-08-04T17:47:05Z</time>
      </trkpt>
      <trkpt lat="45.47648" lon="6.21733">
        <ele>1237.5300292969</ele>
        <time>2010-08-04T17:47:09Z</time>
      </trkpt>
      <trkpt lat="45.47652" lon="6.21701">
        <ele>1231.1669921875</ele>
        <time>2010-08-04T17:47:15Z</time>
      </trkpt>
      <trkpt lat="45.47653" lon="6.21696">
        <ele>1229.9587402344</ele>
        <time>2010-08-04T17:47:16Z</time>
      </trkpt>
      <trkpt lat="45.47649" lon="6.21686">
        <ele>1230.6015625</ele>
        <time>2010-08-04T17:47:22Z</time>
      </trkpt>
      <trkpt lat="45.47649" lon="6.21686">
        <ele>1230.439453125</ele>
        <time>2010-08-04T17:47:23Z</time>
      </trkpt>
      <trkpt lat="45.47655" lon="6.21689">
        <ele>1228.3068847656</ele>
        <time>2010-08-04T17:47:27Z</time>
      </trkpt>
      <trkpt lat="45.47662" lon="6.21698">
        <ele>1225.7497558594</ele>
        <time>2010-08-04T17:47:32Z</time>
      </trkpt>
      <trkpt lat="45.4767" lon="6.21708">
        <ele>1222.853515625</ele>
        <time>2010-08-04T17:47:36Z</time>
      </trkpt>
      <trkpt lat="45.47673" lon="6.21709">
        <ele>1222.0272216797</ele>
        <time>2010-08-04T17:47:37Z</time>
      </trkpt>
      <trkpt lat="45.47677" lon="6.21712">
        <ele>1220.4672851562</ele>
        <time>2010-08-04T17:47:39Z</time>
      </trkpt>
      <trkpt lat="45.47686" lon="6.21724">
        <ele>1218.8468017578</ele>
        <time>2010-08-04T17:47:45Z</time>
      </trkpt>
      <trkpt lat="45.47688" lon="6.21729">
        <ele>1218.9122314453</ele>
        <time>2010-08-04T17:47:47Z</time>
      </trkpt>
      <trkpt lat="45.47691" lon="6.21743">
        <ele>1219.9931640625</ele>
        <time>2010-08-04T17:47:53Z</time>
      </trkpt>
      <trkpt lat="45.47692" lon="6.21755">
        <ele>1221.11328125</ele>
        <time>2010-08-04T17:47:57Z</time>
      </trkpt>
      <trkpt lat="45.47701" lon="6.21771">
        <ele>1218.1658935547</ele>
        <time>2010-08-04T17:48:02Z</time>
      </trkpt>
      <trkpt lat="45.47728" lon="6.21779">
        <ele>1204.09765625</ele>
        <time>2010-08-04T17:48:08Z</time>
      </trkpt>
      <trkpt lat="45.47737" lon="6.21778">
        <ele>1198.9052734375</ele>
        <time>2010-08-04T17:48:10Z</time>
      </trkpt>
      <trkpt lat="45.47757" lon="6.21762">
        <ele>1186.2355957031</ele>
        <time>2010-08-04T17:48:14Z</time>
      </trkpt>
      <trkpt lat="45.47773" lon="6.21747">
        <ele>1174.7270507812</ele>
        <time>2010-08-04T17:48:17Z</time>
      </trkpt>
      <trkpt lat="45.47765" lon="6.21721">
        <ele>1173.7403564453</ele>
        <time>2010-08-04T17:48:22Z</time>
      </trkpt>
      <trkpt lat="45.47758" lon="6.21691">
        <ele>1171.3435058594</ele>
        <time>2010-08-04T17:48:27Z</time>
      </trkpt>
      <trkpt lat="45.47754" lon="6.21678">
        <ele>1170.4840087891</ele>
        <time>2010-08-04T17:48:30Z</time>
      </trkpt>
      <trkpt lat="45.4775" lon="6.21656">
        <ele>1165.6291503906</ele>
        <time>2010-08-04T17:48:35Z</time>
      </trkpt>
      <trkpt lat="45.47758" lon="6.21641">
        <ele>1156.2019042969</ele>
        <time>2010-08-04T17:48:40Z</time>
      </trkpt>
      <trkpt lat="45.4776" lon="6.21646">
        <ele>1156.6336669922</ele>
        <time>2010-08-04T17:48:44Z</time>
      </trkpt>
      <trkpt lat="45.4777" lon="6.21662">
        <ele>1156.4318847656</ele>
        <time>2010-08-04T17:48:50Z</time>
      </trkpt>
      <trkpt lat="45.47776" lon="6.2167">
        <ele>1154.9118652344</ele>
        <time>2010-08-04T17:48:53Z</time>
      </trkpt>
      <trkpt lat="45.47791" lon="6.21693">
        <ele>1152.3983154297</ele>
        <time>2010-08-04T17:49:00Z</time>
      </trkpt>
      <trkpt lat="45.47792" lon="6.21697">
        <ele>1153.1644287109</ele>
        <time>2010-08-04T17:49:01Z</time>
      </trkpt>
      <trkpt lat="45.47804" lon="6.21711">
        <ele>1150.5788574219</ele>
        <time>2010-08-04T17:49:06Z</time>
      </trkpt>
      <trkpt lat="45.47813" lon="6.21711">
        <ele>1145.9884033203</ele>
        <time>2010-08-04T17:49:09Z</time>
      </trkpt>
      <trkpt lat="45.47824" lon="6.21701">
        <ele>1138.4836425781</ele>
        <time>2010-08-04T17:49:15Z</time>
      </trkpt>
      <trkpt lat="45.47831" lon="6.21676">
        <ele>1129.7229003906</ele>
        <time>2010-08-04T17:49:20Z</time>
      </trkpt>
      <trkpt lat="45.47838" lon="6.21664">
        <ele>1124.5084228516</ele>
        <time>2010-08-04T17:49:24Z</time>
      </trkpt>
      <trkpt lat="45.47842" lon="6.21644">
        <ele>1118.7913818359</ele>
        <time>2010-08-04T17:49:28Z</time>
      </trkpt>
      <trkpt lat="45.47842" lon="6.21639">
        <ele>1117.3415527344</ele>
        <time>2010-08-04T17:49:29Z</time>
      </trkpt>
      <trkpt lat="45.47841" lon="6.21612">
        <ele>1107.0744628906</ele>
        <time>2010-08-04T17:49:34Z</time>
      </trkpt>
      <trkpt lat="45.47842" lon="6.21593">
        <ele>1100.626953125</ele>
        <time>2010-08-04T17:49:38Z</time>
      </trkpt>
      <trkpt lat="45.47845" lon="6.21565">
        <ele>1091.8637695312</ele>
        <time>2010-08-04T17:49:44Z</time>
      </trkpt>
      <trkpt lat="45.47852" lon="6.21534">
        <ele>1081.8310546875</ele>
        <time>2010-08-04T17:49:49Z</time>
      </trkpt>
      <trkpt lat="45.47854" lon="6.21528">
        <ele>1079.4470214844</ele>
        <time>2010-08-04T17:49:50Z</time>
      </trkpt>
      <trkpt lat="45.47858" lon="6.215">
        <ele>1071.8321533203</ele>
        <time>2010-08-04T17:49:55Z</time>
      </trkpt>
      <trkpt lat="45.47861" lon="6.21477">
        <ele>1065.2846679688</ele>
        <time>2010-08-04T17:50:01Z</time>
      </trkpt>
      <trkpt lat="45.47866" lon="6.21452">
        <ele>1056.6550292969</ele>
        <time>2010-08-04T17:50:06Z</time>
      </trkpt>
      <trkpt lat="45.47868" lon="6.21433">
        <ele>1050.1765136719</ele>
        <time>2010-08-04T17:50:11Z</time>
      </trkpt>
      <trkpt lat="45.47868" lon="6.21421">
        <ele>1046.5546875</ele>
        <time>2010-08-04T17:50:15Z</time>
      </trkpt>
      <trkpt lat="45.47874" lon="6.21398">
        <ele>1037.4752197266</ele>
        <time>2010-08-04T17:50:21Z</time>
      </trkpt>
      <trkpt lat="45.4788" lon="6.21368">
        <ele>1026.6239013672</ele>
        <time>2010-08-04T17:50:27Z</time>
      </trkpt>
      <trkpt lat="45.47886" lon="6.21339">
        <ele>1018.2733764648</ele>
        <time>2010-08-04T17:50:33Z</time>
      </trkpt>
      <trkpt lat="45.47891" lon="6.21312">
        <ele>1010.0712890625</ele>
        <time>2010-08-04T17:50:39Z</time>
      </trkpt>
      <trkpt lat="45.47896" lon="6.21288">
        <ele>1002.3162841797</ele>
        <time>2010-08-04T17:50:44Z</time>
      </trkpt>
      <trkpt lat="45.47903" lon="6.21262">
        <ele>994.49200439453</ele>
        <time>2010-08-04T17:50:49Z</time>
      </trkpt>
      <trkpt lat="45.47909" lon="6.21239">
        <ele>986.79113769531</ele>
        <time>2010-08-04T17:50:54Z</time>
      </trkpt>
      <trkpt lat="45.47913" lon="6.21221">
        <ele>980.78021240234</ele>
        <time>2010-08-04T17:50:59Z</time>
      </trkpt>
      <trkpt lat="45.47915" lon="6.21198">
        <ele>973.21350097656</ele>
        <time>2010-08-04T17:51:04Z</time>
      </trkpt>
      <trkpt lat="45.47914" lon="6.21188">
        <ele>969.89532470703</ele>
        <time>2010-08-04T17:51:08Z</time>
      </trkpt>
      <trkpt lat="45.47895" lon="6.21175">
        <ele>975.66027832031</ele>
        <time>2010-08-04T17:51:16Z</time>
      </trkpt>
      <trkpt lat="45.47824" lon="6.21148">
        <ele>1007.5887451172</ele>
        <time>2010-08-04T17:51:19Z</time>
      </trkpt>
      <trkpt lat="45.47803" lon="6.21138">
        <ele>1015.5467529297</ele>
        <time>2010-08-04T17:51:27Z</time>
      </trkpt>
      <trkpt lat="45.47793" lon="6.2111">
        <ele>1014.4215087891</ele>
        <time>2010-08-04T17:51:40Z</time>
      </trkpt>
      <trkpt lat="45.47779" lon="6.21102">
        <ele>1018.582824707</ele>
        <time>2010-08-04T17:51:53Z</time>
      </trkpt>
      <trkpt lat="45.47763" lon="6.211">
        <ele>1024.7797851562</ele>
        <time>2010-08-04T17:51:57Z</time>
      </trkpt>
      <trkpt lat="45.4776" lon="6.21099">
        <ele>1026.1070556641</ele>
        <time>2010-08-04T17:52:00Z</time>
      </trkpt>
      <trkpt lat="45.47757" lon="6.21099">
        <ele>1027.1999511719</ele>
        <time>2010-08-04T17:52:03Z</time>
      </trkpt>
      <trkpt lat="45.47756" lon="6.21097">
        <ele>1027.5812988281</ele>
        <time>2010-08-04T17:52:05Z</time>
      </trkpt>
      <trkpt lat="45.47754" lon="6.21094">
        <ele>1027.9401855469</ele>
        <time>2010-08-04T17:52:07Z</time>
      </trkpt>
      <trkpt lat="45.47746" lon="6.21087">
        <ele>1029.564453125</ele>
        <time>2010-08-04T17:52:16Z</time>
      </trkpt>
      <trkpt lat="45.47746" lon="6.21084">
        <ele>1029.0053710938</ele>
        <time>2010-08-04T17:52:28Z</time>
      </trkpt>
      <trkpt lat="45.47746" lon="6.21085">
        <ele>1029.3153076172</ele>
        <time>2010-08-04T17:52:35Z</time>
      </trkpt>
      <trkpt lat="45.47743" lon="6.21081">
        <ele>1029.5250244141</ele>
        <time>2010-08-04T17:52:40Z</time>
      </trkpt>
      <trkpt lat="45.47738" lon="6.21074">
        <ele>1029.6555175781</ele>
        <time>2010-08-04T17:52:49Z</time>
      </trkpt>
      <trkpt lat="45.47736" lon="6.21071">
        <ele>1029.6760253906</ele>
        <time>2010-08-04T17:52:54Z</time>
      </trkpt>
      <trkpt lat="45.4773" lon="6.21066">
        <ele>1030.6236572266</ele>
        <time>2010-08-04T17:53:01Z</time>
      </trkpt>
      <trkpt lat="45.47727" lon="6.21062">
        <ele>1030.6511230469</ele>
        <time>2010-08-04T17:53:05Z</time>
      </trkpt>
      <trkpt lat="45.47722" lon="6.21058">
        <ele>1031.3583984375</ele>
        <time>2010-08-04T17:53:10Z</time>
      </trkpt>
      <trkpt lat="45.47718" lon="6.21058">
        <ele>1032.6416015625</ele>
        <time>2010-08-04T17:53:13Z</time>
      </trkpt>
      <trkpt lat="45.4771" lon="6.21055">
        <ele>1034.3225097656</ele>
        <time>2010-08-04T17:53:18Z</time>
      </trkpt>
      <trkpt lat="45.47705" lon="6.21054">
        <ele>1035.4909667969</ele>
        <time>2010-08-04T17:53:20Z</time>
      </trkpt>
      <trkpt lat="45.47699" lon="6.21051">
        <ele>1036.7033691406</ele>
        <time>2010-08-04T17:53:24Z</time>
      </trkpt>
      <trkpt lat="45.47694" lon="6.2105">
        <ele>1037.8909912109</ele>
        <time>2010-08-04T17:53:27Z</time>
      </trkpt>
      <trkpt lat="45.47692" lon="6.2105">
        <ele>1038.3166503906</ele>
        <time>2010-08-04T17:53:29Z</time>
      </trkpt>
      <trkpt lat="45.47691" lon="6.21048">
        <ele>1038.2755126953</ele>
        <time>2010-08-04T17:53:31Z</time>
      </trkpt>
      <trkpt lat="45.47688" lon="6.21044">
        <ele>1038.2583007812</ele>
        <time>2010-08-04T17:53:35Z</time>
      </trkpt>
      <trkpt lat="45.47685" lon="6.21041">
        <ele>1038.5913085938</ele>
        <time>2010-08-04T17:53:37Z</time>
      </trkpt>
      <trkpt lat="45.47677" lon="6.21037">
        <ele>1040.0812988281</ele>
        <time>2010-08-04T17:53:42Z</time>
      </trkpt>
      <trkpt lat="45.47667" lon="6.21035">
        <ele>1042.4674072266</ele>
        <time>2010-08-04T17:53:47Z</time>
      </trkpt>
      <trkpt lat="45.47665" lon="6.21034">
        <ele>1042.9797363281</ele>
        <time>2010-08-04T17:53:49Z</time>
      </trkpt>
      <trkpt lat="45.47657" lon="6.2103">
        <ele>1044.5144042969</ele>
        <time>2010-08-04T17:53:58Z</time>
      </trkpt>
      <trkpt lat="45.47656" lon="6.21028">
        <ele>1044.3624267578</ele>
        <time>2010-08-04T17:53:59Z</time>
      </trkpt>
      <trkpt lat="45.47649" lon="6.21018">
        <ele>1044.7933349609</ele>
        <time>2010-08-04T17:54:06Z</time>
      </trkpt>
      <trkpt lat="45.47644" lon="6.21013">
        <ele>1045.6309814453</ele>
        <time>2010-08-04T17:54:12Z</time>
      </trkpt>
      <trkpt lat="45.4764" lon="6.21007">
        <ele>1045.7855224609</ele>
        <time>2010-08-04T17:54:16Z</time>
      </trkpt>
      <trkpt lat="45.47637" lon="6.21004">
        <ele>1046.3464355469</ele>
        <time>2010-08-04T17:54:20Z</time>
      </trkpt>
      <trkpt lat="45.47636" lon="6.20998">
        <ele>1045.4467773438</ele>
        <time>2010-08-04T17:54:24Z</time>
      </trkpt>
      <trkpt lat="45.47634" lon="6.20994">
        <ele>1045.4145507812</ele>
        <time>2010-08-04T17:54:28Z</time>
      </trkpt>
      <trkpt lat="45.47628" lon="6.20985">
        <ele>1045.0390625</ele>
        <time>2010-08-04T17:54:37Z</time>
      </trkpt>
      <trkpt lat="45.47622" lon="6.20979">
        <ele>1045.6181640625</ele>
        <time>2010-08-04T17:54:46Z</time>
      </trkpt>
      <trkpt lat="45.47619" lon="6.20975">
        <ele>1045.6121826172</ele>
        <time>2010-08-04T17:54:53Z</time>
      </trkpt>
      <trkpt lat="45.47618" lon="6.20973">
        <ele>1045.2956542969</ele>
        <time>2010-08-04T17:54:55Z</time>
      </trkpt>
      <trkpt lat="45.47617" lon="6.20961">
        <ele>1042.6998291016</ele>
        <time>2010-08-04T17:55:00Z</time>
      </trkpt>
      <trkpt lat="45.47614" lon="6.20955">
        <ele>1042.3297119141</ele>
        <time>2010-08-04T17:55:04Z</time>
      </trkpt>
      <trkpt lat="45.47608" lon="6.20947">
        <ele>1042.5682373047</ele>
        <time>2010-08-04T17:55:10Z</time>
      </trkpt>
      <trkpt lat="45.476" lon="6.20933">
        <ele>1041.0236816406</ele>
        <time>2010-08-04T17:55:20Z</time>
      </trkpt>
      <trkpt lat="45.47593" lon="6.20918">
        <ele>1038.4591064453</ele>
        <time>2010-08-04T17:55:28Z</time>
      </trkpt>
      <trkpt lat="45.47592" lon="6.20916">
        <ele>1038.0504150391</ele>
        <time>2010-08-04T17:55:29Z</time>
      </trkpt>
      <trkpt lat="45.47589" lon="6.20913">
        <ele>1037.4947509766</ele>
        <time>2010-08-04T17:55:32Z</time>
      </trkpt>
      <trkpt lat="45.47585" lon="6.20907">
        <ele>1036.2301025391</ele>
        <time>2010-08-04T17:55:36Z</time>
      </trkpt>
      <trkpt lat="45.4758" lon="6.20905">
        <ele>1036.3366699219</ele>
        <time>2010-08-04T17:55:39Z</time>
      </trkpt>
      <trkpt lat="45.47575" lon="6.20901">
        <ele>1035.6160888672</ele>
        <time>2010-08-04T17:55:43Z</time>
      </trkpt>
      <trkpt lat="45.47562" lon="6.20895">
        <ele>1034.1749267578</ele>
        <time>2010-08-04T17:55:52Z</time>
      </trkpt>
      <trkpt lat="45.47551" lon="6.20893">
        <ele>1034.2329101562</ele>
        <time>2010-08-04T17:56:00Z</time>
      </trkpt>
      <trkpt lat="45.47548" lon="6.20893">
        <ele>1034.8830566406</ele>
        <time>2010-08-04T17:56:02Z</time>
      </trkpt>
      <trkpt lat="45.47544" lon="6.20894">
        <ele>1035.7899169922</ele>
        <time>2010-08-04T17:56:04Z</time>
      </trkpt>
      <trkpt lat="45.47533" lon="6.20894">
        <ele>1037.2540283203</ele>
        <time>2010-08-04T17:56:12Z</time>
      </trkpt>
      <trkpt lat="45.47516" lon="6.20896">
        <ele>1040.0668945312</ele>
        <time>2010-08-04T17:56:23Z</time>
      </trkpt>
      <trkpt lat="45.47505" lon="6.20899">
        <ele>1042.1462402344</ele>
        <time>2010-08-04T17:56:29Z</time>
      </trkpt>
      <trkpt lat="45.47496" lon="6.209">
        <ele>1042.9311523438</ele>
        <time>2010-08-04T17:56:34Z</time>
      </trkpt>
      <trkpt lat="45.47485" lon="6.20911">
        <ele>1047.7348632812</ele>
        <time>2010-08-04T17:56:48Z</time>
      </trkpt>
      <trkpt lat="45.47485" lon="6.20913">
        <ele>1048.322265625</ele>
        <time>2010-08-04T17:56:55Z</time>
      </trkpt>
      <trkpt lat="45.4749" lon="6.20917">
        <ele>1050.4405517578</ele>
        <time>2010-08-04T17:57:02Z</time>
      </trkpt>
      <trkpt lat="45.47494" lon="6.20922">
        <ele>1053.6964111328</ele>
        <time>2010-08-04T17:57:07Z</time>
      </trkpt>
      <trkpt lat="45.47484" lon="6.20934">
        <ele>1061.8824462891</ele>
        <time>2010-08-04T17:57:14Z</time>
      </trkpt>
      <trkpt lat="45.47472" lon="6.20934">
        <ele>1062.8228759766</ele>
        <time>2010-08-04T17:57:19Z</time>
      </trkpt>
      <trkpt lat="45.47469" lon="6.20932">
        <ele>1060.8106689453</ele>
        <time>2010-08-04T17:57:23Z</time>
      </trkpt>
      <trkpt lat="45.4745" lon="6.20936">
        <ele>1063.5200195312</ele>
        <time>2010-08-04T17:57:28Z</time>
      </trkpt>
      <trkpt lat="45.47429" lon="6.2094">
        <ele>1064.3642578125</ele>
        <time>2010-08-04T17:57:34Z</time>
      </trkpt>
      <trkpt lat="45.47419" lon="6.20943">
        <ele>1063.9268798828</ele>
        <time>2010-08-04T17:57:37Z</time>
      </trkpt>
      <trkpt lat="45.47404" lon="6.20947">
        <ele>1070.9965820312</ele>
        <time>2010-08-04T17:57:43Z</time>
      </trkpt>
      <trkpt lat="45.47401" lon="6.20947">
        <ele>1072.5078125</ele>
        <time>2010-08-04T17:57:44Z</time>
      </trkpt>
      <trkpt lat="45.47382" lon="6.20942">
        <ele>1080.9157714844</ele>
        <time>2010-08-04T17:57:51Z</time>
      </trkpt>
      <trkpt lat="45.47374" lon="6.20935">
        <ele>1086.1407470703</ele>
        <time>2010-08-04T17:57:55Z</time>
      </trkpt>
      <trkpt lat="45.47374" lon="6.20935">
        <ele>1086.0155029297</ele>
        <time>2010-08-04T17:57:56Z</time>
      </trkpt>
      <trkpt lat="45.47385" lon="6.20933">
        <ele>1079.4735107422</ele>
        <time>2010-08-04T17:58:00Z</time>
      </trkpt>
      <trkpt lat="45.47425" lon="6.20945">
        <ele>1065.5356445312</ele>
        <time>2010-08-04T17:58:05Z</time>
      </trkpt>
      <trkpt lat="45.47427" lon="6.20936">
        <ele>1062.537109375</ele>
        <time>2010-08-04T17:58:10Z</time>
      </trkpt>
      <trkpt lat="45.4743" lon="6.20935">
        <ele>1062.5910644531</ele>
        <time>2010-08-04T17:58:11Z</time>
      </trkpt>
      <trkpt lat="45.47433" lon="6.2093">
        <ele>1060.529296875</ele>
        <time>2010-08-04T17:58:13Z</time>
      </trkpt>
      <trkpt lat="45.47452" lon="6.20927">
        <ele>1058.2069091797</ele>
        <time>2010-08-04T17:58:17Z</time>
      </trkpt>
      <trkpt lat="45.47429" lon="6.20897">
        <ele>1053.3778076172</ele>
        <time>2010-08-04T17:58:22Z</time>
      </trkpt>
      <trkpt lat="45.47424" lon="6.2089">
        <ele>1055.1087646484</ele>
        <time>2010-08-04T17:58:24Z</time>
      </trkpt>
      <trkpt lat="45.4742" lon="6.20878">
        <ele>1059.6958007812</ele>
        <time>2010-08-04T17:58:28Z</time>
      </trkpt>
      <trkpt lat="45.47427" lon="6.20857">
        <ele>1058.9240722656</ele>
        <time>2010-08-04T17:58:36Z</time>
      </trkpt>
      <trkpt lat="45.4743" lon="6.20834">
        <ele>1061.8806152344</ele>
        <time>2010-08-04T17:58:42Z</time>
      </trkpt>
      <trkpt lat="45.47415" lon="6.20802">
        <ele>1071.2210693359</ele>
        <time>2010-08-04T17:58:49Z</time>
      </trkpt>
      <trkpt lat="45.47406" lon="6.20783">
        <ele>1073.4426269531</ele>
        <time>2010-08-04T17:58:53Z</time>
      </trkpt>
      <trkpt lat="45.47401" lon="6.20767">
        <ele>1074.8494873047</ele>
        <time>2010-08-04T17:58:57Z</time>
      </trkpt>
      <trkpt lat="45.47395" lon="6.20752">
        <ele>1077.1964111328</ele>
        <time>2010-08-04T17:59:02Z</time>
      </trkpt>
      <trkpt lat="45.47395" lon="6.20735">
        <ele>1076.0883789062</ele>
        <time>2010-08-04T17:59:08Z</time>
      </trkpt>
      <trkpt lat="45.47401" lon="6.2071">
        <ele>1071.6320800781</ele>
        <time>2010-08-04T17:59:16Z</time>
      </trkpt>
      <trkpt lat="45.474" lon="6.20692">
        <ele>1070.6810302734</ele>
        <time>2010-08-04T17:59:22Z</time>
      </trkpt>
      <trkpt lat="45.47401" lon="6.20673">
        <ele>1068.9541015625</ele>
        <time>2010-08-04T17:59:29Z</time>
      </trkpt>
      <trkpt lat="45.47401" lon="6.20652">
        <ele>1067.0446777344</ele>
        <time>2010-08-04T17:59:36Z</time>
      </trkpt>
      <trkpt lat="45.47404" lon="6.20634">
        <ele>1063.6986083984</ele>
        <time>2010-08-04T17:59:42Z</time>
      </trkpt>
      <trkpt lat="45.47406" lon="6.20615">
        <ele>1061.1550292969</ele>
        <time>2010-08-04T17:59:48Z</time>
      </trkpt>
      <trkpt lat="45.47408" lon="6.20597">
        <ele>1058.4273681641</ele>
        <time>2010-08-04T17:59:54Z</time>
      </trkpt>
      <trkpt lat="45.47406" lon="6.20584">
        <ele>1057.6188964844</ele>
        <time>2010-08-04T17:59:59Z</time>
      </trkpt>
      <trkpt lat="45.47405" lon="6.20568">
        <ele>1056.9877929688</ele>
        <time>2010-08-04T18:00:04Z</time>
      </trkpt>
      <trkpt lat="45.47401" lon="6.20537">
        <ele>1056.1182861328</ele>
        <time>2010-08-04T18:00:12Z</time>
      </trkpt>
      <trkpt lat="45.47396" lon="6.20509">
        <ele>1057.3256835938</ele>
        <time>2010-08-04T18:00:19Z</time>
      </trkpt>
      <trkpt lat="45.47388" lon="6.20489">
        <ele>1060.8566894531</ele>
        <time>2010-08-04T18:00:26Z</time>
      </trkpt>
      <trkpt lat="45.47387" lon="6.20467">
        <ele>1061.2032470703</ele>
        <time>2010-08-04T18:00:32Z</time>
      </trkpt>
      <trkpt lat="45.47386" lon="6.20464">
        <ele>1061.3470458984</ele>
        <time>2010-08-04T18:00:33Z</time>
      </trkpt>
      <trkpt lat="45.47383" lon="6.20451">
        <ele>1062.4949951172</ele>
        <time>2010-08-04T18:00:38Z</time>
      </trkpt>
      <trkpt lat="45.47382" lon="6.2043">
        <ele>1062.3375244141</ele>
        <time>2010-08-04T18:00:44Z</time>
      </trkpt>
      <trkpt lat="45.47379" lon="6.20424">
        <ele>1062.7982177734</ele>
        <time>2010-08-04T18:00:46Z</time>
      </trkpt>
      <trkpt lat="45.47373" lon="6.20404">
        <ele>1062.3695068359</ele>
        <time>2010-08-04T18:00:53Z</time>
      </trkpt>
      <trkpt lat="45.47367" lon="6.20388">
        <ele>1061.5666503906</ele>
        <time>2010-08-04T18:00:59Z</time>
      </trkpt>
      <trkpt lat="45.47363" lon="6.20379">
        <ele>1060.9967041016</ele>
        <time>2010-08-04T18:01:02Z</time>
      </trkpt>
      <trkpt lat="45.47355" lon="6.20363">
        <ele>1059.4509277344</ele>
        <time>2010-08-04T18:01:09Z</time>
      </trkpt>
      <trkpt lat="45.47352" lon="6.20351">
        <ele>1057.8065185547</ele>
        <time>2010-08-04T18:01:14Z</time>
      </trkpt>
      <trkpt lat="45.47341" lon="6.20337">
        <ele>1056.5517578125</ele>
        <time>2010-08-04T18:01:20Z</time>
      </trkpt>
      <trkpt lat="45.47332" lon="6.20331">
        <ele>1056.8168945312</ele>
        <time>2010-08-04T18:01:24Z</time>
      </trkpt>
      <trkpt lat="45.47323" lon="6.20319">
        <ele>1055.4229736328</ele>
        <time>2010-08-04T18:01:29Z</time>
      </trkpt>
      <trkpt lat="45.4731" lon="6.20307">
        <ele>1054.6779785156</ele>
        <time>2010-08-04T18:01:34Z</time>
      </trkpt>
      <trkpt lat="45.47297" lon="6.20301">
        <ele>1054.8489990234</ele>
        <time>2010-08-04T18:01:40Z</time>
      </trkpt>
      <trkpt lat="45.47286" lon="6.20292">
        <ele>1054.220703125</ele>
        <time>2010-08-04T18:01:46Z</time>
      </trkpt>
      <trkpt lat="45.47284" lon="6.2029">
        <ele>1053.9426269531</ele>
        <time>2010-08-04T18:01:48Z</time>
      </trkpt>
      <trkpt lat="45.47279" lon="6.20286">
        <ele>1053.5717773438</ele>
        <time>2010-08-04T18:01:50Z</time>
      </trkpt>
      <trkpt lat="45.47276" lon="6.2028">
        <ele>1052.8143310547</ele>
        <time>2010-08-04T18:01:54Z</time>
      </trkpt>
      <trkpt lat="45.47269" lon="6.20274">
        <ele>1052.1416015625</ele>
        <time>2010-08-04T18:01:59Z</time>
      </trkpt>
      <trkpt lat="45.47264" lon="6.20264">
        <ele>1050.4044189453</ele>
        <time>2010-08-04T18:02:04Z</time>
      </trkpt>
      <trkpt lat="45.47262" lon="6.20263">
        <ele>1050.205078125</ele>
        <time>2010-08-04T18:02:05Z</time>
      </trkpt>
      <trkpt lat="45.47249" lon="6.20258">
        <ele>1050.0633544922</ele>
        <time>2010-08-04T18:02:11Z</time>
      </trkpt>
      <trkpt lat="45.47241" lon="6.20254">
        <ele>1049.6302490234</ele>
        <time>2010-08-04T18:02:14Z</time>
      </trkpt>
      <trkpt lat="45.47237" lon="6.20253">
        <ele>1049.7537841797</ele>
        <time>2010-08-04T18:02:16Z</time>
      </trkpt>
      <trkpt lat="45.47231" lon="6.20256">
        <ele>1050.7720947266</ele>
        <time>2010-08-04T18:02:22Z</time>
      </trkpt>
      <trkpt lat="45.47222" lon="6.20244">
        <ele>1048.6010742188</ele>
        <time>2010-08-04T18:02:29Z</time>
      </trkpt>
      <trkpt lat="45.47216" lon="6.20235">
        <ele>1046.9858398438</ele>
        <time>2010-08-04T18:02:34Z</time>
      </trkpt>
      <trkpt lat="45.47215" lon="6.20232">
        <ele>1046.6669921875</ele>
        <time>2010-08-04T18:02:36Z</time>
      </trkpt>
      <trkpt lat="45.4721" lon="6.20229">
        <ele>1046.5911865234</ele>
        <time>2010-08-04T18:02:42Z</time>
      </trkpt>
      <trkpt lat="45.47209" lon="6.20228">
        <ele>1046.6845703125</ele>
        <time>2010-08-04T18:02:43Z</time>
      </trkpt>
      <trkpt lat="45.47206" lon="6.20226">
        <ele>1046.7088623047</ele>
        <time>2010-08-04T18:02:46Z</time>
      </trkpt>
      <trkpt lat="45.47195" lon="6.2021">
        <ele>1045.6696777344</ele>
        <time>2010-08-04T18:02:56Z</time>
      </trkpt>
      <trkpt lat="45.47194" lon="6.20212">
        <ele>1046.2462158203</ele>
        <time>2010-08-04T18:03:00Z</time>
      </trkpt>
      <trkpt lat="45.47194" lon="6.20213">
        <ele>1046.3317871094</ele>
        <time>2010-08-04T18:03:06Z</time>
      </trkpt>
      <trkpt lat="45.47197" lon="6.20208">
        <ele>1045.0002441406</ele>
        <time>2010-08-04T18:03:11Z</time>
      </trkpt>
      <trkpt lat="45.47206" lon="6.20183">
        <ele>1039.291015625</ele>
        <time>2010-08-04T18:03:18Z</time>
      </trkpt>
      <trkpt lat="45.47215" lon="6.20162">
        <ele>1034.7326660156</ele>
        <time>2010-08-04T18:03:24Z</time>
      </trkpt>
      <trkpt lat="45.47215" lon="6.20148">
        <ele>1032.7888183594</ele>
        <time>2010-08-04T18:03:28Z</time>
      </trkpt>
      <trkpt lat="45.47214" lon="6.2013">
        <ele>1030.2768554688</ele>
        <time>2010-08-04T18:03:34Z</time>
      </trkpt>
      <trkpt lat="45.47218" lon="6.2011">
        <ele>1026.1804199219</ele>
        <time>2010-08-04T18:03:39Z</time>
      </trkpt>
      <trkpt lat="45.47214" lon="6.20101">
        <ele>1025.7121582031</ele>
        <time>2010-08-04T18:03:43Z</time>
      </trkpt>
      <trkpt lat="45.47211" lon="6.20093">
        <ele>1025.2935791016</ele>
        <time>2010-08-04T18:03:46Z</time>
      </trkpt>
      <trkpt lat="45.47213" lon="6.2008">
        <ele>1022.678894043</ele>
        <time>2010-08-04T18:03:53Z</time>
      </trkpt>
      <trkpt lat="45.47221" lon="6.20067">
        <ele>1019.642578125</ele>
        <time>2010-08-04T18:03:57Z</time>
      </trkpt>
      <trkpt lat="45.47227" lon="6.20039">
        <ele>1016.2700805664</ele>
        <time>2010-08-04T18:04:04Z</time>
      </trkpt>
      <trkpt lat="45.47229" lon="6.20021">
        <ele>1014.5549926758</ele>
        <time>2010-08-04T18:04:09Z</time>
      </trkpt>
      <trkpt lat="45.47228" lon="6.2002">
        <ele>1014.9196166992</ele>
        <time>2010-08-04T18:04:10Z</time>
      </trkpt>
      <trkpt lat="45.47225" lon="6.20011">
        <ele>1015.0723876953</ele>
        <time>2010-08-04T18:04:14Z</time>
      </trkpt>
      <trkpt lat="45.47226" lon="6.1999">
        <ele>1012.1764526367</ele>
        <time>2010-08-04T18:04:22Z</time>
      </trkpt>
      <trkpt lat="45.47227" lon="6.19985">
        <ele>1010.8036499023</ele>
        <time>2010-08-04T18:04:24Z</time>
      </trkpt>
      <trkpt lat="45.47239" lon="6.19963">
        <ele>1004.5942993164</ele>
        <time>2010-08-04T18:04:30Z</time>
      </trkpt>
      <trkpt lat="45.47242" lon="6.19956">
        <ele>1002.8598632812</ele>
        <time>2010-08-04T18:04:32Z</time>
      </trkpt>
      <trkpt lat="45.47253" lon="6.1994">
        <ele>998.00329589844</ele>
        <time>2010-08-04T18:04:37Z</time>
      </trkpt>
      <trkpt lat="45.47264" lon="6.19921">
        <ele>990.7890625</ele>
        <time>2010-08-04T18:04:43Z</time>
      </trkpt>
      <trkpt lat="45.47275" lon="6.19901">
        <ele>983.56439208984</ele>
        <time>2010-08-04T18:04:49Z</time>
      </trkpt>
      <trkpt lat="45.47286" lon="6.19882">
        <ele>977.48577880859</ele>
        <time>2010-08-04T18:04:55Z</time>
      </trkpt>
      <trkpt lat="45.47293" lon="6.19866">
        <ele>973.85754394531</ele>
        <time>2010-08-04T18:05:00Z</time>
      </trkpt>
      <trkpt lat="45.47298" lon="6.19857">
        <ele>971.90380859375</ele>
        <time>2010-08-04T18:05:03Z</time>
      </trkpt>
      <trkpt lat="45.47307" lon="6.19847">
        <ele>969.84417724609</ele>
        <time>2010-08-04T18:05:09Z</time>
      </trkpt>
      <trkpt lat="45.47314" lon="6.19834">
        <ele>967.17077636719</ele>
        <time>2010-08-04T18:05:14Z</time>
      </trkpt>
      <trkpt lat="45.47315" lon="6.1983">
        <ele>966.52307128906</ele>
        <time>2010-08-04T18:05:16Z</time>
      </trkpt>
      <trkpt lat="45.4726" lon="6.19809">
        <ele>961.75372314453</ele>
        <time>2010-08-04T18:05:19Z</time>
      </trkpt>
      <trkpt lat="45.47251" lon="6.19785">
        <ele>943.99896240234</ele>
        <time>2010-08-04T18:05:24Z</time>
      </trkpt>
      <trkpt lat="45.47247" lon="6.19793">
        <ele>949.51513671875</ele>
        <time>2010-08-04T18:05:32Z</time>
      </trkpt>
      <trkpt lat="45.4725" lon="6.19804">
        <ele>958.32238769531</ele>
        <time>2010-08-04T18:05:38Z</time>
      </trkpt>
      <trkpt lat="45.47249" lon="6.19812">
        <ele>961.29656982422</ele>
        <time>2010-08-04T18:05:45Z</time>
      </trkpt>
      <trkpt lat="45.47249" lon="6.19812">
        <ele>961.23492431641</ele>
        <time>2010-08-04T18:05:49Z</time>
      </trkpt>
      <trkpt lat="45.4725" lon="6.19813">
        <ele>961.81597900391</ele>
        <time>2010-08-04T18:05:53Z</time>
      </trkpt>
      <trkpt lat="45.47257" lon="6.19805">
        <ele>960.58941650391</ele>
        <time>2010-08-04T18:05:59Z</time>
      </trkpt>
      <trkpt lat="45.47261" lon="6.19801">
        <ele>958.09967041016</ele>
        <time>2010-08-04T18:06:04Z</time>
      </trkpt>
      <trkpt lat="45.47252" lon="6.1979">
        <ele>948.75048828125</ele>
        <time>2010-08-04T18:06:08Z</time>
      </trkpt>
      <trkpt lat="45.4726" lon="6.19775">
        <ele>941.79504394531</ele>
        <time>2010-08-04T18:06:13Z</time>
      </trkpt>
      <trkpt lat="45.47261" lon="6.19765">
        <ele>938.14007568359</ele>
        <time>2010-08-04T18:06:16Z</time>
      </trkpt>
      <trkpt lat="45.47262" lon="6.1975">
        <ele>931.77905273438</ele>
        <time>2010-08-04T18:06:22Z</time>
      </trkpt>
      <trkpt lat="45.47262" lon="6.19737">
        <ele>926.73236083984</ele>
        <time>2010-08-04T18:06:27Z</time>
      </trkpt>
      <trkpt lat="45.47272" lon="6.19711">
        <ele>920.72821044922</ele>
        <time>2010-08-04T18:06:34Z</time>
      </trkpt>
      <trkpt lat="45.47251" lon="6.19691">
        <ele>925.58227539062</ele>
        <time>2010-08-04T18:06:39Z</time>
      </trkpt>
      <trkpt lat="45.47248" lon="6.19676">
        <ele>930.83154296875</ele>
        <time>2010-08-04T18:06:45Z</time>
      </trkpt>
      <trkpt lat="45.47243" lon="6.19646">
        <ele>939.53717041016</ele>
        <time>2010-08-04T18:06:55Z</time>
      </trkpt>
      <trkpt lat="45.4724" lon="6.19636">
        <ele>941.89520263672</ele>
        <time>2010-08-04T18:06:59Z</time>
      </trkpt>
      <trkpt lat="45.47238" lon="6.19628">
        <ele>942.56848144531</ele>
        <time>2010-08-04T18:07:02Z</time>
      </trkpt>
      <trkpt lat="45.47235" lon="6.1962">
        <ele>943.33172607422</ele>
        <time>2010-08-04T18:07:05Z</time>
      </trkpt>
      <trkpt lat="45.47239" lon="6.19614">
        <ele>942.45922851562</ele>
        <time>2010-08-04T18:07:11Z</time>
      </trkpt>
      <trkpt lat="45.4724" lon="6.19605">
        <ele>941.90997314453</ele>
        <time>2010-08-04T18:07:16Z</time>
      </trkpt>
      <trkpt lat="45.47216" lon="6.19593">
        <ele>946.04321289062</ele>
        <time>2010-08-04T18:07:21Z</time>
      </trkpt>
      <trkpt lat="45.47218" lon="6.19582">
        <ele>944.69366455078</ele>
        <time>2010-08-04T18:07:26Z</time>
      </trkpt>
      <trkpt lat="45.47219" lon="6.19574">
        <ele>943.44909667969</ele>
        <time>2010-08-04T18:07:30Z</time>
      </trkpt>
      <trkpt lat="45.47219" lon="6.19563">
        <ele>942.34191894531</ele>
        <time>2010-08-04T18:07:35Z</time>
      </trkpt>
      <trkpt lat="45.47227" lon="6.19553">
        <ele>940.06945800781</ele>
        <time>2010-08-04T18:07:43Z</time>
      </trkpt>
      <trkpt lat="45.4723" lon="6.19543">
        <ele>938.68756103516</ele>
        <time>2010-08-04T18:07:47Z</time>
      </trkpt>
      <trkpt lat="45.47202" lon="6.1952">
        <ele>939.93701171875</ele>
        <time>2010-08-04T18:07:54Z</time>
      </trkpt>
      <trkpt lat="45.47202" lon="6.19518">
        <ele>939.62542724609</ele>
        <time>2010-08-04T18:07:55Z</time>
      </trkpt>
      <trkpt lat="45.47189" lon="6.1951">
        <ele>940.47473144531</ele>
        <time>2010-08-04T18:07:58Z</time>
      </trkpt>
      <trkpt lat="45.47191" lon="6.19497">
        <ele>938.21563720703</ele>
        <time>2010-08-04T18:08:03Z</time>
      </trkpt>
      <trkpt lat="45.47186" lon="6.19481">
        <ele>936.931640625</ele>
        <time>2010-08-04T18:08:09Z</time>
      </trkpt>
      <trkpt lat="45.47174" lon="6.19468">
        <ele>937.08264160156</ele>
        <time>2010-08-04T18:08:13Z</time>
      </trkpt>
      <trkpt lat="45.4716" lon="6.19454">
        <ele>937.44982910156</ele>
        <time>2010-08-04T18:08:17Z</time>
      </trkpt>
      <trkpt lat="45.47152" lon="6.1944">
        <ele>937.08264160156</ele>
        <time>2010-08-04T18:08:21Z</time>
      </trkpt>
      <trkpt lat="45.4715" lon="6.19422">
        <ele>934.79614257812</ele>
        <time>2010-08-04T18:08:26Z</time>
      </trkpt>
      <trkpt lat="45.47139" lon="6.19402">
        <ele>933.92572021484</ele>
        <time>2010-08-04T18:08:32Z</time>
      </trkpt>
      <trkpt lat="45.47128" lon="6.19387">
        <ele>933.68341064453</ele>
        <time>2010-08-04T18:08:36Z</time>
      </trkpt>
      <trkpt lat="45.47127" lon="6.19375">
        <ele>932.4296875</ele>
        <time>2010-08-04T18:08:41Z</time>
      </trkpt>
      <trkpt lat="45.47131" lon="6.19363">
        <ele>930.40008544922</ele>
        <time>2010-08-04T18:08:46Z</time>
      </trkpt>
      <trkpt lat="45.47131" lon="6.19341">
        <ele>927.27117919922</ele>
        <time>2010-08-04T18:08:52Z</time>
      </trkpt>
      <trkpt lat="45.47134" lon="6.19318">
        <ele>923.48779296875</ele>
        <time>2010-08-04T18:08:58Z</time>
      </trkpt>
      <trkpt lat="45.47144" lon="6.19297">
        <ele>919.09906005859</ele>
        <time>2010-08-04T18:09:04Z</time>
      </trkpt>
      <trkpt lat="45.4716" lon="6.19275">
        <ele>914.3173828125</ele>
        <time>2010-08-04T18:09:11Z</time>
      </trkpt>
      <trkpt lat="45.47168" lon="6.19265">
        <ele>911.96325683594</ele>
        <time>2010-08-04T18:09:15Z</time>
      </trkpt>
      <trkpt lat="45.4717" lon="6.19248">
        <ele>909.51049804688</ele>
        <time>2010-08-04T18:09:20Z</time>
      </trkpt>
      <trkpt lat="45.4717" lon="6.19236">
        <ele>907.75006103516</ele>
        <time>2010-08-04T18:09:25Z</time>
      </trkpt>
      <trkpt lat="45.47172" lon="6.19227">
        <ele>906.53491210938</ele>
        <time>2010-08-04T18:09:28Z</time>
      </trkpt>
      <trkpt lat="45.47163" lon="6.1921">
        <ele>904.52459716797</ele>
        <time>2010-08-04T18:09:33Z</time>
      </trkpt>
      <trkpt lat="45.47153" lon="6.19187">
        <ele>902.02081298828</ele>
        <time>2010-08-04T18:09:39Z</time>
      </trkpt>
      <trkpt lat="45.47147" lon="6.19171">
        <ele>900.23889160156</ele>
        <time>2010-08-04T18:09:43Z</time>
      </trkpt>
      <trkpt lat="45.47139" lon="6.1915">
        <ele>897.59948730469</ele>
        <time>2010-08-04T18:09:49Z</time>
      </trkpt>
      <trkpt lat="45.47137" lon="6.19139">
        <ele>896.14752197266</ele>
        <time>2010-08-04T18:09:53Z</time>
      </trkpt>
      <trkpt lat="45.47144" lon="6.19119">
        <ele>892.88720703125</ele>
        <time>2010-08-04T18:09:59Z</time>
      </trkpt>
      <trkpt lat="45.47144" lon="6.19115">
        <ele>892.29663085938</ele>
        <time>2010-08-04T18:10:00Z</time>
      </trkpt>
      <trkpt lat="45.47141" lon="6.19096">
        <ele>890.18267822266</ele>
        <time>2010-08-04T18:10:05Z</time>
      </trkpt>
      <trkpt lat="45.47145" lon="6.19094">
        <ele>889.51245117188</ele>
        <time>2010-08-04T18:10:07Z</time>
      </trkpt>
      <trkpt lat="45.4716" lon="6.1909">
        <ele>887.64959716797</ele>
        <time>2010-08-04T18:10:13Z</time>
      </trkpt>
      <trkpt lat="45.47178" lon="6.19078">
        <ele>885.31921386719</ele>
        <time>2010-08-04T18:10:19Z</time>
      </trkpt>
      <trkpt lat="45.47198" lon="6.1906">
        <ele>882.78753662109</ele>
        <time>2010-08-04T18:10:25Z</time>
      </trkpt>
      <trkpt lat="45.47211" lon="6.19053">
        <ele>882.32934570312</ele>
        <time>2010-08-04T18:10:28Z</time>
      </trkpt>
      <trkpt lat="45.47228" lon="6.19052">
        <ele>882.42517089844</ele>
        <time>2010-08-04T18:10:32Z</time>
      </trkpt>
      <trkpt lat="45.47235" lon="6.19051">
        <ele>882.06359863281</ele>
        <time>2010-08-04T18:10:37Z</time>
      </trkpt>
      <trkpt lat="45.47236" lon="6.19049">
        <ele>881.91693115234</ele>
        <time>2010-08-04T18:10:38Z</time>
      </trkpt>
      <trkpt lat="45.47235" lon="6.19032">
        <ele>880.37896728516</ele>
        <time>2010-08-04T18:10:45Z</time>
      </trkpt>
      <trkpt lat="45.47236" lon="6.19026">
        <ele>879.763671875</ele>
        <time>2010-08-04T18:10:47Z</time>
      </trkpt>
      <trkpt lat="45.47238" lon="6.1902">
        <ele>878.91223144531</ele>
        <time>2010-08-04T18:10:49Z</time>
      </trkpt>
      <trkpt lat="45.47252" lon="6.19003">
        <ele>876.31195068359</ele>
        <time>2010-08-04T18:10:56Z</time>
      </trkpt>
      <trkpt lat="45.47262" lon="6.18987">
        <ele>872.66424560547</ele>
        <time>2010-08-04T18:11:01Z</time>
      </trkpt>
      <trkpt lat="45.47268" lon="6.18965">
        <ele>867.56628417969</ele>
        <time>2010-08-04T18:11:07Z</time>
      </trkpt>
      <trkpt lat="45.4727" lon="6.18944">
        <ele>862.91162109375</ele>
        <time>2010-08-04T18:11:13Z</time>
      </trkpt>
      <trkpt lat="45.47264" lon="6.18926">
        <ele>860.30529785156</ele>
        <time>2010-08-04T18:11:19Z</time>
      </trkpt>
      <trkpt lat="45.47267" lon="6.18908">
        <ele>857.08361816406</ele>
        <time>2010-08-04T18:11:24Z</time>
      </trkpt>
      <trkpt lat="45.47271" lon="6.18894">
        <ele>855.12933349609</ele>
        <time>2010-08-04T18:11:27Z</time>
      </trkpt>
      <trkpt lat="45.47277" lon="6.18864">
        <ele>852.24395751953</ele>
        <time>2010-08-04T18:11:34Z</time>
      </trkpt>
      <trkpt lat="45.47284" lon="6.18844">
        <ele>849.15728759766</ele>
        <time>2010-08-04T18:11:39Z</time>
      </trkpt>
      <trkpt lat="45.47281" lon="6.18827">
        <ele>847.78051757812</ele>
        <time>2010-08-04T18:11:43Z</time>
      </trkpt>
      <trkpt lat="45.47283" lon="6.18809">
        <ele>845.17419433594</ele>
        <time>2010-08-04T18:11:47Z</time>
      </trkpt>
      <trkpt lat="45.47287" lon="6.18787">
        <ele>842.0791015625</ele>
        <time>2010-08-04T18:11:52Z</time>
      </trkpt>
      <trkpt lat="45.47266" lon="6.18755">
        <ele>840.93701171875</ele>
        <time>2010-08-04T18:11:57Z</time>
      </trkpt>
      <trkpt lat="45.47262" lon="6.18741">
        <ele>839.32513427734</ele>
        <time>2010-08-04T18:11:59Z</time>
      </trkpt>
      <trkpt lat="45.47266" lon="6.18714">
        <ele>835.30139160156</ele>
        <time>2010-08-04T18:12:04Z</time>
      </trkpt>
      <trkpt lat="45.47271" lon="6.18704">
        <ele>833.56420898438</ele>
        <time>2010-08-04T18:12:07Z</time>
      </trkpt>
      <trkpt lat="45.47278" lon="6.18678">
        <ele>829.57385253906</ele>
        <time>2010-08-04T18:12:13Z</time>
      </trkpt>
      <trkpt lat="45.47281" lon="6.18648">
        <ele>825.81408691406</ele>
        <time>2010-08-04T18:12:19Z</time>
      </trkpt>
      <trkpt lat="45.47291" lon="6.18627">
        <ele>822.76977539062</ele>
        <time>2010-08-04T18:12:24Z</time>
      </trkpt>
      <trkpt lat="45.47294" lon="6.18618">
        <ele>821.74761962891</ele>
        <time>2010-08-04T18:12:28Z</time>
      </trkpt>
      <trkpt lat="45.47295" lon="6.18615">
        <ele>821.35046386719</ele>
        <time>2010-08-04T18:12:30Z</time>
      </trkpt>
      <trkpt lat="45.47305" lon="6.18599">
        <ele>819.31573486328</ele>
        <time>2010-08-04T18:12:36Z</time>
      </trkpt>
      <trkpt lat="45.47309" lon="6.1859">
        <ele>817.76190185547</ele>
        <time>2010-08-04T18:12:39Z</time>
      </trkpt>
      <trkpt lat="45.47314" lon="6.18562">
        <ele>811.78552246094</ele>
        <time>2010-08-04T18:12:46Z</time>
      </trkpt>
      <trkpt lat="45.47323" lon="6.18549">
        <ele>808.54144287109</ele>
        <time>2010-08-04T18:12:50Z</time>
      </trkpt>
      <trkpt lat="45.47331" lon="6.18535">
        <ele>805.50134277344</ele>
        <time>2010-08-04T18:12:54Z</time>
      </trkpt>
      <trkpt lat="45.47347" lon="6.18516">
        <ele>803.07354736328</ele>
        <time>2010-08-04T18:13:00Z</time>
      </trkpt>
      <trkpt lat="45.47354" lon="6.18508">
        <ele>802.11700439453</ele>
        <time>2010-08-04T18:13:05Z</time>
      </trkpt>
      <trkpt lat="45.47355" lon="6.18505">
        <ele>801.64385986328</ele>
        <time>2010-08-04T18:13:08Z</time>
      </trkpt>
      <trkpt lat="45.47354" lon="6.18499">
        <ele>800.61572265625</ele>
        <time>2010-08-04T18:13:16Z</time>
      </trkpt>
      <trkpt lat="45.47357" lon="6.18496">
        <ele>800.37023925781</ele>
        <time>2010-08-04T18:13:19Z</time>
      </trkpt>
      <trkpt lat="45.47366" lon="6.18488">
        <ele>799.84497070312</ele>
        <time>2010-08-04T18:13:27Z</time>
      </trkpt>
      <trkpt lat="45.47375" lon="6.18482">
        <ele>799.55999755859</ele>
        <time>2010-08-04T18:13:34Z</time>
      </trkpt>
      <trkpt lat="45.47381" lon="6.18477">
        <ele>799.20471191406</ele>
        <time>2010-08-04T18:13:37Z</time>
      </trkpt>
      <trkpt lat="45.47385" lon="6.18476">
        <ele>799.25964355469</ele>
        <time>2010-08-04T18:13:41Z</time>
      </trkpt>
      <trkpt lat="45.47392" lon="6.18479">
        <ele>799.87585449219</ele>
        <time>2010-08-04T18:13:47Z</time>
      </trkpt>
      <trkpt lat="45.47398" lon="6.18484">
        <ele>800.58142089844</ele>
        <time>2010-08-04T18:13:53Z</time>
      </trkpt>
      <trkpt lat="45.47399" lon="6.18484">
        <ele>800.68096923828</ele>
        <time>2010-08-04T18:13:54Z</time>
      </trkpt>
      <trkpt lat="45.47401" lon="6.18484">
        <ele>800.75823974609</ele>
        <time>2010-08-04T18:13:56Z</time>
      </trkpt>
      <trkpt lat="45.47402" lon="6.1848">
        <ele>800.31188964844</ele>
        <time>2010-08-04T18:14:00Z</time>
      </trkpt>
      <trkpt lat="45.47401" lon="6.18477">
        <ele>799.89477539062</ele>
        <time>2010-08-04T18:14:08Z</time>
      </trkpt>
      <trkpt lat="45.474" lon="6.18477">
        <ele>799.94281005859</ele>
        <time>2010-08-04T18:14:10Z</time>
      </trkpt>
      <trkpt lat="45.47401" lon="6.18475">
        <ele>799.73681640625</ele>
        <time>2010-08-04T18:20:17Z</time>
      </trkpt>
      <trkpt lat="45.47403" lon="6.18472">
        <ele>799.53253173828</ele>
        <time>2010-08-04T18:20:18Z</time>
      </trkpt>
      <trkpt lat="45.47403" lon="6.18466">
        <ele>799.41156005859</ele>
        <time>2010-08-04T18:20:20Z</time>
      </trkpt>
      <trkpt lat="45.47403" lon="6.18459">
        <ele>799.26513671875</ele>
        <time>2010-08-04T18:20:25Z</time>
      </trkpt>
      <trkpt lat="45.47398" lon="6.18446">
        <ele>799.02081298828</ele>
        <time>2010-08-04T18:20:31Z</time>
      </trkpt>
      <trkpt lat="45.47387" lon="6.18431">
        <ele>798.35955810547</ele>
        <time>2010-08-04T18:20:37Z</time>
      </trkpt>
      <trkpt lat="45.47376" lon="6.18417">
        <ele>797.09094238281</ele>
        <time>2010-08-04T18:20:43Z</time>
      </trkpt>
      <trkpt lat="45.47356" lon="6.18401">
        <ele>793.48577880859</ele>
        <time>2010-08-04T18:20:52Z</time>
      </trkpt>
      <trkpt lat="45.47338" lon="6.18403">
        <ele>788.85504150391</ele>
        <time>2010-08-04T18:20:59Z</time>
      </trkpt>
      <trkpt lat="45.47322" lon="6.18408">
        <ele>786.57824707031</ele>
        <time>2010-08-04T18:21:06Z</time>
      </trkpt>
      <trkpt lat="45.47301" lon="6.18407">
        <ele>785.04516601562</ele>
        <time>2010-08-04T18:21:14Z</time>
      </trkpt>
      <trkpt lat="45.47282" lon="6.184">
        <ele>786.69696044922</ele>
        <time>2010-08-04T18:21:21Z</time>
      </trkpt>
      <trkpt lat="45.47259" lon="6.18382">
        <ele>785.39569091797</ele>
        <time>2010-08-04T18:21:31Z</time>
      </trkpt>
      <trkpt lat="45.47244" lon="6.18374">
        <ele>783.97625732422</ele>
        <time>2010-08-04T18:21:37Z</time>
      </trkpt>
      <trkpt lat="45.47231" lon="6.18368">
        <ele>782.97540283203</ele>
        <time>2010-08-04T18:21:43Z</time>
      </trkpt>
      <trkpt lat="45.47214" lon="6.18359">
        <ele>782.04052734375</ele>
        <time>2010-08-04T18:21:51Z</time>
      </trkpt>
      <trkpt lat="45.47193" lon="6.18351">
        <ele>781.58142089844</ele>
        <time>2010-08-04T18:21:58Z</time>
      </trkpt>
      <trkpt lat="45.47178" lon="6.18342">
        <ele>780.90844726562</ele>
        <time>2010-08-04T18:22:05Z</time>
      </trkpt>
      <trkpt lat="45.47156" lon="6.18331">
        <ele>779.70959472656</ele>
        <time>2010-08-04T18:22:14Z</time>
      </trkpt>
      <trkpt lat="45.47134" lon="6.18316">
        <ele>777.44659423828</ele>
        <time>2010-08-04T18:22:23Z</time>
      </trkpt>
      <trkpt lat="45.47114" lon="6.18296">
        <ele>774.64508056641</ele>
        <time>2010-08-04T18:22:32Z</time>
      </trkpt>
      <trkpt lat="45.47091" lon="6.18282">
        <ele>768.10015869141</ele>
        <time>2010-08-04T18:22:41Z</time>
      </trkpt>
      <trkpt lat="45.47079" lon="6.18277">
        <ele>763.94445800781</ele>
        <time>2010-08-04T18:22:46Z</time>
      </trkpt>
      <trkpt lat="45.47064" lon="6.18282">
        <ele>757.24389648438</ele>
        <time>2010-08-04T18:22:51Z</time>
      </trkpt>
      <trkpt lat="45.4705" lon="6.18301">
        <ele>753.23291015625</ele>
        <time>2010-08-04T18:22:57Z</time>
      </trkpt>
      <trkpt lat="45.47042" lon="6.18325">
        <ele>753.56475830078</ele>
        <time>2010-08-04T18:23:04Z</time>
      </trkpt>
      <trkpt lat="45.47033" lon="6.18356">
        <ele>754.34887695312</ele>
        <time>2010-08-04T18:23:11Z</time>
      </trkpt>
      <trkpt lat="45.47024" lon="6.18375">
        <ele>754.53002929688</ele>
        <time>2010-08-04T18:23:16Z</time>
      </trkpt>
      <trkpt lat="45.47005" lon="6.18391">
        <ele>753.6416015625</ele>
        <time>2010-08-04T18:23:22Z</time>
      </trkpt>
      <trkpt lat="45.46985" lon="6.18405">
        <ele>754.15374755859</ele>
        <time>2010-08-04T18:23:28Z</time>
      </trkpt>
      <trkpt lat="45.46973" lon="6.18419">
        <ele>755.27667236328</ele>
        <time>2010-08-04T18:23:33Z</time>
      </trkpt>
      <trkpt lat="45.46958" lon="6.1843">
        <ele>762.05426025391</ele>
        <time>2010-08-04T18:23:37Z</time>
      </trkpt>
      <trkpt lat="45.46949" lon="6.18434">
        <ele>765.89428710938</ele>
        <time>2010-08-04T18:23:42Z</time>
      </trkpt>
      <trkpt lat="45.46933" lon="6.18419">
        <ele>769.599609375</ele>
        <time>2010-08-04T18:23:48Z</time>
      </trkpt>
      <trkpt lat="45.4693" lon="6.18405">
        <ele>768.51745605469</ele>
        <time>2010-08-04T18:23:53Z</time>
      </trkpt>
      <trkpt lat="45.46925" lon="6.18386">
        <ele>766.61657714844</ele>
        <time>2010-08-04T18:23:58Z</time>
      </trkpt>
      <trkpt lat="45.46914" lon="6.18367">
        <ele>764.91827392578</ele>
        <time>2010-08-04T18:24:04Z</time>
      </trkpt>
      <trkpt lat="45.46902" lon="6.18357">
        <ele>765.37377929688</ele>
        <time>2010-08-04T18:24:09Z</time>
      </trkpt>
      <trkpt lat="45.46889" lon="6.18343">
        <ele>765.72912597656</ele>
        <time>2010-08-04T18:24:15Z</time>
      </trkpt>
      <trkpt lat="45.46875" lon="6.18325">
        <ele>765.49389648438</ele>
        <time>2010-08-04T18:24:22Z</time>
      </trkpt>
      <trkpt lat="45.46867" lon="6.1831">
        <ele>764.67083740234</ele>
        <time>2010-08-04T18:24:27Z</time>
      </trkpt>
      <trkpt lat="45.46858" lon="6.1829">
        <ele>763.47534179688</ele>
        <time>2010-08-04T18:24:33Z</time>
      </trkpt>
      <trkpt lat="45.46849" lon="6.18272">
        <ele>763.15783691406</ele>
        <time>2010-08-04T18:24:38Z</time>
      </trkpt>
      <trkpt lat="45.46843" lon="6.18265">
        <ele>763.67199707031</ele>
        <time>2010-08-04T18:24:41Z</time>
      </trkpt>
      <trkpt lat="45.46829" lon="6.18245">
        <ele>763.69372558594</ele>
        <time>2010-08-04T18:24:48Z</time>
      </trkpt>
      <trkpt lat="45.4682" lon="6.18226">
        <ele>761.92907714844</ele>
        <time>2010-08-04T18:24:54Z</time>
      </trkpt>
      <trkpt lat="45.46814" lon="6.1821">
        <ele>760.57977294922</ele>
        <time>2010-08-04T18:24:59Z</time>
      </trkpt>
      <trkpt lat="45.46813" lon="6.18191">
        <ele>758.35870361328</ele>
        <time>2010-08-04T18:25:04Z</time>
      </trkpt>
      <trkpt lat="45.46812" lon="6.18151">
        <ele>752.2216796875</ele>
        <time>2010-08-04T18:25:10Z</time>
      </trkpt>
      <trkpt lat="45.46812" lon="6.18146">
        <ele>751.29302978516</ele>
        <time>2010-08-04T18:25:11Z</time>
      </trkpt>
      <trkpt lat="45.46815" lon="6.18114">
        <ele>746.28106689453</ele>
        <time>2010-08-04T18:25:16Z</time>
      </trkpt>
      <trkpt lat="45.46817" lon="6.18094">
        <ele>743.08367919922</ele>
        <time>2010-08-04T18:25:22Z</time>
      </trkpt>
      <trkpt lat="45.46813" lon="6.18085">
        <ele>743.52465820312</ele>
        <time>2010-08-04T18:25:25Z</time>
      </trkpt>
      <trkpt lat="45.4681" lon="6.18087">
        <ele>744.86206054688</ele>
        <time>2010-08-04T18:25:27Z</time>
      </trkpt>
      <trkpt lat="45.46796" lon="6.18076">
        <ele>746.02917480469</ele>
        <time>2010-08-04T18:25:33Z</time>
      </trkpt>
      <trkpt lat="45.46788" lon="6.18056">
        <ele>744.68048095703</ele>
        <time>2010-08-04T18:25:39Z</time>
      </trkpt>
      <trkpt lat="45.46786" lon="6.18055">
        <ele>744.76806640625</ele>
        <time>2010-08-04T18:25:43Z</time>
      </trkpt>
    </trkseg>
  </trk>
</gpx>